<?xml version="1.0" encoding="UTF-8" standalone="no" ?>
<gpx xmlns="http://www.topografix.com/GPX/1/1" xmlns:xsi="http://www.w3.org/2001/XMLSchema-instance" xsi:schemaLocation="http://www.topografix.com/GPX/1/1 http://www.topografix.com/GPX/1/1/gpx.xsd" version="1.1" creator="VisuGPX - https://www.visugpx.com">
  <metadata>
    <name>Pornichet 29/05/2022</name>
    <desc><![CDATA[Sortie dimanche 29 mai 2022 ]]></desc>
  </metadata>
  <trk>
    <name><![CDATA[Pornichet Cyclisme]]></name>
    <trkseg>
      <trkpt lat="47.26379" lon="-2.31639">
        <ele>8.6</ele>
        <time>2022-05-29T06:56:11.000Z</time>
      </trkpt>
      <trkpt lat="47.26372" lon="-2.3166">
        <ele>8.1</ele>
        <time>2022-05-29T06:56:14.000Z</time>
      </trkpt>
      <trkpt lat="47.26373" lon="-2.31665">
        <ele>8</ele>
        <time>2022-05-29T06:56:15.000Z</time>
      </trkpt>
      <trkpt lat="47.26376" lon="-2.31682">
        <ele>7.5</ele>
        <time>2022-05-29T06:56:18.000Z</time>
      </trkpt>
      <trkpt lat="47.26376" lon="-2.31695">
        <ele>7</ele>
        <time>2022-05-29T06:56:21.000Z</time>
      </trkpt>
      <trkpt lat="47.26362" lon="-2.31704">
        <ele>6.7</ele>
        <time>2022-05-29T06:56:25.000Z</time>
      </trkpt>
      <trkpt lat="47.2634" lon="-2.31717">
        <ele>6</ele>
        <time>2022-05-29T06:56:29.000Z</time>
      </trkpt>
      <trkpt lat="47.26324" lon="-2.31725">
        <ele>-0.40000000596046</ele>
        <time>2022-05-29T06:56:32.000Z</time>
      </trkpt>
      <trkpt lat="47.26319" lon="-2.31728">
        <ele>-0.80000001192093</ele>
        <time>2022-05-29T06:56:33.000Z</time>
      </trkpt>
      <trkpt lat="47.26313" lon="-2.31731">
        <ele>-1.6000000238419</ele>
        <time>2022-05-29T06:56:34.000Z</time>
      </trkpt>
      <trkpt lat="47.26307" lon="-2.31734">
        <ele>-2</ele>
        <time>2022-05-29T06:56:35.000Z</time>
      </trkpt>
      <trkpt lat="47.263" lon="-2.31736">
        <ele>-2</ele>
        <time>2022-05-29T06:56:36.000Z</time>
      </trkpt>
      <trkpt lat="47.26272" lon="-2.3175">
        <ele>-2.4000000953674</ele>
        <time>2022-05-29T06:56:41.000Z</time>
      </trkpt>
      <trkpt lat="47.26268" lon="-2.31755">
        <ele>-2.7999999523163</ele>
        <time>2022-05-29T06:56:42.000Z</time>
      </trkpt>
      <trkpt lat="47.26265" lon="-2.3176">
        <ele>-3.2000000476837</ele>
        <time>2022-05-29T06:56:43.000Z</time>
      </trkpt>
      <trkpt lat="47.26264" lon="-2.31766">
        <ele>-3.7999999523163</ele>
        <time>2022-05-29T06:56:44.000Z</time>
      </trkpt>
      <trkpt lat="47.26264" lon="-2.31772">
        <ele>-4.1999998092651</ele>
        <time>2022-05-29T06:56:45.000Z</time>
      </trkpt>
      <trkpt lat="47.26266" lon="-2.31791">
        <ele>-4.1999998092651</ele>
        <time>2022-05-29T06:56:48.000Z</time>
      </trkpt>
      <trkpt lat="47.26267" lon="-2.31805">
        <ele>-4.1999998092651</ele>
        <time>2022-05-29T06:56:50.000Z</time>
      </trkpt>
      <trkpt lat="47.26268" lon="-2.31831">
        <ele>-4.1999998092651</ele>
        <time>2022-05-29T06:56:54.000Z</time>
      </trkpt>
      <trkpt lat="47.26268" lon="-2.31844">
        <ele>-4.1999998092651</ele>
        <time>2022-05-29T06:56:56.000Z</time>
      </trkpt>
      <trkpt lat="47.26266" lon="-2.31887">
        <ele>-4.1999998092651</ele>
        <time>2022-05-29T06:57:02.000Z</time>
      </trkpt>
      <trkpt lat="47.26266" lon="-2.31893">
        <ele>-4.1999998092651</ele>
        <time>2022-05-29T06:57:03.000Z</time>
      </trkpt>
      <trkpt lat="47.26263" lon="-2.31909">
        <ele>-4.1999998092651</ele>
        <time>2022-05-29T06:57:06.000Z</time>
      </trkpt>
      <trkpt lat="47.26254" lon="-2.31919">
        <ele>-4.1999998092651</ele>
        <time>2022-05-29T06:57:09.000Z</time>
      </trkpt>
      <trkpt lat="47.26251" lon="-2.31923">
        <ele>-4.1999998092651</ele>
        <time>2022-05-29T06:57:10.000Z</time>
      </trkpt>
      <trkpt lat="47.26227" lon="-2.31956">
        <ele>-4.1999998092651</ele>
        <time>2022-05-29T06:57:17.000Z</time>
      </trkpt>
      <trkpt lat="47.26214" lon="-2.31981">
        <ele>-4.1999998092651</ele>
        <time>2022-05-29T06:57:22.000Z</time>
      </trkpt>
      <trkpt lat="47.26211" lon="-2.31984">
        <ele>-4.1999998092651</ele>
        <time>2022-05-29T06:57:23.000Z</time>
      </trkpt>
      <trkpt lat="47.26205" lon="-2.31987">
        <ele>-4.1999998092651</ele>
        <time>2022-05-29T06:57:25.000Z</time>
      </trkpt>
      <trkpt lat="47.26193" lon="-2.31996">
        <ele>-4.1999998092651</ele>
        <time>2022-05-29T06:57:29.000Z</time>
      </trkpt>
      <trkpt lat="47.26177" lon="-2.32013">
        <ele>-4.1999998092651</ele>
        <time>2022-05-29T06:57:35.000Z</time>
      </trkpt>
      <trkpt lat="47.26175" lon="-2.32016">
        <ele>-4.5999999046326</ele>
        <time>2022-05-29T06:57:36.000Z</time>
      </trkpt>
      <trkpt lat="47.26173" lon="-2.3202">
        <ele>-5</ele>
        <time>2022-05-29T06:57:37.000Z</time>
      </trkpt>
      <trkpt lat="47.26172" lon="-2.32024">
        <ele>-5.4000000953674</ele>
        <time>2022-05-29T06:57:38.000Z</time>
      </trkpt>
      <trkpt lat="47.2617" lon="-2.32027">
        <ele>-5.8000001907349</ele>
        <time>2022-05-29T06:57:39.000Z</time>
      </trkpt>
      <trkpt lat="47.26168" lon="-2.3203">
        <ele>-6.1999998092651</ele>
        <time>2022-05-29T06:57:40.000Z</time>
      </trkpt>
      <trkpt lat="47.26158" lon="-2.3203">
        <ele>-6.1999998092651</ele>
        <time>2022-05-29T06:57:44.000Z</time>
      </trkpt>
      <trkpt lat="47.26145" lon="-2.32035">
        <ele>-6.1999998092651</ele>
        <time>2022-05-29T06:57:48.000Z</time>
      </trkpt>
      <trkpt lat="47.26137" lon="-2.32041">
        <ele>-6.1999998092651</ele>
        <time>2022-05-29T06:57:49.000Z</time>
      </trkpt>
      <trkpt lat="47.26133" lon="-2.32046">
        <ele>-6.1999998092651</ele>
        <time>2022-05-29T06:57:51.000Z</time>
      </trkpt>
      <trkpt lat="47.26129" lon="-2.32051">
        <ele>-6.1999998092651</ele>
        <time>2022-05-29T06:57:52.000Z</time>
      </trkpt>
      <trkpt lat="47.26118" lon="-2.32078">
        <ele>-6.1999998092651</ele>
        <time>2022-05-29T06:57:56.000Z</time>
      </trkpt>
      <trkpt lat="47.26113" lon="-2.32091">
        <ele>-6.1999998092651</ele>
        <time>2022-05-29T06:57:58.000Z</time>
      </trkpt>
      <trkpt lat="47.26107" lon="-2.32113">
        <ele>-6.1999998092651</ele>
        <time>2022-05-29T06:58:01.000Z</time>
      </trkpt>
      <trkpt lat="47.261" lon="-2.32155">
        <ele>-6.1999998092651</ele>
        <time>2022-05-29T06:58:08.000Z</time>
      </trkpt>
      <trkpt lat="47.26093" lon="-2.32179">
        <ele>-6.1999998092651</ele>
        <time>2022-05-29T06:58:12.000Z</time>
      </trkpt>
      <trkpt lat="47.26089" lon="-2.3219">
        <ele>-6.1999998092651</ele>
        <time>2022-05-29T06:58:14.000Z</time>
      </trkpt>
      <trkpt lat="47.26079" lon="-2.32214">
        <ele>-6.1999998092651</ele>
        <time>2022-05-29T06:58:18.000Z</time>
      </trkpt>
      <trkpt lat="47.26073" lon="-2.32223">
        <ele>-6.1999998092651</ele>
        <time>2022-05-29T06:58:20.000Z</time>
      </trkpt>
      <trkpt lat="47.26049" lon="-2.32255">
        <ele>-6.1999998092651</ele>
        <time>2022-05-29T06:58:27.000Z</time>
      </trkpt>
      <trkpt lat="47.26022" lon="-2.32289">
        <ele>-6.1999998092651</ele>
        <time>2022-05-29T06:58:34.000Z</time>
      </trkpt>
      <trkpt lat="47.25989" lon="-2.32329">
        <ele>-6.1999998092651</ele>
        <time>2022-05-29T06:58:42.000Z</time>
      </trkpt>
      <trkpt lat="47.25961" lon="-2.32368">
        <ele>-6.1999998092651</ele>
        <time>2022-05-29T06:58:49.000Z</time>
      </trkpt>
      <trkpt lat="47.25953" lon="-2.32379">
        <ele>-6.1999998092651</ele>
        <time>2022-05-29T06:58:51.000Z</time>
      </trkpt>
      <trkpt lat="47.25929" lon="-2.3241">
        <ele>-6.1999998092651</ele>
        <time>2022-05-29T06:58:57.000Z</time>
      </trkpt>
      <trkpt lat="47.259" lon="-2.32444">
        <ele>-6.1999998092651</ele>
        <time>2022-05-29T06:59:05.000Z</time>
      </trkpt>
      <trkpt lat="47.25893" lon="-2.32451">
        <ele>-6.1999998092651</ele>
        <time>2022-05-29T06:59:07.000Z</time>
      </trkpt>
      <trkpt lat="47.25886" lon="-2.32456">
        <ele>-5.8000001907349</ele>
        <time>2022-05-29T06:59:09.000Z</time>
      </trkpt>
      <trkpt lat="47.25882" lon="-2.32458">
        <ele>-5.4000000953674</ele>
        <time>2022-05-29T06:59:10.000Z</time>
      </trkpt>
      <trkpt lat="47.25878" lon="-2.32459">
        <ele>-5</ele>
        <time>2022-05-29T06:59:11.000Z</time>
      </trkpt>
      <trkpt lat="47.25873" lon="-2.3246">
        <ele>-4.5999999046326</ele>
        <time>2022-05-29T06:59:12.000Z</time>
      </trkpt>
      <trkpt lat="47.25868" lon="-2.32461">
        <ele>-4.1999998092651</ele>
        <time>2022-05-29T06:59:13.000Z</time>
      </trkpt>
      <trkpt lat="47.25858" lon="-2.32462">
        <ele>-4.1999998092651</ele>
        <time>2022-05-29T06:59:15.000Z</time>
      </trkpt>
      <trkpt lat="47.25837" lon="-2.32459">
        <ele>-4.1999998092651</ele>
        <time>2022-05-29T06:59:19.000Z</time>
      </trkpt>
      <trkpt lat="47.25832" lon="-2.32457">
        <ele>-4.1999998092651</ele>
        <time>2022-05-29T06:59:20.000Z</time>
      </trkpt>
      <trkpt lat="47.25801" lon="-2.32444">
        <ele>-4.1999998092651</ele>
        <time>2022-05-29T06:59:26.000Z</time>
      </trkpt>
      <trkpt lat="47.25796" lon="-2.32443">
        <ele>-4.1999998092651</ele>
        <time>2022-05-29T06:59:27.000Z</time>
      </trkpt>
      <trkpt lat="47.25779" lon="-2.32438">
        <ele>-4.1999998092651</ele>
        <time>2022-05-29T06:59:31.000Z</time>
      </trkpt>
      <trkpt lat="47.25775" lon="-2.32433">
        <ele>-3.7999999523163</ele>
        <time>2022-05-29T06:59:32.000Z</time>
      </trkpt>
      <trkpt lat="47.25772" lon="-2.32427">
        <ele>-3.4000000953674</ele>
        <time>2022-05-29T06:59:33.000Z</time>
      </trkpt>
      <trkpt lat="47.25769" lon="-2.32421">
        <ele>-3</ele>
        <time>2022-05-29T06:59:34.000Z</time>
      </trkpt>
      <trkpt lat="47.25766" lon="-2.32416">
        <ele>-2.5999999046326</ele>
        <time>2022-05-29T06:59:35.000Z</time>
      </trkpt>
      <trkpt lat="47.25762" lon="-2.32413">
        <ele>-2.2000000476837</ele>
        <time>2022-05-29T06:59:36.000Z</time>
      </trkpt>
      <trkpt lat="47.25751" lon="-2.32412">
        <ele>-2.2000000476837</ele>
        <time>2022-05-29T06:59:38.000Z</time>
      </trkpt>
      <trkpt lat="47.25716" lon="-2.32408">
        <ele>-2.2000000476837</ele>
        <time>2022-05-29T06:59:44.000Z</time>
      </trkpt>
      <trkpt lat="47.25679" lon="-2.32404">
        <ele>-2.2000000476837</ele>
        <time>2022-05-29T06:59:51.000Z</time>
      </trkpt>
      <trkpt lat="47.25665" lon="-2.32406">
        <ele>-2.2000000476837</ele>
        <time>2022-05-29T06:59:54.000Z</time>
      </trkpt>
      <trkpt lat="47.25662" lon="-2.3241">
        <ele>-2.2000000476837</ele>
        <time>2022-05-29T06:59:55.000Z</time>
      </trkpt>
      <trkpt lat="47.25662" lon="-2.32429">
        <ele>-2.2000000476837</ele>
        <time>2022-05-29T06:59:58.000Z</time>
      </trkpt>
      <trkpt lat="47.25665" lon="-2.32442">
        <ele>-2.2000000476837</ele>
        <time>2022-05-29T07:00:00.000Z</time>
      </trkpt>
      <trkpt lat="47.25671" lon="-2.3246">
        <ele>-2.2000000476837</ele>
        <time>2022-05-29T07:00:03.000Z</time>
      </trkpt>
      <trkpt lat="47.25673" lon="-2.32466">
        <ele>-2.2000000476837</ele>
        <time>2022-05-29T07:00:04.000Z</time>
      </trkpt>
      <trkpt lat="47.25679" lon="-2.32484">
        <ele>-1.7999999523163</ele>
        <time>2022-05-29T07:00:07.000Z</time>
      </trkpt>
      <trkpt lat="47.25681" lon="-2.3249">
        <ele>-1.3999999761581</ele>
        <time>2022-05-29T07:00:08.000Z</time>
      </trkpt>
      <trkpt lat="47.25683" lon="-2.32496">
        <ele>-1</ele>
        <time>2022-05-29T07:00:09.000Z</time>
      </trkpt>
      <trkpt lat="47.25684" lon="-2.32502">
        <ele>-0.60000002384186</ele>
        <time>2022-05-29T07:00:10.000Z</time>
      </trkpt>
      <trkpt lat="47.25686" lon="-2.32508">
        <ele>-0.20000000298023</ele>
        <time>2022-05-29T07:00:11.000Z</time>
      </trkpt>
      <trkpt lat="47.25697" lon="-2.32541">
        <ele>0.20000000298023</ele>
        <time>2022-05-29T07:00:17.000Z</time>
      </trkpt>
      <trkpt lat="47.25698" lon="-2.32547">
        <ele>0.60000002384186</ele>
        <time>2022-05-29T07:00:18.000Z</time>
      </trkpt>
      <trkpt lat="47.257" lon="-2.32552">
        <ele>1.2000000476837</ele>
        <time>2022-05-29T07:00:19.000Z</time>
      </trkpt>
      <trkpt lat="47.25702" lon="-2.32558">
        <ele>1.6000000238419</ele>
        <time>2022-05-29T07:00:20.000Z</time>
      </trkpt>
      <trkpt lat="47.25704" lon="-2.32564">
        <ele>2</ele>
        <time>2022-05-29T07:00:21.000Z</time>
      </trkpt>
      <trkpt lat="47.25708" lon="-2.32589">
        <ele>2</ele>
        <time>2022-05-29T07:00:25.000Z</time>
      </trkpt>
      <trkpt lat="47.25701" lon="-2.32605">
        <ele>2</ele>
        <time>2022-05-29T07:00:28.000Z</time>
      </trkpt>
      <trkpt lat="47.25697" lon="-2.32608">
        <ele>2.4000000953674</ele>
        <time>2022-05-29T07:00:29.000Z</time>
      </trkpt>
      <trkpt lat="47.25693" lon="-2.3261">
        <ele>3</ele>
        <time>2022-05-29T07:00:30.000Z</time>
      </trkpt>
      <trkpt lat="47.25689" lon="-2.32612">
        <ele>3.4000000953674</ele>
        <time>2022-05-29T07:00:31.000Z</time>
      </trkpt>
      <trkpt lat="47.25685" lon="-2.32614">
        <ele>3.7999999523163</ele>
        <time>2022-05-29T07:00:32.000Z</time>
      </trkpt>
      <trkpt lat="47.25681" lon="-2.32615">
        <ele>4.1999998092651</ele>
        <time>2022-05-29T07:00:33.000Z</time>
      </trkpt>
      <trkpt lat="47.25648" lon="-2.3263">
        <ele>4.5999999046326</ele>
        <time>2022-05-29T07:00:41.000Z</time>
      </trkpt>
      <trkpt lat="47.25644" lon="-2.32632">
        <ele>5</ele>
        <time>2022-05-29T07:00:42.000Z</time>
      </trkpt>
      <trkpt lat="47.25641" lon="-2.32634">
        <ele>5.4000000953674</ele>
        <time>2022-05-29T07:00:43.000Z</time>
      </trkpt>
      <trkpt lat="47.25637" lon="-2.32636">
        <ele>6</ele>
        <time>2022-05-29T07:00:44.000Z</time>
      </trkpt>
      <trkpt lat="47.25632" lon="-2.32638">
        <ele>6.4000000953674</ele>
        <time>2022-05-29T07:00:45.000Z</time>
      </trkpt>
      <trkpt lat="47.25624" lon="-2.32641">
        <ele>6.4000000953674</ele>
        <time>2022-05-29T07:00:47.000Z</time>
      </trkpt>
      <trkpt lat="47.25588" lon="-2.32657">
        <ele>6.4000000953674</ele>
        <time>2022-05-29T07:00:56.000Z</time>
      </trkpt>
      <trkpt lat="47.25584" lon="-2.32659">
        <ele>6.8000001907349</ele>
        <time>2022-05-29T07:00:57.000Z</time>
      </trkpt>
      <trkpt lat="47.25579" lon="-2.32661">
        <ele>7.1999998092651</ele>
        <time>2022-05-29T07:00:58.000Z</time>
      </trkpt>
      <trkpt lat="47.25574" lon="-2.32663">
        <ele>7.5999999046326</ele>
        <time>2022-05-29T07:00:59.000Z</time>
      </trkpt>
      <trkpt lat="47.2557" lon="-2.32665">
        <ele>8</ele>
        <time>2022-05-29T07:01:00.000Z</time>
      </trkpt>
      <trkpt lat="47.25565" lon="-2.32667">
        <ele>8.3999996185303</ele>
        <time>2022-05-29T07:01:01.000Z</time>
      </trkpt>
      <trkpt lat="47.25553" lon="-2.32673">
        <ele>8.3999996185303</ele>
        <time>2022-05-29T07:01:04.000Z</time>
      </trkpt>
      <trkpt lat="47.25522" lon="-2.32687">
        <ele>8.3999996185303</ele>
        <time>2022-05-29T07:01:11.000Z</time>
      </trkpt>
      <trkpt lat="47.25517" lon="-2.32688">
        <ele>8.3999996185303</ele>
        <time>2022-05-29T07:01:12.000Z</time>
      </trkpt>
      <trkpt lat="47.2549" lon="-2.32693">
        <ele>8.3999996185303</ele>
        <time>2022-05-29T07:01:18.000Z</time>
      </trkpt>
      <trkpt lat="47.25485" lon="-2.32695">
        <ele>8.3999996185303</ele>
        <time>2022-05-29T07:01:19.000Z</time>
      </trkpt>
      <trkpt lat="47.25474" lon="-2.32708">
        <ele>8.3999996185303</ele>
        <time>2022-05-29T07:01:22.000Z</time>
      </trkpt>
      <trkpt lat="47.2547" lon="-2.32714">
        <ele>8.3999996185303</ele>
        <time>2022-05-29T07:01:23.000Z</time>
      </trkpt>
      <trkpt lat="47.25443" lon="-2.32752">
        <ele>8.3999996185303</ele>
        <time>2022-05-29T07:01:30.000Z</time>
      </trkpt>
      <trkpt lat="47.25437" lon="-2.32764">
        <ele>8.3999996185303</ele>
        <time>2022-05-29T07:01:33.000Z</time>
      </trkpt>
      <trkpt lat="47.25426" lon="-2.32787">
        <ele>8.3999996185303</ele>
        <time>2022-05-29T07:01:37.000Z</time>
      </trkpt>
      <trkpt lat="47.25394" lon="-2.32833">
        <ele>8.3999996185303</ele>
        <time>2022-05-29T07:01:44.000Z</time>
      </trkpt>
      <trkpt lat="47.2536" lon="-2.32874">
        <ele>8.3999996185303</ele>
        <time>2022-05-29T07:01:51.000Z</time>
      </trkpt>
      <trkpt lat="47.25321" lon="-2.32914">
        <ele>8.3999996185303</ele>
        <time>2022-05-29T07:01:59.000Z</time>
      </trkpt>
      <trkpt lat="47.25316" lon="-2.32919">
        <ele>8.3999996185303</ele>
        <time>2022-05-29T07:02:00.000Z</time>
      </trkpt>
      <trkpt lat="47.25312" lon="-2.32925">
        <ele>8.3999996185303</ele>
        <time>2022-05-29T07:02:01.000Z</time>
      </trkpt>
      <trkpt lat="47.25309" lon="-2.3294">
        <ele>8.3999996185303</ele>
        <time>2022-05-29T07:02:03.000Z</time>
      </trkpt>
      <trkpt lat="47.25316" lon="-2.32968">
        <ele>8.3999996185303</ele>
        <time>2022-05-29T07:02:07.000Z</time>
      </trkpt>
      <trkpt lat="47.25336" lon="-2.33018">
        <ele>8.3999996185303</ele>
        <time>2022-05-29T07:02:14.000Z</time>
      </trkpt>
      <trkpt lat="47.25353" lon="-2.33067">
        <ele>8.3999996185303</ele>
        <time>2022-05-29T07:02:21.000Z</time>
      </trkpt>
      <trkpt lat="47.2536" lon="-2.33086">
        <ele>8.3999996185303</ele>
        <time>2022-05-29T07:02:25.000Z</time>
      </trkpt>
      <trkpt lat="47.25362" lon="-2.3309">
        <ele>8.3999996185303</ele>
        <time>2022-05-29T07:02:29.000Z</time>
      </trkpt>
      <trkpt lat="47.25363" lon="-2.33093">
        <ele>11</ele>
        <time>2022-05-29T07:04:24.000Z</time>
      </trkpt>
      <trkpt lat="47.25364" lon="-2.33095">
        <ele>11.39999961853</ele>
        <time>2022-05-29T07:04:25.000Z</time>
      </trkpt>
      <trkpt lat="47.25365" lon="-2.33096">
        <ele>11.800000190735</ele>
        <time>2022-05-29T07:04:26.000Z</time>
      </trkpt>
      <trkpt lat="47.25366" lon="-2.33098">
        <ele>12.199999809265</ele>
        <time>2022-05-29T07:04:27.000Z</time>
      </trkpt>
      <trkpt lat="47.25367" lon="-2.33101">
        <ele>12.60000038147</ele>
        <time>2022-05-29T07:04:28.000Z</time>
      </trkpt>
      <trkpt lat="47.25372" lon="-2.33114">
        <ele>12.60000038147</ele>
        <time>2022-05-29T07:04:34.000Z</time>
      </trkpt>
      <trkpt lat="47.25382" lon="-2.33134">
        <ele>12.60000038147</ele>
        <time>2022-05-29T07:04:40.000Z</time>
      </trkpt>
      <trkpt lat="47.25384" lon="-2.33136">
        <ele>12.60000038147</ele>
        <time>2022-05-29T07:04:41.000Z</time>
      </trkpt>
      <trkpt lat="47.2539" lon="-2.33134">
        <ele>12.60000038147</ele>
        <time>2022-05-29T07:04:43.000Z</time>
      </trkpt>
      <trkpt lat="47.25416" lon="-2.33121">
        <ele>12.60000038147</ele>
        <time>2022-05-29T07:04:52.000Z</time>
      </trkpt>
      <trkpt lat="47.25437" lon="-2.33113">
        <ele>12.60000038147</ele>
        <time>2022-05-29T07:04:59.000Z</time>
      </trkpt>
      <trkpt lat="47.25454" lon="-2.33104">
        <ele>12.60000038147</ele>
        <time>2022-05-29T07:05:04.000Z</time>
      </trkpt>
      <trkpt lat="47.25469" lon="-2.33096">
        <ele>12.60000038147</ele>
        <time>2022-05-29T07:05:08.000Z</time>
      </trkpt>
      <trkpt lat="47.25483" lon="-2.33085">
        <ele>12.60000038147</ele>
        <time>2022-05-29T07:05:12.000Z</time>
      </trkpt>
      <trkpt lat="47.25492" lon="-2.33075">
        <ele>13</ele>
        <time>2022-05-29T07:05:15.000Z</time>
      </trkpt>
      <trkpt lat="47.25495" lon="-2.33071">
        <ele>13.39999961853</ele>
        <time>2022-05-29T07:05:16.000Z</time>
      </trkpt>
      <trkpt lat="47.25498" lon="-2.33066">
        <ele>13.800000190735</ele>
        <time>2022-05-29T07:05:17.000Z</time>
      </trkpt>
      <trkpt lat="47.25501" lon="-2.33062">
        <ele>14.199999809265</ele>
        <time>2022-05-29T07:05:18.000Z</time>
      </trkpt>
      <trkpt lat="47.25505" lon="-2.33058">
        <ele>14.60000038147</ele>
        <time>2022-05-29T07:05:19.000Z</time>
      </trkpt>
      <trkpt lat="47.25516" lon="-2.33047">
        <ele>14.60000038147</ele>
        <time>2022-05-29T07:05:22.000Z</time>
      </trkpt>
      <trkpt lat="47.25529" lon="-2.33041">
        <ele>14.60000038147</ele>
        <time>2022-05-29T07:05:25.000Z</time>
      </trkpt>
      <trkpt lat="47.25533" lon="-2.3304">
        <ele>14.60000038147</ele>
        <time>2022-05-29T07:05:26.000Z</time>
      </trkpt>
      <trkpt lat="47.25547" lon="-2.33038">
        <ele>14.60000038147</ele>
        <time>2022-05-29T07:05:29.000Z</time>
      </trkpt>
      <trkpt lat="47.25555" lon="-2.33036">
        <ele>14.60000038147</ele>
        <time>2022-05-29T07:05:31.000Z</time>
      </trkpt>
      <trkpt lat="47.25564" lon="-2.33034">
        <ele>15</ele>
        <time>2022-05-29T07:05:33.000Z</time>
      </trkpt>
      <trkpt lat="47.25568" lon="-2.33033">
        <ele>15.60000038147</ele>
        <time>2022-05-29T07:05:34.000Z</time>
      </trkpt>
      <trkpt lat="47.25572" lon="-2.33033">
        <ele>16</ele>
        <time>2022-05-29T07:05:35.000Z</time>
      </trkpt>
      <trkpt lat="47.25576" lon="-2.33032">
        <ele>16.39999961853</ele>
        <time>2022-05-29T07:05:36.000Z</time>
      </trkpt>
      <trkpt lat="47.2558" lon="-2.33031">
        <ele>16.799999237061</ele>
        <time>2022-05-29T07:05:37.000Z</time>
      </trkpt>
      <trkpt lat="47.25593" lon="-2.33029">
        <ele>16.799999237061</ele>
        <time>2022-05-29T07:05:40.000Z</time>
      </trkpt>
      <trkpt lat="47.25605" lon="-2.33026">
        <ele>16.799999237061</ele>
        <time>2022-05-29T07:05:43.000Z</time>
      </trkpt>
      <trkpt lat="47.2561" lon="-2.33024">
        <ele>16.799999237061</ele>
        <time>2022-05-29T07:05:44.000Z</time>
      </trkpt>
      <trkpt lat="47.25613" lon="-2.33021">
        <ele>17.200000762939</ele>
        <time>2022-05-29T07:05:45.000Z</time>
      </trkpt>
      <trkpt lat="47.25616" lon="-2.33016">
        <ele>17.60000038147</ele>
        <time>2022-05-29T07:05:46.000Z</time>
      </trkpt>
      <trkpt lat="47.25618" lon="-2.3301">
        <ele>18</ele>
        <time>2022-05-29T07:05:47.000Z</time>
      </trkpt>
      <trkpt lat="47.25619" lon="-2.33005">
        <ele>18.39999961853</ele>
        <time>2022-05-29T07:05:48.000Z</time>
      </trkpt>
      <trkpt lat="47.25619" lon="-2.32999">
        <ele>18.799999237061</ele>
        <time>2022-05-29T07:05:49.000Z</time>
      </trkpt>
      <trkpt lat="47.25618" lon="-2.32994">
        <ele>18.799999237061</ele>
        <time>2022-05-29T07:05:50.000Z</time>
      </trkpt>
      <trkpt lat="47.25617" lon="-2.32988">
        <ele>18.799999237061</ele>
        <time>2022-05-29T07:05:51.000Z</time>
      </trkpt>
      <trkpt lat="47.2561" lon="-2.32951">
        <ele>19.200000762939</ele>
        <time>2022-05-29T07:05:57.000Z</time>
      </trkpt>
      <trkpt lat="47.25608" lon="-2.32945">
        <ele>19.60000038147</ele>
        <time>2022-05-29T07:05:58.000Z</time>
      </trkpt>
      <trkpt lat="47.25607" lon="-2.32939">
        <ele>20</ele>
        <time>2022-05-29T07:05:59.000Z</time>
      </trkpt>
      <trkpt lat="47.25606" lon="-2.32932">
        <ele>20.39999961853</ele>
        <time>2022-05-29T07:06:00.000Z</time>
      </trkpt>
      <trkpt lat="47.25604" lon="-2.32926">
        <ele>20.799999237061</ele>
        <time>2022-05-29T07:06:01.000Z</time>
      </trkpt>
      <trkpt lat="47.25603" lon="-2.32919">
        <ele>20.799999237061</ele>
        <time>2022-05-29T07:06:02.000Z</time>
      </trkpt>
      <trkpt lat="47.256" lon="-2.329">
        <ele>20.799999237061</ele>
        <time>2022-05-29T07:06:05.000Z</time>
      </trkpt>
      <trkpt lat="47.25595" lon="-2.32859">
        <ele>20.799999237061</ele>
        <time>2022-05-29T07:06:11.000Z</time>
      </trkpt>
      <trkpt lat="47.25592" lon="-2.32832">
        <ele>20.799999237061</ele>
        <time>2022-05-29T07:06:15.000Z</time>
      </trkpt>
      <trkpt lat="47.25593" lon="-2.32818">
        <ele>20.799999237061</ele>
        <time>2022-05-29T07:06:17.000Z</time>
      </trkpt>
      <trkpt lat="47.25596" lon="-2.32792">
        <ele>21.200000762939</ele>
        <time>2022-05-29T07:06:21.000Z</time>
      </trkpt>
      <trkpt lat="47.25597" lon="-2.32785">
        <ele>21.60000038147</ele>
        <time>2022-05-29T07:06:22.000Z</time>
      </trkpt>
      <trkpt lat="47.25598" lon="-2.32779">
        <ele>22</ele>
        <time>2022-05-29T07:06:23.000Z</time>
      </trkpt>
      <trkpt lat="47.25599" lon="-2.32772">
        <ele>22.39999961853</ele>
        <time>2022-05-29T07:06:24.000Z</time>
      </trkpt>
      <trkpt lat="47.25599" lon="-2.32765">
        <ele>22.799999237061</ele>
        <time>2022-05-29T07:06:25.000Z</time>
      </trkpt>
      <trkpt lat="47.25602" lon="-2.32712">
        <ele>22.799999237061</ele>
        <time>2022-05-29T07:06:33.000Z</time>
      </trkpt>
      <trkpt lat="47.25603" lon="-2.32705">
        <ele>22.799999237061</ele>
        <time>2022-05-29T07:06:34.000Z</time>
      </trkpt>
      <trkpt lat="47.25603" lon="-2.32686">
        <ele>22.799999237061</ele>
        <time>2022-05-29T07:06:37.000Z</time>
      </trkpt>
      <trkpt lat="47.25603" lon="-2.32681">
        <ele>22.799999237061</ele>
        <time>2022-05-29T07:06:38.000Z</time>
      </trkpt>
      <trkpt lat="47.25607" lon="-2.32665">
        <ele>22.799999237061</ele>
        <time>2022-05-29T07:06:42.000Z</time>
      </trkpt>
      <trkpt lat="47.25623" lon="-2.32653">
        <ele>22.799999237061</ele>
        <time>2022-05-29T07:06:47.000Z</time>
      </trkpt>
      <trkpt lat="47.25658" lon="-2.32638">
        <ele>22.799999237061</ele>
        <time>2022-05-29T07:06:54.000Z</time>
      </trkpt>
      <trkpt lat="47.25663" lon="-2.32636">
        <ele>22.799999237061</ele>
        <time>2022-05-29T07:06:55.000Z</time>
      </trkpt>
      <trkpt lat="47.2569" lon="-2.32625">
        <ele>22.799999237061</ele>
        <time>2022-05-29T07:07:00.000Z</time>
      </trkpt>
      <trkpt lat="47.25704" lon="-2.32617">
        <ele>22.799999237061</ele>
        <time>2022-05-29T07:07:03.000Z</time>
      </trkpt>
      <trkpt lat="47.25707" lon="-2.32613">
        <ele>22.799999237061</ele>
        <time>2022-05-29T07:07:04.000Z</time>
      </trkpt>
      <trkpt lat="47.25707" lon="-2.32594">
        <ele>22.799999237061</ele>
        <time>2022-05-29T07:07:07.000Z</time>
      </trkpt>
      <trkpt lat="47.25705" lon="-2.32587">
        <ele>22.799999237061</ele>
        <time>2022-05-29T07:07:08.000Z</time>
      </trkpt>
      <trkpt lat="47.25691" lon="-2.32544">
        <ele>22.39999961853</ele>
        <time>2022-05-29T07:07:14.000Z</time>
      </trkpt>
      <trkpt lat="47.25688" lon="-2.32535">
        <ele>22</ele>
        <time>2022-05-29T07:07:15.000Z</time>
      </trkpt>
      <trkpt lat="47.25686" lon="-2.32528">
        <ele>21.60000038147</ele>
        <time>2022-05-29T07:07:16.000Z</time>
      </trkpt>
      <trkpt lat="47.25683" lon="-2.32519">
        <ele>20.799999237061</ele>
        <time>2022-05-29T07:07:17.000Z</time>
      </trkpt>
      <trkpt lat="47.25668" lon="-2.3247">
        <ele>20.799999237061</ele>
        <time>2022-05-29T07:07:23.000Z</time>
      </trkpt>
      <trkpt lat="47.25658" lon="-2.32429">
        <ele>20.799999237061</ele>
        <time>2022-05-29T07:07:28.000Z</time>
      </trkpt>
      <trkpt lat="47.25657" lon="-2.32422">
        <ele>20.39999961853</ele>
        <time>2022-05-29T07:07:29.000Z</time>
      </trkpt>
      <trkpt lat="47.25655" lon="-2.32415">
        <ele>20</ele>
        <time>2022-05-29T07:07:30.000Z</time>
      </trkpt>
      <trkpt lat="47.25654" lon="-2.32409">
        <ele>19.60000038147</ele>
        <time>2022-05-29T07:07:31.000Z</time>
      </trkpt>
      <trkpt lat="47.25655" lon="-2.32403">
        <ele>19.200000762939</ele>
        <time>2022-05-29T07:07:32.000Z</time>
      </trkpt>
      <trkpt lat="47.25657" lon="-2.32401">
        <ele>18.60000038147</ele>
        <time>2022-05-29T07:07:33.000Z</time>
      </trkpt>
      <trkpt lat="47.2566" lon="-2.32401">
        <ele>18.60000038147</ele>
        <time>2022-05-29T07:07:34.000Z</time>
      </trkpt>
      <trkpt lat="47.25671" lon="-2.32414">
        <ele>18.60000038147</ele>
        <time>2022-05-29T07:07:37.000Z</time>
      </trkpt>
      <trkpt lat="47.25676" lon="-2.32417">
        <ele>18.200000762939</ele>
        <time>2022-05-29T07:07:38.000Z</time>
      </trkpt>
      <trkpt lat="47.25682" lon="-2.32418">
        <ele>17.799999237061</ele>
        <time>2022-05-29T07:07:39.000Z</time>
      </trkpt>
      <trkpt lat="47.25688" lon="-2.32419">
        <ele>17.39999961853</ele>
        <time>2022-05-29T07:07:40.000Z</time>
      </trkpt>
      <trkpt lat="47.25695" lon="-2.3242">
        <ele>16.60000038147</ele>
        <time>2022-05-29T07:07:41.000Z</time>
      </trkpt>
      <trkpt lat="47.25741" lon="-2.32423">
        <ele>16.60000038147</ele>
        <time>2022-05-29T07:07:48.000Z</time>
      </trkpt>
      <trkpt lat="47.25759" lon="-2.32422">
        <ele>16.60000038147</ele>
        <time>2022-05-29T07:07:51.000Z</time>
      </trkpt>
      <trkpt lat="47.25769" lon="-2.32418">
        <ele>16.60000038147</ele>
        <time>2022-05-29T07:07:53.000Z</time>
      </trkpt>
      <trkpt lat="47.25774" lon="-2.32416">
        <ele>17.200000762939</ele>
        <time>2022-05-29T07:07:54.000Z</time>
      </trkpt>
      <trkpt lat="47.25778" lon="-2.32415">
        <ele>17.60000038147</ele>
        <time>2022-05-29T07:07:55.000Z</time>
      </trkpt>
      <trkpt lat="47.25782" lon="-2.32418">
        <ele>18</ele>
        <time>2022-05-29T07:07:56.000Z</time>
      </trkpt>
      <trkpt lat="47.25785" lon="-2.32422">
        <ele>18.39999961853</ele>
        <time>2022-05-29T07:07:57.000Z</time>
      </trkpt>
      <trkpt lat="47.25788" lon="-2.32428">
        <ele>19</ele>
        <time>2022-05-29T07:07:58.000Z</time>
      </trkpt>
      <trkpt lat="47.25791" lon="-2.32435">
        <ele>19</ele>
        <time>2022-05-29T07:07:59.000Z</time>
      </trkpt>
      <trkpt lat="47.25795" lon="-2.32442">
        <ele>19</ele>
        <time>2022-05-29T07:08:00.000Z</time>
      </trkpt>
      <trkpt lat="47.25799" lon="-2.32447">
        <ele>19</ele>
        <time>2022-05-29T07:08:01.000Z</time>
      </trkpt>
      <trkpt lat="47.25808" lon="-2.32469">
        <ele>19</ele>
        <time>2022-05-29T07:08:05.000Z</time>
      </trkpt>
      <trkpt lat="47.25814" lon="-2.32481">
        <ele>19</ele>
        <time>2022-05-29T07:08:08.000Z</time>
      </trkpt>
      <trkpt lat="47.25818" lon="-2.32485">
        <ele>19</ele>
        <time>2022-05-29T07:08:09.000Z</time>
      </trkpt>
      <trkpt lat="47.25833" lon="-2.32504">
        <ele>19</ele>
        <time>2022-05-29T07:08:13.000Z</time>
      </trkpt>
      <trkpt lat="47.25854" lon="-2.32534">
        <ele>19</ele>
        <time>2022-05-29T07:08:18.000Z</time>
      </trkpt>
      <trkpt lat="47.25878" lon="-2.32569">
        <ele>19</ele>
        <time>2022-05-29T07:08:24.000Z</time>
      </trkpt>
      <trkpt lat="47.25881" lon="-2.32575">
        <ele>19</ele>
        <time>2022-05-29T07:08:25.000Z</time>
      </trkpt>
      <trkpt lat="47.25894" lon="-2.32593">
        <ele>19</ele>
        <time>2022-05-29T07:08:28.000Z</time>
      </trkpt>
      <trkpt lat="47.25907" lon="-2.32608">
        <ele>19</ele>
        <time>2022-05-29T07:08:31.000Z</time>
      </trkpt>
      <trkpt lat="47.25912" lon="-2.32613">
        <ele>19</ele>
        <time>2022-05-29T07:08:32.000Z</time>
      </trkpt>
      <trkpt lat="47.25942" lon="-2.3265">
        <ele>19</ele>
        <time>2022-05-29T07:08:39.000Z</time>
      </trkpt>
      <trkpt lat="47.25951" lon="-2.32659">
        <ele>19</ele>
        <time>2022-05-29T07:08:41.000Z</time>
      </trkpt>
      <trkpt lat="47.25966" lon="-2.32663">
        <ele>19</ele>
        <time>2022-05-29T07:08:44.000Z</time>
      </trkpt>
      <trkpt lat="47.25987" lon="-2.32663">
        <ele>19</ele>
        <time>2022-05-29T07:08:48.000Z</time>
      </trkpt>
      <trkpt lat="47.25991" lon="-2.32662">
        <ele>19</ele>
        <time>2022-05-29T07:08:49.000Z</time>
      </trkpt>
      <trkpt lat="47.26005" lon="-2.32659">
        <ele>19</ele>
        <time>2022-05-29T07:08:52.000Z</time>
      </trkpt>
      <trkpt lat="47.2602" lon="-2.32656">
        <ele>19.39999961853</ele>
        <time>2022-05-29T07:08:55.000Z</time>
      </trkpt>
      <trkpt lat="47.26025" lon="-2.32655">
        <ele>20.200000762939</ele>
        <time>2022-05-29T07:08:56.000Z</time>
      </trkpt>
      <trkpt lat="47.26029" lon="-2.32655">
        <ele>20.60000038147</ele>
        <time>2022-05-29T07:08:57.000Z</time>
      </trkpt>
      <trkpt lat="47.26034" lon="-2.32654">
        <ele>21</ele>
        <time>2022-05-29T07:08:58.000Z</time>
      </trkpt>
      <trkpt lat="47.26049" lon="-2.32651">
        <ele>21</ele>
        <time>2022-05-29T07:09:01.000Z</time>
      </trkpt>
      <trkpt lat="47.26067" lon="-2.32646">
        <ele>21</ele>
        <time>2022-05-29T07:09:05.000Z</time>
      </trkpt>
      <trkpt lat="47.26097" lon="-2.32641">
        <ele>21.60000038147</ele>
        <time>2022-05-29T07:09:11.000Z</time>
      </trkpt>
      <trkpt lat="47.26102" lon="-2.3264">
        <ele>22</ele>
        <time>2022-05-29T07:09:12.000Z</time>
      </trkpt>
      <trkpt lat="47.26107" lon="-2.3264">
        <ele>22.39999961853</ele>
        <time>2022-05-29T07:09:13.000Z</time>
      </trkpt>
      <trkpt lat="47.26113" lon="-2.3264">
        <ele>22.799999237061</ele>
        <time>2022-05-29T07:09:14.000Z</time>
      </trkpt>
      <trkpt lat="47.26118" lon="-2.32639">
        <ele>23.200000762939</ele>
        <time>2022-05-29T07:09:15.000Z</time>
      </trkpt>
      <trkpt lat="47.26144" lon="-2.32644">
        <ele>23.200000762939</ele>
        <time>2022-05-29T07:09:20.000Z</time>
      </trkpt>
      <trkpt lat="47.26174" lon="-2.3266">
        <ele>23.200000762939</ele>
        <time>2022-05-29T07:09:26.000Z</time>
      </trkpt>
      <trkpt lat="47.26198" lon="-2.32679">
        <ele>23.200000762939</ele>
        <time>2022-05-29T07:09:31.000Z</time>
      </trkpt>
      <trkpt lat="47.26225" lon="-2.3271">
        <ele>23.200000762939</ele>
        <time>2022-05-29T07:09:37.000Z</time>
      </trkpt>
      <trkpt lat="47.26254" lon="-2.32753">
        <ele>23.200000762939</ele>
        <time>2022-05-29T07:09:44.000Z</time>
      </trkpt>
      <trkpt lat="47.26277" lon="-2.32793">
        <ele>23.200000762939</ele>
        <time>2022-05-29T07:09:50.000Z</time>
      </trkpt>
      <trkpt lat="47.26287" lon="-2.32824">
        <ele>23.200000762939</ele>
        <time>2022-05-29T07:09:54.000Z</time>
      </trkpt>
      <trkpt lat="47.26289" lon="-2.32832">
        <ele>23.200000762939</ele>
        <time>2022-05-29T07:09:55.000Z</time>
      </trkpt>
      <trkpt lat="47.2629" lon="-2.32841">
        <ele>23.200000762939</ele>
        <time>2022-05-29T07:09:56.000Z</time>
      </trkpt>
      <trkpt lat="47.26298" lon="-2.3286">
        <ele>23.200000762939</ele>
        <time>2022-05-29T07:09:59.000Z</time>
      </trkpt>
      <trkpt lat="47.26317" lon="-2.3287">
        <ele>23.200000762939</ele>
        <time>2022-05-29T07:10:02.000Z</time>
      </trkpt>
      <trkpt lat="47.26325" lon="-2.32892">
        <ele>23.200000762939</ele>
        <time>2022-05-29T07:10:05.000Z</time>
      </trkpt>
      <trkpt lat="47.26328" lon="-2.32901">
        <ele>23.200000762939</ele>
        <time>2022-05-29T07:10:06.000Z</time>
      </trkpt>
      <trkpt lat="47.26344" lon="-2.3295">
        <ele>23.200000762939</ele>
        <time>2022-05-29T07:10:12.000Z</time>
      </trkpt>
      <trkpt lat="47.2635" lon="-2.32966">
        <ele>23.200000762939</ele>
        <time>2022-05-29T07:10:14.000Z</time>
      </trkpt>
      <trkpt lat="47.26357" lon="-2.32979">
        <ele>23.200000762939</ele>
        <time>2022-05-29T07:10:16.000Z</time>
      </trkpt>
      <trkpt lat="47.26362" lon="-2.32983">
        <ele>23.200000762939</ele>
        <time>2022-05-29T07:10:17.000Z</time>
      </trkpt>
      <trkpt lat="47.26367" lon="-2.33006">
        <ele>23.200000762939</ele>
        <time>2022-05-29T07:10:20.000Z</time>
      </trkpt>
      <trkpt lat="47.26368" lon="-2.33031">
        <ele>23.200000762939</ele>
        <time>2022-05-29T07:10:23.000Z</time>
      </trkpt>
      <trkpt lat="47.26369" lon="-2.33039">
        <ele>23.200000762939</ele>
        <time>2022-05-29T07:10:24.000Z</time>
      </trkpt>
      <trkpt lat="47.26371" lon="-2.33101">
        <ele>23.200000762939</ele>
        <time>2022-05-29T07:10:31.000Z</time>
      </trkpt>
      <trkpt lat="47.26375" lon="-2.33153">
        <ele>23.200000762939</ele>
        <time>2022-05-29T07:10:37.000Z</time>
      </trkpt>
      <trkpt lat="47.26378" lon="-2.3322">
        <ele>23.200000762939</ele>
        <time>2022-05-29T07:10:45.000Z</time>
      </trkpt>
      <trkpt lat="47.26382" lon="-2.33252">
        <ele>23.200000762939</ele>
        <time>2022-05-29T07:10:49.000Z</time>
      </trkpt>
      <trkpt lat="47.26391" lon="-2.33264">
        <ele>23.200000762939</ele>
        <time>2022-05-29T07:10:51.000Z</time>
      </trkpt>
      <trkpt lat="47.26402" lon="-2.33267">
        <ele>23.200000762939</ele>
        <time>2022-05-29T07:10:53.000Z</time>
      </trkpt>
      <trkpt lat="47.26413" lon="-2.33269">
        <ele>23.200000762939</ele>
        <time>2022-05-29T07:10:55.000Z</time>
      </trkpt>
      <trkpt lat="47.26419" lon="-2.33269">
        <ele>23.799999237061</ele>
        <time>2022-05-29T07:10:56.000Z</time>
      </trkpt>
      <trkpt lat="47.26425" lon="-2.3327">
        <ele>24.200000762939</ele>
        <time>2022-05-29T07:10:57.000Z</time>
      </trkpt>
      <trkpt lat="47.2643" lon="-2.33271">
        <ele>24.60000038147</ele>
        <time>2022-05-29T07:10:58.000Z</time>
      </trkpt>
      <trkpt lat="47.26436" lon="-2.33272">
        <ele>25</ele>
        <time>2022-05-29T07:10:59.000Z</time>
      </trkpt>
      <trkpt lat="47.26441" lon="-2.33272">
        <ele>25.39999961853</ele>
        <time>2022-05-29T07:11:00.000Z</time>
      </trkpt>
      <trkpt lat="47.26461" lon="-2.33276">
        <ele>25.39999961853</ele>
        <time>2022-05-29T07:11:04.000Z</time>
      </trkpt>
      <trkpt lat="47.26488" lon="-2.33281">
        <ele>25.39999961853</ele>
        <time>2022-05-29T07:11:10.000Z</time>
      </trkpt>
      <trkpt lat="47.265" lon="-2.33283">
        <ele>25.39999961853</ele>
        <time>2022-05-29T07:11:14.000Z</time>
      </trkpt>
      <trkpt lat="47.26506" lon="-2.33287">
        <ele>25.39999961853</ele>
        <time>2022-05-29T07:11:16.000Z</time>
      </trkpt>
      <trkpt lat="47.26513" lon="-2.33293">
        <ele>25.39999961853</ele>
        <time>2022-05-29T07:11:18.000Z</time>
      </trkpt>
      <trkpt lat="47.2652" lon="-2.333">
        <ele>25.39999961853</ele>
        <time>2022-05-29T07:11:20.000Z</time>
      </trkpt>
      <trkpt lat="47.26523" lon="-2.33306">
        <ele>25.39999961853</ele>
        <time>2022-05-29T07:11:21.000Z</time>
      </trkpt>
      <trkpt lat="47.26525" lon="-2.33323">
        <ele>25.39999961853</ele>
        <time>2022-05-29T07:11:23.000Z</time>
      </trkpt>
      <trkpt lat="47.26526" lon="-2.33348">
        <ele>25.39999961853</ele>
        <time>2022-05-29T07:11:26.000Z</time>
      </trkpt>
      <trkpt lat="47.26528" lon="-2.33364">
        <ele>25.39999961853</ele>
        <time>2022-05-29T07:11:28.000Z</time>
      </trkpt>
      <trkpt lat="47.2653" lon="-2.33373">
        <ele>25.39999961853</ele>
        <time>2022-05-29T07:11:29.000Z</time>
      </trkpt>
      <trkpt lat="47.26541" lon="-2.33416">
        <ele>25.39999961853</ele>
        <time>2022-05-29T07:11:34.000Z</time>
      </trkpt>
      <trkpt lat="47.26552" lon="-2.3348">
        <ele>25.39999961853</ele>
        <time>2022-05-29T07:11:41.000Z</time>
      </trkpt>
      <trkpt lat="47.26555" lon="-2.33498">
        <ele>25.39999961853</ele>
        <time>2022-05-29T07:11:43.000Z</time>
      </trkpt>
      <trkpt lat="47.2656" lon="-2.33514">
        <ele>25.39999961853</ele>
        <time>2022-05-29T07:11:45.000Z</time>
      </trkpt>
      <trkpt lat="47.26563" lon="-2.3353">
        <ele>25.39999961853</ele>
        <time>2022-05-29T07:11:47.000Z</time>
      </trkpt>
      <trkpt lat="47.26565" lon="-2.33539">
        <ele>25.799999237061</ele>
        <time>2022-05-29T07:11:48.000Z</time>
      </trkpt>
      <trkpt lat="47.26566" lon="-2.33548">
        <ele>26.200000762939</ele>
        <time>2022-05-29T07:11:49.000Z</time>
      </trkpt>
      <trkpt lat="47.26567" lon="-2.33556">
        <ele>26.60000038147</ele>
        <time>2022-05-29T07:11:50.000Z</time>
      </trkpt>
      <trkpt lat="47.26568" lon="-2.33564">
        <ele>27</ele>
        <time>2022-05-29T07:11:51.000Z</time>
      </trkpt>
      <trkpt lat="47.26569" lon="-2.33573">
        <ele>27.39999961853</ele>
        <time>2022-05-29T07:11:52.000Z</time>
      </trkpt>
      <trkpt lat="47.26577" lon="-2.33619">
        <ele>27.39999961853</ele>
        <time>2022-05-29T07:11:58.000Z</time>
      </trkpt>
      <trkpt lat="47.26579" lon="-2.3364">
        <ele>28.39999961853</ele>
        <time>2022-05-29T07:12:01.000Z</time>
      </trkpt>
      <trkpt lat="47.2658" lon="-2.33646">
        <ele>28.799999237061</ele>
        <time>2022-05-29T07:12:02.000Z</time>
      </trkpt>
      <trkpt lat="47.26581" lon="-2.33653">
        <ele>29.200000762939</ele>
        <time>2022-05-29T07:12:03.000Z</time>
      </trkpt>
      <trkpt lat="47.26582" lon="-2.33659">
        <ele>29.60000038147</ele>
        <time>2022-05-29T07:12:04.000Z</time>
      </trkpt>
      <trkpt lat="47.26589" lon="-2.33675">
        <ele>29.60000038147</ele>
        <time>2022-05-29T07:12:07.000Z</time>
      </trkpt>
      <trkpt lat="47.26592" lon="-2.3368">
        <ele>30</ele>
        <time>2022-05-29T07:12:08.000Z</time>
      </trkpt>
      <trkpt lat="47.26595" lon="-2.33685">
        <ele>30.39999961853</ele>
        <time>2022-05-29T07:12:09.000Z</time>
      </trkpt>
      <trkpt lat="47.26598" lon="-2.33691">
        <ele>30.799999237061</ele>
        <time>2022-05-29T07:12:10.000Z</time>
      </trkpt>
      <trkpt lat="47.26602" lon="-2.33696">
        <ele>31.200000762939</ele>
        <time>2022-05-29T07:12:11.000Z</time>
      </trkpt>
      <trkpt lat="47.26606" lon="-2.33698">
        <ele>31.60000038147</ele>
        <time>2022-05-29T07:12:12.000Z</time>
      </trkpt>
      <trkpt lat="47.26626" lon="-2.33702">
        <ele>31.60000038147</ele>
        <time>2022-05-29T07:12:16.000Z</time>
      </trkpt>
      <trkpt lat="47.26659" lon="-2.33701">
        <ele>31.60000038147</ele>
        <time>2022-05-29T07:12:22.000Z</time>
      </trkpt>
      <trkpt lat="47.26692" lon="-2.33699">
        <ele>31.60000038147</ele>
        <time>2022-05-29T07:12:28.000Z</time>
      </trkpt>
      <trkpt lat="47.26733" lon="-2.33698">
        <ele>31.60000038147</ele>
        <time>2022-05-29T07:12:35.000Z</time>
      </trkpt>
      <trkpt lat="47.26757" lon="-2.337">
        <ele>31.60000038147</ele>
        <time>2022-05-29T07:12:36.000Z</time>
      </trkpt>
      <trkpt lat="47.26773" lon="-2.33702">
        <ele>31.60000038147</ele>
        <time>2022-05-29T07:12:42.000Z</time>
      </trkpt>
      <trkpt lat="47.26777" lon="-2.33698">
        <ele>31.60000038147</ele>
        <time>2022-05-29T07:12:44.000Z</time>
      </trkpt>
      <trkpt lat="47.26779" lon="-2.33695">
        <ele>31.60000038147</ele>
        <time>2022-05-29T07:12:45.000Z</time>
      </trkpt>
      <trkpt lat="47.26779" lon="-2.33675">
        <ele>31.60000038147</ele>
        <time>2022-05-29T07:12:49.000Z</time>
      </trkpt>
      <trkpt lat="47.26778" lon="-2.33653">
        <ele>31.60000038147</ele>
        <time>2022-05-29T07:12:52.000Z</time>
      </trkpt>
      <trkpt lat="47.26778" lon="-2.33635">
        <ele>31.60000038147</ele>
        <time>2022-05-29T07:12:54.000Z</time>
      </trkpt>
      <trkpt lat="47.26779" lon="-2.33582">
        <ele>31.60000038147</ele>
        <time>2022-05-29T07:13:00.000Z</time>
      </trkpt>
      <trkpt lat="47.26785" lon="-2.33564">
        <ele>31.60000038147</ele>
        <time>2022-05-29T07:13:03.000Z</time>
      </trkpt>
      <trkpt lat="47.26795" lon="-2.33559">
        <ele>31.60000038147</ele>
        <time>2022-05-29T07:13:05.000Z</time>
      </trkpt>
      <trkpt lat="47.26801" lon="-2.33557">
        <ele>31.60000038147</ele>
        <time>2022-05-29T07:13:06.000Z</time>
      </trkpt>
      <trkpt lat="47.26835" lon="-2.33546">
        <ele>31.60000038147</ele>
        <time>2022-05-29T07:13:12.000Z</time>
      </trkpt>
      <trkpt lat="47.26864" lon="-2.33536">
        <ele>31.60000038147</ele>
        <time>2022-05-29T07:13:17.000Z</time>
      </trkpt>
      <trkpt lat="47.26879" lon="-2.33533">
        <ele>31.60000038147</ele>
        <time>2022-05-29T07:13:21.000Z</time>
      </trkpt>
      <trkpt lat="47.26888" lon="-2.3353">
        <ele>31.60000038147</ele>
        <time>2022-05-29T07:13:25.000Z</time>
      </trkpt>
      <trkpt lat="47.26889" lon="-2.33527">
        <ele>31.60000038147</ele>
        <time>2022-05-29T07:13:26.000Z</time>
      </trkpt>
      <trkpt lat="47.2689" lon="-2.3352">
        <ele>32.200000762939</ele>
        <time>2022-05-29T07:13:28.000Z</time>
      </trkpt>
      <trkpt lat="47.2689" lon="-2.33516">
        <ele>32.599998474121</ele>
        <time>2022-05-29T07:13:29.000Z</time>
      </trkpt>
      <trkpt lat="47.2689" lon="-2.33512">
        <ele>33</ele>
        <time>2022-05-29T07:13:30.000Z</time>
      </trkpt>
      <trkpt lat="47.26889" lon="-2.33508">
        <ele>33.400001525879</ele>
        <time>2022-05-29T07:13:31.000Z</time>
      </trkpt>
      <trkpt lat="47.26888" lon="-2.33503">
        <ele>33.799999237061</ele>
        <time>2022-05-29T07:13:32.000Z</time>
      </trkpt>
      <trkpt lat="47.26885" lon="-2.33489">
        <ele>34.400001525879</ele>
        <time>2022-05-29T07:13:35.000Z</time>
      </trkpt>
      <trkpt lat="47.26883" lon="-2.33485">
        <ele>34.799999237061</ele>
        <time>2022-05-29T07:13:36.000Z</time>
      </trkpt>
      <trkpt lat="47.26882" lon="-2.3348">
        <ele>35.200000762939</ele>
        <time>2022-05-29T07:13:37.000Z</time>
      </trkpt>
      <trkpt lat="47.26881" lon="-2.33476">
        <ele>35.599998474121</ele>
        <time>2022-05-29T07:13:38.000Z</time>
      </trkpt>
      <trkpt lat="47.2688" lon="-2.33472">
        <ele>36</ele>
        <time>2022-05-29T07:13:39.000Z</time>
      </trkpt>
      <trkpt lat="47.26879" lon="-2.33467">
        <ele>36.799999237061</ele>
        <time>2022-05-29T07:13:40.000Z</time>
      </trkpt>
      <trkpt lat="47.26878" lon="-2.33463">
        <ele>37.200000762939</ele>
        <time>2022-05-29T07:13:41.000Z</time>
      </trkpt>
      <trkpt lat="47.26877" lon="-2.33459">
        <ele>37.799999237061</ele>
        <time>2022-05-29T07:13:42.000Z</time>
      </trkpt>
      <trkpt lat="47.26877" lon="-2.33454">
        <ele>38.200000762939</ele>
        <time>2022-05-29T07:13:43.000Z</time>
      </trkpt>
      <trkpt lat="47.26876" lon="-2.33445">
        <ele>38.599998474121</ele>
        <time>2022-05-29T07:13:45.000Z</time>
      </trkpt>
      <trkpt lat="47.26877" lon="-2.3344">
        <ele>39</ele>
        <time>2022-05-29T07:13:46.000Z</time>
      </trkpt>
      <trkpt lat="47.26878" lon="-2.33436">
        <ele>39.400001525879</ele>
        <time>2022-05-29T07:13:47.000Z</time>
      </trkpt>
      <trkpt lat="47.26878" lon="-2.33433">
        <ele>39.799999237061</ele>
        <time>2022-05-29T07:13:48.000Z</time>
      </trkpt>
      <trkpt lat="47.26879" lon="-2.33429">
        <ele>40.200000762939</ele>
        <time>2022-05-29T07:13:49.000Z</time>
      </trkpt>
      <trkpt lat="47.26883" lon="-2.33419">
        <ele>40.599998474121</ele>
        <time>2022-05-29T07:13:52.000Z</time>
      </trkpt>
      <trkpt lat="47.26885" lon="-2.33416">
        <ele>41</ele>
        <time>2022-05-29T07:13:53.000Z</time>
      </trkpt>
      <trkpt lat="47.26887" lon="-2.33414">
        <ele>41.400001525879</ele>
        <time>2022-05-29T07:13:54.000Z</time>
      </trkpt>
      <trkpt lat="47.2689" lon="-2.33412">
        <ele>42</ele>
        <time>2022-05-29T07:13:55.000Z</time>
      </trkpt>
      <trkpt lat="47.26893" lon="-2.33411">
        <ele>42.400001525879</ele>
        <time>2022-05-29T07:13:56.000Z</time>
      </trkpt>
      <trkpt lat="47.26901" lon="-2.33408">
        <ele>42.799999237061</ele>
        <time>2022-05-29T07:13:58.000Z</time>
      </trkpt>
      <trkpt lat="47.26904" lon="-2.33406">
        <ele>43.200000762939</ele>
        <time>2022-05-29T07:13:59.000Z</time>
      </trkpt>
      <trkpt lat="47.26908" lon="-2.33404">
        <ele>43.799999237061</ele>
        <time>2022-05-29T07:14:00.000Z</time>
      </trkpt>
      <trkpt lat="47.26912" lon="-2.33402">
        <ele>44.200000762939</ele>
        <time>2022-05-29T07:14:01.000Z</time>
      </trkpt>
      <trkpt lat="47.26916" lon="-2.334">
        <ele>44.599998474121</ele>
        <time>2022-05-29T07:14:02.000Z</time>
      </trkpt>
      <trkpt lat="47.26926" lon="-2.33395">
        <ele>44.599998474121</ele>
        <time>2022-05-29T07:14:05.000Z</time>
      </trkpt>
      <trkpt lat="47.26937" lon="-2.33391">
        <ele>45.200000762939</ele>
        <time>2022-05-29T07:14:08.000Z</time>
      </trkpt>
      <trkpt lat="47.26941" lon="-2.33389">
        <ele>45.599998474121</ele>
        <time>2022-05-29T07:14:09.000Z</time>
      </trkpt>
      <trkpt lat="47.26945" lon="-2.33388">
        <ele>46</ele>
        <time>2022-05-29T07:14:10.000Z</time>
      </trkpt>
      <trkpt lat="47.26948" lon="-2.33387">
        <ele>46.599998474121</ele>
        <time>2022-05-29T07:14:11.000Z</time>
      </trkpt>
      <trkpt lat="47.26952" lon="-2.33385">
        <ele>47</ele>
        <time>2022-05-29T07:14:12.000Z</time>
      </trkpt>
      <trkpt lat="47.26968" lon="-2.33375">
        <ele>47.400001525879</ele>
        <time>2022-05-29T07:14:17.000Z</time>
      </trkpt>
      <trkpt lat="47.2697" lon="-2.33371">
        <ele>47.799999237061</ele>
        <time>2022-05-29T07:14:18.000Z</time>
      </trkpt>
      <trkpt lat="47.2697" lon="-2.33367">
        <ele>48.200000762939</ele>
        <time>2022-05-29T07:14:19.000Z</time>
      </trkpt>
      <trkpt lat="47.26969" lon="-2.33362">
        <ele>48.799999237061</ele>
        <time>2022-05-29T07:14:20.000Z</time>
      </trkpt>
      <trkpt lat="47.26967" lon="-2.33357">
        <ele>49.200000762939</ele>
        <time>2022-05-29T07:14:21.000Z</time>
      </trkpt>
      <trkpt lat="47.26965" lon="-2.33352">
        <ele>49.200000762939</ele>
        <time>2022-05-29T07:14:22.000Z</time>
      </trkpt>
      <trkpt lat="47.26961" lon="-2.33341">
        <ele>49.200000762939</ele>
        <time>2022-05-29T07:14:24.000Z</time>
      </trkpt>
      <trkpt lat="47.26957" lon="-2.3333">
        <ele>49.200000762939</ele>
        <time>2022-05-29T07:14:26.000Z</time>
      </trkpt>
      <trkpt lat="47.26953" lon="-2.33319">
        <ele>49.200000762939</ele>
        <time>2022-05-29T07:14:28.000Z</time>
      </trkpt>
      <trkpt lat="47.26943" lon="-2.33288">
        <ele>49.200000762939</ele>
        <time>2022-05-29T07:14:33.000Z</time>
      </trkpt>
      <trkpt lat="47.26941" lon="-2.33282">
        <ele>49.200000762939</ele>
        <time>2022-05-29T07:14:34.000Z</time>
      </trkpt>
      <trkpt lat="47.26931" lon="-2.3325">
        <ele>49.200000762939</ele>
        <time>2022-05-29T07:14:39.000Z</time>
      </trkpt>
      <trkpt lat="47.26927" lon="-2.33237">
        <ele>49.200000762939</ele>
        <time>2022-05-29T07:14:41.000Z</time>
      </trkpt>
      <trkpt lat="47.26928" lon="-2.33225">
        <ele>49.200000762939</ele>
        <time>2022-05-29T07:14:43.000Z</time>
      </trkpt>
      <trkpt lat="47.26937" lon="-2.33216">
        <ele>49.200000762939</ele>
        <time>2022-05-29T07:14:46.000Z</time>
      </trkpt>
      <trkpt lat="47.26942" lon="-2.33214">
        <ele>49.200000762939</ele>
        <time>2022-05-29T07:14:47.000Z</time>
      </trkpt>
      <trkpt lat="47.26965" lon="-2.33202">
        <ele>49.599998474121</ele>
        <time>2022-05-29T07:14:52.000Z</time>
      </trkpt>
      <trkpt lat="47.26969" lon="-2.33199">
        <ele>50</ele>
        <time>2022-05-29T07:14:53.000Z</time>
      </trkpt>
      <trkpt lat="47.26973" lon="-2.33195">
        <ele>50.799999237061</ele>
        <time>2022-05-29T07:14:54.000Z</time>
      </trkpt>
      <trkpt lat="47.26977" lon="-2.3319">
        <ele>51.200000762939</ele>
        <time>2022-05-29T07:14:55.000Z</time>
      </trkpt>
      <trkpt lat="47.26984" lon="-2.33181">
        <ele>51.200000762939</ele>
        <time>2022-05-29T07:14:57.000Z</time>
      </trkpt>
      <trkpt lat="47.26988" lon="-2.33176">
        <ele>51.200000762939</ele>
        <time>2022-05-29T07:14:58.000Z</time>
      </trkpt>
      <trkpt lat="47.26992" lon="-2.33173">
        <ele>51.200000762939</ele>
        <time>2022-05-29T07:14:59.000Z</time>
      </trkpt>
      <trkpt lat="47.27005" lon="-2.33163">
        <ele>51.200000762939</ele>
        <time>2022-05-29T07:15:02.000Z</time>
      </trkpt>
      <trkpt lat="47.27021" lon="-2.33147">
        <ele>51.200000762939</ele>
        <time>2022-05-29T07:15:06.000Z</time>
      </trkpt>
      <trkpt lat="47.2705" lon="-2.33116">
        <ele>51.200000762939</ele>
        <time>2022-05-29T07:15:13.000Z</time>
      </trkpt>
      <trkpt lat="47.27072" lon="-2.33089">
        <ele>51.200000762939</ele>
        <time>2022-05-29T07:15:19.000Z</time>
      </trkpt>
      <trkpt lat="47.27099" lon="-2.33062">
        <ele>51.200000762939</ele>
        <time>2022-05-29T07:15:25.000Z</time>
      </trkpt>
      <trkpt lat="47.27137" lon="-2.33034">
        <ele>51.200000762939</ele>
        <time>2022-05-29T07:15:33.000Z</time>
      </trkpt>
      <trkpt lat="47.27168" lon="-2.33012">
        <ele>51.200000762939</ele>
        <time>2022-05-29T07:15:40.000Z</time>
      </trkpt>
      <trkpt lat="47.27208" lon="-2.32984">
        <ele>51.200000762939</ele>
        <time>2022-05-29T07:15:49.000Z</time>
      </trkpt>
      <trkpt lat="47.27222" lon="-2.32989">
        <ele>51.200000762939</ele>
        <time>2022-05-29T07:15:52.000Z</time>
      </trkpt>
      <trkpt lat="47.27228" lon="-2.32999">
        <ele>51.200000762939</ele>
        <time>2022-05-29T07:15:54.000Z</time>
      </trkpt>
      <trkpt lat="47.27238" lon="-2.33016">
        <ele>51.200000762939</ele>
        <time>2022-05-29T07:15:57.000Z</time>
      </trkpt>
      <trkpt lat="47.27258" lon="-2.33048">
        <ele>51.599998474121</ele>
        <time>2022-05-29T07:16:03.000Z</time>
      </trkpt>
      <trkpt lat="47.27262" lon="-2.33054">
        <ele>52</ele>
        <time>2022-05-29T07:16:04.000Z</time>
      </trkpt>
      <trkpt lat="47.27265" lon="-2.33059">
        <ele>52.400001525879</ele>
        <time>2022-05-29T07:16:05.000Z</time>
      </trkpt>
      <trkpt lat="47.27268" lon="-2.33063">
        <ele>52.799999237061</ele>
        <time>2022-05-29T07:16:06.000Z</time>
      </trkpt>
      <trkpt lat="47.27271" lon="-2.33068">
        <ele>53.200000762939</ele>
        <time>2022-05-29T07:16:07.000Z</time>
      </trkpt>
      <trkpt lat="47.27283" lon="-2.33085">
        <ele>53.200000762939</ele>
        <time>2022-05-29T07:16:11.000Z</time>
      </trkpt>
      <trkpt lat="47.27303" lon="-2.33112">
        <ele>53.200000762939</ele>
        <time>2022-05-29T07:16:17.000Z</time>
      </trkpt>
      <trkpt lat="47.27315" lon="-2.33107">
        <ele>53.200000762939</ele>
        <time>2022-05-29T07:16:20.000Z</time>
      </trkpt>
      <trkpt lat="47.27317" lon="-2.33102">
        <ele>53.799999237061</ele>
        <time>2022-05-29T07:16:21.000Z</time>
      </trkpt>
      <trkpt lat="47.27319" lon="-2.33096">
        <ele>54.200000762939</ele>
        <time>2022-05-29T07:16:22.000Z</time>
      </trkpt>
      <trkpt lat="47.27322" lon="-2.3309">
        <ele>54.599998474121</ele>
        <time>2022-05-29T07:16:23.000Z</time>
      </trkpt>
      <trkpt lat="47.27324" lon="-2.33083">
        <ele>55</ele>
        <time>2022-05-29T07:16:24.000Z</time>
      </trkpt>
      <trkpt lat="47.27326" lon="-2.33076">
        <ele>55.400001525879</ele>
        <time>2022-05-29T07:16:25.000Z</time>
      </trkpt>
      <trkpt lat="47.27338" lon="-2.33037">
        <ele>55.400001525879</ele>
        <time>2022-05-29T07:16:30.000Z</time>
      </trkpt>
      <trkpt lat="47.27356" lon="-2.32988">
        <ele>55.400001525879</ele>
        <time>2022-05-29T07:16:37.000Z</time>
      </trkpt>
      <trkpt lat="47.27379" lon="-2.32941">
        <ele>55.400001525879</ele>
        <time>2022-05-29T07:16:44.000Z</time>
      </trkpt>
      <trkpt lat="47.27382" lon="-2.32936">
        <ele>55</ele>
        <time>2022-05-29T07:16:45.000Z</time>
      </trkpt>
      <trkpt lat="47.27386" lon="-2.32932">
        <ele>54.599998474121</ele>
        <time>2022-05-29T07:16:46.000Z</time>
      </trkpt>
      <trkpt lat="47.27388" lon="-2.32928">
        <ele>54.200000762939</ele>
        <time>2022-05-29T07:16:47.000Z</time>
      </trkpt>
      <trkpt lat="47.27391" lon="-2.32925">
        <ele>53.799999237061</ele>
        <time>2022-05-29T07:16:48.000Z</time>
      </trkpt>
      <trkpt lat="47.27393" lon="-2.32924">
        <ele>53.400001525879</ele>
        <time>2022-05-29T07:16:49.000Z</time>
      </trkpt>
      <trkpt lat="47.27397" lon="-2.32928">
        <ele>53.400001525879</ele>
        <time>2022-05-29T07:16:51.000Z</time>
      </trkpt>
      <trkpt lat="47.27399" lon="-2.32937">
        <ele>53.400001525879</ele>
        <time>2022-05-29T07:16:53.000Z</time>
      </trkpt>
      <trkpt lat="47.27403" lon="-2.32953">
        <ele>53.400001525879</ele>
        <time>2022-05-29T07:16:56.000Z</time>
      </trkpt>
      <trkpt lat="47.27415" lon="-2.32995">
        <ele>53.400001525879</ele>
        <time>2022-05-29T07:17:03.000Z</time>
      </trkpt>
      <trkpt lat="47.27418" lon="-2.33008">
        <ele>53.799999237061</ele>
        <time>2022-05-29T07:17:05.000Z</time>
      </trkpt>
      <trkpt lat="47.2742" lon="-2.33014">
        <ele>54.200000762939</ele>
        <time>2022-05-29T07:17:06.000Z</time>
      </trkpt>
      <trkpt lat="47.27422" lon="-2.33021">
        <ele>54.599998474121</ele>
        <time>2022-05-29T07:17:07.000Z</time>
      </trkpt>
      <trkpt lat="47.27424" lon="-2.33027">
        <ele>55</ele>
        <time>2022-05-29T07:17:08.000Z</time>
      </trkpt>
      <trkpt lat="47.27426" lon="-2.33033">
        <ele>55.400001525879</ele>
        <time>2022-05-29T07:17:09.000Z</time>
      </trkpt>
      <trkpt lat="47.27428" lon="-2.33039">
        <ele>55.400001525879</ele>
        <time>2022-05-29T07:17:10.000Z</time>
      </trkpt>
      <trkpt lat="47.2743" lon="-2.33044">
        <ele>55.400001525879</ele>
        <time>2022-05-29T07:17:11.000Z</time>
      </trkpt>
      <trkpt lat="47.27441" lon="-2.3305">
        <ele>55.400001525879</ele>
        <time>2022-05-29T07:17:14.000Z</time>
      </trkpt>
      <trkpt lat="47.27445" lon="-2.33049">
        <ele>55.799999237061</ele>
        <time>2022-05-29T07:17:15.000Z</time>
      </trkpt>
      <trkpt lat="47.27449" lon="-2.33047">
        <ele>56.400001525879</ele>
        <time>2022-05-29T07:17:16.000Z</time>
      </trkpt>
      <trkpt lat="47.27453" lon="-2.33044">
        <ele>56.799999237061</ele>
        <time>2022-05-29T07:17:17.000Z</time>
      </trkpt>
      <trkpt lat="47.27458" lon="-2.3304">
        <ele>57.400001525879</ele>
        <time>2022-05-29T07:17:18.000Z</time>
      </trkpt>
      <trkpt lat="47.27461" lon="-2.33035">
        <ele>57.799999237061</ele>
        <time>2022-05-29T07:17:19.000Z</time>
      </trkpt>
      <trkpt lat="47.2747" lon="-2.33013">
        <ele>57.799999237061</ele>
        <time>2022-05-29T07:17:22.000Z</time>
      </trkpt>
      <trkpt lat="47.27492" lon="-2.3295">
        <ele>57.799999237061</ele>
        <time>2022-05-29T07:17:30.000Z</time>
      </trkpt>
      <trkpt lat="47.27494" lon="-2.32942">
        <ele>57.400001525879</ele>
        <time>2022-05-29T07:17:31.000Z</time>
      </trkpt>
      <trkpt lat="47.27496" lon="-2.32933">
        <ele>57</ele>
        <time>2022-05-29T07:17:32.000Z</time>
      </trkpt>
      <trkpt lat="47.27498" lon="-2.32924">
        <ele>56.400001525879</ele>
        <time>2022-05-29T07:17:33.000Z</time>
      </trkpt>
      <trkpt lat="47.27499" lon="-2.32916">
        <ele>56</ele>
        <time>2022-05-29T07:17:34.000Z</time>
      </trkpt>
      <trkpt lat="47.275" lon="-2.32908">
        <ele>55.599998474121</ele>
        <time>2022-05-29T07:17:35.000Z</time>
      </trkpt>
      <trkpt lat="47.27502" lon="-2.329">
        <ele>55.599998474121</ele>
        <time>2022-05-29T07:17:36.000Z</time>
      </trkpt>
      <trkpt lat="47.27506" lon="-2.32884">
        <ele>55.599998474121</ele>
        <time>2022-05-29T07:17:38.000Z</time>
      </trkpt>
      <trkpt lat="47.27512" lon="-2.32871">
        <ele>55.599998474121</ele>
        <time>2022-05-29T07:17:40.000Z</time>
      </trkpt>
      <trkpt lat="47.2752" lon="-2.32859">
        <ele>55.599998474121</ele>
        <time>2022-05-29T07:17:42.000Z</time>
      </trkpt>
      <trkpt lat="47.27524" lon="-2.32855">
        <ele>55.599998474121</ele>
        <time>2022-05-29T07:17:43.000Z</time>
      </trkpt>
      <trkpt lat="47.27527" lon="-2.32851">
        <ele>55.599998474121</ele>
        <time>2022-05-29T07:17:44.000Z</time>
      </trkpt>
      <trkpt lat="47.27531" lon="-2.32846">
        <ele>55.200000762939</ele>
        <time>2022-05-29T07:17:45.000Z</time>
      </trkpt>
      <trkpt lat="47.27534" lon="-2.32842">
        <ele>54.799999237061</ele>
        <time>2022-05-29T07:17:46.000Z</time>
      </trkpt>
      <trkpt lat="47.27538" lon="-2.32838">
        <ele>53.799999237061</ele>
        <time>2022-05-29T07:17:47.000Z</time>
      </trkpt>
      <trkpt lat="47.27541" lon="-2.32835">
        <ele>53.400001525879</ele>
        <time>2022-05-29T07:17:48.000Z</time>
      </trkpt>
      <trkpt lat="47.27545" lon="-2.32834">
        <ele>53.400001525879</ele>
        <time>2022-05-29T07:17:49.000Z</time>
      </trkpt>
      <trkpt lat="47.27548" lon="-2.32832">
        <ele>53.400001525879</ele>
        <time>2022-05-29T07:17:50.000Z</time>
      </trkpt>
      <trkpt lat="47.27564" lon="-2.32821">
        <ele>53.400001525879</ele>
        <time>2022-05-29T07:17:55.000Z</time>
      </trkpt>
      <trkpt lat="47.2757" lon="-2.32803">
        <ele>53.400001525879</ele>
        <time>2022-05-29T07:17:59.000Z</time>
      </trkpt>
      <trkpt lat="47.27572" lon="-2.32797">
        <ele>53</ele>
        <time>2022-05-29T07:18:00.000Z</time>
      </trkpt>
      <trkpt lat="47.27574" lon="-2.32791">
        <ele>52.599998474121</ele>
        <time>2022-05-29T07:18:01.000Z</time>
      </trkpt>
      <trkpt lat="47.27575" lon="-2.32786">
        <ele>52.200000762939</ele>
        <time>2022-05-29T07:18:02.000Z</time>
      </trkpt>
      <trkpt lat="47.27576" lon="-2.32781">
        <ele>51.799999237061</ele>
        <time>2022-05-29T07:18:03.000Z</time>
      </trkpt>
      <trkpt lat="47.27578" lon="-2.32776">
        <ele>51.200000762939</ele>
        <time>2022-05-29T07:18:04.000Z</time>
      </trkpt>
      <trkpt lat="47.27583" lon="-2.32762">
        <ele>51.200000762939</ele>
        <time>2022-05-29T07:18:07.000Z</time>
      </trkpt>
      <trkpt lat="47.27583" lon="-2.32752">
        <ele>51.200000762939</ele>
        <time>2022-05-29T07:18:09.000Z</time>
      </trkpt>
      <trkpt lat="47.27583" lon="-2.32742">
        <ele>50.400001525879</ele>
        <time>2022-05-29T07:18:11.000Z</time>
      </trkpt>
      <trkpt lat="47.27584" lon="-2.32736">
        <ele>50</ele>
        <time>2022-05-29T07:18:12.000Z</time>
      </trkpt>
      <trkpt lat="47.27586" lon="-2.32729">
        <ele>49.400001525879</ele>
        <time>2022-05-29T07:18:13.000Z</time>
      </trkpt>
      <trkpt lat="47.27588" lon="-2.32723">
        <ele>48.799999237061</ele>
        <time>2022-05-29T07:18:14.000Z</time>
      </trkpt>
      <trkpt lat="47.27589" lon="-2.32716">
        <ele>48.200000762939</ele>
        <time>2022-05-29T07:18:15.000Z</time>
      </trkpt>
      <trkpt lat="47.27592" lon="-2.32709">
        <ele>47.599998474121</ele>
        <time>2022-05-29T07:18:16.000Z</time>
      </trkpt>
      <trkpt lat="47.27595" lon="-2.32702">
        <ele>47</ele>
        <time>2022-05-29T07:18:17.000Z</time>
      </trkpt>
      <trkpt lat="47.27601" lon="-2.32693">
        <ele>46.599998474121</ele>
        <time>2022-05-29T07:18:19.000Z</time>
      </trkpt>
      <trkpt lat="47.27606" lon="-2.32691">
        <ele>46.200000762939</ele>
        <time>2022-05-29T07:18:20.000Z</time>
      </trkpt>
      <trkpt lat="47.2761" lon="-2.32692">
        <ele>45.799999237061</ele>
        <time>2022-05-29T07:18:21.000Z</time>
      </trkpt>
      <trkpt lat="47.27614" lon="-2.32694">
        <ele>45.400001525879</ele>
        <time>2022-05-29T07:18:22.000Z</time>
      </trkpt>
      <trkpt lat="47.27618" lon="-2.32697">
        <ele>45</ele>
        <time>2022-05-29T07:18:23.000Z</time>
      </trkpt>
      <trkpt lat="47.27621" lon="-2.32701">
        <ele>45</ele>
        <time>2022-05-29T07:18:24.000Z</time>
      </trkpt>
      <trkpt lat="47.2763" lon="-2.32707">
        <ele>45</ele>
        <time>2022-05-29T07:18:27.000Z</time>
      </trkpt>
      <trkpt lat="47.27652" lon="-2.32719">
        <ele>45</ele>
        <time>2022-05-29T07:18:33.000Z</time>
      </trkpt>
      <trkpt lat="47.27669" lon="-2.32726">
        <ele>45</ele>
        <time>2022-05-29T07:18:37.000Z</time>
      </trkpt>
      <trkpt lat="47.27673" lon="-2.32725">
        <ele>45</ele>
        <time>2022-05-29T07:18:38.000Z</time>
      </trkpt>
      <trkpt lat="47.27687" lon="-2.32722">
        <ele>45</ele>
        <time>2022-05-29T07:18:43.000Z</time>
      </trkpt>
      <trkpt lat="47.27695" lon="-2.32721">
        <ele>45</ele>
        <time>2022-05-29T07:18:45.000Z</time>
      </trkpt>
      <trkpt lat="47.27702" lon="-2.32713">
        <ele>45</ele>
        <time>2022-05-29T07:18:48.000Z</time>
      </trkpt>
      <trkpt lat="47.27707" lon="-2.32708">
        <ele>45</ele>
        <time>2022-05-29T07:18:50.000Z</time>
      </trkpt>
      <trkpt lat="47.27712" lon="-2.32699">
        <ele>45</ele>
        <time>2022-05-29T07:18:53.000Z</time>
      </trkpt>
      <trkpt lat="47.27717" lon="-2.32693">
        <ele>45.400001525879</ele>
        <time>2022-05-29T07:18:55.000Z</time>
      </trkpt>
      <trkpt lat="47.2772" lon="-2.3269">
        <ele>45.799999237061</ele>
        <time>2022-05-29T07:18:56.000Z</time>
      </trkpt>
      <trkpt lat="47.27722" lon="-2.32687">
        <ele>46.200000762939</ele>
        <time>2022-05-29T07:18:57.000Z</time>
      </trkpt>
      <trkpt lat="47.27724" lon="-2.32683">
        <ele>46.799999237061</ele>
        <time>2022-05-29T07:18:58.000Z</time>
      </trkpt>
      <trkpt lat="47.27726" lon="-2.3268">
        <ele>47.200000762939</ele>
        <time>2022-05-29T07:18:59.000Z</time>
      </trkpt>
      <trkpt lat="47.27728" lon="-2.32677">
        <ele>48.200000762939</ele>
        <time>2022-05-29T07:19:00.000Z</time>
      </trkpt>
      <trkpt lat="47.2773" lon="-2.32673">
        <ele>48.599998474121</ele>
        <time>2022-05-29T07:19:01.000Z</time>
      </trkpt>
      <trkpt lat="47.27732" lon="-2.3267">
        <ele>49.200000762939</ele>
        <time>2022-05-29T07:19:02.000Z</time>
      </trkpt>
      <trkpt lat="47.27735" lon="-2.32663">
        <ele>49.599998474121</ele>
        <time>2022-05-29T07:19:04.000Z</time>
      </trkpt>
      <trkpt lat="47.27737" lon="-2.3266">
        <ele>50</ele>
        <time>2022-05-29T07:19:05.000Z</time>
      </trkpt>
      <trkpt lat="47.27738" lon="-2.32657">
        <ele>50.400001525879</ele>
        <time>2022-05-29T07:19:06.000Z</time>
      </trkpt>
      <trkpt lat="47.27739" lon="-2.32653">
        <ele>50.799999237061</ele>
        <time>2022-05-29T07:19:07.000Z</time>
      </trkpt>
      <trkpt lat="47.2774" lon="-2.3265">
        <ele>51.400001525879</ele>
        <time>2022-05-29T07:19:08.000Z</time>
      </trkpt>
      <trkpt lat="47.27742" lon="-2.32642">
        <ele>51.799999237061</ele>
        <time>2022-05-29T07:19:10.000Z</time>
      </trkpt>
      <trkpt lat="47.27744" lon="-2.32639">
        <ele>52.200000762939</ele>
        <time>2022-05-29T07:19:11.000Z</time>
      </trkpt>
      <trkpt lat="47.27745" lon="-2.32635">
        <ele>52.599998474121</ele>
        <time>2022-05-29T07:19:12.000Z</time>
      </trkpt>
      <trkpt lat="47.27746" lon="-2.32632">
        <ele>53</ele>
        <time>2022-05-29T07:19:13.000Z</time>
      </trkpt>
      <trkpt lat="47.27748" lon="-2.32629">
        <ele>53.599998474121</ele>
        <time>2022-05-29T07:19:14.000Z</time>
      </trkpt>
      <trkpt lat="47.27753" lon="-2.3262">
        <ele>53.599998474121</ele>
        <time>2022-05-29T07:19:17.000Z</time>
      </trkpt>
      <trkpt lat="47.27755" lon="-2.32616">
        <ele>54</ele>
        <time>2022-05-29T07:19:18.000Z</time>
      </trkpt>
      <trkpt lat="47.27757" lon="-2.32611">
        <ele>54.400001525879</ele>
        <time>2022-05-29T07:19:19.000Z</time>
      </trkpt>
      <trkpt lat="47.27759" lon="-2.32607">
        <ele>54.799999237061</ele>
        <time>2022-05-29T07:19:20.000Z</time>
      </trkpt>
      <trkpt lat="47.27761" lon="-2.32602">
        <ele>55.200000762939</ele>
        <time>2022-05-29T07:19:21.000Z</time>
      </trkpt>
      <trkpt lat="47.27763" lon="-2.32598">
        <ele>55.599998474121</ele>
        <time>2022-05-29T07:19:22.000Z</time>
      </trkpt>
      <trkpt lat="47.2777" lon="-2.32586">
        <ele>55.599998474121</ele>
        <time>2022-05-29T07:19:25.000Z</time>
      </trkpt>
      <trkpt lat="47.27785" lon="-2.32563">
        <ele>55.599998474121</ele>
        <time>2022-05-29T07:19:30.000Z</time>
      </trkpt>
      <trkpt lat="47.27788" lon="-2.32559">
        <ele>56</ele>
        <time>2022-05-29T07:19:31.000Z</time>
      </trkpt>
      <trkpt lat="47.27791" lon="-2.32556">
        <ele>56.400001525879</ele>
        <time>2022-05-29T07:19:32.000Z</time>
      </trkpt>
      <trkpt lat="47.27794" lon="-2.32552">
        <ele>56.799999237061</ele>
        <time>2022-05-29T07:19:33.000Z</time>
      </trkpt>
      <trkpt lat="47.27797" lon="-2.32549">
        <ele>57.400001525879</ele>
        <time>2022-05-29T07:19:34.000Z</time>
      </trkpt>
      <trkpt lat="47.278" lon="-2.32545">
        <ele>57.799999237061</ele>
        <time>2022-05-29T07:19:35.000Z</time>
      </trkpt>
      <trkpt lat="47.27805" lon="-2.32538">
        <ele>57.799999237061</ele>
        <time>2022-05-29T07:19:37.000Z</time>
      </trkpt>
      <trkpt lat="47.2781" lon="-2.32529">
        <ele>57.799999237061</ele>
        <time>2022-05-29T07:19:39.000Z</time>
      </trkpt>
      <trkpt lat="47.27823" lon="-2.3251">
        <ele>57.799999237061</ele>
        <time>2022-05-29T07:19:44.000Z</time>
      </trkpt>
      <trkpt lat="47.27837" lon="-2.3248">
        <ele>57.799999237061</ele>
        <time>2022-05-29T07:19:50.000Z</time>
      </trkpt>
      <trkpt lat="47.27853" lon="-2.3246">
        <ele>57.799999237061</ele>
        <time>2022-05-29T07:19:55.000Z</time>
      </trkpt>
      <trkpt lat="47.27856" lon="-2.32458">
        <ele>57.799999237061</ele>
        <time>2022-05-29T07:19:56.000Z</time>
      </trkpt>
      <trkpt lat="47.27867" lon="-2.32449">
        <ele>57.799999237061</ele>
        <time>2022-05-29T07:20:00.000Z</time>
      </trkpt>
      <trkpt lat="47.27868" lon="-2.32445">
        <ele>57.799999237061</ele>
        <time>2022-05-29T07:20:01.000Z</time>
      </trkpt>
      <trkpt lat="47.27878" lon="-2.32421">
        <ele>57.799999237061</ele>
        <time>2022-05-29T07:20:06.000Z</time>
      </trkpt>
      <trkpt lat="47.2789" lon="-2.324">
        <ele>57.799999237061</ele>
        <time>2022-05-29T07:20:11.000Z</time>
      </trkpt>
      <trkpt lat="47.27896" lon="-2.32393">
        <ele>57.799999237061</ele>
        <time>2022-05-29T07:20:16.000Z</time>
      </trkpt>
      <trkpt lat="47.27897" lon="-2.32391">
        <ele>57.799999237061</ele>
        <time>2022-05-29T07:20:17.000Z</time>
      </trkpt>
      <trkpt lat="47.27896" lon="-2.32388">
        <ele>57.799999237061</ele>
        <time>2022-05-29T07:20:21.000Z</time>
      </trkpt>
      <trkpt lat="47.27893" lon="-2.32387">
        <ele>57.799999237061</ele>
        <time>2022-05-29T07:20:23.000Z</time>
      </trkpt>
      <trkpt lat="47.27882" lon="-2.3239">
        <ele>57.799999237061</ele>
        <time>2022-05-29T07:20:29.000Z</time>
      </trkpt>
      <trkpt lat="47.2788" lon="-2.32391">
        <ele>57.799999237061</ele>
        <time>2022-05-29T07:20:30.000Z</time>
      </trkpt>
      <trkpt lat="47.27876" lon="-2.3239">
        <ele>58.200000762939</ele>
        <time>2022-05-29T07:20:32.000Z</time>
      </trkpt>
      <trkpt lat="47.27874" lon="-2.3239">
        <ele>58.599998474121</ele>
        <time>2022-05-29T07:20:33.000Z</time>
      </trkpt>
      <trkpt lat="47.27871" lon="-2.32389">
        <ele>59</ele>
        <time>2022-05-29T07:20:34.000Z</time>
      </trkpt>
      <trkpt lat="47.27868" lon="-2.32388">
        <ele>59.400001525879</ele>
        <time>2022-05-29T07:20:35.000Z</time>
      </trkpt>
      <trkpt lat="47.27865" lon="-2.32386">
        <ele>59.799999237061</ele>
        <time>2022-05-29T07:20:36.000Z</time>
      </trkpt>
      <trkpt lat="47.2786" lon="-2.32386">
        <ele>59.799999237061</ele>
        <time>2022-05-29T07:20:38.000Z</time>
      </trkpt>
      <trkpt lat="47.27857" lon="-2.32386">
        <ele>59.799999237061</ele>
        <time>2022-05-29T07:20:40.000Z</time>
      </trkpt>
      <trkpt lat="47.27854" lon="-2.32386">
        <ele>59.799999237061</ele>
        <time>2022-05-29T07:20:42.000Z</time>
      </trkpt>
      <trkpt lat="47.27847" lon="-2.32378">
        <ele>59.799999237061</ele>
        <time>2022-05-29T07:20:47.000Z</time>
      </trkpt>
      <trkpt lat="47.27832" lon="-2.3238">
        <ele>59.799999237061</ele>
        <time>2022-05-29T07:20:52.000Z</time>
      </trkpt>
      <trkpt lat="47.27804" lon="-2.32383">
        <ele>59.799999237061</ele>
        <time>2022-05-29T07:21:00.000Z</time>
      </trkpt>
      <trkpt lat="47.27792" lon="-2.32384">
        <ele>60.599998474121</ele>
        <time>2022-05-29T07:21:04.000Z</time>
      </trkpt>
      <trkpt lat="47.2779" lon="-2.32384">
        <ele>61</ele>
        <time>2022-05-29T07:21:05.000Z</time>
      </trkpt>
      <trkpt lat="47.27787" lon="-2.32385">
        <ele>61.400001525879</ele>
        <time>2022-05-29T07:21:06.000Z</time>
      </trkpt>
      <trkpt lat="47.27785" lon="-2.32385">
        <ele>61.799999237061</ele>
        <time>2022-05-29T07:21:07.000Z</time>
      </trkpt>
      <trkpt lat="47.27776" lon="-2.32387">
        <ele>61.799999237061</ele>
        <time>2022-05-29T07:21:11.000Z</time>
      </trkpt>
      <trkpt lat="47.27774" lon="-2.32385">
        <ele>61.799999237061</ele>
        <time>2022-05-29T07:21:12.000Z</time>
      </trkpt>
      <trkpt lat="47.27771" lon="-2.32379">
        <ele>61.799999237061</ele>
        <time>2022-05-29T07:21:14.000Z</time>
      </trkpt>
      <trkpt lat="47.27759" lon="-2.3237">
        <ele>61.799999237061</ele>
        <time>2022-05-29T07:21:18.000Z</time>
      </trkpt>
      <trkpt lat="47.27757" lon="-2.32369">
        <ele>61.799999237061</ele>
        <time>2022-05-29T07:21:19.000Z</time>
      </trkpt>
      <trkpt lat="47.27741" lon="-2.32361">
        <ele>61.799999237061</ele>
        <time>2022-05-29T07:21:24.000Z</time>
      </trkpt>
      <trkpt lat="47.27719" lon="-2.32345">
        <ele>61.799999237061</ele>
        <time>2022-05-29T07:21:31.000Z</time>
      </trkpt>
      <trkpt lat="47.27698" lon="-2.32335">
        <ele>61.799999237061</ele>
        <time>2022-05-29T07:21:38.000Z</time>
      </trkpt>
      <trkpt lat="47.27689" lon="-2.32331">
        <ele>62.200000762939</ele>
        <time>2022-05-29T07:21:40.000Z</time>
      </trkpt>
      <trkpt lat="47.27684" lon="-2.32328">
        <ele>62.599998474121</ele>
        <time>2022-05-29T07:21:41.000Z</time>
      </trkpt>
      <trkpt lat="47.2768" lon="-2.32327">
        <ele>63</ele>
        <time>2022-05-29T07:21:42.000Z</time>
      </trkpt>
      <trkpt lat="47.27676" lon="-2.32325">
        <ele>63.400001525879</ele>
        <time>2022-05-29T07:21:43.000Z</time>
      </trkpt>
      <trkpt lat="47.27672" lon="-2.32324">
        <ele>63.799999237061</ele>
        <time>2022-05-29T07:21:44.000Z</time>
      </trkpt>
      <trkpt lat="47.27652" lon="-2.32319">
        <ele>63.799999237061</ele>
        <time>2022-05-29T07:21:50.000Z</time>
      </trkpt>
      <trkpt lat="47.27632" lon="-2.32308">
        <ele>63.799999237061</ele>
        <time>2022-05-29T07:21:56.000Z</time>
      </trkpt>
      <trkpt lat="47.27619" lon="-2.32296">
        <ele>63.799999237061</ele>
        <time>2022-05-29T07:22:01.000Z</time>
      </trkpt>
      <trkpt lat="47.27617" lon="-2.32281">
        <ele>63.799999237061</ele>
        <time>2022-05-29T07:22:04.000Z</time>
      </trkpt>
      <trkpt lat="47.27626" lon="-2.32263">
        <ele>63.799999237061</ele>
        <time>2022-05-29T07:22:08.000Z</time>
      </trkpt>
      <trkpt lat="47.27628" lon="-2.32258">
        <ele>63.799999237061</ele>
        <time>2022-05-29T07:22:09.000Z</time>
      </trkpt>
      <trkpt lat="47.27637" lon="-2.32229">
        <ele>63.799999237061</ele>
        <time>2022-05-29T07:22:15.000Z</time>
      </trkpt>
      <trkpt lat="47.27642" lon="-2.32208">
        <ele>63.799999237061</ele>
        <time>2022-05-29T07:22:20.000Z</time>
      </trkpt>
      <trkpt lat="47.27652" lon="-2.32172">
        <ele>63.799999237061</ele>
        <time>2022-05-29T07:22:26.000Z</time>
      </trkpt>
      <trkpt lat="47.27665" lon="-2.32125">
        <ele>63.799999237061</ele>
        <time>2022-05-29T07:22:33.000Z</time>
      </trkpt>
      <trkpt lat="47.27672" lon="-2.32103">
        <ele>63.400001525879</ele>
        <time>2022-05-29T07:22:36.000Z</time>
      </trkpt>
      <trkpt lat="47.27674" lon="-2.32096">
        <ele>63</ele>
        <time>2022-05-29T07:22:37.000Z</time>
      </trkpt>
      <trkpt lat="47.27677" lon="-2.32089">
        <ele>62.599998474121</ele>
        <time>2022-05-29T07:22:38.000Z</time>
      </trkpt>
      <trkpt lat="47.2768" lon="-2.32082">
        <ele>62.200000762939</ele>
        <time>2022-05-29T07:22:39.000Z</time>
      </trkpt>
      <trkpt lat="47.27682" lon="-2.32075">
        <ele>61.599998474121</ele>
        <time>2022-05-29T07:22:40.000Z</time>
      </trkpt>
      <trkpt lat="47.27688" lon="-2.32047">
        <ele>61.599998474121</ele>
        <time>2022-05-29T07:22:44.000Z</time>
      </trkpt>
      <trkpt lat="47.27689" lon="-2.32029">
        <ele>61.599998474121</ele>
        <time>2022-05-29T07:22:47.000Z</time>
      </trkpt>
      <trkpt lat="47.2769" lon="-2.32017">
        <ele>61.599998474121</ele>
        <time>2022-05-29T07:22:49.000Z</time>
      </trkpt>
      <trkpt lat="47.27692" lon="-2.32006">
        <ele>61.599998474121</ele>
        <time>2022-05-29T07:22:51.000Z</time>
      </trkpt>
      <trkpt lat="47.27694" lon="-2.32">
        <ele>61.599998474121</ele>
        <time>2022-05-29T07:22:52.000Z</time>
      </trkpt>
      <trkpt lat="47.27699" lon="-2.31989">
        <ele>61.599998474121</ele>
        <time>2022-05-29T07:22:54.000Z</time>
      </trkpt>
      <trkpt lat="47.27714" lon="-2.3196">
        <ele>61.599998474121</ele>
        <time>2022-05-29T07:22:59.000Z</time>
      </trkpt>
      <trkpt lat="47.27718" lon="-2.31949">
        <ele>61.599998474121</ele>
        <time>2022-05-29T07:23:01.000Z</time>
      </trkpt>
      <trkpt lat="47.27728" lon="-2.31924">
        <ele>62.400001525879</ele>
        <time>2022-05-29T07:23:06.000Z</time>
      </trkpt>
      <trkpt lat="47.2773" lon="-2.31918">
        <ele>63</ele>
        <time>2022-05-29T07:23:07.000Z</time>
      </trkpt>
      <trkpt lat="47.27732" lon="-2.31913">
        <ele>63.400001525879</ele>
        <time>2022-05-29T07:23:08.000Z</time>
      </trkpt>
      <trkpt lat="47.27734" lon="-2.31907">
        <ele>63.799999237061</ele>
        <time>2022-05-29T07:23:09.000Z</time>
      </trkpt>
      <trkpt lat="47.27736" lon="-2.31901">
        <ele>63.799999237061</ele>
        <time>2022-05-29T07:23:10.000Z</time>
      </trkpt>
      <trkpt lat="47.27737" lon="-2.31883">
        <ele>63.799999237061</ele>
        <time>2022-05-29T07:23:13.000Z</time>
      </trkpt>
      <trkpt lat="47.27736" lon="-2.31844">
        <ele>63.799999237061</ele>
        <time>2022-05-29T07:23:19.000Z</time>
      </trkpt>
      <trkpt lat="47.27731" lon="-2.31806">
        <ele>63.799999237061</ele>
        <time>2022-05-29T07:23:25.000Z</time>
      </trkpt>
      <trkpt lat="47.2773" lon="-2.318">
        <ele>63.799999237061</ele>
        <time>2022-05-29T07:23:26.000Z</time>
      </trkpt>
      <trkpt lat="47.27728" lon="-2.31774">
        <ele>63.799999237061</ele>
        <time>2022-05-29T07:23:30.000Z</time>
      </trkpt>
      <trkpt lat="47.27731" lon="-2.31738">
        <ele>63.799999237061</ele>
        <time>2022-05-29T07:23:36.000Z</time>
      </trkpt>
      <trkpt lat="47.27736" lon="-2.31722">
        <ele>63.799999237061</ele>
        <time>2022-05-29T07:23:39.000Z</time>
      </trkpt>
      <trkpt lat="47.27739" lon="-2.31719">
        <ele>63.799999237061</ele>
        <time>2022-05-29T07:23:40.000Z</time>
      </trkpt>
      <trkpt lat="47.27759" lon="-2.31718">
        <ele>63.799999237061</ele>
        <time>2022-05-29T07:23:44.000Z</time>
      </trkpt>
      <trkpt lat="47.27778" lon="-2.3172">
        <ele>63.799999237061</ele>
        <time>2022-05-29T07:23:49.000Z</time>
      </trkpt>
      <trkpt lat="47.27789" lon="-2.31731">
        <ele>63.799999237061</ele>
        <time>2022-05-29T07:23:53.000Z</time>
      </trkpt>
      <trkpt lat="47.27798" lon="-2.31742">
        <ele>63.799999237061</ele>
        <time>2022-05-29T07:23:56.000Z</time>
      </trkpt>
      <trkpt lat="47.27805" lon="-2.31749">
        <ele>63.799999237061</ele>
        <time>2022-05-29T07:23:58.000Z</time>
      </trkpt>
      <trkpt lat="47.27809" lon="-2.31752">
        <ele>63.799999237061</ele>
        <time>2022-05-29T07:23:59.000Z</time>
      </trkpt>
      <trkpt lat="47.27814" lon="-2.31754">
        <ele>64.199996948242</ele>
        <time>2022-05-29T07:24:00.000Z</time>
      </trkpt>
      <trkpt lat="47.27818" lon="-2.31755">
        <ele>64.599998474121</ele>
        <time>2022-05-29T07:24:01.000Z</time>
      </trkpt>
      <trkpt lat="47.27822" lon="-2.31754">
        <ele>65</ele>
        <time>2022-05-29T07:24:02.000Z</time>
      </trkpt>
      <trkpt lat="47.27827" lon="-2.31753">
        <ele>65.400001525879</ele>
        <time>2022-05-29T07:24:03.000Z</time>
      </trkpt>
      <trkpt lat="47.27831" lon="-2.31752">
        <ele>65.800003051758</ele>
        <time>2022-05-29T07:24:04.000Z</time>
      </trkpt>
      <trkpt lat="47.27852" lon="-2.31748">
        <ele>65.800003051758</ele>
        <time>2022-05-29T07:24:09.000Z</time>
      </trkpt>
      <trkpt lat="47.27865" lon="-2.31744">
        <ele>66.199996948242</ele>
        <time>2022-05-29T07:24:14.000Z</time>
      </trkpt>
      <trkpt lat="47.27869" lon="-2.31743">
        <ele>66.599998474121</ele>
        <time>2022-05-29T07:24:15.000Z</time>
      </trkpt>
      <trkpt lat="47.27872" lon="-2.31741">
        <ele>67</ele>
        <time>2022-05-29T07:24:16.000Z</time>
      </trkpt>
      <trkpt lat="47.27876" lon="-2.31739">
        <ele>67.400001525879</ele>
        <time>2022-05-29T07:24:17.000Z</time>
      </trkpt>
      <trkpt lat="47.2788" lon="-2.31736">
        <ele>67.800003051758</ele>
        <time>2022-05-29T07:24:18.000Z</time>
      </trkpt>
      <trkpt lat="47.2789" lon="-2.31728">
        <ele>67.800003051758</ele>
        <time>2022-05-29T07:24:21.000Z</time>
      </trkpt>
      <trkpt lat="47.27918" lon="-2.31709">
        <ele>67.800003051758</ele>
        <time>2022-05-29T07:24:28.000Z</time>
      </trkpt>
      <trkpt lat="47.27926" lon="-2.31703">
        <ele>67.800003051758</ele>
        <time>2022-05-29T07:24:30.000Z</time>
      </trkpt>
      <trkpt lat="47.27937" lon="-2.31693">
        <ele>67.800003051758</ele>
        <time>2022-05-29T07:24:33.000Z</time>
      </trkpt>
      <trkpt lat="47.2794" lon="-2.3169">
        <ele>67.800003051758</ele>
        <time>2022-05-29T07:24:34.000Z</time>
      </trkpt>
      <trkpt lat="47.27963" lon="-2.31673">
        <ele>67.800003051758</ele>
        <time>2022-05-29T07:24:40.000Z</time>
      </trkpt>
      <trkpt lat="47.27993" lon="-2.31655">
        <ele>67.800003051758</ele>
        <time>2022-05-29T07:24:47.000Z</time>
      </trkpt>
      <trkpt lat="47.28027" lon="-2.3164">
        <ele>67.800003051758</ele>
        <time>2022-05-29T07:24:54.000Z</time>
      </trkpt>
      <trkpt lat="47.28036" lon="-2.31636">
        <ele>67.400001525879</ele>
        <time>2022-05-29T07:24:56.000Z</time>
      </trkpt>
      <trkpt lat="47.2804" lon="-2.31635">
        <ele>67</ele>
        <time>2022-05-29T07:24:57.000Z</time>
      </trkpt>
      <trkpt lat="47.28044" lon="-2.31633">
        <ele>66.599998474121</ele>
        <time>2022-05-29T07:24:58.000Z</time>
      </trkpt>
      <trkpt lat="47.28048" lon="-2.31632">
        <ele>66.199996948242</ele>
        <time>2022-05-29T07:24:59.000Z</time>
      </trkpt>
      <trkpt lat="47.28052" lon="-2.31631">
        <ele>65.800003051758</ele>
        <time>2022-05-29T07:25:00.000Z</time>
      </trkpt>
      <trkpt lat="47.28069" lon="-2.31629">
        <ele>65.800003051758</ele>
        <time>2022-05-29T07:25:04.000Z</time>
      </trkpt>
      <trkpt lat="47.28082" lon="-2.31628">
        <ele>65.800003051758</ele>
        <time>2022-05-29T07:25:07.000Z</time>
      </trkpt>
      <trkpt lat="47.28114" lon="-2.31629">
        <ele>66.199996948242</ele>
        <time>2022-05-29T07:25:14.000Z</time>
      </trkpt>
      <trkpt lat="47.28118" lon="-2.31628">
        <ele>66.599998474121</ele>
        <time>2022-05-29T07:25:15.000Z</time>
      </trkpt>
      <trkpt lat="47.28123" lon="-2.31628">
        <ele>67</ele>
        <time>2022-05-29T07:25:16.000Z</time>
      </trkpt>
      <trkpt lat="47.28128" lon="-2.31627">
        <ele>67.599998474121</ele>
        <time>2022-05-29T07:25:17.000Z</time>
      </trkpt>
      <trkpt lat="47.28133" lon="-2.31627">
        <ele>68</ele>
        <time>2022-05-29T07:25:18.000Z</time>
      </trkpt>
      <trkpt lat="47.28153" lon="-2.31626">
        <ele>68</ele>
        <time>2022-05-29T07:25:23.000Z</time>
      </trkpt>
      <trkpt lat="47.28187" lon="-2.31621">
        <ele>68</ele>
        <time>2022-05-29T07:25:31.000Z</time>
      </trkpt>
      <trkpt lat="47.28214" lon="-2.31616">
        <ele>68</ele>
        <time>2022-05-29T07:25:37.000Z</time>
      </trkpt>
      <trkpt lat="47.28227" lon="-2.31613">
        <ele>68.400001525879</ele>
        <time>2022-05-29T07:25:40.000Z</time>
      </trkpt>
      <trkpt lat="47.28232" lon="-2.31612">
        <ele>68.800003051758</ele>
        <time>2022-05-29T07:25:41.000Z</time>
      </trkpt>
      <trkpt lat="47.28236" lon="-2.31611">
        <ele>69.199996948242</ele>
        <time>2022-05-29T07:25:42.000Z</time>
      </trkpt>
      <trkpt lat="47.28241" lon="-2.3161">
        <ele>69.599998474121</ele>
        <time>2022-05-29T07:25:43.000Z</time>
      </trkpt>
      <trkpt lat="47.28246" lon="-2.31609">
        <ele>70</ele>
        <time>2022-05-29T07:25:44.000Z</time>
      </trkpt>
      <trkpt lat="47.28255" lon="-2.31607">
        <ele>70</ele>
        <time>2022-05-29T07:25:46.000Z</time>
      </trkpt>
      <trkpt lat="47.28281" lon="-2.31597">
        <ele>70.599998474121</ele>
        <time>2022-05-29T07:25:52.000Z</time>
      </trkpt>
      <trkpt lat="47.28285" lon="-2.31596">
        <ele>71</ele>
        <time>2022-05-29T07:25:53.000Z</time>
      </trkpt>
      <trkpt lat="47.2829" lon="-2.31594">
        <ele>71.400001525879</ele>
        <time>2022-05-29T07:25:54.000Z</time>
      </trkpt>
      <trkpt lat="47.28293" lon="-2.31593">
        <ele>71.800003051758</ele>
        <time>2022-05-29T07:25:55.000Z</time>
      </trkpt>
      <trkpt lat="47.28297" lon="-2.31592">
        <ele>72.199996948242</ele>
        <time>2022-05-29T07:25:56.000Z</time>
      </trkpt>
      <trkpt lat="47.28304" lon="-2.31592">
        <ele>72.199996948242</ele>
        <time>2022-05-29T07:25:58.000Z</time>
      </trkpt>
      <trkpt lat="47.28325" lon="-2.31589">
        <ele>72.199996948242</ele>
        <time>2022-05-29T07:26:04.000Z</time>
      </trkpt>
      <trkpt lat="47.28355" lon="-2.31579">
        <ele>72.199996948242</ele>
        <time>2022-05-29T07:26:10.000Z</time>
      </trkpt>
      <trkpt lat="47.284" lon="-2.31562">
        <ele>72.199996948242</ele>
        <time>2022-05-29T07:26:18.000Z</time>
      </trkpt>
      <trkpt lat="47.28427" lon="-2.31547">
        <ele>72.199996948242</ele>
        <time>2022-05-29T07:26:23.000Z</time>
      </trkpt>
      <trkpt lat="47.28431" lon="-2.31542">
        <ele>72.199996948242</ele>
        <time>2022-05-29T07:26:24.000Z</time>
      </trkpt>
      <trkpt lat="47.28462" lon="-2.31515">
        <ele>72.199996948242</ele>
        <time>2022-05-29T07:26:30.000Z</time>
      </trkpt>
      <trkpt lat="47.28468" lon="-2.31512">
        <ele>72.199996948242</ele>
        <time>2022-05-29T07:26:31.000Z</time>
      </trkpt>
      <trkpt lat="47.28486" lon="-2.31507">
        <ele>72.199996948242</ele>
        <time>2022-05-29T07:26:34.000Z</time>
      </trkpt>
      <trkpt lat="47.28497" lon="-2.31506">
        <ele>72.199996948242</ele>
        <time>2022-05-29T07:26:36.000Z</time>
      </trkpt>
      <trkpt lat="47.28536" lon="-2.31498">
        <ele>72.199996948242</ele>
        <time>2022-05-29T07:26:43.000Z</time>
      </trkpt>
      <trkpt lat="47.28541" lon="-2.31497">
        <ele>72.599998474121</ele>
        <time>2022-05-29T07:26:44.000Z</time>
      </trkpt>
      <trkpt lat="47.28546" lon="-2.31496">
        <ele>73</ele>
        <time>2022-05-29T07:26:45.000Z</time>
      </trkpt>
      <trkpt lat="47.28551" lon="-2.31495">
        <ele>73.400001525879</ele>
        <time>2022-05-29T07:26:46.000Z</time>
      </trkpt>
      <trkpt lat="47.28556" lon="-2.31494">
        <ele>73.800003051758</ele>
        <time>2022-05-29T07:26:47.000Z</time>
      </trkpt>
      <trkpt lat="47.28561" lon="-2.31493">
        <ele>74.199996948242</ele>
        <time>2022-05-29T07:26:48.000Z</time>
      </trkpt>
      <trkpt lat="47.28571" lon="-2.31488">
        <ele>74.199996948242</ele>
        <time>2022-05-29T07:26:50.000Z</time>
      </trkpt>
      <trkpt lat="47.28586" lon="-2.31481">
        <ele>74.599998474121</ele>
        <time>2022-05-29T07:26:53.000Z</time>
      </trkpt>
      <trkpt lat="47.28591" lon="-2.3148">
        <ele>75</ele>
        <time>2022-05-29T07:26:54.000Z</time>
      </trkpt>
      <trkpt lat="47.28596" lon="-2.31478">
        <ele>75.400001525879</ele>
        <time>2022-05-29T07:26:55.000Z</time>
      </trkpt>
      <trkpt lat="47.28601" lon="-2.31476">
        <ele>76</ele>
        <time>2022-05-29T07:26:56.000Z</time>
      </trkpt>
      <trkpt lat="47.28605" lon="-2.31474">
        <ele>76.400001525879</ele>
        <time>2022-05-29T07:26:57.000Z</time>
      </trkpt>
      <trkpt lat="47.28643" lon="-2.31458">
        <ele>76.400001525879</ele>
        <time>2022-05-29T07:27:05.000Z</time>
      </trkpt>
      <trkpt lat="47.28656" lon="-2.31452">
        <ele>76.400001525879</ele>
        <time>2022-05-29T07:27:08.000Z</time>
      </trkpt>
      <trkpt lat="47.28668" lon="-2.31456">
        <ele>76.400001525879</ele>
        <time>2022-05-29T07:27:11.000Z</time>
      </trkpt>
      <trkpt lat="47.28674" lon="-2.31475">
        <ele>76.400001525879</ele>
        <time>2022-05-29T07:27:14.000Z</time>
      </trkpt>
      <trkpt lat="47.28688" lon="-2.31492">
        <ele>76.400001525879</ele>
        <time>2022-05-29T07:27:17.000Z</time>
      </trkpt>
      <trkpt lat="47.28707" lon="-2.31491">
        <ele>76.400001525879</ele>
        <time>2022-05-29T07:27:20.000Z</time>
      </trkpt>
      <trkpt lat="47.28714" lon="-2.31489">
        <ele>76.400001525879</ele>
        <time>2022-05-29T07:27:21.000Z</time>
      </trkpt>
      <trkpt lat="47.28739" lon="-2.31474">
        <ele>76.400001525879</ele>
        <time>2022-05-29T07:27:25.000Z</time>
      </trkpt>
      <trkpt lat="47.2878" lon="-2.31452">
        <ele>76.400001525879</ele>
        <time>2022-05-29T07:27:32.000Z</time>
      </trkpt>
      <trkpt lat="47.28815" lon="-2.31428">
        <ele>76.400001525879</ele>
        <time>2022-05-29T07:27:38.000Z</time>
      </trkpt>
      <trkpt lat="47.28854" lon="-2.31406">
        <ele>76.400001525879</ele>
        <time>2022-05-29T07:27:44.000Z</time>
      </trkpt>
      <trkpt lat="47.28899" lon="-2.31393">
        <ele>76.400001525879</ele>
        <time>2022-05-29T07:27:51.000Z</time>
      </trkpt>
      <trkpt lat="47.28931" lon="-2.31392">
        <ele>76.400001525879</ele>
        <time>2022-05-29T07:27:56.000Z</time>
      </trkpt>
      <trkpt lat="47.28943" lon="-2.31389">
        <ele>76.400001525879</ele>
        <time>2022-05-29T07:27:58.000Z</time>
      </trkpt>
      <trkpt lat="47.2896" lon="-2.31378">
        <ele>76.400001525879</ele>
        <time>2022-05-29T07:28:01.000Z</time>
      </trkpt>
      <trkpt lat="47.28983" lon="-2.31352">
        <ele>76.400001525879</ele>
        <time>2022-05-29T07:28:06.000Z</time>
      </trkpt>
      <trkpt lat="47.28988" lon="-2.31346">
        <ele>76.400001525879</ele>
        <time>2022-05-29T07:28:07.000Z</time>
      </trkpt>
      <trkpt lat="47.29009" lon="-2.31301">
        <ele>76.400001525879</ele>
        <time>2022-05-29T07:28:13.000Z</time>
      </trkpt>
      <trkpt lat="47.29031" lon="-2.31251">
        <ele>75.800003051758</ele>
        <time>2022-05-29T07:28:19.000Z</time>
      </trkpt>
      <trkpt lat="47.29034" lon="-2.31243">
        <ele>75.400001525879</ele>
        <time>2022-05-29T07:28:20.000Z</time>
      </trkpt>
      <trkpt lat="47.29037" lon="-2.31235">
        <ele>75</ele>
        <time>2022-05-29T07:28:21.000Z</time>
      </trkpt>
      <trkpt lat="47.2904" lon="-2.31227">
        <ele>74.599998474121</ele>
        <time>2022-05-29T07:28:22.000Z</time>
      </trkpt>
      <trkpt lat="47.29041" lon="-2.31219">
        <ele>74.199996948242</ele>
        <time>2022-05-29T07:28:23.000Z</time>
      </trkpt>
      <trkpt lat="47.29043" lon="-2.31202">
        <ele>74.199996948242</ele>
        <time>2022-05-29T07:28:25.000Z</time>
      </trkpt>
      <trkpt lat="47.29041" lon="-2.31177">
        <ele>74.199996948242</ele>
        <time>2022-05-29T07:28:28.000Z</time>
      </trkpt>
      <trkpt lat="47.29039" lon="-2.3116">
        <ele>74.199996948242</ele>
        <time>2022-05-29T07:28:30.000Z</time>
      </trkpt>
      <trkpt lat="47.29033" lon="-2.31087">
        <ele>74.199996948242</ele>
        <time>2022-05-29T07:28:38.000Z</time>
      </trkpt>
      <trkpt lat="47.29031" lon="-2.31034">
        <ele>73.800003051758</ele>
        <time>2022-05-29T07:28:43.000Z</time>
      </trkpt>
      <trkpt lat="47.29031" lon="-2.31024">
        <ele>73.199996948242</ele>
        <time>2022-05-29T07:28:44.000Z</time>
      </trkpt>
      <trkpt lat="47.29031" lon="-2.31013">
        <ele>72.800003051758</ele>
        <time>2022-05-29T07:28:45.000Z</time>
      </trkpt>
      <trkpt lat="47.29031" lon="-2.31001">
        <ele>72.400001525879</ele>
        <time>2022-05-29T07:28:46.000Z</time>
      </trkpt>
      <trkpt lat="47.29032" lon="-2.3099">
        <ele>72</ele>
        <time>2022-05-29T07:28:47.000Z</time>
      </trkpt>
      <trkpt lat="47.29031" lon="-2.30944">
        <ele>71.599998474121</ele>
        <time>2022-05-29T07:28:51.000Z</time>
      </trkpt>
      <trkpt lat="47.29031" lon="-2.30933">
        <ele>70.800003051758</ele>
        <time>2022-05-29T07:28:52.000Z</time>
      </trkpt>
      <trkpt lat="47.29031" lon="-2.30922">
        <ele>70.199996948242</ele>
        <time>2022-05-29T07:28:53.000Z</time>
      </trkpt>
      <trkpt lat="47.2903" lon="-2.3091">
        <ele>69.800003051758</ele>
        <time>2022-05-29T07:28:54.000Z</time>
      </trkpt>
      <trkpt lat="47.29029" lon="-2.30898">
        <ele>69.199996948242</ele>
        <time>2022-05-29T07:28:55.000Z</time>
      </trkpt>
      <trkpt lat="47.29028" lon="-2.30886">
        <ele>68.800003051758</ele>
        <time>2022-05-29T07:28:56.000Z</time>
      </trkpt>
      <trkpt lat="47.29027" lon="-2.30874">
        <ele>68.199996948242</ele>
        <time>2022-05-29T07:28:57.000Z</time>
      </trkpt>
      <trkpt lat="47.29026" lon="-2.30862">
        <ele>67.800003051758</ele>
        <time>2022-05-29T07:28:58.000Z</time>
      </trkpt>
      <trkpt lat="47.29023" lon="-2.30839">
        <ele>67.400001525879</ele>
        <time>2022-05-29T07:29:00.000Z</time>
      </trkpt>
      <trkpt lat="47.29021" lon="-2.30828">
        <ele>67</ele>
        <time>2022-05-29T07:29:01.000Z</time>
      </trkpt>
      <trkpt lat="47.2902" lon="-2.30818">
        <ele>66.599998474121</ele>
        <time>2022-05-29T07:29:02.000Z</time>
      </trkpt>
      <trkpt lat="47.29018" lon="-2.30807">
        <ele>66.199996948242</ele>
        <time>2022-05-29T07:29:03.000Z</time>
      </trkpt>
      <trkpt lat="47.29017" lon="-2.30797">
        <ele>65.800003051758</ele>
        <time>2022-05-29T07:29:04.000Z</time>
      </trkpt>
      <trkpt lat="47.2901" lon="-2.30769">
        <ele>65.800003051758</ele>
        <time>2022-05-29T07:29:07.000Z</time>
      </trkpt>
      <trkpt lat="47.29006" lon="-2.3075">
        <ele>65.800003051758</ele>
        <time>2022-05-29T07:29:09.000Z</time>
      </trkpt>
      <trkpt lat="47.29004" lon="-2.3072">
        <ele>65.800003051758</ele>
        <time>2022-05-29T07:29:12.000Z</time>
      </trkpt>
      <trkpt lat="47.29005" lon="-2.30684">
        <ele>65.400001525879</ele>
        <time>2022-05-29T07:29:16.000Z</time>
      </trkpt>
      <trkpt lat="47.29005" lon="-2.30676">
        <ele>64.599998474121</ele>
        <time>2022-05-29T07:29:17.000Z</time>
      </trkpt>
      <trkpt lat="47.29004" lon="-2.30667">
        <ele>64.199996948242</ele>
        <time>2022-05-29T07:29:18.000Z</time>
      </trkpt>
      <trkpt lat="47.29004" lon="-2.30659">
        <ele>63.799999237061</ele>
        <time>2022-05-29T07:29:19.000Z</time>
      </trkpt>
      <trkpt lat="47.29001" lon="-2.30631">
        <ele>63.799999237061</ele>
        <time>2022-05-29T07:29:23.000Z</time>
      </trkpt>
      <trkpt lat="47.29002" lon="-2.30625">
        <ele>63.799999237061</ele>
        <time>2022-05-29T07:29:24.000Z</time>
      </trkpt>
      <trkpt lat="47.29003" lon="-2.30605">
        <ele>63.799999237061</ele>
        <time>2022-05-29T07:29:27.000Z</time>
      </trkpt>
      <trkpt lat="47.29002" lon="-2.30592">
        <ele>63.799999237061</ele>
        <time>2022-05-29T07:29:29.000Z</time>
      </trkpt>
      <trkpt lat="47.28998" lon="-2.30566">
        <ele>63.799999237061</ele>
        <time>2022-05-29T07:29:33.000Z</time>
      </trkpt>
      <trkpt lat="47.28996" lon="-2.30551">
        <ele>63.799999237061</ele>
        <time>2022-05-29T07:29:35.000Z</time>
      </trkpt>
      <trkpt lat="47.28995" lon="-2.30543">
        <ele>63.799999237061</ele>
        <time>2022-05-29T07:29:36.000Z</time>
      </trkpt>
      <trkpt lat="47.28988" lon="-2.30505">
        <ele>63.799999237061</ele>
        <time>2022-05-29T07:29:41.000Z</time>
      </trkpt>
      <trkpt lat="47.2898" lon="-2.30447">
        <ele>63.799999237061</ele>
        <time>2022-05-29T07:29:48.000Z</time>
      </trkpt>
      <trkpt lat="47.28974" lon="-2.30385">
        <ele>63.799999237061</ele>
        <time>2022-05-29T07:29:55.000Z</time>
      </trkpt>
      <trkpt lat="47.28974" lon="-2.30326">
        <ele>63.799999237061</ele>
        <time>2022-05-29T07:30:02.000Z</time>
      </trkpt>
      <trkpt lat="47.28973" lon="-2.30318">
        <ele>63.799999237061</ele>
        <time>2022-05-29T07:30:03.000Z</time>
      </trkpt>
      <trkpt lat="47.28971" lon="-2.30267">
        <ele>63.799999237061</ele>
        <time>2022-05-29T07:30:09.000Z</time>
      </trkpt>
      <trkpt lat="47.28974" lon="-2.30261">
        <ele>63.799999237061</ele>
        <time>2022-05-29T07:30:10.000Z</time>
      </trkpt>
      <trkpt lat="47.28987" lon="-2.30255">
        <ele>63.799999237061</ele>
        <time>2022-05-29T07:30:13.000Z</time>
      </trkpt>
      <trkpt lat="47.2901" lon="-2.30252">
        <ele>63.799999237061</ele>
        <time>2022-05-29T07:30:17.000Z</time>
      </trkpt>
      <trkpt lat="47.29016" lon="-2.3025">
        <ele>63.799999237061</ele>
        <time>2022-05-29T07:30:18.000Z</time>
      </trkpt>
      <trkpt lat="47.29061" lon="-2.30239">
        <ele>63.799999237061</ele>
        <time>2022-05-29T07:30:26.000Z</time>
      </trkpt>
      <trkpt lat="47.2907" lon="-2.30235">
        <ele>63.799999237061</ele>
        <time>2022-05-29T07:30:28.000Z</time>
      </trkpt>
      <trkpt lat="47.2909" lon="-2.30224">
        <ele>63.799999237061</ele>
        <time>2022-05-29T07:30:32.000Z</time>
      </trkpt>
      <trkpt lat="47.29134" lon="-2.30201">
        <ele>63.799999237061</ele>
        <time>2022-05-29T07:30:40.000Z</time>
      </trkpt>
      <trkpt lat="47.29178" lon="-2.30178">
        <ele>63.799999237061</ele>
        <time>2022-05-29T07:30:48.000Z</time>
      </trkpt>
      <trkpt lat="47.29224" lon="-2.30153">
        <ele>63.799999237061</ele>
        <time>2022-05-29T07:30:56.000Z</time>
      </trkpt>
      <trkpt lat="47.29264" lon="-2.30141">
        <ele>63.799999237061</ele>
        <time>2022-05-29T07:31:03.000Z</time>
      </trkpt>
      <trkpt lat="47.29303" lon="-2.30139">
        <ele>63.799999237061</ele>
        <time>2022-05-29T07:31:10.000Z</time>
      </trkpt>
      <trkpt lat="47.29329" lon="-2.30133">
        <ele>63.799999237061</ele>
        <time>2022-05-29T07:31:16.000Z</time>
      </trkpt>
      <trkpt lat="47.29334" lon="-2.30119">
        <ele>63.799999237061</ele>
        <time>2022-05-29T07:31:19.000Z</time>
      </trkpt>
      <trkpt lat="47.29336" lon="-2.30114">
        <ele>63.799999237061</ele>
        <time>2022-05-29T07:31:20.000Z</time>
      </trkpt>
      <trkpt lat="47.29337" lon="-2.30108">
        <ele>63.799999237061</ele>
        <time>2022-05-29T07:31:21.000Z</time>
      </trkpt>
      <trkpt lat="47.2934" lon="-2.30087">
        <ele>63.799999237061</ele>
        <time>2022-05-29T07:31:24.000Z</time>
      </trkpt>
      <trkpt lat="47.29345" lon="-2.30036">
        <ele>63.799999237061</ele>
        <time>2022-05-29T07:31:31.000Z</time>
      </trkpt>
      <trkpt lat="47.29346" lon="-2.30017">
        <ele>63.799999237061</ele>
        <time>2022-05-29T07:31:34.000Z</time>
      </trkpt>
      <trkpt lat="47.29346" lon="-2.30008">
        <ele>63.799999237061</ele>
        <time>2022-05-29T07:31:36.000Z</time>
      </trkpt>
      <trkpt lat="47.29351" lon="-2.30003">
        <ele>63.799999237061</ele>
        <time>2022-05-29T07:31:39.000Z</time>
      </trkpt>
      <trkpt lat="47.29357" lon="-2.30007">
        <ele>63.799999237061</ele>
        <time>2022-05-29T07:31:41.000Z</time>
      </trkpt>
      <trkpt lat="47.29361" lon="-2.30009">
        <ele>63.799999237061</ele>
        <time>2022-05-29T07:31:42.000Z</time>
      </trkpt>
      <trkpt lat="47.29386" lon="-2.30022">
        <ele>63.799999237061</ele>
        <time>2022-05-29T07:31:47.000Z</time>
      </trkpt>
      <trkpt lat="47.29416" lon="-2.3003">
        <ele>63.799999237061</ele>
        <time>2022-05-29T07:31:52.000Z</time>
      </trkpt>
      <trkpt lat="47.29459" lon="-2.3003">
        <ele>63.799999237061</ele>
        <time>2022-05-29T07:31:59.000Z</time>
      </trkpt>
      <trkpt lat="47.29471" lon="-2.3003">
        <ele>63.400001525879</ele>
        <time>2022-05-29T07:32:01.000Z</time>
      </trkpt>
      <trkpt lat="47.29478" lon="-2.30029">
        <ele>63</ele>
        <time>2022-05-29T07:32:02.000Z</time>
      </trkpt>
      <trkpt lat="47.29484" lon="-2.30029">
        <ele>62.400001525879</ele>
        <time>2022-05-29T07:32:03.000Z</time>
      </trkpt>
      <trkpt lat="47.2949" lon="-2.30028">
        <ele>62</ele>
        <time>2022-05-29T07:32:04.000Z</time>
      </trkpt>
      <trkpt lat="47.29496" lon="-2.30028">
        <ele>61.599998474121</ele>
        <time>2022-05-29T07:32:05.000Z</time>
      </trkpt>
      <trkpt lat="47.29501" lon="-2.30026">
        <ele>61.599998474121</ele>
        <time>2022-05-29T07:32:06.000Z</time>
      </trkpt>
      <trkpt lat="47.29513" lon="-2.30025">
        <ele>61.599998474121</ele>
        <time>2022-05-29T07:32:08.000Z</time>
      </trkpt>
      <trkpt lat="47.29525" lon="-2.30029">
        <ele>61.599998474121</ele>
        <time>2022-05-29T07:32:10.000Z</time>
      </trkpt>
      <trkpt lat="47.29531" lon="-2.30029">
        <ele>61.599998474121</ele>
        <time>2022-05-29T07:32:11.000Z</time>
      </trkpt>
      <trkpt lat="47.29549" lon="-2.30023">
        <ele>61.599998474121</ele>
        <time>2022-05-29T07:32:14.000Z</time>
      </trkpt>
      <trkpt lat="47.29592" lon="-2.30008">
        <ele>61.599998474121</ele>
        <time>2022-05-29T07:32:21.000Z</time>
      </trkpt>
      <trkpt lat="47.29627" lon="-2.29996">
        <ele>61.599998474121</ele>
        <time>2022-05-29T07:32:27.000Z</time>
      </trkpt>
      <trkpt lat="47.29632" lon="-2.29992">
        <ele>61.599998474121</ele>
        <time>2022-05-29T07:32:28.000Z</time>
      </trkpt>
      <trkpt lat="47.29646" lon="-2.29983">
        <ele>61.599998474121</ele>
        <time>2022-05-29T07:32:31.000Z</time>
      </trkpt>
      <trkpt lat="47.2966" lon="-2.29994">
        <ele>61.599998474121</ele>
        <time>2022-05-29T07:32:34.000Z</time>
      </trkpt>
      <trkpt lat="47.29672" lon="-2.30002">
        <ele>61.599998474121</ele>
        <time>2022-05-29T07:32:36.000Z</time>
      </trkpt>
      <trkpt lat="47.29687" lon="-2.30004">
        <ele>61.599998474121</ele>
        <time>2022-05-29T07:32:38.000Z</time>
      </trkpt>
      <trkpt lat="47.29724" lon="-2.29998">
        <ele>61.599998474121</ele>
        <time>2022-05-29T07:32:43.000Z</time>
      </trkpt>
      <trkpt lat="47.29757" lon="-2.29978">
        <ele>61.599998474121</ele>
        <time>2022-05-29T07:32:48.000Z</time>
      </trkpt>
      <trkpt lat="47.29792" lon="-2.2995">
        <ele>61.599998474121</ele>
        <time>2022-05-29T07:32:54.000Z</time>
      </trkpt>
      <trkpt lat="47.29812" lon="-2.29953">
        <ele>61.599998474121</ele>
        <time>2022-05-29T07:32:57.000Z</time>
      </trkpt>
      <trkpt lat="47.29847" lon="-2.29952">
        <ele>61.599998474121</ele>
        <time>2022-05-29T07:33:02.000Z</time>
      </trkpt>
      <trkpt lat="47.29883" lon="-2.29943">
        <ele>61.599998474121</ele>
        <time>2022-05-29T07:33:07.000Z</time>
      </trkpt>
      <trkpt lat="47.29903" lon="-2.29936">
        <ele>61.599998474121</ele>
        <time>2022-05-29T07:33:10.000Z</time>
      </trkpt>
      <trkpt lat="47.29906" lon="-2.2993">
        <ele>61.599998474121</ele>
        <time>2022-05-29T07:33:11.000Z</time>
      </trkpt>
      <trkpt lat="47.29907" lon="-2.29908">
        <ele>61.599998474121</ele>
        <time>2022-05-29T07:33:14.000Z</time>
      </trkpt>
      <trkpt lat="47.29907" lon="-2.29902">
        <ele>61.599998474121</ele>
        <time>2022-05-29T07:33:15.000Z</time>
      </trkpt>
      <trkpt lat="47.29905" lon="-2.29889">
        <ele>61.599998474121</ele>
        <time>2022-05-29T07:33:17.000Z</time>
      </trkpt>
      <trkpt lat="47.29903" lon="-2.29877">
        <ele>61.599998474121</ele>
        <time>2022-05-29T07:33:19.000Z</time>
      </trkpt>
      <trkpt lat="47.29903" lon="-2.2987">
        <ele>61.599998474121</ele>
        <time>2022-05-29T07:33:20.000Z</time>
      </trkpt>
      <trkpt lat="47.29902" lon="-2.29858">
        <ele>62</ele>
        <time>2022-05-29T07:33:22.000Z</time>
      </trkpt>
      <trkpt lat="47.29902" lon="-2.29851">
        <ele>62.599998474121</ele>
        <time>2022-05-29T07:33:23.000Z</time>
      </trkpt>
      <trkpt lat="47.29903" lon="-2.29844">
        <ele>63.400001525879</ele>
        <time>2022-05-29T07:33:24.000Z</time>
      </trkpt>
      <trkpt lat="47.29905" lon="-2.29838">
        <ele>63.799999237061</ele>
        <time>2022-05-29T07:33:25.000Z</time>
      </trkpt>
      <trkpt lat="47.29915" lon="-2.29824">
        <ele>63.799999237061</ele>
        <time>2022-05-29T07:33:28.000Z</time>
      </trkpt>
      <trkpt lat="47.2992" lon="-2.29821">
        <ele>63.799999237061</ele>
        <time>2022-05-29T07:33:29.000Z</time>
      </trkpt>
      <trkpt lat="47.29935" lon="-2.2981">
        <ele>63.799999237061</ele>
        <time>2022-05-29T07:33:33.000Z</time>
      </trkpt>
      <trkpt lat="47.29945" lon="-2.29798">
        <ele>63.799999237061</ele>
        <time>2022-05-29T07:33:37.000Z</time>
      </trkpt>
      <trkpt lat="47.29949" lon="-2.29785">
        <ele>63.799999237061</ele>
        <time>2022-05-29T07:33:40.000Z</time>
      </trkpt>
      <trkpt lat="47.29948" lon="-2.2978">
        <ele>63.799999237061</ele>
        <time>2022-05-29T07:33:41.000Z</time>
      </trkpt>
      <trkpt lat="47.29934" lon="-2.29737">
        <ele>63.799999237061</ele>
        <time>2022-05-29T07:33:48.000Z</time>
      </trkpt>
      <trkpt lat="47.29918" lon="-2.29694">
        <ele>63.799999237061</ele>
        <time>2022-05-29T07:33:55.000Z</time>
      </trkpt>
      <trkpt lat="47.29914" lon="-2.29682">
        <ele>63.799999237061</ele>
        <time>2022-05-29T07:33:57.000Z</time>
      </trkpt>
      <trkpt lat="47.29914" lon="-2.29662">
        <ele>63.799999237061</ele>
        <time>2022-05-29T07:34:00.000Z</time>
      </trkpt>
      <trkpt lat="47.29925" lon="-2.29649">
        <ele>63.799999237061</ele>
        <time>2022-05-29T07:34:03.000Z</time>
      </trkpt>
      <trkpt lat="47.29936" lon="-2.29643">
        <ele>63.799999237061</ele>
        <time>2022-05-29T07:34:05.000Z</time>
      </trkpt>
      <trkpt lat="47.29958" lon="-2.29634">
        <ele>63.799999237061</ele>
        <time>2022-05-29T07:34:09.000Z</time>
      </trkpt>
      <trkpt lat="47.30002" lon="-2.29631">
        <ele>63.799999237061</ele>
        <time>2022-05-29T07:34:16.000Z</time>
      </trkpt>
      <trkpt lat="47.30039" lon="-2.29629">
        <ele>63.799999237061</ele>
        <time>2022-05-29T07:34:22.000Z</time>
      </trkpt>
      <trkpt lat="47.30074" lon="-2.29636">
        <ele>63.799999237061</ele>
        <time>2022-05-29T07:34:28.000Z</time>
      </trkpt>
      <trkpt lat="47.30111" lon="-2.29648">
        <ele>63.799999237061</ele>
        <time>2022-05-29T07:34:35.000Z</time>
      </trkpt>
      <trkpt lat="47.30149" lon="-2.29661">
        <ele>63.799999237061</ele>
        <time>2022-05-29T07:34:42.000Z</time>
      </trkpt>
      <trkpt lat="47.30187" lon="-2.29681">
        <ele>63.799999237061</ele>
        <time>2022-05-29T07:34:49.000Z</time>
      </trkpt>
      <trkpt lat="47.30204" lon="-2.29691">
        <ele>63.400001525879</ele>
        <time>2022-05-29T07:34:52.000Z</time>
      </trkpt>
      <trkpt lat="47.30209" lon="-2.29694">
        <ele>63</ele>
        <time>2022-05-29T07:34:53.000Z</time>
      </trkpt>
      <trkpt lat="47.30215" lon="-2.29697">
        <ele>62.599998474121</ele>
        <time>2022-05-29T07:34:54.000Z</time>
      </trkpt>
      <trkpt lat="47.30221" lon="-2.29701">
        <ele>62.200000762939</ele>
        <time>2022-05-29T07:34:55.000Z</time>
      </trkpt>
      <trkpt lat="47.30227" lon="-2.29704">
        <ele>61.799999237061</ele>
        <time>2022-05-29T07:34:56.000Z</time>
      </trkpt>
      <trkpt lat="47.30232" lon="-2.29706">
        <ele>61.799999237061</ele>
        <time>2022-05-29T07:34:57.000Z</time>
      </trkpt>
      <trkpt lat="47.30244" lon="-2.2971">
        <ele>61.799999237061</ele>
        <time>2022-05-29T07:35:00.000Z</time>
      </trkpt>
      <trkpt lat="47.30247" lon="-2.29712">
        <ele>61.799999237061</ele>
        <time>2022-05-29T07:35:04.000Z</time>
      </trkpt>
      <trkpt lat="47.30248" lon="-2.29715">
        <ele>61.799999237061</ele>
        <time>2022-05-29T07:35:06.000Z</time>
      </trkpt>
      <trkpt lat="47.30246" lon="-2.2972">
        <ele>61.799999237061</ele>
        <time>2022-05-29T07:35:09.000Z</time>
      </trkpt>
      <trkpt lat="47.30245" lon="-2.29723">
        <ele>61.799999237061</ele>
        <time>2022-05-29T07:35:10.000Z</time>
      </trkpt>
      <trkpt lat="47.30236" lon="-2.29737">
        <ele>61.799999237061</ele>
        <time>2022-05-29T07:35:15.000Z</time>
      </trkpt>
      <trkpt lat="47.30226" lon="-2.29747">
        <ele>61.799999237061</ele>
        <time>2022-05-29T07:35:20.000Z</time>
      </trkpt>
      <trkpt lat="47.30213" lon="-2.29772">
        <ele>61.799999237061</ele>
        <time>2022-05-29T07:35:26.000Z</time>
      </trkpt>
      <trkpt lat="47.30201" lon="-2.29789">
        <ele>61.799999237061</ele>
        <time>2022-05-29T07:35:31.000Z</time>
      </trkpt>
      <trkpt lat="47.30188" lon="-2.29805">
        <ele>61.799999237061</ele>
        <time>2022-05-29T07:35:36.000Z</time>
      </trkpt>
      <trkpt lat="47.30181" lon="-2.2982">
        <ele>61.799999237061</ele>
        <time>2022-05-29T07:35:42.000Z</time>
      </trkpt>
      <trkpt lat="47.30173" lon="-2.29834">
        <ele>61.799999237061</ele>
        <time>2022-05-29T07:35:46.000Z</time>
      </trkpt>
      <trkpt lat="47.30171" lon="-2.29838">
        <ele>61.799999237061</ele>
        <time>2022-05-29T07:35:47.000Z</time>
      </trkpt>
      <trkpt lat="47.30155" lon="-2.29859">
        <ele>61.799999237061</ele>
        <time>2022-05-29T07:35:52.000Z</time>
      </trkpt>
      <trkpt lat="47.30142" lon="-2.2987">
        <ele>61.799999237061</ele>
        <time>2022-05-29T07:35:56.000Z</time>
      </trkpt>
      <trkpt lat="47.30139" lon="-2.29874">
        <ele>61.799999237061</ele>
        <time>2022-05-29T07:35:57.000Z</time>
      </trkpt>
      <trkpt lat="47.30131" lon="-2.29888">
        <ele>61.799999237061</ele>
        <time>2022-05-29T07:36:00.000Z</time>
      </trkpt>
      <trkpt lat="47.30104" lon="-2.29909">
        <ele>61.799999237061</ele>
        <time>2022-05-29T07:36:06.000Z</time>
      </trkpt>
      <trkpt lat="47.30101" lon="-2.29911">
        <ele>61.799999237061</ele>
        <time>2022-05-29T07:36:07.000Z</time>
      </trkpt>
      <trkpt lat="47.30092" lon="-2.29923">
        <ele>61.799999237061</ele>
        <time>2022-05-29T07:36:11.000Z</time>
      </trkpt>
      <trkpt lat="47.30096" lon="-2.29936">
        <ele>61.799999237061</ele>
        <time>2022-05-29T07:36:15.000Z</time>
      </trkpt>
      <trkpt lat="47.30097" lon="-2.29938">
        <ele>61.799999237061</ele>
        <time>2022-05-29T07:36:16.000Z</time>
      </trkpt>
      <trkpt lat="47.30098" lon="-2.29951">
        <ele>61.799999237061</ele>
        <time>2022-05-29T07:36:20.000Z</time>
      </trkpt>
      <trkpt lat="47.30096" lon="-2.29974">
        <ele>61.799999237061</ele>
        <time>2022-05-29T07:36:25.000Z</time>
      </trkpt>
      <trkpt lat="47.30101" lon="-2.2999">
        <ele>61.799999237061</ele>
        <time>2022-05-29T07:36:29.000Z</time>
      </trkpt>
      <trkpt lat="47.30112" lon="-2.29999">
        <ele>61.799999237061</ele>
        <time>2022-05-29T07:36:34.000Z</time>
      </trkpt>
      <trkpt lat="47.30124" lon="-2.30018">
        <ele>61.799999237061</ele>
        <time>2022-05-29T07:36:39.000Z</time>
      </trkpt>
      <trkpt lat="47.30128" lon="-2.30024">
        <ele>61.799999237061</ele>
        <time>2022-05-29T07:36:40.000Z</time>
      </trkpt>
      <trkpt lat="47.3013" lon="-2.30029">
        <ele>62.200000762939</ele>
        <time>2022-05-29T07:36:41.000Z</time>
      </trkpt>
      <trkpt lat="47.30134" lon="-2.30035">
        <ele>62.599998474121</ele>
        <time>2022-05-29T07:36:42.000Z</time>
      </trkpt>
      <trkpt lat="47.30137" lon="-2.30041">
        <ele>63</ele>
        <time>2022-05-29T07:36:43.000Z</time>
      </trkpt>
      <trkpt lat="47.30139" lon="-2.30047">
        <ele>63.400001525879</ele>
        <time>2022-05-29T07:36:44.000Z</time>
      </trkpt>
      <trkpt lat="47.30142" lon="-2.30053">
        <ele>63.799999237061</ele>
        <time>2022-05-29T07:36:45.000Z</time>
      </trkpt>
      <trkpt lat="47.30154" lon="-2.30075">
        <ele>63.799999237061</ele>
        <time>2022-05-29T07:36:49.000Z</time>
      </trkpt>
      <trkpt lat="47.30156" lon="-2.30082">
        <ele>63.799999237061</ele>
        <time>2022-05-29T07:36:50.000Z</time>
      </trkpt>
      <trkpt lat="47.30166" lon="-2.30112">
        <ele>63.799999237061</ele>
        <time>2022-05-29T07:36:55.000Z</time>
      </trkpt>
      <trkpt lat="47.30179" lon="-2.30152">
        <ele>63.799999237061</ele>
        <time>2022-05-29T07:37:02.000Z</time>
      </trkpt>
      <trkpt lat="47.30193" lon="-2.30193">
        <ele>63.799999237061</ele>
        <time>2022-05-29T07:37:09.000Z</time>
      </trkpt>
      <trkpt lat="47.30198" lon="-2.30204">
        <ele>64.199996948242</ele>
        <time>2022-05-29T07:37:11.000Z</time>
      </trkpt>
      <trkpt lat="47.302" lon="-2.3021">
        <ele>64.599998474121</ele>
        <time>2022-05-29T07:37:12.000Z</time>
      </trkpt>
      <trkpt lat="47.30201" lon="-2.30217">
        <ele>65</ele>
        <time>2022-05-29T07:37:13.000Z</time>
      </trkpt>
      <trkpt lat="47.30199" lon="-2.30224">
        <ele>65.400001525879</ele>
        <time>2022-05-29T07:37:14.000Z</time>
      </trkpt>
      <trkpt lat="47.30197" lon="-2.3023">
        <ele>65.800003051758</ele>
        <time>2022-05-29T07:37:15.000Z</time>
      </trkpt>
      <trkpt lat="47.30188" lon="-2.30242">
        <ele>65.800003051758</ele>
        <time>2022-05-29T07:37:18.000Z</time>
      </trkpt>
      <trkpt lat="47.30185" lon="-2.30245">
        <ele>65.800003051758</ele>
        <time>2022-05-29T07:37:19.000Z</time>
      </trkpt>
      <trkpt lat="47.30161" lon="-2.30256">
        <ele>65.800003051758</ele>
        <time>2022-05-29T07:37:24.000Z</time>
      </trkpt>
      <trkpt lat="47.30126" lon="-2.30264">
        <ele>65.800003051758</ele>
        <time>2022-05-29T07:37:30.000Z</time>
      </trkpt>
      <trkpt lat="47.30111" lon="-2.30271">
        <ele>65.800003051758</ele>
        <time>2022-05-29T07:37:33.000Z</time>
      </trkpt>
      <trkpt lat="47.30108" lon="-2.30277">
        <ele>65.800003051758</ele>
        <time>2022-05-29T07:37:34.000Z</time>
      </trkpt>
      <trkpt lat="47.30105" lon="-2.30299">
        <ele>65.800003051758</ele>
        <time>2022-05-29T07:37:37.000Z</time>
      </trkpt>
      <trkpt lat="47.30113" lon="-2.30326">
        <ele>65.800003051758</ele>
        <time>2022-05-29T07:37:41.000Z</time>
      </trkpt>
      <trkpt lat="47.30126" lon="-2.30371">
        <ele>65.800003051758</ele>
        <time>2022-05-29T07:37:47.000Z</time>
      </trkpt>
      <trkpt lat="47.30128" lon="-2.30379">
        <ele>65.800003051758</ele>
        <time>2022-05-29T07:37:48.000Z</time>
      </trkpt>
      <trkpt lat="47.30144" lon="-2.30434">
        <ele>65.800003051758</ele>
        <time>2022-05-29T07:37:55.000Z</time>
      </trkpt>
      <trkpt lat="47.30164" lon="-2.30476">
        <ele>65.800003051758</ele>
        <time>2022-05-29T07:38:01.000Z</time>
      </trkpt>
      <trkpt lat="47.30194" lon="-2.30513">
        <ele>65.800003051758</ele>
        <time>2022-05-29T07:38:08.000Z</time>
      </trkpt>
      <trkpt lat="47.30199" lon="-2.30517">
        <ele>65.800003051758</ele>
        <time>2022-05-29T07:38:09.000Z</time>
      </trkpt>
      <trkpt lat="47.30223" lon="-2.30539">
        <ele>65.800003051758</ele>
        <time>2022-05-29T07:38:14.000Z</time>
      </trkpt>
      <trkpt lat="47.30231" lon="-2.3056">
        <ele>65.800003051758</ele>
        <time>2022-05-29T07:38:17.000Z</time>
      </trkpt>
      <trkpt lat="47.30228" lon="-2.30584">
        <ele>65.800003051758</ele>
        <time>2022-05-29T07:38:20.000Z</time>
      </trkpt>
      <trkpt lat="47.30215" lon="-2.30597">
        <ele>65.800003051758</ele>
        <time>2022-05-29T07:38:23.000Z</time>
      </trkpt>
      <trkpt lat="47.30204" lon="-2.30602">
        <ele>65.800003051758</ele>
        <time>2022-05-29T07:38:25.000Z</time>
      </trkpt>
      <trkpt lat="47.302" lon="-2.30606">
        <ele>65.800003051758</ele>
        <time>2022-05-29T07:38:26.000Z</time>
      </trkpt>
      <trkpt lat="47.30197" lon="-2.30611">
        <ele>65.800003051758</ele>
        <time>2022-05-29T07:38:27.000Z</time>
      </trkpt>
      <trkpt lat="47.30177" lon="-2.30631">
        <ele>65.800003051758</ele>
        <time>2022-05-29T07:38:32.000Z</time>
      </trkpt>
      <trkpt lat="47.30172" lon="-2.30635">
        <ele>66.199996948242</ele>
        <time>2022-05-29T07:38:33.000Z</time>
      </trkpt>
      <trkpt lat="47.30167" lon="-2.30641">
        <ele>66.599998474121</ele>
        <time>2022-05-29T07:38:34.000Z</time>
      </trkpt>
      <trkpt lat="47.30165" lon="-2.30649">
        <ele>67</ele>
        <time>2022-05-29T07:38:35.000Z</time>
      </trkpt>
      <trkpt lat="47.30163" lon="-2.3066">
        <ele>67.400001525879</ele>
        <time>2022-05-29T07:38:36.000Z</time>
      </trkpt>
      <trkpt lat="47.30163" lon="-2.30669">
        <ele>67.800003051758</ele>
        <time>2022-05-29T07:38:37.000Z</time>
      </trkpt>
      <trkpt lat="47.30166" lon="-2.30688">
        <ele>67.800003051758</ele>
        <time>2022-05-29T07:38:39.000Z</time>
      </trkpt>
      <trkpt lat="47.30167" lon="-2.30699">
        <ele>67.800003051758</ele>
        <time>2022-05-29T07:38:40.000Z</time>
      </trkpt>
      <trkpt lat="47.3017" lon="-2.30738">
        <ele>67.800003051758</ele>
        <time>2022-05-29T07:38:44.000Z</time>
      </trkpt>
      <trkpt lat="47.30173" lon="-2.30745">
        <ele>67.800003051758</ele>
        <time>2022-05-29T07:38:45.000Z</time>
      </trkpt>
      <trkpt lat="47.30178" lon="-2.30766">
        <ele>67.800003051758</ele>
        <time>2022-05-29T07:38:48.000Z</time>
      </trkpt>
      <trkpt lat="47.30178" lon="-2.30774">
        <ele>67.800003051758</ele>
        <time>2022-05-29T07:38:49.000Z</time>
      </trkpt>
      <trkpt lat="47.30178" lon="-2.30803">
        <ele>67.800003051758</ele>
        <time>2022-05-29T07:38:53.000Z</time>
      </trkpt>
      <trkpt lat="47.30188" lon="-2.30824">
        <ele>67.800003051758</ele>
        <time>2022-05-29T07:38:57.000Z</time>
      </trkpt>
      <trkpt lat="47.30195" lon="-2.30832">
        <ele>67.800003051758</ele>
        <time>2022-05-29T07:38:59.000Z</time>
      </trkpt>
      <trkpt lat="47.30207" lon="-2.30846">
        <ele>67.800003051758</ele>
        <time>2022-05-29T07:39:02.000Z</time>
      </trkpt>
      <trkpt lat="47.30235" lon="-2.30874">
        <ele>67.800003051758</ele>
        <time>2022-05-29T07:39:08.000Z</time>
      </trkpt>
      <trkpt lat="47.30256" lon="-2.30898">
        <ele>67.800003051758</ele>
        <time>2022-05-29T07:39:13.000Z</time>
      </trkpt>
      <trkpt lat="47.3026" lon="-2.30904">
        <ele>67.800003051758</ele>
        <time>2022-05-29T07:39:14.000Z</time>
      </trkpt>
      <trkpt lat="47.30268" lon="-2.30915">
        <ele>68.400001525879</ele>
        <time>2022-05-29T07:39:16.000Z</time>
      </trkpt>
      <trkpt lat="47.30272" lon="-2.3092">
        <ele>68.800003051758</ele>
        <time>2022-05-29T07:39:17.000Z</time>
      </trkpt>
      <trkpt lat="47.30276" lon="-2.30925">
        <ele>69.400001525879</ele>
        <time>2022-05-29T07:39:18.000Z</time>
      </trkpt>
      <trkpt lat="47.3028" lon="-2.3093">
        <ele>69.800003051758</ele>
        <time>2022-05-29T07:39:19.000Z</time>
      </trkpt>
      <trkpt lat="47.30284" lon="-2.30935">
        <ele>70.199996948242</ele>
        <time>2022-05-29T07:39:20.000Z</time>
      </trkpt>
      <trkpt lat="47.30287" lon="-2.3094">
        <ele>70.199996948242</ele>
        <time>2022-05-29T07:39:21.000Z</time>
      </trkpt>
      <trkpt lat="47.30305" lon="-2.30968">
        <ele>70.800003051758</ele>
        <time>2022-05-29T07:39:26.000Z</time>
      </trkpt>
      <trkpt lat="47.30309" lon="-2.30974">
        <ele>71.199996948242</ele>
        <time>2022-05-29T07:39:27.000Z</time>
      </trkpt>
      <trkpt lat="47.30313" lon="-2.30979">
        <ele>71.599998474121</ele>
        <time>2022-05-29T07:39:28.000Z</time>
      </trkpt>
      <trkpt lat="47.30317" lon="-2.30984">
        <ele>72</ele>
        <time>2022-05-29T07:39:29.000Z</time>
      </trkpt>
      <trkpt lat="47.3032" lon="-2.30988">
        <ele>72.400001525879</ele>
        <time>2022-05-29T07:39:30.000Z</time>
      </trkpt>
      <trkpt lat="47.30326" lon="-2.30997">
        <ele>72.400001525879</ele>
        <time>2022-05-29T07:39:32.000Z</time>
      </trkpt>
      <trkpt lat="47.30332" lon="-2.31006">
        <ele>73.400001525879</ele>
        <time>2022-05-29T07:39:34.000Z</time>
      </trkpt>
      <trkpt lat="47.30334" lon="-2.3101">
        <ele>73.800003051758</ele>
        <time>2022-05-29T07:39:35.000Z</time>
      </trkpt>
      <trkpt lat="47.30337" lon="-2.31013">
        <ele>74.199996948242</ele>
        <time>2022-05-29T07:39:36.000Z</time>
      </trkpt>
      <trkpt lat="47.3034" lon="-2.31017">
        <ele>74.599998474121</ele>
        <time>2022-05-29T07:39:37.000Z</time>
      </trkpt>
      <trkpt lat="47.30355" lon="-2.31037">
        <ele>74.599998474121</ele>
        <time>2022-05-29T07:39:42.000Z</time>
      </trkpt>
      <trkpt lat="47.30359" lon="-2.31041">
        <ele>75</ele>
        <time>2022-05-29T07:39:43.000Z</time>
      </trkpt>
      <trkpt lat="47.30363" lon="-2.31046">
        <ele>75.400001525879</ele>
        <time>2022-05-29T07:39:44.000Z</time>
      </trkpt>
      <trkpt lat="47.30366" lon="-2.3105">
        <ele>75.800003051758</ele>
        <time>2022-05-29T07:39:45.000Z</time>
      </trkpt>
      <trkpt lat="47.3037" lon="-2.31056">
        <ele>76.199996948242</ele>
        <time>2022-05-29T07:39:46.000Z</time>
      </trkpt>
      <trkpt lat="47.30373" lon="-2.3106">
        <ele>76.599998474121</ele>
        <time>2022-05-29T07:39:47.000Z</time>
      </trkpt>
      <trkpt lat="47.30401" lon="-2.31091">
        <ele>76.599998474121</ele>
        <time>2022-05-29T07:39:54.000Z</time>
      </trkpt>
      <trkpt lat="47.30423" lon="-2.3111">
        <ele>77</ele>
        <time>2022-05-29T07:39:59.000Z</time>
      </trkpt>
      <trkpt lat="47.30427" lon="-2.31114">
        <ele>77.599998474121</ele>
        <time>2022-05-29T07:40:00.000Z</time>
      </trkpt>
      <trkpt lat="47.30431" lon="-2.31117">
        <ele>78</ele>
        <time>2022-05-29T07:40:01.000Z</time>
      </trkpt>
      <trkpt lat="47.30435" lon="-2.3112">
        <ele>78.400001525879</ele>
        <time>2022-05-29T07:40:02.000Z</time>
      </trkpt>
      <trkpt lat="47.30439" lon="-2.31124">
        <ele>78.800003051758</ele>
        <time>2022-05-29T07:40:03.000Z</time>
      </trkpt>
      <trkpt lat="47.30443" lon="-2.31129">
        <ele>78.800003051758</ele>
        <time>2022-05-29T07:40:04.000Z</time>
      </trkpt>
      <trkpt lat="47.30448" lon="-2.31138">
        <ele>78.800003051758</ele>
        <time>2022-05-29T07:40:06.000Z</time>
      </trkpt>
      <trkpt lat="47.30453" lon="-2.31158">
        <ele>78.800003051758</ele>
        <time>2022-05-29T07:40:09.000Z</time>
      </trkpt>
      <trkpt lat="47.30455" lon="-2.31165">
        <ele>78.800003051758</ele>
        <time>2022-05-29T07:40:10.000Z</time>
      </trkpt>
      <trkpt lat="47.30469" lon="-2.3121">
        <ele>78.800003051758</ele>
        <time>2022-05-29T07:40:17.000Z</time>
      </trkpt>
      <trkpt lat="47.30478" lon="-2.31237">
        <ele>78.800003051758</ele>
        <time>2022-05-29T07:40:21.000Z</time>
      </trkpt>
      <trkpt lat="47.30488" lon="-2.31255">
        <ele>78.800003051758</ele>
        <time>2022-05-29T07:40:24.000Z</time>
      </trkpt>
      <trkpt lat="47.30518" lon="-2.31302">
        <ele>78.800003051758</ele>
        <time>2022-05-29T07:40:31.000Z</time>
      </trkpt>
      <trkpt lat="47.30552" lon="-2.31355">
        <ele>78.800003051758</ele>
        <time>2022-05-29T07:40:39.000Z</time>
      </trkpt>
      <trkpt lat="47.30575" lon="-2.31393">
        <ele>78.800003051758</ele>
        <time>2022-05-29T07:40:45.000Z</time>
      </trkpt>
      <trkpt lat="47.30591" lon="-2.31428">
        <ele>78.800003051758</ele>
        <time>2022-05-29T07:40:50.000Z</time>
      </trkpt>
      <trkpt lat="47.30617" lon="-2.31486">
        <ele>78.800003051758</ele>
        <time>2022-05-29T07:40:58.000Z</time>
      </trkpt>
      <trkpt lat="47.30638" lon="-2.31541">
        <ele>78.800003051758</ele>
        <time>2022-05-29T07:41:05.000Z</time>
      </trkpt>
      <trkpt lat="47.30664" lon="-2.31599">
        <ele>78.800003051758</ele>
        <time>2022-05-29T07:41:12.000Z</time>
      </trkpt>
      <trkpt lat="47.30673" lon="-2.31615">
        <ele>78.400001525879</ele>
        <time>2022-05-29T07:41:14.000Z</time>
      </trkpt>
      <trkpt lat="47.30676" lon="-2.31624">
        <ele>77.800003051758</ele>
        <time>2022-05-29T07:41:15.000Z</time>
      </trkpt>
      <trkpt lat="47.3068" lon="-2.31633">
        <ele>77.400001525879</ele>
        <time>2022-05-29T07:41:16.000Z</time>
      </trkpt>
      <trkpt lat="47.30683" lon="-2.31642">
        <ele>77</ele>
        <time>2022-05-29T07:41:17.000Z</time>
      </trkpt>
      <trkpt lat="47.30685" lon="-2.31651">
        <ele>76.599998474121</ele>
        <time>2022-05-29T07:41:18.000Z</time>
      </trkpt>
      <trkpt lat="47.30688" lon="-2.3166">
        <ele>76.599998474121</ele>
        <time>2022-05-29T07:41:19.000Z</time>
      </trkpt>
      <trkpt lat="47.30697" lon="-2.31684">
        <ele>76.599998474121</ele>
        <time>2022-05-29T07:41:22.000Z</time>
      </trkpt>
      <trkpt lat="47.30704" lon="-2.31697">
        <ele>76.599998474121</ele>
        <time>2022-05-29T07:41:24.000Z</time>
      </trkpt>
      <trkpt lat="47.30715" lon="-2.31724">
        <ele>76.599998474121</ele>
        <time>2022-05-29T07:41:28.000Z</time>
      </trkpt>
      <trkpt lat="47.30718" lon="-2.31731">
        <ele>76.599998474121</ele>
        <time>2022-05-29T07:41:29.000Z</time>
      </trkpt>
      <trkpt lat="47.30729" lon="-2.31758">
        <ele>76.599998474121</ele>
        <time>2022-05-29T07:41:33.000Z</time>
      </trkpt>
      <trkpt lat="47.30732" lon="-2.3176">
        <ele>76.599998474121</ele>
        <time>2022-05-29T07:41:34.000Z</time>
      </trkpt>
      <trkpt lat="47.30744" lon="-2.31756">
        <ele>76.599998474121</ele>
        <time>2022-05-29T07:41:37.000Z</time>
      </trkpt>
      <trkpt lat="47.30751" lon="-2.31749">
        <ele>76.599998474121</ele>
        <time>2022-05-29T07:41:39.000Z</time>
      </trkpt>
      <trkpt lat="47.30755" lon="-2.31745">
        <ele>76.599998474121</ele>
        <time>2022-05-29T07:41:40.000Z</time>
      </trkpt>
      <trkpt lat="47.30762" lon="-2.31738">
        <ele>77</ele>
        <time>2022-05-29T07:41:42.000Z</time>
      </trkpt>
      <trkpt lat="47.30766" lon="-2.31735">
        <ele>77.400001525879</ele>
        <time>2022-05-29T07:41:43.000Z</time>
      </trkpt>
      <trkpt lat="47.3077" lon="-2.3173">
        <ele>78</ele>
        <time>2022-05-29T07:41:44.000Z</time>
      </trkpt>
      <trkpt lat="47.30774" lon="-2.31725">
        <ele>78.400001525879</ele>
        <time>2022-05-29T07:41:45.000Z</time>
      </trkpt>
      <trkpt lat="47.30778" lon="-2.3172">
        <ele>78.800003051758</ele>
        <time>2022-05-29T07:41:46.000Z</time>
      </trkpt>
      <trkpt lat="47.30786" lon="-2.31711">
        <ele>78.800003051758</ele>
        <time>2022-05-29T07:41:48.000Z</time>
      </trkpt>
      <trkpt lat="47.30814" lon="-2.31678">
        <ele>78.800003051758</ele>
        <time>2022-05-29T07:41:55.000Z</time>
      </trkpt>
      <trkpt lat="47.30825" lon="-2.31665">
        <ele>79.400001525879</ele>
        <time>2022-05-29T07:41:58.000Z</time>
      </trkpt>
      <trkpt lat="47.30829" lon="-2.31661">
        <ele>79.800003051758</ele>
        <time>2022-05-29T07:41:59.000Z</time>
      </trkpt>
      <trkpt lat="47.30832" lon="-2.31657">
        <ele>80.199996948242</ele>
        <time>2022-05-29T07:42:00.000Z</time>
      </trkpt>
      <trkpt lat="47.30835" lon="-2.31653">
        <ele>80.599998474121</ele>
        <time>2022-05-29T07:42:01.000Z</time>
      </trkpt>
      <trkpt lat="47.30839" lon="-2.31649">
        <ele>81</ele>
        <time>2022-05-29T07:42:02.000Z</time>
      </trkpt>
      <trkpt lat="47.30843" lon="-2.31646">
        <ele>81</ele>
        <time>2022-05-29T07:42:03.000Z</time>
      </trkpt>
      <trkpt lat="47.30855" lon="-2.31653">
        <ele>81</ele>
        <time>2022-05-29T07:42:06.000Z</time>
      </trkpt>
      <trkpt lat="47.30862" lon="-2.31663">
        <ele>81</ele>
        <time>2022-05-29T07:42:08.000Z</time>
      </trkpt>
      <trkpt lat="47.30873" lon="-2.31678">
        <ele>81</ele>
        <time>2022-05-29T07:42:11.000Z</time>
      </trkpt>
      <trkpt lat="47.30903" lon="-2.31714">
        <ele>81</ele>
        <time>2022-05-29T07:42:18.000Z</time>
      </trkpt>
      <trkpt lat="47.30935" lon="-2.31752">
        <ele>81</ele>
        <time>2022-05-29T07:42:25.000Z</time>
      </trkpt>
      <trkpt lat="47.3097" lon="-2.31788">
        <ele>81</ele>
        <time>2022-05-29T07:42:32.000Z</time>
      </trkpt>
      <trkpt lat="47.31002" lon="-2.31821">
        <ele>81</ele>
        <time>2022-05-29T07:42:39.000Z</time>
      </trkpt>
      <trkpt lat="47.31004" lon="-2.31826">
        <ele>81</ele>
        <time>2022-05-29T07:42:40.000Z</time>
      </trkpt>
      <trkpt lat="47.31003" lon="-2.31838">
        <ele>81</ele>
        <time>2022-05-29T07:42:42.000Z</time>
      </trkpt>
      <trkpt lat="47.30995" lon="-2.31856">
        <ele>81</ele>
        <time>2022-05-29T07:42:45.000Z</time>
      </trkpt>
      <trkpt lat="47.30993" lon="-2.31862">
        <ele>81</ele>
        <time>2022-05-29T07:42:46.000Z</time>
      </trkpt>
      <trkpt lat="47.3099" lon="-2.31875">
        <ele>81</ele>
        <time>2022-05-29T07:42:48.000Z</time>
      </trkpt>
      <trkpt lat="47.30987" lon="-2.31888">
        <ele>81</ele>
        <time>2022-05-29T07:42:50.000Z</time>
      </trkpt>
      <trkpt lat="47.30986" lon="-2.31895">
        <ele>81</ele>
        <time>2022-05-29T07:42:51.000Z</time>
      </trkpt>
      <trkpt lat="47.30984" lon="-2.31903">
        <ele>81</ele>
        <time>2022-05-29T07:42:52.000Z</time>
      </trkpt>
      <trkpt lat="47.3098" lon="-2.31915">
        <ele>81</ele>
        <time>2022-05-29T07:42:54.000Z</time>
      </trkpt>
      <trkpt lat="47.30973" lon="-2.31927">
        <ele>81</ele>
        <time>2022-05-29T07:42:56.000Z</time>
      </trkpt>
      <trkpt lat="47.30966" lon="-2.31956">
        <ele>81</ele>
        <time>2022-05-29T07:43:00.000Z</time>
      </trkpt>
      <trkpt lat="47.30967" lon="-2.31974">
        <ele>81</ele>
        <time>2022-05-29T07:43:04.000Z</time>
      </trkpt>
      <trkpt lat="47.30974" lon="-2.31993">
        <ele>81</ele>
        <time>2022-05-29T07:43:09.000Z</time>
      </trkpt>
      <trkpt lat="47.30984" lon="-2.32019">
        <ele>81</ele>
        <time>2022-05-29T07:43:15.000Z</time>
      </trkpt>
      <trkpt lat="47.30994" lon="-2.32043">
        <ele>81</ele>
        <time>2022-05-29T07:43:20.000Z</time>
      </trkpt>
      <trkpt lat="47.30996" lon="-2.32048">
        <ele>81</ele>
        <time>2022-05-29T07:43:21.000Z</time>
      </trkpt>
      <trkpt lat="47.31013" lon="-2.32075">
        <ele>81</ele>
        <time>2022-05-29T07:43:27.000Z</time>
      </trkpt>
      <trkpt lat="47.31019" lon="-2.32084">
        <ele>81.400001525879</ele>
        <time>2022-05-29T07:43:29.000Z</time>
      </trkpt>
      <trkpt lat="47.31021" lon="-2.32088">
        <ele>81.800003051758</ele>
        <time>2022-05-29T07:43:30.000Z</time>
      </trkpt>
      <trkpt lat="47.31024" lon="-2.32092">
        <ele>82.199996948242</ele>
        <time>2022-05-29T07:43:31.000Z</time>
      </trkpt>
      <trkpt lat="47.31027" lon="-2.32097">
        <ele>82.800003051758</ele>
        <time>2022-05-29T07:43:32.000Z</time>
      </trkpt>
      <trkpt lat="47.3103" lon="-2.32102">
        <ele>83.199996948242</ele>
        <time>2022-05-29T07:43:33.000Z</time>
      </trkpt>
      <trkpt lat="47.31032" lon="-2.32106">
        <ele>83.199996948242</ele>
        <time>2022-05-29T07:43:34.000Z</time>
      </trkpt>
      <trkpt lat="47.31052" lon="-2.32134">
        <ele>83.199996948242</ele>
        <time>2022-05-29T07:43:41.000Z</time>
      </trkpt>
      <trkpt lat="47.31054" lon="-2.32138">
        <ele>83.599998474121</ele>
        <time>2022-05-29T07:43:42.000Z</time>
      </trkpt>
      <trkpt lat="47.31058" lon="-2.32143">
        <ele>84</ele>
        <time>2022-05-29T07:43:43.000Z</time>
      </trkpt>
      <trkpt lat="47.3106" lon="-2.32147">
        <ele>84.400001525879</ele>
        <time>2022-05-29T07:43:44.000Z</time>
      </trkpt>
      <trkpt lat="47.31063" lon="-2.32152">
        <ele>84.800003051758</ele>
        <time>2022-05-29T07:43:45.000Z</time>
      </trkpt>
      <trkpt lat="47.31066" lon="-2.32157">
        <ele>85.199996948242</ele>
        <time>2022-05-29T07:43:46.000Z</time>
      </trkpt>
      <trkpt lat="47.31071" lon="-2.32165">
        <ele>85.199996948242</ele>
        <time>2022-05-29T07:43:48.000Z</time>
      </trkpt>
      <trkpt lat="47.31086" lon="-2.32196">
        <ele>85.199996948242</ele>
        <time>2022-05-29T07:43:55.000Z</time>
      </trkpt>
      <trkpt lat="47.31096" lon="-2.32221">
        <ele>85.199996948242</ele>
        <time>2022-05-29T07:44:00.000Z</time>
      </trkpt>
      <trkpt lat="47.31101" lon="-2.32236">
        <ele>85.599998474121</ele>
        <time>2022-05-29T07:44:03.000Z</time>
      </trkpt>
      <trkpt lat="47.31103" lon="-2.32239">
        <ele>86</ele>
        <time>2022-05-29T07:44:04.000Z</time>
      </trkpt>
      <trkpt lat="47.31105" lon="-2.32244">
        <ele>86.400001525879</ele>
        <time>2022-05-29T07:44:05.000Z</time>
      </trkpt>
      <trkpt lat="47.31107" lon="-2.32248">
        <ele>87.400001525879</ele>
        <time>2022-05-29T07:44:06.000Z</time>
      </trkpt>
      <trkpt lat="47.31121" lon="-2.32279">
        <ele>87.800003051758</ele>
        <time>2022-05-29T07:44:14.000Z</time>
      </trkpt>
      <trkpt lat="47.31123" lon="-2.32283">
        <ele>88.199996948242</ele>
        <time>2022-05-29T07:44:15.000Z</time>
      </trkpt>
      <trkpt lat="47.31125" lon="-2.32287">
        <ele>88.599998474121</ele>
        <time>2022-05-29T07:44:16.000Z</time>
      </trkpt>
      <trkpt lat="47.31126" lon="-2.32291">
        <ele>89</ele>
        <time>2022-05-29T07:44:17.000Z</time>
      </trkpt>
      <trkpt lat="47.31128" lon="-2.32294">
        <ele>89.400001525879</ele>
        <time>2022-05-29T07:44:18.000Z</time>
      </trkpt>
      <trkpt lat="47.31131" lon="-2.32307">
        <ele>89.400001525879</ele>
        <time>2022-05-29T07:44:21.000Z</time>
      </trkpt>
      <trkpt lat="47.31138" lon="-2.32337">
        <ele>89.400001525879</ele>
        <time>2022-05-29T07:44:28.000Z</time>
      </trkpt>
      <trkpt lat="47.31139" lon="-2.32341">
        <ele>89.800003051758</ele>
        <time>2022-05-29T07:44:29.000Z</time>
      </trkpt>
      <trkpt lat="47.3114" lon="-2.32346">
        <ele>90.800003051758</ele>
        <time>2022-05-29T07:44:30.000Z</time>
      </trkpt>
      <trkpt lat="47.31141" lon="-2.3235">
        <ele>91.199996948242</ele>
        <time>2022-05-29T07:44:31.000Z</time>
      </trkpt>
      <trkpt lat="47.31141" lon="-2.32355">
        <ele>91.599998474121</ele>
        <time>2022-05-29T07:44:32.000Z</time>
      </trkpt>
      <trkpt lat="47.31141" lon="-2.32373">
        <ele>91.599998474121</ele>
        <time>2022-05-29T07:44:36.000Z</time>
      </trkpt>
      <trkpt lat="47.3114" lon="-2.32403">
        <ele>91.599998474121</ele>
        <time>2022-05-29T07:44:43.000Z</time>
      </trkpt>
      <trkpt lat="47.31142" lon="-2.32408">
        <ele>91.599998474121</ele>
        <time>2022-05-29T07:44:44.000Z</time>
      </trkpt>
      <trkpt lat="47.31147" lon="-2.32416">
        <ele>91.599998474121</ele>
        <time>2022-05-29T07:44:46.000Z</time>
      </trkpt>
      <trkpt lat="47.31154" lon="-2.3242">
        <ele>91.599998474121</ele>
        <time>2022-05-29T07:44:48.000Z</time>
      </trkpt>
      <trkpt lat="47.31165" lon="-2.32425">
        <ele>91.599998474121</ele>
        <time>2022-05-29T07:44:51.000Z</time>
      </trkpt>
      <trkpt lat="47.31173" lon="-2.32432">
        <ele>91.599998474121</ele>
        <time>2022-05-29T07:44:55.000Z</time>
      </trkpt>
      <trkpt lat="47.31174" lon="-2.32433">
        <ele>91.599998474121</ele>
        <time>2022-05-29T07:44:56.000Z</time>
      </trkpt>
      <trkpt lat="47.31176" lon="-2.32438">
        <ele>93.599998474121</ele>
        <time>2022-05-29T07:46:31.000Z</time>
      </trkpt>
      <trkpt lat="47.31178" lon="-2.32443">
        <ele>93.599998474121</ele>
        <time>2022-05-29T07:46:33.000Z</time>
      </trkpt>
      <trkpt lat="47.31178" lon="-2.32446">
        <ele>93.599998474121</ele>
        <time>2022-05-29T07:46:34.000Z</time>
      </trkpt>
      <trkpt lat="47.31177" lon="-2.32457">
        <ele>93.599998474121</ele>
        <time>2022-05-29T07:46:37.000Z</time>
      </trkpt>
      <trkpt lat="47.31176" lon="-2.32491">
        <ele>93.599998474121</ele>
        <time>2022-05-29T07:46:43.000Z</time>
      </trkpt>
      <trkpt lat="47.31176" lon="-2.32538">
        <ele>94.199996948242</ele>
        <time>2022-05-29T07:46:50.000Z</time>
      </trkpt>
      <trkpt lat="47.31175" lon="-2.32545">
        <ele>94.599998474121</ele>
        <time>2022-05-29T07:46:51.000Z</time>
      </trkpt>
      <trkpt lat="47.31175" lon="-2.32551">
        <ele>95</ele>
        <time>2022-05-29T07:46:52.000Z</time>
      </trkpt>
      <trkpt lat="47.31175" lon="-2.32558">
        <ele>95.400001525879</ele>
        <time>2022-05-29T07:46:53.000Z</time>
      </trkpt>
      <trkpt lat="47.31175" lon="-2.32565">
        <ele>95.800003051758</ele>
        <time>2022-05-29T07:46:54.000Z</time>
      </trkpt>
      <trkpt lat="47.31176" lon="-2.32594">
        <ele>95.800003051758</ele>
        <time>2022-05-29T07:46:58.000Z</time>
      </trkpt>
      <trkpt lat="47.31177" lon="-2.32629">
        <ele>95.800003051758</ele>
        <time>2022-05-29T07:47:03.000Z</time>
      </trkpt>
      <trkpt lat="47.31178" lon="-2.32636">
        <ele>95.800003051758</ele>
        <time>2022-05-29T07:47:04.000Z</time>
      </trkpt>
      <trkpt lat="47.3118" lon="-2.32643">
        <ele>95.800003051758</ele>
        <time>2022-05-29T07:47:05.000Z</time>
      </trkpt>
      <trkpt lat="47.3119" lon="-2.32669">
        <ele>95.800003051758</ele>
        <time>2022-05-29T07:47:09.000Z</time>
      </trkpt>
      <trkpt lat="47.31195" lon="-2.32683">
        <ele>95.800003051758</ele>
        <time>2022-05-29T07:47:11.000Z</time>
      </trkpt>
      <trkpt lat="47.312" lon="-2.32697">
        <ele>95.800003051758</ele>
        <time>2022-05-29T07:47:13.000Z</time>
      </trkpt>
      <trkpt lat="47.31208" lon="-2.32724">
        <ele>95.800003051758</ele>
        <time>2022-05-29T07:47:17.000Z</time>
      </trkpt>
      <trkpt lat="47.31211" lon="-2.3273">
        <ele>96.199996948242</ele>
        <time>2022-05-29T07:47:18.000Z</time>
      </trkpt>
      <trkpt lat="47.31214" lon="-2.32734">
        <ele>96.599998474121</ele>
        <time>2022-05-29T07:47:19.000Z</time>
      </trkpt>
      <trkpt lat="47.31219" lon="-2.32739">
        <ele>97</ele>
        <time>2022-05-29T07:47:20.000Z</time>
      </trkpt>
      <trkpt lat="47.31224" lon="-2.32742">
        <ele>97.400001525879</ele>
        <time>2022-05-29T07:47:21.000Z</time>
      </trkpt>
      <trkpt lat="47.31229" lon="-2.32745">
        <ele>97.800003051758</ele>
        <time>2022-05-29T07:47:22.000Z</time>
      </trkpt>
      <trkpt lat="47.31269" lon="-2.3277">
        <ele>97.800003051758</ele>
        <time>2022-05-29T07:47:29.000Z</time>
      </trkpt>
      <trkpt lat="47.31274" lon="-2.32774">
        <ele>97.800003051758</ele>
        <time>2022-05-29T07:47:30.000Z</time>
      </trkpt>
      <trkpt lat="47.31289" lon="-2.32793">
        <ele>97.800003051758</ele>
        <time>2022-05-29T07:47:33.000Z</time>
      </trkpt>
      <trkpt lat="47.31314" lon="-2.32834">
        <ele>97.800003051758</ele>
        <time>2022-05-29T07:47:39.000Z</time>
      </trkpt>
      <trkpt lat="47.3134" lon="-2.32871">
        <ele>97.800003051758</ele>
        <time>2022-05-29T07:47:45.000Z</time>
      </trkpt>
      <trkpt lat="47.31354" lon="-2.32892">
        <ele>97.800003051758</ele>
        <time>2022-05-29T07:47:49.000Z</time>
      </trkpt>
      <trkpt lat="47.31353" lon="-2.3291">
        <ele>97.800003051758</ele>
        <time>2022-05-29T07:47:52.000Z</time>
      </trkpt>
      <trkpt lat="47.31342" lon="-2.32934">
        <ele>97.800003051758</ele>
        <time>2022-05-29T07:47:56.000Z</time>
      </trkpt>
      <trkpt lat="47.31338" lon="-2.32942">
        <ele>97.800003051758</ele>
        <time>2022-05-29T07:47:57.000Z</time>
      </trkpt>
      <trkpt lat="47.31317" lon="-2.32982">
        <ele>97.800003051758</ele>
        <time>2022-05-29T07:48:02.000Z</time>
      </trkpt>
      <trkpt lat="47.31286" lon="-2.33032">
        <ele>97.800003051758</ele>
        <time>2022-05-29T07:48:09.000Z</time>
      </trkpt>
      <trkpt lat="47.3126" lon="-2.33076">
        <ele>97.800003051758</ele>
        <time>2022-05-29T07:48:16.000Z</time>
      </trkpt>
      <trkpt lat="47.3124" lon="-2.33115">
        <ele>97.800003051758</ele>
        <time>2022-05-29T07:48:22.000Z</time>
      </trkpt>
      <trkpt lat="47.31238" lon="-2.33121">
        <ele>97.800003051758</ele>
        <time>2022-05-29T07:48:23.000Z</time>
      </trkpt>
      <trkpt lat="47.31235" lon="-2.33143">
        <ele>97.800003051758</ele>
        <time>2022-05-29T07:48:27.000Z</time>
      </trkpt>
      <trkpt lat="47.31245" lon="-2.3315">
        <ele>97.800003051758</ele>
        <time>2022-05-29T07:48:30.000Z</time>
      </trkpt>
      <trkpt lat="47.31265" lon="-2.33152">
        <ele>97.800003051758</ele>
        <time>2022-05-29T07:48:34.000Z</time>
      </trkpt>
      <trkpt lat="47.31271" lon="-2.33154">
        <ele>97.800003051758</ele>
        <time>2022-05-29T07:48:35.000Z</time>
      </trkpt>
      <trkpt lat="47.31298" lon="-2.33172">
        <ele>97.800003051758</ele>
        <time>2022-05-29T07:48:40.000Z</time>
      </trkpt>
      <trkpt lat="47.31324" lon="-2.33194">
        <ele>97.800003051758</ele>
        <time>2022-05-29T07:48:45.000Z</time>
      </trkpt>
      <trkpt lat="47.31339" lon="-2.33208">
        <ele>98.199996948242</ele>
        <time>2022-05-29T07:48:48.000Z</time>
      </trkpt>
      <trkpt lat="47.31343" lon="-2.33212">
        <ele>98.599998474121</ele>
        <time>2022-05-29T07:48:49.000Z</time>
      </trkpt>
      <trkpt lat="47.31348" lon="-2.33217">
        <ele>99</ele>
        <time>2022-05-29T07:48:50.000Z</time>
      </trkpt>
      <trkpt lat="47.31353" lon="-2.33221">
        <ele>99.400001525879</ele>
        <time>2022-05-29T07:48:51.000Z</time>
      </trkpt>
      <trkpt lat="47.31358" lon="-2.33225">
        <ele>99.800003051758</ele>
        <time>2022-05-29T07:48:52.000Z</time>
      </trkpt>
      <trkpt lat="47.3139" lon="-2.33247">
        <ele>99.800003051758</ele>
        <time>2022-05-29T07:48:58.000Z</time>
      </trkpt>
      <trkpt lat="47.31422" lon="-2.33273">
        <ele>99.800003051758</ele>
        <time>2022-05-29T07:49:04.000Z</time>
      </trkpt>
      <trkpt lat="47.31451" lon="-2.33305">
        <ele>99.800003051758</ele>
        <time>2022-05-29T07:49:10.000Z</time>
      </trkpt>
      <trkpt lat="47.31454" lon="-2.33312">
        <ele>99.800003051758</ele>
        <time>2022-05-29T07:49:11.000Z</time>
      </trkpt>
      <trkpt lat="47.31464" lon="-2.33333">
        <ele>100.40000152588</ele>
        <time>2022-05-29T07:49:14.000Z</time>
      </trkpt>
      <trkpt lat="47.31467" lon="-2.3334">
        <ele>100.80000305176</ele>
        <time>2022-05-29T07:49:15.000Z</time>
      </trkpt>
      <trkpt lat="47.3147" lon="-2.33347">
        <ele>101.19999694824</ele>
        <time>2022-05-29T07:49:16.000Z</time>
      </trkpt>
      <trkpt lat="47.31474" lon="-2.33355">
        <ele>101.59999847412</ele>
        <time>2022-05-29T07:49:17.000Z</time>
      </trkpt>
      <trkpt lat="47.31477" lon="-2.33362">
        <ele>102</ele>
        <time>2022-05-29T07:49:18.000Z</time>
      </trkpt>
      <trkpt lat="47.31487" lon="-2.33368">
        <ele>102</ele>
        <time>2022-05-29T07:49:20.000Z</time>
      </trkpt>
      <trkpt lat="47.31505" lon="-2.33362">
        <ele>102</ele>
        <time>2022-05-29T07:49:23.000Z</time>
      </trkpt>
      <trkpt lat="47.31539" lon="-2.33343">
        <ele>102</ele>
        <time>2022-05-29T07:49:29.000Z</time>
      </trkpt>
      <trkpt lat="47.31573" lon="-2.33327">
        <ele>102.40000152588</ele>
        <time>2022-05-29T07:49:35.000Z</time>
      </trkpt>
      <trkpt lat="47.31579" lon="-2.33325">
        <ele>102.80000305176</ele>
        <time>2022-05-29T07:49:36.000Z</time>
      </trkpt>
      <trkpt lat="47.31585" lon="-2.33322">
        <ele>103.19999694824</ele>
        <time>2022-05-29T07:49:37.000Z</time>
      </trkpt>
      <trkpt lat="47.3159" lon="-2.33319">
        <ele>103.59999847412</ele>
        <time>2022-05-29T07:49:38.000Z</time>
      </trkpt>
      <trkpt lat="47.31596" lon="-2.33316">
        <ele>104</ele>
        <time>2022-05-29T07:49:39.000Z</time>
      </trkpt>
      <trkpt lat="47.31619" lon="-2.33302">
        <ele>104</ele>
        <time>2022-05-29T07:49:43.000Z</time>
      </trkpt>
      <trkpt lat="47.31655" lon="-2.33282">
        <ele>104</ele>
        <time>2022-05-29T07:49:49.000Z</time>
      </trkpt>
      <trkpt lat="47.31696" lon="-2.33265">
        <ele>103.59999847412</ele>
        <time>2022-05-29T07:49:56.000Z</time>
      </trkpt>
      <trkpt lat="47.31702" lon="-2.33262">
        <ele>103</ele>
        <time>2022-05-29T07:49:57.000Z</time>
      </trkpt>
      <trkpt lat="47.31707" lon="-2.3326">
        <ele>102.59999847412</ele>
        <time>2022-05-29T07:49:58.000Z</time>
      </trkpt>
      <trkpt lat="47.31713" lon="-2.33257">
        <ele>102.19999694824</ele>
        <time>2022-05-29T07:49:59.000Z</time>
      </trkpt>
      <trkpt lat="47.31719" lon="-2.33254">
        <ele>101.80000305176</ele>
        <time>2022-05-29T07:50:00.000Z</time>
      </trkpt>
      <trkpt lat="47.31725" lon="-2.33252">
        <ele>101.40000152588</ele>
        <time>2022-05-29T07:50:01.000Z</time>
      </trkpt>
      <trkpt lat="47.31731" lon="-2.3325">
        <ele>101</ele>
        <time>2022-05-29T07:50:02.000Z</time>
      </trkpt>
      <trkpt lat="47.31736" lon="-2.33248">
        <ele>100.59999847412</ele>
        <time>2022-05-29T07:50:03.000Z</time>
      </trkpt>
      <trkpt lat="47.3174" lon="-2.3325">
        <ele>100.19999694824</ele>
        <time>2022-05-29T07:50:04.000Z</time>
      </trkpt>
      <trkpt lat="47.31743" lon="-2.33254">
        <ele>99.800003051758</ele>
        <time>2022-05-29T07:50:05.000Z</time>
      </trkpt>
      <trkpt lat="47.31748" lon="-2.33274">
        <ele>99.800003051758</ele>
        <time>2022-05-29T07:50:08.000Z</time>
      </trkpt>
      <trkpt lat="47.31749" lon="-2.33281">
        <ele>99.800003051758</ele>
        <time>2022-05-29T07:50:09.000Z</time>
      </trkpt>
      <trkpt lat="47.31759" lon="-2.33316">
        <ele>99.800003051758</ele>
        <time>2022-05-29T07:50:15.000Z</time>
      </trkpt>
      <trkpt lat="47.31761" lon="-2.33321">
        <ele>99</ele>
        <time>2022-05-29T07:50:16.000Z</time>
      </trkpt>
      <trkpt lat="47.31765" lon="-2.33327">
        <ele>98.599998474121</ele>
        <time>2022-05-29T07:50:17.000Z</time>
      </trkpt>
      <trkpt lat="47.31768" lon="-2.3333">
        <ele>98.199996948242</ele>
        <time>2022-05-29T07:50:18.000Z</time>
      </trkpt>
      <trkpt lat="47.31772" lon="-2.3333">
        <ele>97.599998474121</ele>
        <time>2022-05-29T07:50:19.000Z</time>
      </trkpt>
      <trkpt lat="47.31785" lon="-2.33321">
        <ele>97.599998474121</ele>
        <time>2022-05-29T07:50:22.000Z</time>
      </trkpt>
      <trkpt lat="47.31789" lon="-2.33318">
        <ele>97.199996948242</ele>
        <time>2022-05-29T07:50:23.000Z</time>
      </trkpt>
      <trkpt lat="47.31794" lon="-2.33316">
        <ele>96.800003051758</ele>
        <time>2022-05-29T07:50:24.000Z</time>
      </trkpt>
      <trkpt lat="47.31798" lon="-2.33313">
        <ele>96.199996948242</ele>
        <time>2022-05-29T07:50:25.000Z</time>
      </trkpt>
      <trkpt lat="47.31804" lon="-2.3331">
        <ele>95.800003051758</ele>
        <time>2022-05-29T07:50:26.000Z</time>
      </trkpt>
      <trkpt lat="47.31809" lon="-2.33307">
        <ele>95.400001525879</ele>
        <time>2022-05-29T07:50:27.000Z</time>
      </trkpt>
      <trkpt lat="47.31814" lon="-2.33304">
        <ele>95</ele>
        <time>2022-05-29T07:50:28.000Z</time>
      </trkpt>
      <trkpt lat="47.3182" lon="-2.33301">
        <ele>94.599998474121</ele>
        <time>2022-05-29T07:50:29.000Z</time>
      </trkpt>
      <trkpt lat="47.31825" lon="-2.33298">
        <ele>94</ele>
        <time>2022-05-29T07:50:30.000Z</time>
      </trkpt>
      <trkpt lat="47.3183" lon="-2.33293">
        <ele>93.599998474121</ele>
        <time>2022-05-29T07:50:31.000Z</time>
      </trkpt>
      <trkpt lat="47.31835" lon="-2.33288">
        <ele>93.199996948242</ele>
        <time>2022-05-29T07:50:32.000Z</time>
      </trkpt>
      <trkpt lat="47.31839" lon="-2.33281">
        <ele>93.199996948242</ele>
        <time>2022-05-29T07:50:33.000Z</time>
      </trkpt>
      <trkpt lat="47.31846" lon="-2.33265">
        <ele>93.199996948242</ele>
        <time>2022-05-29T07:50:35.000Z</time>
      </trkpt>
      <trkpt lat="47.31855" lon="-2.3324">
        <ele>92.800003051758</ele>
        <time>2022-05-29T07:50:38.000Z</time>
      </trkpt>
      <trkpt lat="47.31857" lon="-2.3323">
        <ele>92.400001525879</ele>
        <time>2022-05-29T07:50:39.000Z</time>
      </trkpt>
      <trkpt lat="47.31858" lon="-2.3322">
        <ele>92</ele>
        <time>2022-05-29T07:50:40.000Z</time>
      </trkpt>
      <trkpt lat="47.3186" lon="-2.3321">
        <ele>91.199996948242</ele>
        <time>2022-05-29T07:50:41.000Z</time>
      </trkpt>
      <trkpt lat="47.31867" lon="-2.33171">
        <ele>91.199996948242</ele>
        <time>2022-05-29T07:50:45.000Z</time>
      </trkpt>
      <trkpt lat="47.3187" lon="-2.33154">
        <ele>90.800003051758</ele>
        <time>2022-05-29T07:50:47.000Z</time>
      </trkpt>
      <trkpt lat="47.31871" lon="-2.33146">
        <ele>90.400001525879</ele>
        <time>2022-05-29T07:50:48.000Z</time>
      </trkpt>
      <trkpt lat="47.31872" lon="-2.33139">
        <ele>89.800003051758</ele>
        <time>2022-05-29T07:50:49.000Z</time>
      </trkpt>
      <trkpt lat="47.31874" lon="-2.3313">
        <ele>89.400001525879</ele>
        <time>2022-05-29T07:50:50.000Z</time>
      </trkpt>
      <trkpt lat="47.31875" lon="-2.33121">
        <ele>89</ele>
        <time>2022-05-29T07:50:51.000Z</time>
      </trkpt>
      <trkpt lat="47.31878" lon="-2.331">
        <ele>89</ele>
        <time>2022-05-29T07:50:53.000Z</time>
      </trkpt>
      <trkpt lat="47.31879" lon="-2.3309">
        <ele>88.599998474121</ele>
        <time>2022-05-29T07:50:54.000Z</time>
      </trkpt>
      <trkpt lat="47.3188" lon="-2.3308">
        <ele>88.199996948242</ele>
        <time>2022-05-29T07:50:55.000Z</time>
      </trkpt>
      <trkpt lat="47.31882" lon="-2.33069">
        <ele>87.800003051758</ele>
        <time>2022-05-29T07:50:56.000Z</time>
      </trkpt>
      <trkpt lat="47.31882" lon="-2.33058">
        <ele>87.400001525879</ele>
        <time>2022-05-29T07:50:57.000Z</time>
      </trkpt>
      <trkpt lat="47.31882" lon="-2.33047">
        <ele>87</ele>
        <time>2022-05-29T07:50:58.000Z</time>
      </trkpt>
      <trkpt lat="47.31883" lon="-2.33036">
        <ele>87</ele>
        <time>2022-05-29T07:50:59.000Z</time>
      </trkpt>
      <trkpt lat="47.31882" lon="-2.32985">
        <ele>87</ele>
        <time>2022-05-29T07:51:04.000Z</time>
      </trkpt>
      <trkpt lat="47.31883" lon="-2.32938">
        <ele>87</ele>
        <time>2022-05-29T07:51:09.000Z</time>
      </trkpt>
      <trkpt lat="47.31883" lon="-2.32876">
        <ele>87</ele>
        <time>2022-05-29T07:51:16.000Z</time>
      </trkpt>
      <trkpt lat="47.31881" lon="-2.32828">
        <ele>87</ele>
        <time>2022-05-29T07:51:21.000Z</time>
      </trkpt>
      <trkpt lat="47.31875" lon="-2.32767">
        <ele>87</ele>
        <time>2022-05-29T07:51:28.000Z</time>
      </trkpt>
      <trkpt lat="47.3187" lon="-2.32745">
        <ele>87.800003051758</ele>
        <time>2022-05-29T07:51:31.000Z</time>
      </trkpt>
      <trkpt lat="47.31868" lon="-2.32738">
        <ele>88.199996948242</ele>
        <time>2022-05-29T07:51:32.000Z</time>
      </trkpt>
      <trkpt lat="47.31866" lon="-2.32732">
        <ele>88.599998474121</ele>
        <time>2022-05-29T07:51:33.000Z</time>
      </trkpt>
      <trkpt lat="47.31864" lon="-2.32726">
        <ele>89</ele>
        <time>2022-05-29T07:51:34.000Z</time>
      </trkpt>
      <trkpt lat="47.31853" lon="-2.32696">
        <ele>89</ele>
        <time>2022-05-29T07:51:39.000Z</time>
      </trkpt>
      <trkpt lat="47.31848" lon="-2.32684">
        <ele>89</ele>
        <time>2022-05-29T07:51:41.000Z</time>
      </trkpt>
      <trkpt lat="47.3184" lon="-2.32663">
        <ele>89</ele>
        <time>2022-05-29T07:51:45.000Z</time>
      </trkpt>
      <trkpt lat="47.31835" lon="-2.32633">
        <ele>89</ele>
        <time>2022-05-29T07:51:50.000Z</time>
      </trkpt>
      <trkpt lat="47.31834" lon="-2.32627">
        <ele>89.400001525879</ele>
        <time>2022-05-29T07:51:51.000Z</time>
      </trkpt>
      <trkpt lat="47.31833" lon="-2.3262">
        <ele>89.800003051758</ele>
        <time>2022-05-29T07:51:52.000Z</time>
      </trkpt>
      <trkpt lat="47.31832" lon="-2.32614">
        <ele>90.199996948242</ele>
        <time>2022-05-29T07:51:53.000Z</time>
      </trkpt>
      <trkpt lat="47.3183" lon="-2.32607">
        <ele>90.599998474121</ele>
        <time>2022-05-29T07:51:54.000Z</time>
      </trkpt>
      <trkpt lat="47.31829" lon="-2.32601">
        <ele>91</ele>
        <time>2022-05-29T07:51:55.000Z</time>
      </trkpt>
      <trkpt lat="47.31827" lon="-2.32588">
        <ele>91</ele>
        <time>2022-05-29T07:51:57.000Z</time>
      </trkpt>
      <trkpt lat="47.31821" lon="-2.32556">
        <ele>91</ele>
        <time>2022-05-29T07:52:02.000Z</time>
      </trkpt>
      <trkpt lat="47.31819" lon="-2.3255">
        <ele>91.400001525879</ele>
        <time>2022-05-29T07:52:03.000Z</time>
      </trkpt>
      <trkpt lat="47.31818" lon="-2.32544">
        <ele>91.800003051758</ele>
        <time>2022-05-29T07:52:04.000Z</time>
      </trkpt>
      <trkpt lat="47.31817" lon="-2.32539">
        <ele>92.400001525879</ele>
        <time>2022-05-29T07:52:05.000Z</time>
      </trkpt>
      <trkpt lat="47.31815" lon="-2.32533">
        <ele>92.800003051758</ele>
        <time>2022-05-29T07:52:06.000Z</time>
      </trkpt>
      <trkpt lat="47.31814" lon="-2.32527">
        <ele>93.199996948242</ele>
        <time>2022-05-29T07:52:07.000Z</time>
      </trkpt>
      <trkpt lat="47.31812" lon="-2.32516">
        <ele>93.199996948242</ele>
        <time>2022-05-29T07:52:09.000Z</time>
      </trkpt>
      <trkpt lat="47.31806" lon="-2.325">
        <ele>93.599998474121</ele>
        <time>2022-05-29T07:52:12.000Z</time>
      </trkpt>
      <trkpt lat="47.31804" lon="-2.32494">
        <ele>94</ele>
        <time>2022-05-29T07:52:13.000Z</time>
      </trkpt>
      <trkpt lat="47.31802" lon="-2.32489">
        <ele>94.400001525879</ele>
        <time>2022-05-29T07:52:14.000Z</time>
      </trkpt>
      <trkpt lat="47.31801" lon="-2.32484">
        <ele>94.800003051758</ele>
        <time>2022-05-29T07:52:15.000Z</time>
      </trkpt>
      <trkpt lat="47.318" lon="-2.3248">
        <ele>95.199996948242</ele>
        <time>2022-05-29T07:52:16.000Z</time>
      </trkpt>
      <trkpt lat="47.31795" lon="-2.32465">
        <ele>95.800003051758</ele>
        <time>2022-05-29T07:52:19.000Z</time>
      </trkpt>
      <trkpt lat="47.31794" lon="-2.3246">
        <ele>96.800003051758</ele>
        <time>2022-05-29T07:52:20.000Z</time>
      </trkpt>
      <trkpt lat="47.31793" lon="-2.32454">
        <ele>97.199996948242</ele>
        <time>2022-05-29T07:52:21.000Z</time>
      </trkpt>
      <trkpt lat="47.31792" lon="-2.32448">
        <ele>97.800003051758</ele>
        <time>2022-05-29T07:52:22.000Z</time>
      </trkpt>
      <trkpt lat="47.31784" lon="-2.32406">
        <ele>97.800003051758</ele>
        <time>2022-05-29T07:52:29.000Z</time>
      </trkpt>
      <trkpt lat="47.31784" lon="-2.32401">
        <ele>98.199996948242</ele>
        <time>2022-05-29T07:52:30.000Z</time>
      </trkpt>
      <trkpt lat="47.31784" lon="-2.32396">
        <ele>98.599998474121</ele>
        <time>2022-05-29T07:52:31.000Z</time>
      </trkpt>
      <trkpt lat="47.31783" lon="-2.32389">
        <ele>99</ele>
        <time>2022-05-29T07:52:32.000Z</time>
      </trkpt>
      <trkpt lat="47.31781" lon="-2.32382">
        <ele>99.400001525879</ele>
        <time>2022-05-29T07:52:33.000Z</time>
      </trkpt>
      <trkpt lat="47.3178" lon="-2.32376">
        <ele>99.800003051758</ele>
        <time>2022-05-29T07:52:34.000Z</time>
      </trkpt>
      <trkpt lat="47.31772" lon="-2.32338">
        <ele>99.800003051758</ele>
        <time>2022-05-29T07:52:40.000Z</time>
      </trkpt>
      <trkpt lat="47.31768" lon="-2.32319">
        <ele>100.19999694824</ele>
        <time>2022-05-29T07:52:43.000Z</time>
      </trkpt>
      <trkpt lat="47.31767" lon="-2.32313">
        <ele>100.80000305176</ele>
        <time>2022-05-29T07:52:44.000Z</time>
      </trkpt>
      <trkpt lat="47.31766" lon="-2.32307">
        <ele>101.59999847412</ele>
        <time>2022-05-29T07:52:45.000Z</time>
      </trkpt>
      <trkpt lat="47.31764" lon="-2.323">
        <ele>102</ele>
        <time>2022-05-29T07:52:46.000Z</time>
      </trkpt>
      <trkpt lat="47.31761" lon="-2.3228">
        <ele>102</ele>
        <time>2022-05-29T07:52:49.000Z</time>
      </trkpt>
      <trkpt lat="47.31758" lon="-2.32268">
        <ele>102</ele>
        <time>2022-05-29T07:52:51.000Z</time>
      </trkpt>
      <trkpt lat="47.31754" lon="-2.3225">
        <ele>102</ele>
        <time>2022-05-29T07:52:54.000Z</time>
      </trkpt>
      <trkpt lat="47.31756" lon="-2.32234">
        <ele>102</ele>
        <time>2022-05-29T07:52:58.000Z</time>
      </trkpt>
      <trkpt lat="47.31769" lon="-2.32232">
        <ele>102</ele>
        <time>2022-05-29T07:53:01.000Z</time>
      </trkpt>
      <trkpt lat="47.31778" lon="-2.3223">
        <ele>102</ele>
        <time>2022-05-29T07:53:03.000Z</time>
      </trkpt>
      <trkpt lat="47.31799" lon="-2.32229">
        <ele>102</ele>
        <time>2022-05-29T07:53:07.000Z</time>
      </trkpt>
      <trkpt lat="47.31836" lon="-2.32225">
        <ele>102</ele>
        <time>2022-05-29T07:53:14.000Z</time>
      </trkpt>
      <trkpt lat="47.31848" lon="-2.32222">
        <ele>101.59999847412</ele>
        <time>2022-05-29T07:53:16.000Z</time>
      </trkpt>
      <trkpt lat="47.31854" lon="-2.3222">
        <ele>101.19999694824</ele>
        <time>2022-05-29T07:53:17.000Z</time>
      </trkpt>
      <trkpt lat="47.31861" lon="-2.32218">
        <ele>100.80000305176</ele>
        <time>2022-05-29T07:53:18.000Z</time>
      </trkpt>
      <trkpt lat="47.31868" lon="-2.32216">
        <ele>100.40000152588</ele>
        <time>2022-05-29T07:53:19.000Z</time>
      </trkpt>
      <trkpt lat="47.31876" lon="-2.32214">
        <ele>99.800003051758</ele>
        <time>2022-05-29T07:53:20.000Z</time>
      </trkpt>
      <trkpt lat="47.31883" lon="-2.32211">
        <ele>99.400001525879</ele>
        <time>2022-05-29T07:53:21.000Z</time>
      </trkpt>
      <trkpt lat="47.3189" lon="-2.32209">
        <ele>98.800003051758</ele>
        <time>2022-05-29T07:53:22.000Z</time>
      </trkpt>
      <trkpt lat="47.31897" lon="-2.32208">
        <ele>98.400001525879</ele>
        <time>2022-05-29T07:53:23.000Z</time>
      </trkpt>
      <trkpt lat="47.31904" lon="-2.32207">
        <ele>97.800003051758</ele>
        <time>2022-05-29T07:53:24.000Z</time>
      </trkpt>
      <trkpt lat="47.31911" lon="-2.32206">
        <ele>97.800003051758</ele>
        <time>2022-05-29T07:53:25.000Z</time>
      </trkpt>
      <trkpt lat="47.31918" lon="-2.32207">
        <ele>97.400001525879</ele>
        <time>2022-05-29T07:53:26.000Z</time>
      </trkpt>
      <trkpt lat="47.31925" lon="-2.32208">
        <ele>96.800003051758</ele>
        <time>2022-05-29T07:53:27.000Z</time>
      </trkpt>
      <trkpt lat="47.31932" lon="-2.3221">
        <ele>96.199996948242</ele>
        <time>2022-05-29T07:53:28.000Z</time>
      </trkpt>
      <trkpt lat="47.31939" lon="-2.32211">
        <ele>95.800003051758</ele>
        <time>2022-05-29T07:53:29.000Z</time>
      </trkpt>
      <trkpt lat="47.31945" lon="-2.32213">
        <ele>95.199996948242</ele>
        <time>2022-05-29T07:53:30.000Z</time>
      </trkpt>
      <trkpt lat="47.31949" lon="-2.32215">
        <ele>94.800003051758</ele>
        <time>2022-05-29T07:53:31.000Z</time>
      </trkpt>
      <trkpt lat="47.31953" lon="-2.32217">
        <ele>94.199996948242</ele>
        <time>2022-05-29T07:53:32.000Z</time>
      </trkpt>
      <trkpt lat="47.31956" lon="-2.32221">
        <ele>93.800003051758</ele>
        <time>2022-05-29T07:53:33.000Z</time>
      </trkpt>
      <trkpt lat="47.31957" lon="-2.32226">
        <ele>93.199996948242</ele>
        <time>2022-05-29T07:53:34.000Z</time>
      </trkpt>
      <trkpt lat="47.31956" lon="-2.32231">
        <ele>92.800003051758</ele>
        <time>2022-05-29T07:53:35.000Z</time>
      </trkpt>
      <trkpt lat="47.31954" lon="-2.32236">
        <ele>92.400001525879</ele>
        <time>2022-05-29T07:53:36.000Z</time>
      </trkpt>
      <trkpt lat="47.31952" lon="-2.32242">
        <ele>92</ele>
        <time>2022-05-29T07:53:37.000Z</time>
      </trkpt>
      <trkpt lat="47.3195" lon="-2.32247">
        <ele>91.599998474121</ele>
        <time>2022-05-29T07:53:38.000Z</time>
      </trkpt>
      <trkpt lat="47.31949" lon="-2.32253">
        <ele>91.199996948242</ele>
        <time>2022-05-29T07:53:39.000Z</time>
      </trkpt>
      <trkpt lat="47.3195" lon="-2.32258">
        <ele>90.599998474121</ele>
        <time>2022-05-29T07:53:40.000Z</time>
      </trkpt>
      <trkpt lat="47.31951" lon="-2.32262">
        <ele>90.599998474121</ele>
        <time>2022-05-29T07:53:41.000Z</time>
      </trkpt>
      <trkpt lat="47.31959" lon="-2.3226">
        <ele>90.599998474121</ele>
        <time>2022-05-29T07:53:43.000Z</time>
      </trkpt>
      <trkpt lat="47.31966" lon="-2.32247">
        <ele>90.599998474121</ele>
        <time>2022-05-29T07:53:45.000Z</time>
      </trkpt>
      <trkpt lat="47.31971" lon="-2.3224">
        <ele>90.599998474121</ele>
        <time>2022-05-29T07:53:46.000Z</time>
      </trkpt>
      <trkpt lat="47.31976" lon="-2.32233">
        <ele>90.199996948242</ele>
        <time>2022-05-29T07:53:47.000Z</time>
      </trkpt>
      <trkpt lat="47.31982" lon="-2.32226">
        <ele>89.800003051758</ele>
        <time>2022-05-29T07:53:48.000Z</time>
      </trkpt>
      <trkpt lat="47.31988" lon="-2.32218">
        <ele>89.199996948242</ele>
        <time>2022-05-29T07:53:49.000Z</time>
      </trkpt>
      <trkpt lat="47.31994" lon="-2.32209">
        <ele>88.800003051758</ele>
        <time>2022-05-29T07:53:50.000Z</time>
      </trkpt>
      <trkpt lat="47.32001" lon="-2.322">
        <ele>88.199996948242</ele>
        <time>2022-05-29T07:53:51.000Z</time>
      </trkpt>
      <trkpt lat="47.32007" lon="-2.32192">
        <ele>87.800003051758</ele>
        <time>2022-05-29T07:53:52.000Z</time>
      </trkpt>
      <trkpt lat="47.32027" lon="-2.32173">
        <ele>86.599998474121</ele>
        <time>2022-05-29T07:53:55.000Z</time>
      </trkpt>
      <trkpt lat="47.32034" lon="-2.32174">
        <ele>86.199996948242</ele>
        <time>2022-05-29T07:53:56.000Z</time>
      </trkpt>
      <trkpt lat="47.32084" lon="-2.32178">
        <ele>85.599998474121</ele>
        <time>2022-05-29T07:54:03.000Z</time>
      </trkpt>
      <trkpt lat="47.32091" lon="-2.32177">
        <ele>85.199996948242</ele>
        <time>2022-05-29T07:54:04.000Z</time>
      </trkpt>
      <trkpt lat="47.32099" lon="-2.32177">
        <ele>84.800003051758</ele>
        <time>2022-05-29T07:54:05.000Z</time>
      </trkpt>
      <trkpt lat="47.32108" lon="-2.32176">
        <ele>84.199996948242</ele>
        <time>2022-05-29T07:54:06.000Z</time>
      </trkpt>
      <trkpt lat="47.32116" lon="-2.32174">
        <ele>83.800003051758</ele>
        <time>2022-05-29T07:54:07.000Z</time>
      </trkpt>
      <trkpt lat="47.32124" lon="-2.32172">
        <ele>83.800003051758</ele>
        <time>2022-05-29T07:54:08.000Z</time>
      </trkpt>
      <trkpt lat="47.32146" lon="-2.32159">
        <ele>83.800003051758</ele>
        <time>2022-05-29T07:54:11.000Z</time>
      </trkpt>
      <trkpt lat="47.32152" lon="-2.32153">
        <ele>83.800003051758</ele>
        <time>2022-05-29T07:54:12.000Z</time>
      </trkpt>
      <trkpt lat="47.32187" lon="-2.32124">
        <ele>83.800003051758</ele>
        <time>2022-05-29T07:54:18.000Z</time>
      </trkpt>
      <trkpt lat="47.32197" lon="-2.32116">
        <ele>83.800003051758</ele>
        <time>2022-05-29T07:54:21.000Z</time>
      </trkpt>
      <trkpt lat="47.32208" lon="-2.32115">
        <ele>83.800003051758</ele>
        <time>2022-05-29T07:54:25.000Z</time>
      </trkpt>
      <trkpt lat="47.32213" lon="-2.32114">
        <ele>83.800003051758</ele>
        <time>2022-05-29T07:54:26.000Z</time>
      </trkpt>
      <trkpt lat="47.32228" lon="-2.3211">
        <ele>83.800003051758</ele>
        <time>2022-05-29T07:54:29.000Z</time>
      </trkpt>
      <trkpt lat="47.32238" lon="-2.32108">
        <ele>83.800003051758</ele>
        <time>2022-05-29T07:54:31.000Z</time>
      </trkpt>
      <trkpt lat="47.32261" lon="-2.32105">
        <ele>83.800003051758</ele>
        <time>2022-05-29T07:54:35.000Z</time>
      </trkpt>
      <trkpt lat="47.32299" lon="-2.321">
        <ele>83.800003051758</ele>
        <time>2022-05-29T07:54:42.000Z</time>
      </trkpt>
      <trkpt lat="47.32332" lon="-2.32104">
        <ele>83.800003051758</ele>
        <time>2022-05-29T07:54:49.000Z</time>
      </trkpt>
      <trkpt lat="47.32341" lon="-2.32104">
        <ele>83.800003051758</ele>
        <time>2022-05-29T07:54:53.000Z</time>
      </trkpt>
      <trkpt lat="47.32351" lon="-2.32106">
        <ele>83.800003051758</ele>
        <time>2022-05-29T07:54:58.000Z</time>
      </trkpt>
      <trkpt lat="47.32372" lon="-2.32107">
        <ele>83.800003051758</ele>
        <time>2022-05-29T07:55:04.000Z</time>
      </trkpt>
      <trkpt lat="47.32405" lon="-2.32105">
        <ele>83.800003051758</ele>
        <time>2022-05-29T07:55:11.000Z</time>
      </trkpt>
      <trkpt lat="47.32437" lon="-2.32102">
        <ele>83.800003051758</ele>
        <time>2022-05-29T07:55:17.000Z</time>
      </trkpt>
      <trkpt lat="47.32478" lon="-2.321">
        <ele>83.800003051758</ele>
        <time>2022-05-29T07:55:24.000Z</time>
      </trkpt>
      <trkpt lat="47.32497" lon="-2.32093">
        <ele>83.800003051758</ele>
        <time>2022-05-29T07:55:29.000Z</time>
      </trkpt>
      <trkpt lat="47.325" lon="-2.32076">
        <ele>83.800003051758</ele>
        <time>2022-05-29T07:55:33.000Z</time>
      </trkpt>
      <trkpt lat="47.32502" lon="-2.32036">
        <ele>83.800003051758</ele>
        <time>2022-05-29T07:55:39.000Z</time>
      </trkpt>
      <trkpt lat="47.32503" lon="-2.32">
        <ele>83.800003051758</ele>
        <time>2022-05-29T07:55:45.000Z</time>
      </trkpt>
      <trkpt lat="47.32506" lon="-2.31984">
        <ele>83.800003051758</ele>
        <time>2022-05-29T07:55:50.000Z</time>
      </trkpt>
      <trkpt lat="47.3251" lon="-2.31953">
        <ele>83.800003051758</ele>
        <time>2022-05-29T07:55:55.000Z</time>
      </trkpt>
      <trkpt lat="47.32513" lon="-2.31908">
        <ele>84.199996948242</ele>
        <time>2022-05-29T07:56:00.000Z</time>
      </trkpt>
      <trkpt lat="47.32514" lon="-2.31898">
        <ele>84.599998474121</ele>
        <time>2022-05-29T07:56:01.000Z</time>
      </trkpt>
      <trkpt lat="47.32515" lon="-2.31889">
        <ele>85</ele>
        <time>2022-05-29T07:56:02.000Z</time>
      </trkpt>
      <trkpt lat="47.32516" lon="-2.3188">
        <ele>85.800003051758</ele>
        <time>2022-05-29T07:56:03.000Z</time>
      </trkpt>
      <trkpt lat="47.32518" lon="-2.31836">
        <ele>85.800003051758</ele>
        <time>2022-05-29T07:56:08.000Z</time>
      </trkpt>
      <trkpt lat="47.32516" lon="-2.31785">
        <ele>85.800003051758</ele>
        <time>2022-05-29T07:56:14.000Z</time>
      </trkpt>
      <trkpt lat="47.32512" lon="-2.31725">
        <ele>85.800003051758</ele>
        <time>2022-05-29T07:56:21.000Z</time>
      </trkpt>
      <trkpt lat="47.32507" lon="-2.31674">
        <ele>85.800003051758</ele>
        <time>2022-05-29T07:56:27.000Z</time>
      </trkpt>
      <trkpt lat="47.32508" lon="-2.31658">
        <ele>85.800003051758</ele>
        <time>2022-05-29T07:56:29.000Z</time>
      </trkpt>
      <trkpt lat="47.32512" lon="-2.31644">
        <ele>85.800003051758</ele>
        <time>2022-05-29T07:56:31.000Z</time>
      </trkpt>
      <trkpt lat="47.32525" lon="-2.31626">
        <ele>85.800003051758</ele>
        <time>2022-05-29T07:56:34.000Z</time>
      </trkpt>
      <trkpt lat="47.32529" lon="-2.3162">
        <ele>85.800003051758</ele>
        <time>2022-05-29T07:56:35.000Z</time>
      </trkpt>
      <trkpt lat="47.32552" lon="-2.31592">
        <ele>85.800003051758</ele>
        <time>2022-05-29T07:56:41.000Z</time>
      </trkpt>
      <trkpt lat="47.32555" lon="-2.31589">
        <ele>85.800003051758</ele>
        <time>2022-05-29T07:56:45.000Z</time>
      </trkpt>
      <trkpt lat="47.32555" lon="-2.31589">
        <ele>85.800003051758</ele>
        <time>2022-05-29T07:56:47.000Z</time>
      </trkpt>
      <trkpt lat="47.32558" lon="-2.31586">
        <ele>85.800003051758</ele>
        <time>2022-05-29T07:56:57.000Z</time>
      </trkpt>
      <trkpt lat="47.32561" lon="-2.31584">
        <ele>85.800003051758</ele>
        <time>2022-05-29T07:56:59.000Z</time>
      </trkpt>
      <trkpt lat="47.32566" lon="-2.31582">
        <ele>85.800003051758</ele>
        <time>2022-05-29T07:57:01.000Z</time>
      </trkpt>
      <trkpt lat="47.32572" lon="-2.31579">
        <ele>85.800003051758</ele>
        <time>2022-05-29T07:57:03.000Z</time>
      </trkpt>
      <trkpt lat="47.32594" lon="-2.31571">
        <ele>85.800003051758</ele>
        <time>2022-05-29T07:57:09.000Z</time>
      </trkpt>
      <trkpt lat="47.32618" lon="-2.31559">
        <ele>85.800003051758</ele>
        <time>2022-05-29T07:57:16.000Z</time>
      </trkpt>
      <trkpt lat="47.32641" lon="-2.31547">
        <ele>85.800003051758</ele>
        <time>2022-05-29T07:57:22.000Z</time>
      </trkpt>
      <trkpt lat="47.32671" lon="-2.31534">
        <ele>85.800003051758</ele>
        <time>2022-05-29T07:57:29.000Z</time>
      </trkpt>
      <trkpt lat="47.32693" lon="-2.31521">
        <ele>85.800003051758</ele>
        <time>2022-05-29T07:57:34.000Z</time>
      </trkpt>
      <trkpt lat="47.32697" lon="-2.31518">
        <ele>85.800003051758</ele>
        <time>2022-05-29T07:57:35.000Z</time>
      </trkpt>
      <trkpt lat="47.3272" lon="-2.31498">
        <ele>85.800003051758</ele>
        <time>2022-05-29T07:57:40.000Z</time>
      </trkpt>
      <trkpt lat="47.32728" lon="-2.31486">
        <ele>85.800003051758</ele>
        <time>2022-05-29T07:57:42.000Z</time>
      </trkpt>
      <trkpt lat="47.32739" lon="-2.31466">
        <ele>85.800003051758</ele>
        <time>2022-05-29T07:57:45.000Z</time>
      </trkpt>
      <trkpt lat="47.32751" lon="-2.31447">
        <ele>85.400001525879</ele>
        <time>2022-05-29T07:57:48.000Z</time>
      </trkpt>
      <trkpt lat="47.32755" lon="-2.3144">
        <ele>85</ele>
        <time>2022-05-29T07:57:49.000Z</time>
      </trkpt>
      <trkpt lat="47.32758" lon="-2.31434">
        <ele>84.599998474121</ele>
        <time>2022-05-29T07:57:50.000Z</time>
      </trkpt>
      <trkpt lat="47.32761" lon="-2.31428">
        <ele>84.199996948242</ele>
        <time>2022-05-29T07:57:51.000Z</time>
      </trkpt>
      <trkpt lat="47.32765" lon="-2.31423">
        <ele>83.800003051758</ele>
        <time>2022-05-29T07:57:52.000Z</time>
      </trkpt>
      <trkpt lat="47.32769" lon="-2.31418">
        <ele>83.800003051758</ele>
        <time>2022-05-29T07:57:53.000Z</time>
      </trkpt>
      <trkpt lat="47.32784" lon="-2.31407">
        <ele>83.800003051758</ele>
        <time>2022-05-29T07:57:56.000Z</time>
      </trkpt>
      <trkpt lat="47.32815" lon="-2.31382">
        <ele>83.800003051758</ele>
        <time>2022-05-29T07:58:02.000Z</time>
      </trkpt>
      <trkpt lat="47.32834" lon="-2.31362">
        <ele>83.800003051758</ele>
        <time>2022-05-29T07:58:06.000Z</time>
      </trkpt>
      <trkpt lat="47.32838" lon="-2.31355">
        <ele>83.800003051758</ele>
        <time>2022-05-29T07:58:07.000Z</time>
      </trkpt>
      <trkpt lat="47.32844" lon="-2.31326">
        <ele>83.800003051758</ele>
        <time>2022-05-29T07:58:11.000Z</time>
      </trkpt>
      <trkpt lat="47.32845" lon="-2.31321">
        <ele>83.800003051758</ele>
        <time>2022-05-29T07:58:12.000Z</time>
      </trkpt>
      <trkpt lat="47.32855" lon="-2.31308">
        <ele>83.800003051758</ele>
        <time>2022-05-29T07:58:15.000Z</time>
      </trkpt>
      <trkpt lat="47.32866" lon="-2.31304">
        <ele>83.800003051758</ele>
        <time>2022-05-29T07:58:17.000Z</time>
      </trkpt>
      <trkpt lat="47.32883" lon="-2.31297">
        <ele>83.800003051758</ele>
        <time>2022-05-29T07:58:20.000Z</time>
      </trkpt>
      <trkpt lat="47.3292" lon="-2.31282">
        <ele>83.400001525879</ele>
        <time>2022-05-29T07:58:26.000Z</time>
      </trkpt>
      <trkpt lat="47.32925" lon="-2.31278">
        <ele>83</ele>
        <time>2022-05-29T07:58:27.000Z</time>
      </trkpt>
      <trkpt lat="47.3293" lon="-2.31273">
        <ele>82.599998474121</ele>
        <time>2022-05-29T07:58:28.000Z</time>
      </trkpt>
      <trkpt lat="47.32933" lon="-2.31265">
        <ele>82.199996948242</ele>
        <time>2022-05-29T07:58:29.000Z</time>
      </trkpt>
      <trkpt lat="47.32934" lon="-2.31257">
        <ele>81.800003051758</ele>
        <time>2022-05-29T07:58:30.000Z</time>
      </trkpt>
      <trkpt lat="47.3293" lon="-2.31231">
        <ele>81.800003051758</ele>
        <time>2022-05-29T07:58:33.000Z</time>
      </trkpt>
      <trkpt lat="47.32915" lon="-2.31176">
        <ele>81.800003051758</ele>
        <time>2022-05-29T07:58:39.000Z</time>
      </trkpt>
      <trkpt lat="47.32897" lon="-2.31098">
        <ele>81.800003051758</ele>
        <time>2022-05-29T07:58:47.000Z</time>
      </trkpt>
      <trkpt lat="47.3289" lon="-2.3104">
        <ele>81.800003051758</ele>
        <time>2022-05-29T07:58:53.000Z</time>
      </trkpt>
      <trkpt lat="47.32892" lon="-2.30976">
        <ele>81.800003051758</ele>
        <time>2022-05-29T07:59:00.000Z</time>
      </trkpt>
      <trkpt lat="47.32898" lon="-2.30914">
        <ele>81.800003051758</ele>
        <time>2022-05-29T07:59:07.000Z</time>
      </trkpt>
      <trkpt lat="47.32906" lon="-2.30838">
        <ele>81.800003051758</ele>
        <time>2022-05-29T07:59:15.000Z</time>
      </trkpt>
      <trkpt lat="47.3291" lon="-2.3082">
        <ele>81.800003051758</ele>
        <time>2022-05-29T07:59:17.000Z</time>
      </trkpt>
      <trkpt lat="47.32919" lon="-2.3081">
        <ele>81.800003051758</ele>
        <time>2022-05-29T07:59:19.000Z</time>
      </trkpt>
      <trkpt lat="47.32943" lon="-2.30803">
        <ele>81.800003051758</ele>
        <time>2022-05-29T07:59:23.000Z</time>
      </trkpt>
      <trkpt lat="47.32981" lon="-2.30804">
        <ele>81.800003051758</ele>
        <time>2022-05-29T07:59:28.000Z</time>
      </trkpt>
      <trkpt lat="47.33023" lon="-2.30809">
        <ele>81.800003051758</ele>
        <time>2022-05-29T07:59:35.000Z</time>
      </trkpt>
      <trkpt lat="47.33042" lon="-2.30806">
        <ele>81.800003051758</ele>
        <time>2022-05-29T07:59:38.000Z</time>
      </trkpt>
      <trkpt lat="47.33048" lon="-2.30802">
        <ele>81.800003051758</ele>
        <time>2022-05-29T07:59:39.000Z</time>
      </trkpt>
      <trkpt lat="47.33058" lon="-2.3078">
        <ele>81.800003051758</ele>
        <time>2022-05-29T07:59:42.000Z</time>
      </trkpt>
      <trkpt lat="47.33059" lon="-2.30772">
        <ele>81.800003051758</ele>
        <time>2022-05-29T07:59:43.000Z</time>
      </trkpt>
      <trkpt lat="47.33063" lon="-2.30747">
        <ele>81.800003051758</ele>
        <time>2022-05-29T07:59:46.000Z</time>
      </trkpt>
      <trkpt lat="47.33068" lon="-2.3072">
        <ele>81.800003051758</ele>
        <time>2022-05-29T07:59:49.000Z</time>
      </trkpt>
      <trkpt lat="47.33073" lon="-2.30703">
        <ele>81.800003051758</ele>
        <time>2022-05-29T07:59:51.000Z</time>
      </trkpt>
      <trkpt lat="47.33076" lon="-2.30686">
        <ele>81.400001525879</ele>
        <time>2022-05-29T07:59:53.000Z</time>
      </trkpt>
      <trkpt lat="47.33078" lon="-2.30677">
        <ele>81</ele>
        <time>2022-05-29T07:59:54.000Z</time>
      </trkpt>
      <trkpt lat="47.3308" lon="-2.30669">
        <ele>80.599998474121</ele>
        <time>2022-05-29T07:59:55.000Z</time>
      </trkpt>
      <trkpt lat="47.33081" lon="-2.30661">
        <ele>80.199996948242</ele>
        <time>2022-05-29T07:59:56.000Z</time>
      </trkpt>
      <trkpt lat="47.33081" lon="-2.30653">
        <ele>79.800003051758</ele>
        <time>2022-05-29T07:59:57.000Z</time>
      </trkpt>
      <trkpt lat="47.3309" lon="-2.30599">
        <ele>79.800003051758</ele>
        <time>2022-05-29T08:00:04.000Z</time>
      </trkpt>
      <trkpt lat="47.33092" lon="-2.30593">
        <ele>79.800003051758</ele>
        <time>2022-05-29T08:00:05.000Z</time>
      </trkpt>
      <trkpt lat="47.33101" lon="-2.30577">
        <ele>79.800003051758</ele>
        <time>2022-05-29T08:00:08.000Z</time>
      </trkpt>
      <trkpt lat="47.33114" lon="-2.3057">
        <ele>79.800003051758</ele>
        <time>2022-05-29T08:00:11.000Z</time>
      </trkpt>
      <trkpt lat="47.33119" lon="-2.30568">
        <ele>79.800003051758</ele>
        <time>2022-05-29T08:00:12.000Z</time>
      </trkpt>
      <trkpt lat="47.3313" lon="-2.30561">
        <ele>79.800003051758</ele>
        <time>2022-05-29T08:00:14.000Z</time>
      </trkpt>
      <trkpt lat="47.33141" lon="-2.30556">
        <ele>79.800003051758</ele>
        <time>2022-05-29T08:00:16.000Z</time>
      </trkpt>
      <trkpt lat="47.33179" lon="-2.3054">
        <ele>79.800003051758</ele>
        <time>2022-05-29T08:00:22.000Z</time>
      </trkpt>
      <trkpt lat="47.33192" lon="-2.30535">
        <ele>79.800003051758</ele>
        <time>2022-05-29T08:00:24.000Z</time>
      </trkpt>
      <trkpt lat="47.33203" lon="-2.3053">
        <ele>79.800003051758</ele>
        <time>2022-05-29T08:00:26.000Z</time>
      </trkpt>
      <trkpt lat="47.33241" lon="-2.3052">
        <ele>79.800003051758</ele>
        <time>2022-05-29T08:00:32.000Z</time>
      </trkpt>
      <trkpt lat="47.33286" lon="-2.30506">
        <ele>79.800003051758</ele>
        <time>2022-05-29T08:00:39.000Z</time>
      </trkpt>
      <trkpt lat="47.33304" lon="-2.30504">
        <ele>79.800003051758</ele>
        <time>2022-05-29T08:00:42.000Z</time>
      </trkpt>
      <trkpt lat="47.33316" lon="-2.30504">
        <ele>79.800003051758</ele>
        <time>2022-05-29T08:00:44.000Z</time>
      </trkpt>
      <trkpt lat="47.33327" lon="-2.30503">
        <ele>79.800003051758</ele>
        <time>2022-05-29T08:00:48.000Z</time>
      </trkpt>
      <trkpt lat="47.33328" lon="-2.30503">
        <ele>79.800003051758</ele>
        <time>2022-05-29T08:00:50.000Z</time>
      </trkpt>
      <trkpt lat="47.33335" lon="-2.30499">
        <ele>79.800003051758</ele>
        <time>2022-05-29T08:01:05.000Z</time>
      </trkpt>
      <trkpt lat="47.33337" lon="-2.30497">
        <ele>79.800003051758</ele>
        <time>2022-05-29T08:01:06.000Z</time>
      </trkpt>
      <trkpt lat="47.3334" lon="-2.30487">
        <ele>79.800003051758</ele>
        <time>2022-05-29T08:01:11.000Z</time>
      </trkpt>
      <trkpt lat="47.33341" lon="-2.30485">
        <ele>79.800003051758</ele>
        <time>2022-05-29T08:01:12.000Z</time>
      </trkpt>
      <trkpt lat="47.3334" lon="-2.30478">
        <ele>79.800003051758</ele>
        <time>2022-05-29T08:01:15.000Z</time>
      </trkpt>
      <trkpt lat="47.3334" lon="-2.30478">
        <ele>79.800003051758</ele>
        <time>2022-05-29T08:01:17.000Z</time>
      </trkpt>
      <trkpt lat="47.3334" lon="-2.30471">
        <ele>79.800003051758</ele>
        <time>2022-05-29T08:01:26.000Z</time>
      </trkpt>
      <trkpt lat="47.3334" lon="-2.30464">
        <ele>79.800003051758</ele>
        <time>2022-05-29T08:01:30.000Z</time>
      </trkpt>
      <trkpt lat="47.33341" lon="-2.30448">
        <ele>79.800003051758</ele>
        <time>2022-05-29T08:01:34.000Z</time>
      </trkpt>
      <trkpt lat="47.33345" lon="-2.3042">
        <ele>79.800003051758</ele>
        <time>2022-05-29T08:01:38.000Z</time>
      </trkpt>
      <trkpt lat="47.33347" lon="-2.30413">
        <ele>79.800003051758</ele>
        <time>2022-05-29T08:01:39.000Z</time>
      </trkpt>
      <trkpt lat="47.33362" lon="-2.30399">
        <ele>79.800003051758</ele>
        <time>2022-05-29T08:01:42.000Z</time>
      </trkpt>
      <trkpt lat="47.33378" lon="-2.3039">
        <ele>79.800003051758</ele>
        <time>2022-05-29T08:01:45.000Z</time>
      </trkpt>
      <trkpt lat="47.33381" lon="-2.30385">
        <ele>79.800003051758</ele>
        <time>2022-05-29T08:01:46.000Z</time>
      </trkpt>
      <trkpt lat="47.33387" lon="-2.30366">
        <ele>79.800003051758</ele>
        <time>2022-05-29T08:01:49.000Z</time>
      </trkpt>
      <trkpt lat="47.33389" lon="-2.3036">
        <ele>79.800003051758</ele>
        <time>2022-05-29T08:01:50.000Z</time>
      </trkpt>
      <trkpt lat="47.33391" lon="-2.30354">
        <ele>79.800003051758</ele>
        <time>2022-05-29T08:01:51.000Z</time>
      </trkpt>
      <trkpt lat="47.33393" lon="-2.30341">
        <ele>79.800003051758</ele>
        <time>2022-05-29T08:01:53.000Z</time>
      </trkpt>
      <trkpt lat="47.33393" lon="-2.30334">
        <ele>79.800003051758</ele>
        <time>2022-05-29T08:01:54.000Z</time>
      </trkpt>
      <trkpt lat="47.33393" lon="-2.30328">
        <ele>79.800003051758</ele>
        <time>2022-05-29T08:01:55.000Z</time>
      </trkpt>
      <trkpt lat="47.33393" lon="-2.30316">
        <ele>79.800003051758</ele>
        <time>2022-05-29T08:01:57.000Z</time>
      </trkpt>
      <trkpt lat="47.33391" lon="-2.30298">
        <ele>79.800003051758</ele>
        <time>2022-05-29T08:02:00.000Z</time>
      </trkpt>
      <trkpt lat="47.3339" lon="-2.30273">
        <ele>79.800003051758</ele>
        <time>2022-05-29T08:02:04.000Z</time>
      </trkpt>
      <trkpt lat="47.33392" lon="-2.30259">
        <ele>79.800003051758</ele>
        <time>2022-05-29T08:02:06.000Z</time>
      </trkpt>
      <trkpt lat="47.33393" lon="-2.30253">
        <ele>79.800003051758</ele>
        <time>2022-05-29T08:02:07.000Z</time>
      </trkpt>
      <trkpt lat="47.33401" lon="-2.30226">
        <ele>79.800003051758</ele>
        <time>2022-05-29T08:02:11.000Z</time>
      </trkpt>
      <trkpt lat="47.33419" lon="-2.30178">
        <ele>79.800003051758</ele>
        <time>2022-05-29T08:02:18.000Z</time>
      </trkpt>
      <trkpt lat="47.33422" lon="-2.30173">
        <ele>79.800003051758</ele>
        <time>2022-05-29T08:02:19.000Z</time>
      </trkpt>
      <trkpt lat="47.33432" lon="-2.30157">
        <ele>79.800003051758</ele>
        <time>2022-05-29T08:02:22.000Z</time>
      </trkpt>
      <trkpt lat="47.33435" lon="-2.30152">
        <ele>79.800003051758</ele>
        <time>2022-05-29T08:02:23.000Z</time>
      </trkpt>
      <trkpt lat="47.33438" lon="-2.30147">
        <ele>79.800003051758</ele>
        <time>2022-05-29T08:02:24.000Z</time>
      </trkpt>
      <trkpt lat="47.33445" lon="-2.30129">
        <ele>79.800003051758</ele>
        <time>2022-05-29T08:02:27.000Z</time>
      </trkpt>
      <trkpt lat="47.33446" lon="-2.30123">
        <ele>79.800003051758</ele>
        <time>2022-05-29T08:02:28.000Z</time>
      </trkpt>
      <trkpt lat="47.33449" lon="-2.30111">
        <ele>79.800003051758</ele>
        <time>2022-05-29T08:02:30.000Z</time>
      </trkpt>
      <trkpt lat="47.33454" lon="-2.30096">
        <ele>79.800003051758</ele>
        <time>2022-05-29T08:02:33.000Z</time>
      </trkpt>
      <trkpt lat="47.33462" lon="-2.30072">
        <ele>79.800003051758</ele>
        <time>2022-05-29T08:02:38.000Z</time>
      </trkpt>
      <trkpt lat="47.33468" lon="-2.30045">
        <ele>79.800003051758</ele>
        <time>2022-05-29T08:02:43.000Z</time>
      </trkpt>
      <trkpt lat="47.33478" lon="-2.30019">
        <ele>79.800003051758</ele>
        <time>2022-05-29T08:02:48.000Z</time>
      </trkpt>
      <trkpt lat="47.33491" lon="-2.3">
        <ele>79.800003051758</ele>
        <time>2022-05-29T08:02:53.000Z</time>
      </trkpt>
      <trkpt lat="47.33496" lon="-2.29999">
        <ele>79.800003051758</ele>
        <time>2022-05-29T08:02:54.000Z</time>
      </trkpt>
      <trkpt lat="47.33505" lon="-2.3">
        <ele>79.800003051758</ele>
        <time>2022-05-29T08:02:56.000Z</time>
      </trkpt>
      <trkpt lat="47.3354" lon="-2.30005">
        <ele>79.800003051758</ele>
        <time>2022-05-29T08:03:03.000Z</time>
      </trkpt>
      <trkpt lat="47.33556" lon="-2.30006">
        <ele>79.800003051758</ele>
        <time>2022-05-29T08:03:06.000Z</time>
      </trkpt>
      <trkpt lat="47.33566" lon="-2.30002">
        <ele>79.800003051758</ele>
        <time>2022-05-29T08:03:08.000Z</time>
      </trkpt>
      <trkpt lat="47.33579" lon="-2.2999">
        <ele>79.800003051758</ele>
        <time>2022-05-29T08:03:11.000Z</time>
      </trkpt>
      <trkpt lat="47.33583" lon="-2.29986">
        <ele>79.800003051758</ele>
        <time>2022-05-29T08:03:12.000Z</time>
      </trkpt>
      <trkpt lat="47.33606" lon="-2.29959">
        <ele>79.800003051758</ele>
        <time>2022-05-29T08:03:18.000Z</time>
      </trkpt>
      <trkpt lat="47.33618" lon="-2.29945">
        <ele>79.800003051758</ele>
        <time>2022-05-29T08:03:21.000Z</time>
      </trkpt>
      <trkpt lat="47.33625" lon="-2.29933">
        <ele>79.800003051758</ele>
        <time>2022-05-29T08:03:23.000Z</time>
      </trkpt>
      <trkpt lat="47.33629" lon="-2.29928">
        <ele>79.800003051758</ele>
        <time>2022-05-29T08:03:24.000Z</time>
      </trkpt>
      <trkpt lat="47.33647" lon="-2.299">
        <ele>79.800003051758</ele>
        <time>2022-05-29T08:03:29.000Z</time>
      </trkpt>
      <trkpt lat="47.33647" lon="-2.29878">
        <ele>79.800003051758</ele>
        <time>2022-05-29T08:03:32.000Z</time>
      </trkpt>
      <trkpt lat="47.33639" lon="-2.29853">
        <ele>79.800003051758</ele>
        <time>2022-05-29T08:03:36.000Z</time>
      </trkpt>
      <trkpt lat="47.33637" lon="-2.29847">
        <ele>79.800003051758</ele>
        <time>2022-05-29T08:03:37.000Z</time>
      </trkpt>
      <trkpt lat="47.33634" lon="-2.29835">
        <ele>79.800003051758</ele>
        <time>2022-05-29T08:03:39.000Z</time>
      </trkpt>
      <trkpt lat="47.33635" lon="-2.29821">
        <ele>79.800003051758</ele>
        <time>2022-05-29T08:03:41.000Z</time>
      </trkpt>
      <trkpt lat="47.33646" lon="-2.29808">
        <ele>79.800003051758</ele>
        <time>2022-05-29T08:03:44.000Z</time>
      </trkpt>
      <trkpt lat="47.33657" lon="-2.29805">
        <ele>79.800003051758</ele>
        <time>2022-05-29T08:03:46.000Z</time>
      </trkpt>
      <trkpt lat="47.33673" lon="-2.29798">
        <ele>79.800003051758</ele>
        <time>2022-05-29T08:03:49.000Z</time>
      </trkpt>
      <trkpt lat="47.33683" lon="-2.29794">
        <ele>79.800003051758</ele>
        <time>2022-05-29T08:03:51.000Z</time>
      </trkpt>
      <trkpt lat="47.33699" lon="-2.29795">
        <ele>79.800003051758</ele>
        <time>2022-05-29T08:03:54.000Z</time>
      </trkpt>
      <trkpt lat="47.33704" lon="-2.29797">
        <ele>79.800003051758</ele>
        <time>2022-05-29T08:03:55.000Z</time>
      </trkpt>
      <trkpt lat="47.33723" lon="-2.29801">
        <ele>79.800003051758</ele>
        <time>2022-05-29T08:03:59.000Z</time>
      </trkpt>
      <trkpt lat="47.33729" lon="-2.29802">
        <ele>80.199996948242</ele>
        <time>2022-05-29T08:04:00.000Z</time>
      </trkpt>
      <trkpt lat="47.33734" lon="-2.29804">
        <ele>80.599998474121</ele>
        <time>2022-05-29T08:04:01.000Z</time>
      </trkpt>
      <trkpt lat="47.33739" lon="-2.29805">
        <ele>81</ele>
        <time>2022-05-29T08:04:02.000Z</time>
      </trkpt>
      <trkpt lat="47.33744" lon="-2.29806">
        <ele>81.400001525879</ele>
        <time>2022-05-29T08:04:03.000Z</time>
      </trkpt>
      <trkpt lat="47.3375" lon="-2.29807">
        <ele>81.800003051758</ele>
        <time>2022-05-29T08:04:04.000Z</time>
      </trkpt>
      <trkpt lat="47.33755" lon="-2.29809">
        <ele>81.800003051758</ele>
        <time>2022-05-29T08:04:05.000Z</time>
      </trkpt>
      <trkpt lat="47.33795" lon="-2.29819">
        <ele>81.800003051758</ele>
        <time>2022-05-29T08:04:12.000Z</time>
      </trkpt>
      <trkpt lat="47.33806" lon="-2.29819">
        <ele>81.800003051758</ele>
        <time>2022-05-29T08:04:14.000Z</time>
      </trkpt>
      <trkpt lat="47.33822" lon="-2.29813">
        <ele>81.800003051758</ele>
        <time>2022-05-29T08:04:17.000Z</time>
      </trkpt>
      <trkpt lat="47.33827" lon="-2.29811">
        <ele>81.800003051758</ele>
        <time>2022-05-29T08:04:18.000Z</time>
      </trkpt>
      <trkpt lat="47.33852" lon="-2.29795">
        <ele>81.800003051758</ele>
        <time>2022-05-29T08:04:23.000Z</time>
      </trkpt>
      <trkpt lat="47.33857" lon="-2.29792">
        <ele>81.800003051758</ele>
        <time>2022-05-29T08:04:24.000Z</time>
      </trkpt>
      <trkpt lat="47.33866" lon="-2.29784">
        <ele>81.800003051758</ele>
        <time>2022-05-29T08:04:26.000Z</time>
      </trkpt>
      <trkpt lat="47.33875" lon="-2.29764">
        <ele>81.800003051758</ele>
        <time>2022-05-29T08:04:29.000Z</time>
      </trkpt>
      <trkpt lat="47.33879" lon="-2.2975">
        <ele>81.800003051758</ele>
        <time>2022-05-29T08:04:31.000Z</time>
      </trkpt>
      <trkpt lat="47.33891" lon="-2.29713">
        <ele>81.800003051758</ele>
        <time>2022-05-29T08:04:36.000Z</time>
      </trkpt>
      <trkpt lat="47.33906" lon="-2.29663">
        <ele>81.800003051758</ele>
        <time>2022-05-29T08:04:43.000Z</time>
      </trkpt>
      <trkpt lat="47.3391" lon="-2.29633">
        <ele>81.800003051758</ele>
        <time>2022-05-29T08:04:47.000Z</time>
      </trkpt>
      <trkpt lat="47.33911" lon="-2.29625">
        <ele>81.800003051758</ele>
        <time>2022-05-29T08:04:48.000Z</time>
      </trkpt>
      <trkpt lat="47.33914" lon="-2.29599">
        <ele>81.800003051758</ele>
        <time>2022-05-29T08:04:52.000Z</time>
      </trkpt>
      <trkpt lat="47.33914" lon="-2.29593">
        <ele>81.800003051758</ele>
        <time>2022-05-29T08:04:53.000Z</time>
      </trkpt>
      <trkpt lat="47.33917" lon="-2.29559">
        <ele>81.800003051758</ele>
        <time>2022-05-29T08:04:59.000Z</time>
      </trkpt>
      <trkpt lat="47.33916" lon="-2.29546">
        <ele>81.800003051758</ele>
        <time>2022-05-29T08:05:03.000Z</time>
      </trkpt>
      <trkpt lat="47.33919" lon="-2.29529">
        <ele>81.800003051758</ele>
        <time>2022-05-29T08:05:09.000Z</time>
      </trkpt>
      <trkpt lat="47.3392" lon="-2.29509">
        <ele>81.800003051758</ele>
        <time>2022-05-29T08:05:15.000Z</time>
      </trkpt>
      <trkpt lat="47.33919" lon="-2.29504">
        <ele>81.800003051758</ele>
        <time>2022-05-29T08:05:18.000Z</time>
      </trkpt>
      <trkpt lat="47.3392" lon="-2.29499">
        <ele>81.800003051758</ele>
        <time>2022-05-29T08:05:53.000Z</time>
      </trkpt>
      <trkpt lat="47.33926" lon="-2.29489">
        <ele>81.800003051758</ele>
        <time>2022-05-29T08:05:57.000Z</time>
      </trkpt>
      <trkpt lat="47.33941" lon="-2.29464">
        <ele>81.800003051758</ele>
        <time>2022-05-29T08:06:03.000Z</time>
      </trkpt>
      <trkpt lat="47.33949" lon="-2.2945">
        <ele>81.800003051758</ele>
        <time>2022-05-29T08:06:06.000Z</time>
      </trkpt>
      <trkpt lat="47.33948" lon="-2.29437">
        <ele>81.800003051758</ele>
        <time>2022-05-29T08:06:08.000Z</time>
      </trkpt>
      <trkpt lat="47.33942" lon="-2.29427">
        <ele>81.800003051758</ele>
        <time>2022-05-29T08:06:10.000Z</time>
      </trkpt>
      <trkpt lat="47.33939" lon="-2.29422">
        <ele>81.800003051758</ele>
        <time>2022-05-29T08:06:11.000Z</time>
      </trkpt>
      <trkpt lat="47.33925" lon="-2.29406">
        <ele>82.199996948242</ele>
        <time>2022-05-29T08:06:15.000Z</time>
      </trkpt>
      <trkpt lat="47.33921" lon="-2.29401">
        <ele>82.599998474121</ele>
        <time>2022-05-29T08:06:16.000Z</time>
      </trkpt>
      <trkpt lat="47.33917" lon="-2.29397">
        <ele>83</ele>
        <time>2022-05-29T08:06:17.000Z</time>
      </trkpt>
      <trkpt lat="47.33913" lon="-2.29392">
        <ele>83.400001525879</ele>
        <time>2022-05-29T08:06:18.000Z</time>
      </trkpt>
      <trkpt lat="47.33908" lon="-2.29388">
        <ele>83.800003051758</ele>
        <time>2022-05-29T08:06:19.000Z</time>
      </trkpt>
      <trkpt lat="47.33888" lon="-2.29368">
        <ele>83.800003051758</ele>
        <time>2022-05-29T08:06:24.000Z</time>
      </trkpt>
      <trkpt lat="47.33859" lon="-2.29343">
        <ele>83.800003051758</ele>
        <time>2022-05-29T08:06:30.000Z</time>
      </trkpt>
      <trkpt lat="47.33827" lon="-2.29317">
        <ele>83.800003051758</ele>
        <time>2022-05-29T08:06:37.000Z</time>
      </trkpt>
      <trkpt lat="47.33804" lon="-2.29294">
        <ele>83.800003051758</ele>
        <time>2022-05-29T08:06:42.000Z</time>
      </trkpt>
      <trkpt lat="47.33803" lon="-2.29277">
        <ele>83.800003051758</ele>
        <time>2022-05-29T08:06:45.000Z</time>
      </trkpt>
      <trkpt lat="47.33811" lon="-2.29268">
        <ele>83.800003051758</ele>
        <time>2022-05-29T08:06:47.000Z</time>
      </trkpt>
      <trkpt lat="47.33816" lon="-2.29264">
        <ele>83.800003051758</ele>
        <time>2022-05-29T08:06:48.000Z</time>
      </trkpt>
      <trkpt lat="47.33844" lon="-2.29249">
        <ele>83.800003051758</ele>
        <time>2022-05-29T08:06:53.000Z</time>
      </trkpt>
      <trkpt lat="47.33882" lon="-2.29236">
        <ele>83.800003051758</ele>
        <time>2022-05-29T08:06:59.000Z</time>
      </trkpt>
      <trkpt lat="47.33925" lon="-2.29228">
        <ele>83.800003051758</ele>
        <time>2022-05-29T08:07:06.000Z</time>
      </trkpt>
      <trkpt lat="47.33977" lon="-2.2922">
        <ele>83.800003051758</ele>
        <time>2022-05-29T08:07:14.000Z</time>
      </trkpt>
      <trkpt lat="47.34019" lon="-2.29203">
        <ele>83.800003051758</ele>
        <time>2022-05-29T08:07:21.000Z</time>
      </trkpt>
      <trkpt lat="47.34055" lon="-2.29181">
        <ele>83.800003051758</ele>
        <time>2022-05-29T08:07:27.000Z</time>
      </trkpt>
      <trkpt lat="47.34061" lon="-2.29176">
        <ele>83.800003051758</ele>
        <time>2022-05-29T08:07:28.000Z</time>
      </trkpt>
      <trkpt lat="47.34085" lon="-2.29156">
        <ele>83.800003051758</ele>
        <time>2022-05-29T08:07:32.000Z</time>
      </trkpt>
      <trkpt lat="47.34109" lon="-2.29137">
        <ele>83.800003051758</ele>
        <time>2022-05-29T08:07:36.000Z</time>
      </trkpt>
      <trkpt lat="47.34134" lon="-2.29119">
        <ele>83.800003051758</ele>
        <time>2022-05-29T08:07:40.000Z</time>
      </trkpt>
      <trkpt lat="47.34186" lon="-2.2909">
        <ele>83.800003051758</ele>
        <time>2022-05-29T08:07:48.000Z</time>
      </trkpt>
      <trkpt lat="47.34233" lon="-2.29075">
        <ele>83.800003051758</ele>
        <time>2022-05-29T08:07:55.000Z</time>
      </trkpt>
      <trkpt lat="47.34271" lon="-2.29071">
        <ele>83.800003051758</ele>
        <time>2022-05-29T08:08:01.000Z</time>
      </trkpt>
      <trkpt lat="47.34306" lon="-2.29069">
        <ele>83.800003051758</ele>
        <time>2022-05-29T08:08:07.000Z</time>
      </trkpt>
      <trkpt lat="47.3431" lon="-2.29068">
        <ele>83.800003051758</ele>
        <time>2022-05-29T08:08:08.000Z</time>
      </trkpt>
      <trkpt lat="47.34315" lon="-2.29058">
        <ele>83.800003051758</ele>
        <time>2022-05-29T08:08:10.000Z</time>
      </trkpt>
      <trkpt lat="47.34314" lon="-2.2904">
        <ele>83.800003051758</ele>
        <time>2022-05-29T08:08:13.000Z</time>
      </trkpt>
      <trkpt lat="47.34312" lon="-2.29035">
        <ele>83.800003051758</ele>
        <time>2022-05-29T08:08:14.000Z</time>
      </trkpt>
      <trkpt lat="47.34306" lon="-2.29003">
        <ele>83.800003051758</ele>
        <time>2022-05-29T08:08:18.000Z</time>
      </trkpt>
      <trkpt lat="47.34288" lon="-2.28921">
        <ele>83.800003051758</ele>
        <time>2022-05-29T08:08:27.000Z</time>
      </trkpt>
      <trkpt lat="47.34269" lon="-2.28854">
        <ele>83.800003051758</ele>
        <time>2022-05-29T08:08:35.000Z</time>
      </trkpt>
      <trkpt lat="47.34266" lon="-2.28847">
        <ele>83.800003051758</ele>
        <time>2022-05-29T08:08:36.000Z</time>
      </trkpt>
      <trkpt lat="47.34256" lon="-2.28839">
        <ele>83.800003051758</ele>
        <time>2022-05-29T08:08:38.000Z</time>
      </trkpt>
      <trkpt lat="47.34241" lon="-2.28846">
        <ele>83.800003051758</ele>
        <time>2022-05-29T08:08:41.000Z</time>
      </trkpt>
      <trkpt lat="47.34232" lon="-2.28854">
        <ele>83.800003051758</ele>
        <time>2022-05-29T08:08:43.000Z</time>
      </trkpt>
      <trkpt lat="47.34215" lon="-2.28867">
        <ele>83.800003051758</ele>
        <time>2022-05-29T08:08:46.000Z</time>
      </trkpt>
      <trkpt lat="47.34194" lon="-2.28883">
        <ele>83.800003051758</ele>
        <time>2022-05-29T08:08:50.000Z</time>
      </trkpt>
      <trkpt lat="47.34191" lon="-2.28881">
        <ele>83.800003051758</ele>
        <time>2022-05-29T08:08:51.000Z</time>
      </trkpt>
      <trkpt lat="47.34184" lon="-2.28864">
        <ele>83.800003051758</ele>
        <time>2022-05-29T08:08:54.000Z</time>
      </trkpt>
      <trkpt lat="47.34183" lon="-2.2883">
        <ele>83.800003051758</ele>
        <time>2022-05-29T08:08:58.000Z</time>
      </trkpt>
      <trkpt lat="47.34181" lon="-2.28774">
        <ele>83.800003051758</ele>
        <time>2022-05-29T08:09:04.000Z</time>
      </trkpt>
      <trkpt lat="47.3418" lon="-2.28739">
        <ele>83.800003051758</ele>
        <time>2022-05-29T08:09:08.000Z</time>
      </trkpt>
      <trkpt lat="47.34178" lon="-2.28715">
        <ele>83.800003051758</ele>
        <time>2022-05-29T08:09:11.000Z</time>
      </trkpt>
      <trkpt lat="47.34172" lon="-2.28702">
        <ele>83.800003051758</ele>
        <time>2022-05-29T08:09:13.000Z</time>
      </trkpt>
      <trkpt lat="47.34157" lon="-2.28695">
        <ele>83.800003051758</ele>
        <time>2022-05-29T08:09:16.000Z</time>
      </trkpt>
      <trkpt lat="47.34137" lon="-2.28696">
        <ele>83.800003051758</ele>
        <time>2022-05-29T08:09:19.000Z</time>
      </trkpt>
      <trkpt lat="47.34124" lon="-2.28698">
        <ele>83.800003051758</ele>
        <time>2022-05-29T08:09:21.000Z</time>
      </trkpt>
      <trkpt lat="47.34117" lon="-2.28701">
        <ele>83.800003051758</ele>
        <time>2022-05-29T08:09:22.000Z</time>
      </trkpt>
      <trkpt lat="47.34107" lon="-2.28714">
        <ele>83.800003051758</ele>
        <time>2022-05-29T08:09:24.000Z</time>
      </trkpt>
      <trkpt lat="47.34092" lon="-2.28735">
        <ele>83.800003051758</ele>
        <time>2022-05-29T08:09:28.000Z</time>
      </trkpt>
      <trkpt lat="47.34076" lon="-2.28732">
        <ele>83.800003051758</ele>
        <time>2022-05-29T08:09:31.000Z</time>
      </trkpt>
      <trkpt lat="47.34071" lon="-2.2873">
        <ele>83.800003051758</ele>
        <time>2022-05-29T08:09:32.000Z</time>
      </trkpt>
      <trkpt lat="47.34046" lon="-2.28719">
        <ele>83.800003051758</ele>
        <time>2022-05-29T08:09:36.000Z</time>
      </trkpt>
      <trkpt lat="47.34012" lon="-2.28703">
        <ele>83.800003051758</ele>
        <time>2022-05-29T08:09:42.000Z</time>
      </trkpt>
      <trkpt lat="47.33998" lon="-2.28695">
        <ele>83.800003051758</ele>
        <time>2022-05-29T08:09:45.000Z</time>
      </trkpt>
      <trkpt lat="47.33993" lon="-2.28691">
        <ele>83.800003051758</ele>
        <time>2022-05-29T08:09:46.000Z</time>
      </trkpt>
      <trkpt lat="47.33987" lon="-2.28672">
        <ele>83.800003051758</ele>
        <time>2022-05-29T08:09:49.000Z</time>
      </trkpt>
      <trkpt lat="47.33985" lon="-2.28665">
        <ele>83.800003051758</ele>
        <time>2022-05-29T08:09:50.000Z</time>
      </trkpt>
      <trkpt lat="47.33974" lon="-2.28634">
        <ele>83.800003051758</ele>
        <time>2022-05-29T08:09:55.000Z</time>
      </trkpt>
      <trkpt lat="47.33971" lon="-2.28628">
        <ele>83.800003051758</ele>
        <time>2022-05-29T08:09:56.000Z</time>
      </trkpt>
      <trkpt lat="47.33958" lon="-2.28609">
        <ele>83.800003051758</ele>
        <time>2022-05-29T08:10:00.000Z</time>
      </trkpt>
      <trkpt lat="47.33951" lon="-2.28599">
        <ele>83.800003051758</ele>
        <time>2022-05-29T08:10:02.000Z</time>
      </trkpt>
      <trkpt lat="47.33929" lon="-2.28571">
        <ele>83.800003051758</ele>
        <time>2022-05-29T08:10:07.000Z</time>
      </trkpt>
      <trkpt lat="47.33906" lon="-2.28542">
        <ele>83.800003051758</ele>
        <time>2022-05-29T08:10:12.000Z</time>
      </trkpt>
      <trkpt lat="47.33878" lon="-2.28508">
        <ele>83.800003051758</ele>
        <time>2022-05-29T08:10:18.000Z</time>
      </trkpt>
      <trkpt lat="47.33869" lon="-2.28494">
        <ele>83.800003051758</ele>
        <time>2022-05-29T08:10:20.000Z</time>
      </trkpt>
      <trkpt lat="47.33855" lon="-2.28475">
        <ele>83.800003051758</ele>
        <time>2022-05-29T08:10:23.000Z</time>
      </trkpt>
      <trkpt lat="47.33833" lon="-2.28447">
        <ele>83.800003051758</ele>
        <time>2022-05-29T08:10:29.000Z</time>
      </trkpt>
      <trkpt lat="47.33815" lon="-2.2842">
        <ele>83.800003051758</ele>
        <time>2022-05-29T08:10:36.000Z</time>
      </trkpt>
      <trkpt lat="47.33806" lon="-2.28404">
        <ele>83.800003051758</ele>
        <time>2022-05-29T08:10:42.000Z</time>
      </trkpt>
      <trkpt lat="47.33806" lon="-2.28404">
        <ele>83.800003051758</ele>
        <time>2022-05-29T08:10:44.000Z</time>
      </trkpt>
      <trkpt lat="47.33807" lon="-2.28399">
        <ele>83.800003051758</ele>
        <time>2022-05-29T08:11:35.000Z</time>
      </trkpt>
      <trkpt lat="47.33807" lon="-2.28398">
        <ele>83.800003051758</ele>
        <time>2022-05-29T08:11:36.000Z</time>
      </trkpt>
      <trkpt lat="47.33806" lon="-2.28399">
        <ele>83.800003051758</ele>
        <time>2022-05-29T08:11:38.000Z</time>
      </trkpt>
      <trkpt lat="47.33808" lon="-2.28411">
        <ele>88</ele>
        <time>2022-05-29T08:23:18.000Z</time>
      </trkpt>
      <trkpt lat="47.33809" lon="-2.28413">
        <ele>88</ele>
        <time>2022-05-29T08:23:19.000Z</time>
      </trkpt>
      <trkpt lat="47.33819" lon="-2.28434">
        <ele>88</ele>
        <time>2022-05-29T08:23:26.000Z</time>
      </trkpt>
      <trkpt lat="47.33821" lon="-2.28454">
        <ele>88.400001525879</ele>
        <time>2022-05-29T08:23:31.000Z</time>
      </trkpt>
      <trkpt lat="47.33819" lon="-2.28458">
        <ele>88.800003051758</ele>
        <time>2022-05-29T08:23:32.000Z</time>
      </trkpt>
      <trkpt lat="47.33817" lon="-2.28461">
        <ele>89.199996948242</ele>
        <time>2022-05-29T08:23:33.000Z</time>
      </trkpt>
      <trkpt lat="47.33814" lon="-2.28463">
        <ele>89.599998474121</ele>
        <time>2022-05-29T08:23:34.000Z</time>
      </trkpt>
      <trkpt lat="47.33811" lon="-2.28466">
        <ele>90</ele>
        <time>2022-05-29T08:23:35.000Z</time>
      </trkpt>
      <trkpt lat="47.33785" lon="-2.28488">
        <ele>90</ele>
        <time>2022-05-29T08:23:42.000Z</time>
      </trkpt>
      <trkpt lat="47.33772" lon="-2.28501">
        <ele>90.400001525879</ele>
        <time>2022-05-29T08:23:46.000Z</time>
      </trkpt>
      <trkpt lat="47.33768" lon="-2.28504">
        <ele>91</ele>
        <time>2022-05-29T08:23:47.000Z</time>
      </trkpt>
      <trkpt lat="47.33764" lon="-2.28508">
        <ele>91.400001525879</ele>
        <time>2022-05-29T08:23:48.000Z</time>
      </trkpt>
      <trkpt lat="47.33759" lon="-2.28512">
        <ele>91.800003051758</ele>
        <time>2022-05-29T08:23:49.000Z</time>
      </trkpt>
      <trkpt lat="47.33754" lon="-2.28516">
        <ele>92.199996948242</ele>
        <time>2022-05-29T08:23:50.000Z</time>
      </trkpt>
      <trkpt lat="47.33731" lon="-2.28535">
        <ele>92.199996948242</ele>
        <time>2022-05-29T08:23:55.000Z</time>
      </trkpt>
      <trkpt lat="47.33723" lon="-2.2854">
        <ele>92.199996948242</ele>
        <time>2022-05-29T08:23:57.000Z</time>
      </trkpt>
      <trkpt lat="47.33705" lon="-2.28544">
        <ele>92.199996948242</ele>
        <time>2022-05-29T08:24:02.000Z</time>
      </trkpt>
      <trkpt lat="47.33699" lon="-2.28534">
        <ele>92.199996948242</ele>
        <time>2022-05-29T08:24:05.000Z</time>
      </trkpt>
      <trkpt lat="47.33697" lon="-2.28529">
        <ele>92.199996948242</ele>
        <time>2022-05-29T08:24:06.000Z</time>
      </trkpt>
      <trkpt lat="47.33686" lon="-2.2849">
        <ele>92.199996948242</ele>
        <time>2022-05-29T08:24:14.000Z</time>
      </trkpt>
      <trkpt lat="47.33684" lon="-2.28477">
        <ele>92.199996948242</ele>
        <time>2022-05-29T08:24:18.000Z</time>
      </trkpt>
      <trkpt lat="47.33682" lon="-2.28473">
        <ele>92.199996948242</ele>
        <time>2022-05-29T08:24:19.000Z</time>
      </trkpt>
      <trkpt lat="47.33677" lon="-2.28459">
        <ele>91.800003051758</ele>
        <time>2022-05-29T08:24:22.000Z</time>
      </trkpt>
      <trkpt lat="47.33675" lon="-2.28453">
        <ele>91.400001525879</ele>
        <time>2022-05-29T08:24:23.000Z</time>
      </trkpt>
      <trkpt lat="47.33672" lon="-2.28448">
        <ele>91</ele>
        <time>2022-05-29T08:24:24.000Z</time>
      </trkpt>
      <trkpt lat="47.33669" lon="-2.28443">
        <ele>90.599998474121</ele>
        <time>2022-05-29T08:24:25.000Z</time>
      </trkpt>
      <trkpt lat="47.33666" lon="-2.28438">
        <ele>90.199996948242</ele>
        <time>2022-05-29T08:24:26.000Z</time>
      </trkpt>
      <trkpt lat="47.33661" lon="-2.28429">
        <ele>90.199996948242</ele>
        <time>2022-05-29T08:24:28.000Z</time>
      </trkpt>
      <trkpt lat="47.33655" lon="-2.2842">
        <ele>90.199996948242</ele>
        <time>2022-05-29T08:24:30.000Z</time>
      </trkpt>
      <trkpt lat="47.33638" lon="-2.28392">
        <ele>90.199996948242</ele>
        <time>2022-05-29T08:24:36.000Z</time>
      </trkpt>
      <trkpt lat="47.33618" lon="-2.28364">
        <ele>90.199996948242</ele>
        <time>2022-05-29T08:24:43.000Z</time>
      </trkpt>
      <trkpt lat="47.33605" lon="-2.28347">
        <ele>90.199996948242</ele>
        <time>2022-05-29T08:24:47.000Z</time>
      </trkpt>
      <trkpt lat="47.33599" lon="-2.28339">
        <ele>90.199996948242</ele>
        <time>2022-05-29T08:24:49.000Z</time>
      </trkpt>
      <trkpt lat="47.33591" lon="-2.28325">
        <ele>90.199996948242</ele>
        <time>2022-05-29T08:24:52.000Z</time>
      </trkpt>
      <trkpt lat="47.33588" lon="-2.28321">
        <ele>90.199996948242</ele>
        <time>2022-05-29T08:24:53.000Z</time>
      </trkpt>
      <trkpt lat="47.33582" lon="-2.28312">
        <ele>90.199996948242</ele>
        <time>2022-05-29T08:24:55.000Z</time>
      </trkpt>
      <trkpt lat="47.33564" lon="-2.2828">
        <ele>90.199996948242</ele>
        <time>2022-05-29T08:25:01.000Z</time>
      </trkpt>
      <trkpt lat="47.33562" lon="-2.28275">
        <ele>90.199996948242</ele>
        <time>2022-05-29T08:25:02.000Z</time>
      </trkpt>
      <trkpt lat="47.33542" lon="-2.28243">
        <ele>90.199996948242</ele>
        <time>2022-05-29T08:25:08.000Z</time>
      </trkpt>
      <trkpt lat="47.33534" lon="-2.28236">
        <ele>90.199996948242</ele>
        <time>2022-05-29T08:25:10.000Z</time>
      </trkpt>
      <trkpt lat="47.33526" lon="-2.28235">
        <ele>90.199996948242</ele>
        <time>2022-05-29T08:25:12.000Z</time>
      </trkpt>
      <trkpt lat="47.33511" lon="-2.28243">
        <ele>90.199996948242</ele>
        <time>2022-05-29T08:25:16.000Z</time>
      </trkpt>
      <trkpt lat="47.33505" lon="-2.28249">
        <ele>90.199996948242</ele>
        <time>2022-05-29T08:25:18.000Z</time>
      </trkpt>
      <trkpt lat="47.33496" lon="-2.28252">
        <ele>90.199996948242</ele>
        <time>2022-05-29T08:25:21.000Z</time>
      </trkpt>
      <trkpt lat="47.33479" lon="-2.28247">
        <ele>90.199996948242</ele>
        <time>2022-05-29T08:25:26.000Z</time>
      </trkpt>
      <trkpt lat="47.33475" lon="-2.28245">
        <ele>90.199996948242</ele>
        <time>2022-05-29T08:25:29.000Z</time>
      </trkpt>
      <trkpt lat="47.33474" lon="-2.28244">
        <ele>90.199996948242</ele>
        <time>2022-05-29T08:25:30.000Z</time>
      </trkpt>
      <trkpt lat="47.33474" lon="-2.28244">
        <ele>90.199996948242</ele>
        <time>2022-05-29T08:25:31.000Z</time>
      </trkpt>
      <trkpt lat="47.3347" lon="-2.28217">
        <ele>90.199996948242</ele>
        <time>2022-05-29T08:26:21.000Z</time>
      </trkpt>
      <trkpt lat="47.33468" lon="-2.28211">
        <ele>90.199996948242</ele>
        <time>2022-05-29T08:26:23.000Z</time>
      </trkpt>
      <trkpt lat="47.33465" lon="-2.28193">
        <ele>90.199996948242</ele>
        <time>2022-05-29T08:26:29.000Z</time>
      </trkpt>
      <trkpt lat="47.33463" lon="-2.28183">
        <ele>90.199996948242</ele>
        <time>2022-05-29T08:26:33.000Z</time>
      </trkpt>
      <trkpt lat="47.33463" lon="-2.28177">
        <ele>90.199996948242</ele>
        <time>2022-05-29T08:26:35.000Z</time>
      </trkpt>
      <trkpt lat="47.33463" lon="-2.28159">
        <ele>90.199996948242</ele>
        <time>2022-05-29T08:26:41.000Z</time>
      </trkpt>
      <trkpt lat="47.33461" lon="-2.28136">
        <ele>90.199996948242</ele>
        <time>2022-05-29T08:26:47.000Z</time>
      </trkpt>
      <trkpt lat="47.33456" lon="-2.28114">
        <ele>90.199996948242</ele>
        <time>2022-05-29T08:26:52.000Z</time>
      </trkpt>
      <trkpt lat="47.33453" lon="-2.28081">
        <ele>90.199996948242</ele>
        <time>2022-05-29T08:26:58.000Z</time>
      </trkpt>
      <trkpt lat="47.33452" lon="-2.28075">
        <ele>90.599998474121</ele>
        <time>2022-05-29T08:26:59.000Z</time>
      </trkpt>
      <trkpt lat="47.33452" lon="-2.2807">
        <ele>91</ele>
        <time>2022-05-29T08:27:00.000Z</time>
      </trkpt>
      <trkpt lat="47.33451" lon="-2.28065">
        <ele>91.400001525879</ele>
        <time>2022-05-29T08:27:01.000Z</time>
      </trkpt>
      <trkpt lat="47.3345" lon="-2.2806">
        <ele>91.800003051758</ele>
        <time>2022-05-29T08:27:02.000Z</time>
      </trkpt>
      <trkpt lat="47.3345" lon="-2.28055">
        <ele>92.199996948242</ele>
        <time>2022-05-29T08:27:03.000Z</time>
      </trkpt>
      <trkpt lat="47.33447" lon="-2.28013">
        <ele>92.199996948242</ele>
        <time>2022-05-29T08:27:10.000Z</time>
      </trkpt>
      <trkpt lat="47.33442" lon="-2.27977">
        <ele>92.199996948242</ele>
        <time>2022-05-29T08:27:16.000Z</time>
      </trkpt>
      <trkpt lat="47.33435" lon="-2.27951">
        <ele>92.199996948242</ele>
        <time>2022-05-29T08:27:21.000Z</time>
      </trkpt>
      <trkpt lat="47.33432" lon="-2.27923">
        <ele>92.199996948242</ele>
        <time>2022-05-29T08:27:26.000Z</time>
      </trkpt>
      <trkpt lat="47.3343" lon="-2.27896">
        <ele>92.199996948242</ele>
        <time>2022-05-29T08:27:31.000Z</time>
      </trkpt>
      <trkpt lat="47.33426" lon="-2.2786">
        <ele>92.199996948242</ele>
        <time>2022-05-29T08:27:38.000Z</time>
      </trkpt>
      <trkpt lat="47.33425" lon="-2.27852">
        <ele>92.199996948242</ele>
        <time>2022-05-29T08:27:40.000Z</time>
      </trkpt>
      <trkpt lat="47.33427" lon="-2.27844">
        <ele>92.199996948242</ele>
        <time>2022-05-29T08:27:42.000Z</time>
      </trkpt>
      <trkpt lat="47.33425" lon="-2.27827">
        <ele>92.199996948242</ele>
        <time>2022-05-29T08:27:47.000Z</time>
      </trkpt>
      <trkpt lat="47.33422" lon="-2.27806">
        <ele>92.199996948242</ele>
        <time>2022-05-29T08:27:53.000Z</time>
      </trkpt>
      <trkpt lat="47.33417" lon="-2.27782">
        <ele>92.199996948242</ele>
        <time>2022-05-29T08:27:57.000Z</time>
      </trkpt>
      <trkpt lat="47.33411" lon="-2.27743">
        <ele>92.199996948242</ele>
        <time>2022-05-29T08:28:03.000Z</time>
      </trkpt>
      <trkpt lat="47.3341" lon="-2.27736">
        <ele>92.199996948242</ele>
        <time>2022-05-29T08:28:04.000Z</time>
      </trkpt>
      <trkpt lat="47.33406" lon="-2.27703">
        <ele>92.199996948242</ele>
        <time>2022-05-29T08:28:09.000Z</time>
      </trkpt>
      <trkpt lat="47.33406" lon="-2.27655">
        <ele>92.199996948242</ele>
        <time>2022-05-29T08:28:16.000Z</time>
      </trkpt>
      <trkpt lat="47.33415" lon="-2.27629">
        <ele>92.199996948242</ele>
        <time>2022-05-29T08:28:20.000Z</time>
      </trkpt>
      <trkpt lat="47.33426" lon="-2.27614">
        <ele>92.199996948242</ele>
        <time>2022-05-29T08:28:23.000Z</time>
      </trkpt>
      <trkpt lat="47.33435" lon="-2.27605">
        <ele>92.199996948242</ele>
        <time>2022-05-29T08:28:25.000Z</time>
      </trkpt>
      <trkpt lat="47.33475" lon="-2.27565">
        <ele>92.199996948242</ele>
        <time>2022-05-29T08:28:33.000Z</time>
      </trkpt>
      <trkpt lat="47.33493" lon="-2.27547">
        <ele>92.199996948242</ele>
        <time>2022-05-29T08:28:37.000Z</time>
      </trkpt>
      <trkpt lat="47.33494" lon="-2.27542">
        <ele>92.199996948242</ele>
        <time>2022-05-29T08:28:38.000Z</time>
      </trkpt>
      <trkpt lat="47.33492" lon="-2.27525">
        <ele>92.199996948242</ele>
        <time>2022-05-29T08:28:41.000Z</time>
      </trkpt>
      <trkpt lat="47.33486" lon="-2.27501">
        <ele>92.199996948242</ele>
        <time>2022-05-29T08:28:45.000Z</time>
      </trkpt>
      <trkpt lat="47.33482" lon="-2.2748">
        <ele>92.199996948242</ele>
        <time>2022-05-29T08:28:48.000Z</time>
      </trkpt>
      <trkpt lat="47.33475" lon="-2.27438">
        <ele>92.199996948242</ele>
        <time>2022-05-29T08:28:54.000Z</time>
      </trkpt>
      <trkpt lat="47.33473" lon="-2.2743">
        <ele>92.199996948242</ele>
        <time>2022-05-29T08:28:55.000Z</time>
      </trkpt>
      <trkpt lat="47.33469" lon="-2.27403">
        <ele>92.199996948242</ele>
        <time>2022-05-29T08:28:59.000Z</time>
      </trkpt>
      <trkpt lat="47.33468" lon="-2.27389">
        <ele>92.199996948242</ele>
        <time>2022-05-29T08:29:01.000Z</time>
      </trkpt>
      <trkpt lat="47.33464" lon="-2.27361">
        <ele>92.199996948242</ele>
        <time>2022-05-29T08:29:05.000Z</time>
      </trkpt>
      <trkpt lat="47.33462" lon="-2.27354">
        <ele>92.199996948242</ele>
        <time>2022-05-29T08:29:06.000Z</time>
      </trkpt>
      <trkpt lat="47.33457" lon="-2.27326">
        <ele>92.199996948242</ele>
        <time>2022-05-29T08:29:10.000Z</time>
      </trkpt>
      <trkpt lat="47.33456" lon="-2.27319">
        <ele>92.199996948242</ele>
        <time>2022-05-29T08:29:11.000Z</time>
      </trkpt>
      <trkpt lat="47.33454" lon="-2.27304">
        <ele>92.199996948242</ele>
        <time>2022-05-29T08:29:13.000Z</time>
      </trkpt>
      <trkpt lat="47.33446" lon="-2.27269">
        <ele>92.199996948242</ele>
        <time>2022-05-29T08:29:18.000Z</time>
      </trkpt>
      <trkpt lat="47.33437" lon="-2.27224">
        <ele>92.199996948242</ele>
        <time>2022-05-29T08:29:24.000Z</time>
      </trkpt>
      <trkpt lat="47.33435" lon="-2.2721">
        <ele>92.199996948242</ele>
        <time>2022-05-29T08:29:26.000Z</time>
      </trkpt>
      <trkpt lat="47.33433" lon="-2.27195">
        <ele>92.199996948242</ele>
        <time>2022-05-29T08:29:28.000Z</time>
      </trkpt>
      <trkpt lat="47.33431" lon="-2.27188">
        <ele>92.199996948242</ele>
        <time>2022-05-29T08:29:29.000Z</time>
      </trkpt>
      <trkpt lat="47.33421" lon="-2.27139">
        <ele>92.199996948242</ele>
        <time>2022-05-29T08:29:36.000Z</time>
      </trkpt>
      <trkpt lat="47.33407" lon="-2.271">
        <ele>92.199996948242</ele>
        <time>2022-05-29T08:29:42.000Z</time>
      </trkpt>
      <trkpt lat="47.33387" lon="-2.2705">
        <ele>92.199996948242</ele>
        <time>2022-05-29T08:29:50.000Z</time>
      </trkpt>
      <trkpt lat="47.33371" lon="-2.27014">
        <ele>92.199996948242</ele>
        <time>2022-05-29T08:29:56.000Z</time>
      </trkpt>
      <trkpt lat="47.33367" lon="-2.27002">
        <ele>92.199996948242</ele>
        <time>2022-05-29T08:30:00.000Z</time>
      </trkpt>
      <trkpt lat="47.33366" lon="-2.26999">
        <ele>92.199996948242</ele>
        <time>2022-05-29T08:30:04.000Z</time>
      </trkpt>
      <trkpt lat="47.33359" lon="-2.27001">
        <ele>92.199996948242</ele>
        <time>2022-05-29T08:30:24.000Z</time>
      </trkpt>
      <trkpt lat="47.33345" lon="-2.27006">
        <ele>92.199996948242</ele>
        <time>2022-05-29T08:30:29.000Z</time>
      </trkpt>
      <trkpt lat="47.33329" lon="-2.2701">
        <ele>92.199996948242</ele>
        <time>2022-05-29T08:30:33.000Z</time>
      </trkpt>
      <trkpt lat="47.3332" lon="-2.27009">
        <ele>92.199996948242</ele>
        <time>2022-05-29T08:30:35.000Z</time>
      </trkpt>
      <trkpt lat="47.33308" lon="-2.27004">
        <ele>92.199996948242</ele>
        <time>2022-05-29T08:30:38.000Z</time>
      </trkpt>
      <trkpt lat="47.33296" lon="-2.26996">
        <ele>92.199996948242</ele>
        <time>2022-05-29T08:30:41.000Z</time>
      </trkpt>
      <trkpt lat="47.33291" lon="-2.26995">
        <ele>92.199996948242</ele>
        <time>2022-05-29T08:30:42.000Z</time>
      </trkpt>
      <trkpt lat="47.3328" lon="-2.26993">
        <ele>92.199996948242</ele>
        <time>2022-05-29T08:30:45.000Z</time>
      </trkpt>
      <trkpt lat="47.33258" lon="-2.26987">
        <ele>92.199996948242</ele>
        <time>2022-05-29T08:30:51.000Z</time>
      </trkpt>
      <trkpt lat="47.33235" lon="-2.26985">
        <ele>92.199996948242</ele>
        <time>2022-05-29T08:30:56.000Z</time>
      </trkpt>
      <trkpt lat="47.33225" lon="-2.26989">
        <ele>92.199996948242</ele>
        <time>2022-05-29T08:30:58.000Z</time>
      </trkpt>
      <trkpt lat="47.33209" lon="-2.27007">
        <ele>92.199996948242</ele>
        <time>2022-05-29T08:31:02.000Z</time>
      </trkpt>
      <trkpt lat="47.33184" lon="-2.27045">
        <ele>92.199996948242</ele>
        <time>2022-05-29T08:31:08.000Z</time>
      </trkpt>
      <trkpt lat="47.33165" lon="-2.27082">
        <ele>92.199996948242</ele>
        <time>2022-05-29T08:31:13.000Z</time>
      </trkpt>
      <trkpt lat="47.33144" lon="-2.27137">
        <ele>92.199996948242</ele>
        <time>2022-05-29T08:31:20.000Z</time>
      </trkpt>
      <trkpt lat="47.33138" lon="-2.27158">
        <ele>92.199996948242</ele>
        <time>2022-05-29T08:31:23.000Z</time>
      </trkpt>
      <trkpt lat="47.33132" lon="-2.27172">
        <ele>92.199996948242</ele>
        <time>2022-05-29T08:31:25.000Z</time>
      </trkpt>
      <trkpt lat="47.3311" lon="-2.2722">
        <ele>92.199996948242</ele>
        <time>2022-05-29T08:31:31.000Z</time>
      </trkpt>
      <trkpt lat="47.33102" lon="-2.27235">
        <ele>92.199996948242</ele>
        <time>2022-05-29T08:31:33.000Z</time>
      </trkpt>
      <trkpt lat="47.33092" lon="-2.27258">
        <ele>92.199996948242</ele>
        <time>2022-05-29T08:31:36.000Z</time>
      </trkpt>
      <trkpt lat="47.33089" lon="-2.27265">
        <ele>92.199996948242</ele>
        <time>2022-05-29T08:31:37.000Z</time>
      </trkpt>
      <trkpt lat="47.33067" lon="-2.2731">
        <ele>92.199996948242</ele>
        <time>2022-05-29T08:31:43.000Z</time>
      </trkpt>
      <trkpt lat="47.33041" lon="-2.27369">
        <ele>92.199996948242</ele>
        <time>2022-05-29T08:31:50.000Z</time>
      </trkpt>
      <trkpt lat="47.3302" lon="-2.27421">
        <ele>92.199996948242</ele>
        <time>2022-05-29T08:31:56.000Z</time>
      </trkpt>
      <trkpt lat="47.33012" lon="-2.27446">
        <ele>92.199996948242</ele>
        <time>2022-05-29T08:31:59.000Z</time>
      </trkpt>
      <trkpt lat="47.33005" lon="-2.27472">
        <ele>92.199996948242</ele>
        <time>2022-05-29T08:32:02.000Z</time>
      </trkpt>
      <trkpt lat="47.3298" lon="-2.27537">
        <ele>92.199996948242</ele>
        <time>2022-05-29T08:32:10.000Z</time>
      </trkpt>
      <trkpt lat="47.3297" lon="-2.27573">
        <ele>92.199996948242</ele>
        <time>2022-05-29T08:32:14.000Z</time>
      </trkpt>
      <trkpt lat="47.32968" lon="-2.27581">
        <ele>92.199996948242</ele>
        <time>2022-05-29T08:32:15.000Z</time>
      </trkpt>
      <trkpt lat="47.32958" lon="-2.27635">
        <ele>92.199996948242</ele>
        <time>2022-05-29T08:32:22.000Z</time>
      </trkpt>
      <trkpt lat="47.32958" lon="-2.27644">
        <ele>92.199996948242</ele>
        <time>2022-05-29T08:32:23.000Z</time>
      </trkpt>
      <trkpt lat="47.32958" lon="-2.27676">
        <ele>92.199996948242</ele>
        <time>2022-05-29T08:32:27.000Z</time>
      </trkpt>
      <trkpt lat="47.32959" lon="-2.27692">
        <ele>92.199996948242</ele>
        <time>2022-05-29T08:32:29.000Z</time>
      </trkpt>
      <trkpt lat="47.32965" lon="-2.27714">
        <ele>92.199996948242</ele>
        <time>2022-05-29T08:32:32.000Z</time>
      </trkpt>
      <trkpt lat="47.32967" lon="-2.27722">
        <ele>92.199996948242</ele>
        <time>2022-05-29T08:32:33.000Z</time>
      </trkpt>
      <trkpt lat="47.32975" lon="-2.27752">
        <ele>92.199996948242</ele>
        <time>2022-05-29T08:32:37.000Z</time>
      </trkpt>
      <trkpt lat="47.32981" lon="-2.27765">
        <ele>92.199996948242</ele>
        <time>2022-05-29T08:32:39.000Z</time>
      </trkpt>
      <trkpt lat="47.32995" lon="-2.27797">
        <ele>92.199996948242</ele>
        <time>2022-05-29T08:32:44.000Z</time>
      </trkpt>
      <trkpt lat="47.33002" lon="-2.27806">
        <ele>92.199996948242</ele>
        <time>2022-05-29T08:32:46.000Z</time>
      </trkpt>
      <trkpt lat="47.33009" lon="-2.27813">
        <ele>92.199996948242</ele>
        <time>2022-05-29T08:32:48.000Z</time>
      </trkpt>
      <trkpt lat="47.33017" lon="-2.27824">
        <ele>92.199996948242</ele>
        <time>2022-05-29T08:32:51.000Z</time>
      </trkpt>
      <trkpt lat="47.33035" lon="-2.27842">
        <ele>92.199996948242</ele>
        <time>2022-05-29T08:32:56.000Z</time>
      </trkpt>
      <trkpt lat="47.33045" lon="-2.27847">
        <ele>92.199996948242</ele>
        <time>2022-05-29T08:32:58.000Z</time>
      </trkpt>
      <trkpt lat="47.33058" lon="-2.27854">
        <ele>92.199996948242</ele>
        <time>2022-05-29T08:33:01.000Z</time>
      </trkpt>
      <trkpt lat="47.33063" lon="-2.27857">
        <ele>92.199996948242</ele>
        <time>2022-05-29T08:33:02.000Z</time>
      </trkpt>
      <trkpt lat="47.3309" lon="-2.27873">
        <ele>92.199996948242</ele>
        <time>2022-05-29T08:33:08.000Z</time>
      </trkpt>
      <trkpt lat="47.33103" lon="-2.27884">
        <ele>92.199996948242</ele>
        <time>2022-05-29T08:33:11.000Z</time>
      </trkpt>
      <trkpt lat="47.33109" lon="-2.27895">
        <ele>92.199996948242</ele>
        <time>2022-05-29T08:33:13.000Z</time>
      </trkpt>
      <trkpt lat="47.33107" lon="-2.27916">
        <ele>92.199996948242</ele>
        <time>2022-05-29T08:33:16.000Z</time>
      </trkpt>
      <trkpt lat="47.33099" lon="-2.27927">
        <ele>92.199996948242</ele>
        <time>2022-05-29T08:33:18.000Z</time>
      </trkpt>
      <trkpt lat="47.33095" lon="-2.27932">
        <ele>92.199996948242</ele>
        <time>2022-05-29T08:33:19.000Z</time>
      </trkpt>
      <trkpt lat="47.33088" lon="-2.27943">
        <ele>92.199996948242</ele>
        <time>2022-05-29T08:33:22.000Z</time>
      </trkpt>
      <trkpt lat="47.33086" lon="-2.27945">
        <ele>92.199996948242</ele>
        <time>2022-05-29T08:33:23.000Z</time>
      </trkpt>
      <trkpt lat="47.33082" lon="-2.27952">
        <ele>92.199996948242</ele>
        <time>2022-05-29T08:33:26.000Z</time>
      </trkpt>
      <trkpt lat="47.3307" lon="-2.27968">
        <ele>92.199996948242</ele>
        <time>2022-05-29T08:33:31.000Z</time>
      </trkpt>
      <trkpt lat="47.33063" lon="-2.27978">
        <ele>92.199996948242</ele>
        <time>2022-05-29T08:33:34.000Z</time>
      </trkpt>
      <trkpt lat="47.33058" lon="-2.27988">
        <ele>92.199996948242</ele>
        <time>2022-05-29T08:33:36.000Z</time>
      </trkpt>
      <trkpt lat="47.33045" lon="-2.28009">
        <ele>92.199996948242</ele>
        <time>2022-05-29T08:33:41.000Z</time>
      </trkpt>
      <trkpt lat="47.33029" lon="-2.28034">
        <ele>92.199996948242</ele>
        <time>2022-05-29T08:33:46.000Z</time>
      </trkpt>
      <trkpt lat="47.33023" lon="-2.28044">
        <ele>92.199996948242</ele>
        <time>2022-05-29T08:33:48.000Z</time>
      </trkpt>
      <trkpt lat="47.33012" lon="-2.28069">
        <ele>92.199996948242</ele>
        <time>2022-05-29T08:33:53.000Z</time>
      </trkpt>
      <trkpt lat="47.33009" lon="-2.28071">
        <ele>92.199996948242</ele>
        <time>2022-05-29T08:33:54.000Z</time>
      </trkpt>
      <trkpt lat="47.33" lon="-2.28075">
        <ele>92.199996948242</ele>
        <time>2022-05-29T08:33:56.000Z</time>
      </trkpt>
      <trkpt lat="47.32996" lon="-2.28075">
        <ele>92.199996948242</ele>
        <time>2022-05-29T08:33:57.000Z</time>
      </trkpt>
      <trkpt lat="47.32985" lon="-2.28072">
        <ele>92.199996948242</ele>
        <time>2022-05-29T08:33:59.000Z</time>
      </trkpt>
      <trkpt lat="47.32973" lon="-2.28069">
        <ele>92.199996948242</ele>
        <time>2022-05-29T08:34:01.000Z</time>
      </trkpt>
      <trkpt lat="47.32968" lon="-2.2807">
        <ele>92.199996948242</ele>
        <time>2022-05-29T08:34:02.000Z</time>
      </trkpt>
      <trkpt lat="47.32963" lon="-2.28072">
        <ele>92.199996948242</ele>
        <time>2022-05-29T08:34:03.000Z</time>
      </trkpt>
      <trkpt lat="47.32929" lon="-2.28089">
        <ele>92.199996948242</ele>
        <time>2022-05-29T08:34:09.000Z</time>
      </trkpt>
      <trkpt lat="47.32916" lon="-2.28095">
        <ele>92.199996948242</ele>
        <time>2022-05-29T08:34:11.000Z</time>
      </trkpt>
      <trkpt lat="47.32894" lon="-2.28108">
        <ele>92.199996948242</ele>
        <time>2022-05-29T08:34:15.000Z</time>
      </trkpt>
      <trkpt lat="47.32884" lon="-2.28113">
        <ele>92.199996948242</ele>
        <time>2022-05-29T08:34:17.000Z</time>
      </trkpt>
      <trkpt lat="47.32868" lon="-2.28118">
        <ele>92.199996948242</ele>
        <time>2022-05-29T08:34:20.000Z</time>
      </trkpt>
      <trkpt lat="47.32863" lon="-2.2812">
        <ele>92.199996948242</ele>
        <time>2022-05-29T08:34:21.000Z</time>
      </trkpt>
      <trkpt lat="47.32826" lon="-2.28139">
        <ele>92.199996948242</ele>
        <time>2022-05-29T08:34:28.000Z</time>
      </trkpt>
      <trkpt lat="47.3282" lon="-2.28142">
        <ele>92.199996948242</ele>
        <time>2022-05-29T08:34:29.000Z</time>
      </trkpt>
      <trkpt lat="47.3279" lon="-2.28157">
        <ele>92.199996948242</ele>
        <time>2022-05-29T08:34:35.000Z</time>
      </trkpt>
      <trkpt lat="47.32769" lon="-2.28172">
        <ele>92.199996948242</ele>
        <time>2022-05-29T08:34:40.000Z</time>
      </trkpt>
      <trkpt lat="47.32766" lon="-2.28177">
        <ele>92.199996948242</ele>
        <time>2022-05-29T08:34:41.000Z</time>
      </trkpt>
      <trkpt lat="47.32758" lon="-2.28194">
        <ele>92.199996948242</ele>
        <time>2022-05-29T08:34:45.000Z</time>
      </trkpt>
      <trkpt lat="47.32759" lon="-2.28213">
        <ele>92.199996948242</ele>
        <time>2022-05-29T08:34:49.000Z</time>
      </trkpt>
      <trkpt lat="47.32755" lon="-2.2824">
        <ele>92.199996948242</ele>
        <time>2022-05-29T08:34:56.000Z</time>
      </trkpt>
      <trkpt lat="47.32747" lon="-2.28251">
        <ele>92.199996948242</ele>
        <time>2022-05-29T08:35:00.000Z</time>
      </trkpt>
      <trkpt lat="47.32739" lon="-2.28265">
        <ele>92.199996948242</ele>
        <time>2022-05-29T08:35:06.000Z</time>
      </trkpt>
      <trkpt lat="47.32732" lon="-2.28273">
        <ele>92.199996948242</ele>
        <time>2022-05-29T08:35:12.000Z</time>
      </trkpt>
      <trkpt lat="47.32723" lon="-2.28279">
        <ele>92.199996948242</ele>
        <time>2022-05-29T08:35:18.000Z</time>
      </trkpt>
      <trkpt lat="47.32715" lon="-2.28291">
        <ele>92.199996948242</ele>
        <time>2022-05-29T08:35:24.000Z</time>
      </trkpt>
      <trkpt lat="47.32705" lon="-2.28301">
        <ele>92.199996948242</ele>
        <time>2022-05-29T08:35:32.000Z</time>
      </trkpt>
      <trkpt lat="47.327" lon="-2.28308">
        <ele>92.199996948242</ele>
        <time>2022-05-29T08:35:38.000Z</time>
      </trkpt>
      <trkpt lat="47.3269" lon="-2.28317">
        <ele>92.199996948242</ele>
        <time>2022-05-29T08:35:45.000Z</time>
      </trkpt>
      <trkpt lat="47.32674" lon="-2.28332">
        <ele>92.199996948242</ele>
        <time>2022-05-29T08:35:50.000Z</time>
      </trkpt>
      <trkpt lat="47.32647" lon="-2.28347">
        <ele>92.199996948242</ele>
        <time>2022-05-29T08:35:57.000Z</time>
      </trkpt>
      <trkpt lat="47.32631" lon="-2.2834">
        <ele>92.199996948242</ele>
        <time>2022-05-29T08:36:01.000Z</time>
      </trkpt>
      <trkpt lat="47.32622" lon="-2.28326">
        <ele>92.199996948242</ele>
        <time>2022-05-29T08:36:04.000Z</time>
      </trkpt>
      <trkpt lat="47.32619" lon="-2.2832">
        <ele>92.199996948242</ele>
        <time>2022-05-29T08:36:05.000Z</time>
      </trkpt>
      <trkpt lat="47.32617" lon="-2.28313">
        <ele>92.199996948242</ele>
        <time>2022-05-29T08:36:06.000Z</time>
      </trkpt>
      <trkpt lat="47.32605" lon="-2.28265">
        <ele>92.199996948242</ele>
        <time>2022-05-29T08:36:12.000Z</time>
      </trkpt>
      <trkpt lat="47.32595" lon="-2.28211">
        <ele>92.199996948242</ele>
        <time>2022-05-29T08:36:18.000Z</time>
      </trkpt>
      <trkpt lat="47.32582" lon="-2.28145">
        <ele>92.199996948242</ele>
        <time>2022-05-29T08:36:25.000Z</time>
      </trkpt>
      <trkpt lat="47.32565" lon="-2.28069">
        <ele>92.199996948242</ele>
        <time>2022-05-29T08:36:33.000Z</time>
      </trkpt>
      <trkpt lat="47.32552" lon="-2.28005">
        <ele>92.199996948242</ele>
        <time>2022-05-29T08:36:40.000Z</time>
      </trkpt>
      <trkpt lat="47.32541" lon="-2.27951">
        <ele>92.199996948242</ele>
        <time>2022-05-29T08:36:47.000Z</time>
      </trkpt>
      <trkpt lat="47.32527" lon="-2.27892">
        <ele>92.199996948242</ele>
        <time>2022-05-29T08:36:54.000Z</time>
      </trkpt>
      <trkpt lat="47.32516" lon="-2.27851">
        <ele>92.199996948242</ele>
        <time>2022-05-29T08:36:59.000Z</time>
      </trkpt>
      <trkpt lat="47.32511" lon="-2.27844">
        <ele>92.199996948242</ele>
        <time>2022-05-29T08:37:00.000Z</time>
      </trkpt>
      <trkpt lat="47.32494" lon="-2.27832">
        <ele>92.199996948242</ele>
        <time>2022-05-29T08:37:03.000Z</time>
      </trkpt>
      <trkpt lat="47.32481" lon="-2.27829">
        <ele>92.199996948242</ele>
        <time>2022-05-29T08:37:05.000Z</time>
      </trkpt>
      <trkpt lat="47.32474" lon="-2.27829">
        <ele>92.199996948242</ele>
        <time>2022-05-29T08:37:06.000Z</time>
      </trkpt>
      <trkpt lat="47.32468" lon="-2.27829">
        <ele>92.199996948242</ele>
        <time>2022-05-29T08:37:07.000Z</time>
      </trkpt>
      <trkpt lat="47.32415" lon="-2.27833">
        <ele>92.199996948242</ele>
        <time>2022-05-29T08:37:15.000Z</time>
      </trkpt>
      <trkpt lat="47.32369" lon="-2.27836">
        <ele>92.199996948242</ele>
        <time>2022-05-29T08:37:22.000Z</time>
      </trkpt>
      <trkpt lat="47.32328" lon="-2.27838">
        <ele>92.199996948242</ele>
        <time>2022-05-29T08:37:29.000Z</time>
      </trkpt>
      <trkpt lat="47.32325" lon="-2.27836">
        <ele>92.199996948242</ele>
        <time>2022-05-29T08:37:30.000Z</time>
      </trkpt>
      <trkpt lat="47.32321" lon="-2.27829">
        <ele>92.199996948242</ele>
        <time>2022-05-29T08:37:32.000Z</time>
      </trkpt>
      <trkpt lat="47.32323" lon="-2.27817">
        <ele>92.199996948242</ele>
        <time>2022-05-29T08:37:35.000Z</time>
      </trkpt>
      <trkpt lat="47.32325" lon="-2.27812">
        <ele>92.199996948242</ele>
        <time>2022-05-29T08:37:36.000Z</time>
      </trkpt>
      <trkpt lat="47.3233" lon="-2.27795">
        <ele>92.199996948242</ele>
        <time>2022-05-29T08:37:39.000Z</time>
      </trkpt>
      <trkpt lat="47.32332" lon="-2.27789">
        <ele>92.199996948242</ele>
        <time>2022-05-29T08:37:40.000Z</time>
      </trkpt>
      <trkpt lat="47.32342" lon="-2.2775">
        <ele>92.800003051758</ele>
        <time>2022-05-29T08:37:45.000Z</time>
      </trkpt>
      <trkpt lat="47.32344" lon="-2.27741">
        <ele>93.199996948242</ele>
        <time>2022-05-29T08:37:46.000Z</time>
      </trkpt>
      <trkpt lat="47.32345" lon="-2.27732">
        <ele>93.599998474121</ele>
        <time>2022-05-29T08:37:47.000Z</time>
      </trkpt>
      <trkpt lat="47.32346" lon="-2.27723">
        <ele>94.199996948242</ele>
        <time>2022-05-29T08:37:48.000Z</time>
      </trkpt>
      <trkpt lat="47.32347" lon="-2.27714">
        <ele>94.599998474121</ele>
        <time>2022-05-29T08:37:49.000Z</time>
      </trkpt>
      <trkpt lat="47.32349" lon="-2.27705">
        <ele>94.599998474121</ele>
        <time>2022-05-29T08:37:50.000Z</time>
      </trkpt>
      <trkpt lat="47.32354" lon="-2.27662">
        <ele>94.599998474121</ele>
        <time>2022-05-29T08:37:55.000Z</time>
      </trkpt>
      <trkpt lat="47.3236" lon="-2.27609">
        <ele>94.599998474121</ele>
        <time>2022-05-29T08:38:02.000Z</time>
      </trkpt>
      <trkpt lat="47.32365" lon="-2.27562">
        <ele>94.599998474121</ele>
        <time>2022-05-29T08:38:08.000Z</time>
      </trkpt>
      <trkpt lat="47.3236" lon="-2.27529">
        <ele>94.599998474121</ele>
        <time>2022-05-29T08:38:12.000Z</time>
      </trkpt>
      <trkpt lat="47.32358" lon="-2.27522">
        <ele>94.599998474121</ele>
        <time>2022-05-29T08:38:13.000Z</time>
      </trkpt>
      <trkpt lat="47.32344" lon="-2.27511">
        <ele>94.599998474121</ele>
        <time>2022-05-29T08:38:16.000Z</time>
      </trkpt>
      <trkpt lat="47.32333" lon="-2.2751">
        <ele>94.599998474121</ele>
        <time>2022-05-29T08:38:18.000Z</time>
      </trkpt>
      <trkpt lat="47.3231" lon="-2.27508">
        <ele>94.599998474121</ele>
        <time>2022-05-29T08:38:22.000Z</time>
      </trkpt>
      <trkpt lat="47.32267" lon="-2.27502">
        <ele>94.599998474121</ele>
        <time>2022-05-29T08:38:30.000Z</time>
      </trkpt>
      <trkpt lat="47.32247" lon="-2.27501">
        <ele>94.599998474121</ele>
        <time>2022-05-29T08:38:34.000Z</time>
      </trkpt>
      <trkpt lat="47.32244" lon="-2.27497">
        <ele>94.599998474121</ele>
        <time>2022-05-29T08:38:35.000Z</time>
      </trkpt>
      <trkpt lat="47.32242" lon="-2.27476">
        <ele>94.599998474121</ele>
        <time>2022-05-29T08:38:38.000Z</time>
      </trkpt>
      <trkpt lat="47.32244" lon="-2.27453">
        <ele>94.599998474121</ele>
        <time>2022-05-29T08:38:41.000Z</time>
      </trkpt>
      <trkpt lat="47.32246" lon="-2.27439">
        <ele>94.599998474121</ele>
        <time>2022-05-29T08:38:43.000Z</time>
      </trkpt>
      <trkpt lat="47.32251" lon="-2.27406">
        <ele>94.599998474121</ele>
        <time>2022-05-29T08:38:47.000Z</time>
      </trkpt>
      <trkpt lat="47.32251" lon="-2.27389">
        <ele>94.599998474121</ele>
        <time>2022-05-29T08:38:49.000Z</time>
      </trkpt>
      <trkpt lat="47.32249" lon="-2.27345">
        <ele>94.599998474121</ele>
        <time>2022-05-29T08:38:54.000Z</time>
      </trkpt>
      <trkpt lat="47.32249" lon="-2.27336">
        <ele>94.599998474121</ele>
        <time>2022-05-29T08:38:55.000Z</time>
      </trkpt>
      <trkpt lat="47.32256" lon="-2.27314">
        <ele>94.599998474121</ele>
        <time>2022-05-29T08:38:58.000Z</time>
      </trkpt>
      <trkpt lat="47.32277" lon="-2.27297">
        <ele>94.599998474121</ele>
        <time>2022-05-29T08:39:02.000Z</time>
      </trkpt>
      <trkpt lat="47.32282" lon="-2.27293">
        <ele>94.599998474121</ele>
        <time>2022-05-29T08:39:03.000Z</time>
      </trkpt>
      <trkpt lat="47.32317" lon="-2.27274">
        <ele>94.599998474121</ele>
        <time>2022-05-29T08:39:09.000Z</time>
      </trkpt>
      <trkpt lat="47.32333" lon="-2.27262">
        <ele>95</ele>
        <time>2022-05-29T08:39:12.000Z</time>
      </trkpt>
      <trkpt lat="47.32337" lon="-2.27258">
        <ele>95.400001525879</ele>
        <time>2022-05-29T08:39:13.000Z</time>
      </trkpt>
      <trkpt lat="47.32342" lon="-2.27253">
        <ele>95.800003051758</ele>
        <time>2022-05-29T08:39:14.000Z</time>
      </trkpt>
      <trkpt lat="47.32346" lon="-2.27248">
        <ele>96.800003051758</ele>
        <time>2022-05-29T08:39:15.000Z</time>
      </trkpt>
      <trkpt lat="47.32351" lon="-2.27243">
        <ele>96.800003051758</ele>
        <time>2022-05-29T08:39:16.000Z</time>
      </trkpt>
      <trkpt lat="47.32368" lon="-2.2721">
        <ele>96.800003051758</ele>
        <time>2022-05-29T08:39:21.000Z</time>
      </trkpt>
      <trkpt lat="47.32384" lon="-2.27155">
        <ele>96.800003051758</ele>
        <time>2022-05-29T08:39:28.000Z</time>
      </trkpt>
      <trkpt lat="47.32385" lon="-2.27128">
        <ele>96.800003051758</ele>
        <time>2022-05-29T08:39:31.000Z</time>
      </trkpt>
      <trkpt lat="47.32385" lon="-2.27109">
        <ele>96.800003051758</ele>
        <time>2022-05-29T08:39:33.000Z</time>
      </trkpt>
      <trkpt lat="47.32382" lon="-2.27058">
        <ele>96.800003051758</ele>
        <time>2022-05-29T08:39:39.000Z</time>
      </trkpt>
      <trkpt lat="47.32383" lon="-2.27036">
        <ele>96.800003051758</ele>
        <time>2022-05-29T08:39:42.000Z</time>
      </trkpt>
      <trkpt lat="47.32388" lon="-2.27025">
        <ele>96.800003051758</ele>
        <time>2022-05-29T08:39:44.000Z</time>
      </trkpt>
      <trkpt lat="47.32403" lon="-2.27024">
        <ele>96.800003051758</ele>
        <time>2022-05-29T08:39:47.000Z</time>
      </trkpt>
      <trkpt lat="47.32408" lon="-2.27025">
        <ele>96.800003051758</ele>
        <time>2022-05-29T08:39:48.000Z</time>
      </trkpt>
      <trkpt lat="47.32436" lon="-2.27027">
        <ele>96.800003051758</ele>
        <time>2022-05-29T08:39:53.000Z</time>
      </trkpt>
      <trkpt lat="47.32442" lon="-2.27025">
        <ele>96.800003051758</ele>
        <time>2022-05-29T08:39:54.000Z</time>
      </trkpt>
      <trkpt lat="47.3245" lon="-2.27015">
        <ele>96.800003051758</ele>
        <time>2022-05-29T08:39:56.000Z</time>
      </trkpt>
      <trkpt lat="47.32452" lon="-2.26989">
        <ele>96.800003051758</ele>
        <time>2022-05-29T08:39:59.000Z</time>
      </trkpt>
      <trkpt lat="47.32449" lon="-2.26971">
        <ele>96.800003051758</ele>
        <time>2022-05-29T08:40:01.000Z</time>
      </trkpt>
      <trkpt lat="47.32444" lon="-2.26944">
        <ele>96.800003051758</ele>
        <time>2022-05-29T08:40:04.000Z</time>
      </trkpt>
      <trkpt lat="47.32442" lon="-2.26936">
        <ele>95.800003051758</ele>
        <time>2022-05-29T08:40:05.000Z</time>
      </trkpt>
      <trkpt lat="47.3244" lon="-2.26927">
        <ele>95.400001525879</ele>
        <time>2022-05-29T08:40:06.000Z</time>
      </trkpt>
      <trkpt lat="47.32438" lon="-2.26918">
        <ele>95</ele>
        <time>2022-05-29T08:40:07.000Z</time>
      </trkpt>
      <trkpt lat="47.32437" lon="-2.26908">
        <ele>94.599998474121</ele>
        <time>2022-05-29T08:40:08.000Z</time>
      </trkpt>
      <trkpt lat="47.3243" lon="-2.26871">
        <ele>94.599998474121</ele>
        <time>2022-05-29T08:40:12.000Z</time>
      </trkpt>
      <trkpt lat="47.32423" lon="-2.26805">
        <ele>94.599998474121</ele>
        <time>2022-05-29T08:40:19.000Z</time>
      </trkpt>
      <trkpt lat="47.32421" lon="-2.2674">
        <ele>94.599998474121</ele>
        <time>2022-05-29T08:40:26.000Z</time>
      </trkpt>
      <trkpt lat="47.3242" lon="-2.26685">
        <ele>94.599998474121</ele>
        <time>2022-05-29T08:40:32.000Z</time>
      </trkpt>
      <trkpt lat="47.32414" lon="-2.26658">
        <ele>94.599998474121</ele>
        <time>2022-05-29T08:40:35.000Z</time>
      </trkpt>
      <trkpt lat="47.32407" lon="-2.26639">
        <ele>94.599998474121</ele>
        <time>2022-05-29T08:40:37.000Z</time>
      </trkpt>
      <trkpt lat="47.32388" lon="-2.26577">
        <ele>94.599998474121</ele>
        <time>2022-05-29T08:40:44.000Z</time>
      </trkpt>
      <trkpt lat="47.32381" lon="-2.2654">
        <ele>94.599998474121</ele>
        <time>2022-05-29T08:40:48.000Z</time>
      </trkpt>
      <trkpt lat="47.32376" lon="-2.26533">
        <ele>94.599998474121</ele>
        <time>2022-05-29T08:40:49.000Z</time>
      </trkpt>
      <trkpt lat="47.3236" lon="-2.26529">
        <ele>94.599998474121</ele>
        <time>2022-05-29T08:40:52.000Z</time>
      </trkpt>
      <trkpt lat="47.3234" lon="-2.26542">
        <ele>94.599998474121</ele>
        <time>2022-05-29T08:40:56.000Z</time>
      </trkpt>
      <trkpt lat="47.32336" lon="-2.26545">
        <ele>94.599998474121</ele>
        <time>2022-05-29T08:40:57.000Z</time>
      </trkpt>
      <trkpt lat="47.32322" lon="-2.2656">
        <ele>94.599998474121</ele>
        <time>2022-05-29T08:41:01.000Z</time>
      </trkpt>
      <trkpt lat="47.32297" lon="-2.26592">
        <ele>94.599998474121</ele>
        <time>2022-05-29T08:41:08.000Z</time>
      </trkpt>
      <trkpt lat="47.32289" lon="-2.26601">
        <ele>94.599998474121</ele>
        <time>2022-05-29T08:41:10.000Z</time>
      </trkpt>
      <trkpt lat="47.32273" lon="-2.26607">
        <ele>94.599998474121</ele>
        <time>2022-05-29T08:41:13.000Z</time>
      </trkpt>
      <trkpt lat="47.32268" lon="-2.26608">
        <ele>94.599998474121</ele>
        <time>2022-05-29T08:41:14.000Z</time>
      </trkpt>
      <trkpt lat="47.32257" lon="-2.26608">
        <ele>94.599998474121</ele>
        <time>2022-05-29T08:41:16.000Z</time>
      </trkpt>
      <trkpt lat="47.32246" lon="-2.26608">
        <ele>94.599998474121</ele>
        <time>2022-05-29T08:41:18.000Z</time>
      </trkpt>
      <trkpt lat="47.32212" lon="-2.26611">
        <ele>94.599998474121</ele>
        <time>2022-05-29T08:41:24.000Z</time>
      </trkpt>
      <trkpt lat="47.32187" lon="-2.26611">
        <ele>95</ele>
        <time>2022-05-29T08:41:28.000Z</time>
      </trkpt>
      <trkpt lat="47.32181" lon="-2.26612">
        <ele>95.400001525879</ele>
        <time>2022-05-29T08:41:29.000Z</time>
      </trkpt>
      <trkpt lat="47.32174" lon="-2.26612">
        <ele>95.800003051758</ele>
        <time>2022-05-29T08:41:30.000Z</time>
      </trkpt>
      <trkpt lat="47.32168" lon="-2.26611">
        <ele>96.199996948242</ele>
        <time>2022-05-29T08:41:31.000Z</time>
      </trkpt>
      <trkpt lat="47.32162" lon="-2.26609">
        <ele>96.599998474121</ele>
        <time>2022-05-29T08:41:32.000Z</time>
      </trkpt>
      <trkpt lat="47.32124" lon="-2.26599">
        <ele>96.599998474121</ele>
        <time>2022-05-29T08:41:38.000Z</time>
      </trkpt>
      <trkpt lat="47.32096" lon="-2.26588">
        <ele>96.599998474121</ele>
        <time>2022-05-29T08:41:43.000Z</time>
      </trkpt>
      <trkpt lat="47.32091" lon="-2.26587">
        <ele>96.599998474121</ele>
        <time>2022-05-29T08:41:44.000Z</time>
      </trkpt>
      <trkpt lat="47.32066" lon="-2.26591">
        <ele>96.599998474121</ele>
        <time>2022-05-29T08:41:48.000Z</time>
      </trkpt>
      <trkpt lat="47.32059" lon="-2.26593">
        <ele>96.599998474121</ele>
        <time>2022-05-29T08:41:49.000Z</time>
      </trkpt>
      <trkpt lat="47.32014" lon="-2.26618">
        <ele>96.599998474121</ele>
        <time>2022-05-29T08:41:56.000Z</time>
      </trkpt>
      <trkpt lat="47.31972" lon="-2.26646">
        <ele>97</ele>
        <time>2022-05-29T08:42:03.000Z</time>
      </trkpt>
      <trkpt lat="47.31967" lon="-2.2665">
        <ele>97.400001525879</ele>
        <time>2022-05-29T08:42:04.000Z</time>
      </trkpt>
      <trkpt lat="47.31962" lon="-2.26655">
        <ele>97.800003051758</ele>
        <time>2022-05-29T08:42:05.000Z</time>
      </trkpt>
      <trkpt lat="47.31957" lon="-2.2666">
        <ele>98.199996948242</ele>
        <time>2022-05-29T08:42:06.000Z</time>
      </trkpt>
      <trkpt lat="47.31952" lon="-2.26664">
        <ele>98.800003051758</ele>
        <time>2022-05-29T08:42:07.000Z</time>
      </trkpt>
      <trkpt lat="47.31931" lon="-2.26683">
        <ele>98.800003051758</ele>
        <time>2022-05-29T08:42:11.000Z</time>
      </trkpt>
      <trkpt lat="47.3191" lon="-2.26701">
        <ele>99.199996948242</ele>
        <time>2022-05-29T08:42:15.000Z</time>
      </trkpt>
      <trkpt lat="47.31904" lon="-2.26706">
        <ele>99.599998474121</ele>
        <time>2022-05-29T08:42:16.000Z</time>
      </trkpt>
      <trkpt lat="47.31898" lon="-2.2671">
        <ele>100</ele>
        <time>2022-05-29T08:42:17.000Z</time>
      </trkpt>
      <trkpt lat="47.31891" lon="-2.26715">
        <ele>100.40000152588</ele>
        <time>2022-05-29T08:42:18.000Z</time>
      </trkpt>
      <trkpt lat="47.31885" lon="-2.26719">
        <ele>100.80000305176</ele>
        <time>2022-05-29T08:42:19.000Z</time>
      </trkpt>
      <trkpt lat="47.31848" lon="-2.26744">
        <ele>100.80000305176</ele>
        <time>2022-05-29T08:42:26.000Z</time>
      </trkpt>
      <trkpt lat="47.31831" lon="-2.26739">
        <ele>100.80000305176</ele>
        <time>2022-05-29T08:42:29.000Z</time>
      </trkpt>
      <trkpt lat="47.31819" lon="-2.2672">
        <ele>100.80000305176</ele>
        <time>2022-05-29T08:42:32.000Z</time>
      </trkpt>
      <trkpt lat="47.31815" lon="-2.26713">
        <ele>100.80000305176</ele>
        <time>2022-05-29T08:42:33.000Z</time>
      </trkpt>
      <trkpt lat="47.31805" lon="-2.26696">
        <ele>100.80000305176</ele>
        <time>2022-05-29T08:42:36.000Z</time>
      </trkpt>
      <trkpt lat="47.31801" lon="-2.26693">
        <ele>100.80000305176</ele>
        <time>2022-05-29T08:42:37.000Z</time>
      </trkpt>
      <trkpt lat="47.31784" lon="-2.26698">
        <ele>100.80000305176</ele>
        <time>2022-05-29T08:42:40.000Z</time>
      </trkpt>
      <trkpt lat="47.31778" lon="-2.26701">
        <ele>100.80000305176</ele>
        <time>2022-05-29T08:42:41.000Z</time>
      </trkpt>
      <trkpt lat="47.31756" lon="-2.26708">
        <ele>100.40000152588</ele>
        <time>2022-05-29T08:42:44.000Z</time>
      </trkpt>
      <trkpt lat="47.31749" lon="-2.26711">
        <ele>100</ele>
        <time>2022-05-29T08:42:45.000Z</time>
      </trkpt>
      <trkpt lat="47.31742" lon="-2.26713">
        <ele>99.599998474121</ele>
        <time>2022-05-29T08:42:46.000Z</time>
      </trkpt>
      <trkpt lat="47.31735" lon="-2.26716">
        <ele>99.199996948242</ele>
        <time>2022-05-29T08:42:47.000Z</time>
      </trkpt>
      <trkpt lat="47.31727" lon="-2.26719">
        <ele>98.800003051758</ele>
        <time>2022-05-29T08:42:48.000Z</time>
      </trkpt>
      <trkpt lat="47.31715" lon="-2.26722">
        <ele>98.199996948242</ele>
        <time>2022-05-29T08:42:50.000Z</time>
      </trkpt>
      <trkpt lat="47.31709" lon="-2.26724">
        <ele>97.800003051758</ele>
        <time>2022-05-29T08:42:51.000Z</time>
      </trkpt>
      <trkpt lat="47.31703" lon="-2.26725">
        <ele>97.400001525879</ele>
        <time>2022-05-29T08:42:52.000Z</time>
      </trkpt>
      <trkpt lat="47.31697" lon="-2.26726">
        <ele>97</ele>
        <time>2022-05-29T08:42:53.000Z</time>
      </trkpt>
      <trkpt lat="47.31691" lon="-2.26727">
        <ele>96.599998474121</ele>
        <time>2022-05-29T08:42:54.000Z</time>
      </trkpt>
      <trkpt lat="47.31674" lon="-2.2673">
        <ele>96.599998474121</ele>
        <time>2022-05-29T08:42:57.000Z</time>
      </trkpt>
      <trkpt lat="47.31645" lon="-2.2674">
        <ele>96.599998474121</ele>
        <time>2022-05-29T08:43:02.000Z</time>
      </trkpt>
      <trkpt lat="47.3164" lon="-2.26743">
        <ele>96.599998474121</ele>
        <time>2022-05-29T08:43:03.000Z</time>
      </trkpt>
      <trkpt lat="47.31635" lon="-2.26746">
        <ele>96.599998474121</ele>
        <time>2022-05-29T08:43:04.000Z</time>
      </trkpt>
      <trkpt lat="47.31621" lon="-2.26758">
        <ele>96.599998474121</ele>
        <time>2022-05-29T08:43:07.000Z</time>
      </trkpt>
      <trkpt lat="47.31602" lon="-2.26758">
        <ele>96.599998474121</ele>
        <time>2022-05-29T08:43:10.000Z</time>
      </trkpt>
      <trkpt lat="47.3159" lon="-2.26756">
        <ele>96</ele>
        <time>2022-05-29T08:43:12.000Z</time>
      </trkpt>
      <trkpt lat="47.31584" lon="-2.26756">
        <ele>95.599998474121</ele>
        <time>2022-05-29T08:43:13.000Z</time>
      </trkpt>
      <trkpt lat="47.31578" lon="-2.26756">
        <ele>95.199996948242</ele>
        <time>2022-05-29T08:43:14.000Z</time>
      </trkpt>
      <trkpt lat="47.31572" lon="-2.26758">
        <ele>94.800003051758</ele>
        <time>2022-05-29T08:43:15.000Z</time>
      </trkpt>
      <trkpt lat="47.31567" lon="-2.26762">
        <ele>94.400001525879</ele>
        <time>2022-05-29T08:43:16.000Z</time>
      </trkpt>
      <trkpt lat="47.31558" lon="-2.26776">
        <ele>94.400001525879</ele>
        <time>2022-05-29T08:43:18.000Z</time>
      </trkpt>
      <trkpt lat="47.31552" lon="-2.26792">
        <ele>94.400001525879</ele>
        <time>2022-05-29T08:43:20.000Z</time>
      </trkpt>
      <trkpt lat="47.31544" lon="-2.26813">
        <ele>94.400001525879</ele>
        <time>2022-05-29T08:43:23.000Z</time>
      </trkpt>
      <trkpt lat="47.31528" lon="-2.26858">
        <ele>94.400001525879</ele>
        <time>2022-05-29T08:43:29.000Z</time>
      </trkpt>
      <trkpt lat="47.31517" lon="-2.26885">
        <ele>94.400001525879</ele>
        <time>2022-05-29T08:43:33.000Z</time>
      </trkpt>
      <trkpt lat="47.31512" lon="-2.26899">
        <ele>94.400001525879</ele>
        <time>2022-05-29T08:43:35.000Z</time>
      </trkpt>
      <trkpt lat="47.31498" lon="-2.26949">
        <ele>94.400001525879</ele>
        <time>2022-05-29T08:43:42.000Z</time>
      </trkpt>
      <trkpt lat="47.31489" lon="-2.26975">
        <ele>95.199996948242</ele>
        <time>2022-05-29T08:43:46.000Z</time>
      </trkpt>
      <trkpt lat="47.31487" lon="-2.26981">
        <ele>95.800003051758</ele>
        <time>2022-05-29T08:43:47.000Z</time>
      </trkpt>
      <trkpt lat="47.31484" lon="-2.26985">
        <ele>96.199996948242</ele>
        <time>2022-05-29T08:43:48.000Z</time>
      </trkpt>
      <trkpt lat="47.3148" lon="-2.26989">
        <ele>96.599998474121</ele>
        <time>2022-05-29T08:43:49.000Z</time>
      </trkpt>
      <trkpt lat="47.31464" lon="-2.26999">
        <ele>96.599998474121</ele>
        <time>2022-05-29T08:43:52.000Z</time>
      </trkpt>
      <trkpt lat="47.31424" lon="-2.2703">
        <ele>96.599998474121</ele>
        <time>2022-05-29T08:43:59.000Z</time>
      </trkpt>
      <trkpt lat="47.31378" lon="-2.2706">
        <ele>96.599998474121</ele>
        <time>2022-05-29T08:44:07.000Z</time>
      </trkpt>
      <trkpt lat="47.31373" lon="-2.27063">
        <ele>97</ele>
        <time>2022-05-29T08:44:08.000Z</time>
      </trkpt>
      <trkpt lat="47.31367" lon="-2.27066">
        <ele>97.400001525879</ele>
        <time>2022-05-29T08:44:09.000Z</time>
      </trkpt>
      <trkpt lat="47.31361" lon="-2.27069">
        <ele>97.800003051758</ele>
        <time>2022-05-29T08:44:10.000Z</time>
      </trkpt>
      <trkpt lat="47.31355" lon="-2.27071">
        <ele>98.599998474121</ele>
        <time>2022-05-29T08:44:11.000Z</time>
      </trkpt>
      <trkpt lat="47.31324" lon="-2.2708">
        <ele>98.599998474121</ele>
        <time>2022-05-29T08:44:16.000Z</time>
      </trkpt>
      <trkpt lat="47.31313" lon="-2.27085">
        <ele>99</ele>
        <time>2022-05-29T08:44:18.000Z</time>
      </trkpt>
      <trkpt lat="47.31307" lon="-2.27087">
        <ele>99.400001525879</ele>
        <time>2022-05-29T08:44:19.000Z</time>
      </trkpt>
      <trkpt lat="47.31301" lon="-2.2709">
        <ele>99.800003051758</ele>
        <time>2022-05-29T08:44:20.000Z</time>
      </trkpt>
      <trkpt lat="47.31295" lon="-2.27093">
        <ele>100.19999694824</ele>
        <time>2022-05-29T08:44:21.000Z</time>
      </trkpt>
      <trkpt lat="47.31289" lon="-2.27096">
        <ele>100.59999847412</ele>
        <time>2022-05-29T08:44:22.000Z</time>
      </trkpt>
      <trkpt lat="47.31284" lon="-2.27099">
        <ele>100.59999847412</ele>
        <time>2022-05-29T08:44:23.000Z</time>
      </trkpt>
      <trkpt lat="47.31276" lon="-2.27108">
        <ele>100.59999847412</ele>
        <time>2022-05-29T08:44:25.000Z</time>
      </trkpt>
      <trkpt lat="47.31274" lon="-2.27115">
        <ele>100.59999847412</ele>
        <time>2022-05-29T08:44:26.000Z</time>
      </trkpt>
      <trkpt lat="47.31276" lon="-2.27138">
        <ele>100.59999847412</ele>
        <time>2022-05-29T08:44:29.000Z</time>
      </trkpt>
      <trkpt lat="47.31277" lon="-2.27147">
        <ele>100.59999847412</ele>
        <time>2022-05-29T08:44:30.000Z</time>
      </trkpt>
      <trkpt lat="47.31286" lon="-2.27185">
        <ele>100.59999847412</ele>
        <time>2022-05-29T08:44:34.000Z</time>
      </trkpt>
      <trkpt lat="47.31288" lon="-2.27195">
        <ele>100.19999694824</ele>
        <time>2022-05-29T08:44:35.000Z</time>
      </trkpt>
      <trkpt lat="47.31291" lon="-2.27206">
        <ele>99.400001525879</ele>
        <time>2022-05-29T08:44:36.000Z</time>
      </trkpt>
      <trkpt lat="47.31293" lon="-2.27216">
        <ele>98.800003051758</ele>
        <time>2022-05-29T08:44:37.000Z</time>
      </trkpt>
      <trkpt lat="47.31294" lon="-2.27226">
        <ele>98.400001525879</ele>
        <time>2022-05-29T08:44:38.000Z</time>
      </trkpt>
      <trkpt lat="47.31302" lon="-2.27256">
        <ele>98.400001525879</ele>
        <time>2022-05-29T08:44:41.000Z</time>
      </trkpt>
      <trkpt lat="47.31323" lon="-2.273">
        <ele>98</ele>
        <time>2022-05-29T08:44:46.000Z</time>
      </trkpt>
      <trkpt lat="47.3133" lon="-2.27308">
        <ele>97.599998474121</ele>
        <time>2022-05-29T08:44:47.000Z</time>
      </trkpt>
      <trkpt lat="47.31336" lon="-2.27316">
        <ele>97.199996948242</ele>
        <time>2022-05-29T08:44:48.000Z</time>
      </trkpt>
      <trkpt lat="47.31342" lon="-2.27324">
        <ele>96.800003051758</ele>
        <time>2022-05-29T08:44:49.000Z</time>
      </trkpt>
      <trkpt lat="47.31349" lon="-2.27332">
        <ele>96.400001525879</ele>
        <time>2022-05-29T08:44:50.000Z</time>
      </trkpt>
      <trkpt lat="47.3136" lon="-2.27347">
        <ele>96.400001525879</ele>
        <time>2022-05-29T08:44:52.000Z</time>
      </trkpt>
      <trkpt lat="47.31398" lon="-2.27397">
        <ele>96.400001525879</ele>
        <time>2022-05-29T08:44:59.000Z</time>
      </trkpt>
      <trkpt lat="47.31435" lon="-2.2743">
        <ele>96.400001525879</ele>
        <time>2022-05-29T08:45:05.000Z</time>
      </trkpt>
      <trkpt lat="47.31452" lon="-2.27448">
        <ele>96.400001525879</ele>
        <time>2022-05-29T08:45:08.000Z</time>
      </trkpt>
      <trkpt lat="47.31461" lon="-2.27465">
        <ele>96.400001525879</ele>
        <time>2022-05-29T08:45:10.000Z</time>
      </trkpt>
      <trkpt lat="47.31467" lon="-2.27484">
        <ele>96.400001525879</ele>
        <time>2022-05-29T08:45:12.000Z</time>
      </trkpt>
      <trkpt lat="47.31472" lon="-2.27503">
        <ele>96.400001525879</ele>
        <time>2022-05-29T08:45:14.000Z</time>
      </trkpt>
      <trkpt lat="47.3148" lon="-2.27522">
        <ele>96.400001525879</ele>
        <time>2022-05-29T08:45:16.000Z</time>
      </trkpt>
      <trkpt lat="47.31492" lon="-2.27551">
        <ele>96.400001525879</ele>
        <time>2022-05-29T08:45:19.000Z</time>
      </trkpt>
      <trkpt lat="47.31506" lon="-2.27607">
        <ele>96.400001525879</ele>
        <time>2022-05-29T08:45:24.000Z</time>
      </trkpt>
      <trkpt lat="47.31503" lon="-2.27651">
        <ele>96.400001525879</ele>
        <time>2022-05-29T08:45:28.000Z</time>
      </trkpt>
      <trkpt lat="47.31493" lon="-2.27679">
        <ele>96.400001525879</ele>
        <time>2022-05-29T08:45:31.000Z</time>
      </trkpt>
      <trkpt lat="47.31489" lon="-2.27688">
        <ele>96.400001525879</ele>
        <time>2022-05-29T08:45:32.000Z</time>
      </trkpt>
      <trkpt lat="47.31484" lon="-2.27696">
        <ele>96.400001525879</ele>
        <time>2022-05-29T08:45:33.000Z</time>
      </trkpt>
      <trkpt lat="47.31462" lon="-2.27714">
        <ele>96.400001525879</ele>
        <time>2022-05-29T08:45:36.000Z</time>
      </trkpt>
      <trkpt lat="47.31455" lon="-2.27719">
        <ele>96.400001525879</ele>
        <time>2022-05-29T08:45:37.000Z</time>
      </trkpt>
      <trkpt lat="47.31428" lon="-2.27735">
        <ele>96.400001525879</ele>
        <time>2022-05-29T08:45:41.000Z</time>
      </trkpt>
      <trkpt lat="47.31388" lon="-2.27754">
        <ele>96.400001525879</ele>
        <time>2022-05-29T08:45:47.000Z</time>
      </trkpt>
      <trkpt lat="47.31348" lon="-2.27767">
        <ele>96.400001525879</ele>
        <time>2022-05-29T08:45:53.000Z</time>
      </trkpt>
      <trkpt lat="47.3129" lon="-2.27777">
        <ele>96.400001525879</ele>
        <time>2022-05-29T08:46:01.000Z</time>
      </trkpt>
      <trkpt lat="47.31239" lon="-2.27778">
        <ele>96.400001525879</ele>
        <time>2022-05-29T08:46:08.000Z</time>
      </trkpt>
      <trkpt lat="47.31233" lon="-2.27773">
        <ele>96.400001525879</ele>
        <time>2022-05-29T08:46:09.000Z</time>
      </trkpt>
      <trkpt lat="47.31221" lon="-2.27752">
        <ele>96.400001525879</ele>
        <time>2022-05-29T08:46:12.000Z</time>
      </trkpt>
      <trkpt lat="47.31218" lon="-2.27744">
        <ele>96.400001525879</ele>
        <time>2022-05-29T08:46:13.000Z</time>
      </trkpt>
      <trkpt lat="47.31213" lon="-2.27737">
        <ele>96.400001525879</ele>
        <time>2022-05-29T08:46:14.000Z</time>
      </trkpt>
      <trkpt lat="47.31203" lon="-2.27729">
        <ele>96.400001525879</ele>
        <time>2022-05-29T08:46:16.000Z</time>
      </trkpt>
      <trkpt lat="47.31184" lon="-2.27733">
        <ele>96.400001525879</ele>
        <time>2022-05-29T08:46:19.000Z</time>
      </trkpt>
      <trkpt lat="47.31157" lon="-2.27738">
        <ele>96.400001525879</ele>
        <time>2022-05-29T08:46:23.000Z</time>
      </trkpt>
      <trkpt lat="47.31151" lon="-2.27738">
        <ele>96.400001525879</ele>
        <time>2022-05-29T08:46:24.000Z</time>
      </trkpt>
      <trkpt lat="47.31145" lon="-2.27742">
        <ele>96.400001525879</ele>
        <time>2022-05-29T08:46:25.000Z</time>
      </trkpt>
      <trkpt lat="47.31141" lon="-2.27748">
        <ele>96.400001525879</ele>
        <time>2022-05-29T08:46:26.000Z</time>
      </trkpt>
      <trkpt lat="47.31135" lon="-2.2777">
        <ele>96.400001525879</ele>
        <time>2022-05-29T08:46:29.000Z</time>
      </trkpt>
      <trkpt lat="47.31142" lon="-2.27807">
        <ele>96.400001525879</ele>
        <time>2022-05-29T08:46:33.000Z</time>
      </trkpt>
      <trkpt lat="47.31146" lon="-2.27829">
        <ele>96.400001525879</ele>
        <time>2022-05-29T08:46:35.000Z</time>
      </trkpt>
      <trkpt lat="47.31147" lon="-2.2786">
        <ele>96.400001525879</ele>
        <time>2022-05-29T08:46:38.000Z</time>
      </trkpt>
      <trkpt lat="47.31135" lon="-2.27895">
        <ele>96.400001525879</ele>
        <time>2022-05-29T08:46:42.000Z</time>
      </trkpt>
      <trkpt lat="47.31131" lon="-2.27903">
        <ele>96.400001525879</ele>
        <time>2022-05-29T08:46:43.000Z</time>
      </trkpt>
      <trkpt lat="47.31126" lon="-2.27911">
        <ele>96.400001525879</ele>
        <time>2022-05-29T08:46:44.000Z</time>
      </trkpt>
      <trkpt lat="47.31106" lon="-2.27942">
        <ele>96.400001525879</ele>
        <time>2022-05-29T08:46:48.000Z</time>
      </trkpt>
      <trkpt lat="47.31074" lon="-2.2799">
        <ele>96.400001525879</ele>
        <time>2022-05-29T08:46:54.000Z</time>
      </trkpt>
      <trkpt lat="47.31045" lon="-2.28031">
        <ele>96.400001525879</ele>
        <time>2022-05-29T08:47:00.000Z</time>
      </trkpt>
      <trkpt lat="47.31012" lon="-2.28058">
        <ele>96.400001525879</ele>
        <time>2022-05-29T08:47:06.000Z</time>
      </trkpt>
      <trkpt lat="47.3097" lon="-2.28088">
        <ele>96.400001525879</ele>
        <time>2022-05-29T08:47:12.000Z</time>
      </trkpt>
      <trkpt lat="47.30939" lon="-2.28127">
        <ele>96.400001525879</ele>
        <time>2022-05-29T08:47:17.000Z</time>
      </trkpt>
      <trkpt lat="47.30907" lon="-2.28174">
        <ele>96.400001525879</ele>
        <time>2022-05-29T08:47:23.000Z</time>
      </trkpt>
      <trkpt lat="47.30875" lon="-2.28218">
        <ele>96.400001525879</ele>
        <time>2022-05-29T08:47:29.000Z</time>
      </trkpt>
      <trkpt lat="47.30861" lon="-2.28235">
        <ele>96.400001525879</ele>
        <time>2022-05-29T08:47:32.000Z</time>
      </trkpt>
      <trkpt lat="47.3085" lon="-2.28244">
        <ele>96.400001525879</ele>
        <time>2022-05-29T08:47:34.000Z</time>
      </trkpt>
      <trkpt lat="47.30833" lon="-2.28251">
        <ele>96.400001525879</ele>
        <time>2022-05-29T08:47:37.000Z</time>
      </trkpt>
      <trkpt lat="47.30829" lon="-2.28253">
        <ele>96.400001525879</ele>
        <time>2022-05-29T08:47:38.000Z</time>
      </trkpt>
      <trkpt lat="47.30824" lon="-2.28254">
        <ele>96.400001525879</ele>
        <time>2022-05-29T08:47:39.000Z</time>
      </trkpt>
      <trkpt lat="47.30811" lon="-2.28254">
        <ele>96.400001525879</ele>
        <time>2022-05-29T08:47:42.000Z</time>
      </trkpt>
      <trkpt lat="47.30806" lon="-2.28253">
        <ele>96.400001525879</ele>
        <time>2022-05-29T08:47:43.000Z</time>
      </trkpt>
      <trkpt lat="47.30788" lon="-2.28245">
        <ele>96.400001525879</ele>
        <time>2022-05-29T08:47:48.000Z</time>
      </trkpt>
      <trkpt lat="47.30779" lon="-2.28239">
        <ele>96.400001525879</ele>
        <time>2022-05-29T08:47:53.000Z</time>
      </trkpt>
      <trkpt lat="47.30767" lon="-2.28228">
        <ele>96.400001525879</ele>
        <time>2022-05-29T08:48:01.000Z</time>
      </trkpt>
      <trkpt lat="47.30758" lon="-2.28221">
        <ele>96.400001525879</ele>
        <time>2022-05-29T08:48:09.000Z</time>
      </trkpt>
      <trkpt lat="47.30754" lon="-2.28217">
        <ele>96.400001525879</ele>
        <time>2022-05-29T08:48:12.000Z</time>
      </trkpt>
      <trkpt lat="47.30749" lon="-2.28212">
        <ele>96.400001525879</ele>
        <time>2022-05-29T08:48:14.000Z</time>
      </trkpt>
      <trkpt lat="47.30734" lon="-2.28189">
        <ele>96.400001525879</ele>
        <time>2022-05-29T08:48:19.000Z</time>
      </trkpt>
      <trkpt lat="47.3071" lon="-2.28158">
        <ele>96.400001525879</ele>
        <time>2022-05-29T08:48:25.000Z</time>
      </trkpt>
      <trkpt lat="47.30702" lon="-2.28151">
        <ele>96.400001525879</ele>
        <time>2022-05-29T08:48:27.000Z</time>
      </trkpt>
      <trkpt lat="47.30697" lon="-2.28153">
        <ele>96.400001525879</ele>
        <time>2022-05-29T08:48:28.000Z</time>
      </trkpt>
      <trkpt lat="47.3069" lon="-2.28162">
        <ele>96.400001525879</ele>
        <time>2022-05-29T08:48:30.000Z</time>
      </trkpt>
      <trkpt lat="47.30687" lon="-2.28175">
        <ele>96.400001525879</ele>
        <time>2022-05-29T08:48:32.000Z</time>
      </trkpt>
      <trkpt lat="47.30681" lon="-2.28211">
        <ele>96.400001525879</ele>
        <time>2022-05-29T08:48:38.000Z</time>
      </trkpt>
      <trkpt lat="47.3068" lon="-2.28228">
        <ele>96.400001525879</ele>
        <time>2022-05-29T08:48:41.000Z</time>
      </trkpt>
      <trkpt lat="47.30677" lon="-2.28241">
        <ele>96.400001525879</ele>
        <time>2022-05-29T08:48:43.000Z</time>
      </trkpt>
      <trkpt lat="47.30669" lon="-2.28258">
        <ele>96.400001525879</ele>
        <time>2022-05-29T08:48:46.000Z</time>
      </trkpt>
      <trkpt lat="47.3066" lon="-2.28264">
        <ele>96.400001525879</ele>
        <time>2022-05-29T08:48:48.000Z</time>
      </trkpt>
      <trkpt lat="47.3064" lon="-2.28271">
        <ele>96.400001525879</ele>
        <time>2022-05-29T08:48:52.000Z</time>
      </trkpt>
      <trkpt lat="47.30591" lon="-2.28289">
        <ele>96.400001525879</ele>
        <time>2022-05-29T08:49:00.000Z</time>
      </trkpt>
      <trkpt lat="47.3054" lon="-2.28319">
        <ele>96.400001525879</ele>
        <time>2022-05-29T08:49:08.000Z</time>
      </trkpt>
      <trkpt lat="47.30503" lon="-2.28343">
        <ele>96.400001525879</ele>
        <time>2022-05-29T08:49:14.000Z</time>
      </trkpt>
      <trkpt lat="47.30461" lon="-2.28369">
        <ele>96.400001525879</ele>
        <time>2022-05-29T08:49:21.000Z</time>
      </trkpt>
      <trkpt lat="47.30412" lon="-2.284">
        <ele>96.400001525879</ele>
        <time>2022-05-29T08:49:29.000Z</time>
      </trkpt>
      <trkpt lat="47.30394" lon="-2.28412">
        <ele>97.199996948242</ele>
        <time>2022-05-29T08:49:32.000Z</time>
      </trkpt>
      <trkpt lat="47.30388" lon="-2.28417">
        <ele>97.599998474121</ele>
        <time>2022-05-29T08:49:33.000Z</time>
      </trkpt>
      <trkpt lat="47.30383" lon="-2.28421">
        <ele>98</ele>
        <time>2022-05-29T08:49:34.000Z</time>
      </trkpt>
      <trkpt lat="47.30377" lon="-2.28426">
        <ele>98.400001525879</ele>
        <time>2022-05-29T08:49:35.000Z</time>
      </trkpt>
      <trkpt lat="47.30366" lon="-2.28436">
        <ele>98.400001525879</ele>
        <time>2022-05-29T08:49:37.000Z</time>
      </trkpt>
      <trkpt lat="47.30333" lon="-2.28471">
        <ele>98.400001525879</ele>
        <time>2022-05-29T08:49:43.000Z</time>
      </trkpt>
      <trkpt lat="47.30301" lon="-2.285">
        <ele>98.400001525879</ele>
        <time>2022-05-29T08:49:49.000Z</time>
      </trkpt>
      <trkpt lat="47.30268" lon="-2.28517">
        <ele>98.400001525879</ele>
        <time>2022-05-29T08:49:55.000Z</time>
      </trkpt>
      <trkpt lat="47.30263" lon="-2.28519">
        <ele>98.800003051758</ele>
        <time>2022-05-29T08:49:56.000Z</time>
      </trkpt>
      <trkpt lat="47.30257" lon="-2.28519">
        <ele>99.199996948242</ele>
        <time>2022-05-29T08:49:57.000Z</time>
      </trkpt>
      <trkpt lat="47.30251" lon="-2.2852">
        <ele>99.599998474121</ele>
        <time>2022-05-29T08:49:58.000Z</time>
      </trkpt>
      <trkpt lat="47.30244" lon="-2.28519">
        <ele>100</ele>
        <time>2022-05-29T08:49:59.000Z</time>
      </trkpt>
      <trkpt lat="47.30238" lon="-2.28518">
        <ele>100.40000152588</ele>
        <time>2022-05-29T08:50:00.000Z</time>
      </trkpt>
      <trkpt lat="47.3019" lon="-2.28497">
        <ele>100.40000152588</ele>
        <time>2022-05-29T08:50:07.000Z</time>
      </trkpt>
      <trkpt lat="47.30153" lon="-2.28475">
        <ele>100.40000152588</ele>
        <time>2022-05-29T08:50:13.000Z</time>
      </trkpt>
      <trkpt lat="47.30142" lon="-2.28467">
        <ele>101</ele>
        <time>2022-05-29T08:50:15.000Z</time>
      </trkpt>
      <trkpt lat="47.30137" lon="-2.28463">
        <ele>101.40000152588</ele>
        <time>2022-05-29T08:50:16.000Z</time>
      </trkpt>
      <trkpt lat="47.30131" lon="-2.28458">
        <ele>101.80000305176</ele>
        <time>2022-05-29T08:50:17.000Z</time>
      </trkpt>
      <trkpt lat="47.30126" lon="-2.28454">
        <ele>102.19999694824</ele>
        <time>2022-05-29T08:50:18.000Z</time>
      </trkpt>
      <trkpt lat="47.30121" lon="-2.28449">
        <ele>102.59999847412</ele>
        <time>2022-05-29T08:50:19.000Z</time>
      </trkpt>
      <trkpt lat="47.30097" lon="-2.28425">
        <ele>102.59999847412</ele>
        <time>2022-05-29T08:50:25.000Z</time>
      </trkpt>
      <trkpt lat="47.30085" lon="-2.28414">
        <ele>102.59999847412</ele>
        <time>2022-05-29T08:50:28.000Z</time>
      </trkpt>
      <trkpt lat="47.30075" lon="-2.28411">
        <ele>102.59999847412</ele>
        <time>2022-05-29T08:50:30.000Z</time>
      </trkpt>
      <trkpt lat="47.30055" lon="-2.28418">
        <ele>102.59999847412</ele>
        <time>2022-05-29T08:50:34.000Z</time>
      </trkpt>
      <trkpt lat="47.30022" lon="-2.2843">
        <ele>102.59999847412</ele>
        <time>2022-05-29T08:50:40.000Z</time>
      </trkpt>
      <trkpt lat="47.29994" lon="-2.2844">
        <ele>103</ele>
        <time>2022-05-29T08:50:45.000Z</time>
      </trkpt>
      <trkpt lat="47.29988" lon="-2.28443">
        <ele>104</ele>
        <time>2022-05-29T08:50:46.000Z</time>
      </trkpt>
      <trkpt lat="47.29983" lon="-2.28445">
        <ele>104.40000152588</ele>
        <time>2022-05-29T08:50:47.000Z</time>
      </trkpt>
      <trkpt lat="47.29977" lon="-2.28448">
        <ele>104.80000305176</ele>
        <time>2022-05-29T08:50:48.000Z</time>
      </trkpt>
      <trkpt lat="47.29962" lon="-2.28461">
        <ele>104.80000305176</ele>
        <time>2022-05-29T08:50:51.000Z</time>
      </trkpt>
      <trkpt lat="47.29957" lon="-2.28466">
        <ele>104.80000305176</ele>
        <time>2022-05-29T08:50:52.000Z</time>
      </trkpt>
      <trkpt lat="47.2994" lon="-2.2849">
        <ele>104.80000305176</ele>
        <time>2022-05-29T08:50:57.000Z</time>
      </trkpt>
      <trkpt lat="47.29935" lon="-2.28481">
        <ele>104.80000305176</ele>
        <time>2022-05-29T08:51:00.000Z</time>
      </trkpt>
      <trkpt lat="47.29936" lon="-2.28456">
        <ele>104.80000305176</ele>
        <time>2022-05-29T08:51:05.000Z</time>
      </trkpt>
      <trkpt lat="47.29938" lon="-2.2845">
        <ele>104.80000305176</ele>
        <time>2022-05-29T08:51:06.000Z</time>
      </trkpt>
      <trkpt lat="47.29945" lon="-2.28434">
        <ele>104.80000305176</ele>
        <time>2022-05-29T08:51:09.000Z</time>
      </trkpt>
      <trkpt lat="47.29948" lon="-2.28428">
        <ele>104.80000305176</ele>
        <time>2022-05-29T08:51:10.000Z</time>
      </trkpt>
      <trkpt lat="47.29951" lon="-2.2841">
        <ele>104.80000305176</ele>
        <time>2022-05-29T08:51:13.000Z</time>
      </trkpt>
      <trkpt lat="47.29949" lon="-2.28379">
        <ele>104.80000305176</ele>
        <time>2022-05-29T08:51:17.000Z</time>
      </trkpt>
      <trkpt lat="47.29949" lon="-2.28364">
        <ele>104.80000305176</ele>
        <time>2022-05-29T08:51:19.000Z</time>
      </trkpt>
      <trkpt lat="47.2995" lon="-2.28341">
        <ele>104.80000305176</ele>
        <time>2022-05-29T08:51:22.000Z</time>
      </trkpt>
      <trkpt lat="47.2995" lon="-2.28327">
        <ele>104.80000305176</ele>
        <time>2022-05-29T08:51:24.000Z</time>
      </trkpt>
      <trkpt lat="47.29949" lon="-2.2832">
        <ele>104.80000305176</ele>
        <time>2022-05-29T08:51:25.000Z</time>
      </trkpt>
      <trkpt lat="47.29949" lon="-2.28313">
        <ele>104.80000305176</ele>
        <time>2022-05-29T08:51:26.000Z</time>
      </trkpt>
      <trkpt lat="47.29948" lon="-2.28293">
        <ele>104.80000305176</ele>
        <time>2022-05-29T08:51:29.000Z</time>
      </trkpt>
      <trkpt lat="47.29946" lon="-2.28278">
        <ele>104.80000305176</ele>
        <time>2022-05-29T08:51:31.000Z</time>
      </trkpt>
      <trkpt lat="47.29942" lon="-2.28234">
        <ele>104.80000305176</ele>
        <time>2022-05-29T08:51:37.000Z</time>
      </trkpt>
      <trkpt lat="47.29944" lon="-2.28208">
        <ele>105.19999694824</ele>
        <time>2022-05-29T08:51:41.000Z</time>
      </trkpt>
      <trkpt lat="47.29945" lon="-2.28202">
        <ele>105.59999847412</ele>
        <time>2022-05-29T08:51:42.000Z</time>
      </trkpt>
      <trkpt lat="47.29946" lon="-2.28196">
        <ele>106</ele>
        <time>2022-05-29T08:51:43.000Z</time>
      </trkpt>
      <trkpt lat="47.29948" lon="-2.28189">
        <ele>106.40000152588</ele>
        <time>2022-05-29T08:51:44.000Z</time>
      </trkpt>
      <trkpt lat="47.2995" lon="-2.28182">
        <ele>106.80000305176</ele>
        <time>2022-05-29T08:51:45.000Z</time>
      </trkpt>
      <trkpt lat="47.29958" lon="-2.28157">
        <ele>106.80000305176</ele>
        <time>2022-05-29T08:51:48.000Z</time>
      </trkpt>
      <trkpt lat="47.29976" lon="-2.28094">
        <ele>106.80000305176</ele>
        <time>2022-05-29T08:51:55.000Z</time>
      </trkpt>
      <trkpt lat="47.29986" lon="-2.28056">
        <ele>106.80000305176</ele>
        <time>2022-05-29T08:52:00.000Z</time>
      </trkpt>
      <trkpt lat="47.29989" lon="-2.28049">
        <ele>106.80000305176</ele>
        <time>2022-05-29T08:52:01.000Z</time>
      </trkpt>
      <trkpt lat="47.29988" lon="-2.28038">
        <ele>106.80000305176</ele>
        <time>2022-05-29T08:52:04.000Z</time>
      </trkpt>
      <trkpt lat="47.2998" lon="-2.28042">
        <ele>106.80000305176</ele>
        <time>2022-05-29T08:52:07.000Z</time>
      </trkpt>
      <trkpt lat="47.29976" lon="-2.28043">
        <ele>106.80000305176</ele>
        <time>2022-05-29T08:52:08.000Z</time>
      </trkpt>
      <trkpt lat="47.2996" lon="-2.28049">
        <ele>106.80000305176</ele>
        <time>2022-05-29T08:52:12.000Z</time>
      </trkpt>
      <trkpt lat="47.29956" lon="-2.28048">
        <ele>106.80000305176</ele>
        <time>2022-05-29T08:52:13.000Z</time>
      </trkpt>
      <trkpt lat="47.29943" lon="-2.28036">
        <ele>106.80000305176</ele>
        <time>2022-05-29T08:52:16.000Z</time>
      </trkpt>
      <trkpt lat="47.29934" lon="-2.28008">
        <ele>106.80000305176</ele>
        <time>2022-05-29T08:52:20.000Z</time>
      </trkpt>
      <trkpt lat="47.29933" lon="-2.28">
        <ele>106.80000305176</ele>
        <time>2022-05-29T08:52:21.000Z</time>
      </trkpt>
      <trkpt lat="47.29932" lon="-2.27965">
        <ele>106.80000305176</ele>
        <time>2022-05-29T08:52:25.000Z</time>
      </trkpt>
      <trkpt lat="47.29933" lon="-2.27957">
        <ele>106.80000305176</ele>
        <time>2022-05-29T08:52:26.000Z</time>
      </trkpt>
      <trkpt lat="47.29938" lon="-2.2788">
        <ele>106.80000305176</ele>
        <time>2022-05-29T08:52:35.000Z</time>
      </trkpt>
      <trkpt lat="47.29945" lon="-2.27816">
        <ele>106.80000305176</ele>
        <time>2022-05-29T08:52:42.000Z</time>
      </trkpt>
      <trkpt lat="47.29952" lon="-2.27744">
        <ele>106.80000305176</ele>
        <time>2022-05-29T08:52:50.000Z</time>
      </trkpt>
      <trkpt lat="47.2996" lon="-2.27672">
        <ele>106.80000305176</ele>
        <time>2022-05-29T08:52:58.000Z</time>
      </trkpt>
      <trkpt lat="47.29965" lon="-2.2763">
        <ele>106.80000305176</ele>
        <time>2022-05-29T08:53:03.000Z</time>
      </trkpt>
      <trkpt lat="47.29964" lon="-2.27622">
        <ele>106.80000305176</ele>
        <time>2022-05-29T08:53:04.000Z</time>
      </trkpt>
      <trkpt lat="47.29956" lon="-2.27602">
        <ele>106.80000305176</ele>
        <time>2022-05-29T08:53:07.000Z</time>
      </trkpt>
      <trkpt lat="47.29951" lon="-2.27599">
        <ele>106.40000152588</ele>
        <time>2022-05-29T08:53:08.000Z</time>
      </trkpt>
      <trkpt lat="47.29945" lon="-2.27598">
        <ele>106</ele>
        <time>2022-05-29T08:53:09.000Z</time>
      </trkpt>
      <trkpt lat="47.29939" lon="-2.27597">
        <ele>105.59999847412</ele>
        <time>2022-05-29T08:53:10.000Z</time>
      </trkpt>
      <trkpt lat="47.29933" lon="-2.27597">
        <ele>105.19999694824</ele>
        <time>2022-05-29T08:53:11.000Z</time>
      </trkpt>
      <trkpt lat="47.29926" lon="-2.27598">
        <ele>104.80000305176</ele>
        <time>2022-05-29T08:53:12.000Z</time>
      </trkpt>
      <trkpt lat="47.2992" lon="-2.27599">
        <ele>104.80000305176</ele>
        <time>2022-05-29T08:53:13.000Z</time>
      </trkpt>
      <trkpt lat="47.29908" lon="-2.27603">
        <ele>104.80000305176</ele>
        <time>2022-05-29T08:53:15.000Z</time>
      </trkpt>
      <trkpt lat="47.29863" lon="-2.2762">
        <ele>104.80000305176</ele>
        <time>2022-05-29T08:53:22.000Z</time>
      </trkpt>
      <trkpt lat="47.29837" lon="-2.27616">
        <ele>104.80000305176</ele>
        <time>2022-05-29T08:53:26.000Z</time>
      </trkpt>
      <trkpt lat="47.29797" lon="-2.27595">
        <ele>104.80000305176</ele>
        <time>2022-05-29T08:53:32.000Z</time>
      </trkpt>
      <trkpt lat="47.29769" lon="-2.27593">
        <ele>104.80000305176</ele>
        <time>2022-05-29T08:53:36.000Z</time>
      </trkpt>
      <trkpt lat="47.29751" lon="-2.276">
        <ele>104.80000305176</ele>
        <time>2022-05-29T08:53:39.000Z</time>
      </trkpt>
      <trkpt lat="47.29741" lon="-2.27606">
        <ele>104.80000305176</ele>
        <time>2022-05-29T08:53:41.000Z</time>
      </trkpt>
      <trkpt lat="47.29719" lon="-2.27616">
        <ele>104.80000305176</ele>
        <time>2022-05-29T08:53:45.000Z</time>
      </trkpt>
      <trkpt lat="47.29707" lon="-2.27619">
        <ele>104.80000305176</ele>
        <time>2022-05-29T08:53:47.000Z</time>
      </trkpt>
      <trkpt lat="47.29701" lon="-2.27619">
        <ele>104.80000305176</ele>
        <time>2022-05-29T08:53:48.000Z</time>
      </trkpt>
      <trkpt lat="47.29676" lon="-2.27616">
        <ele>104.80000305176</ele>
        <time>2022-05-29T08:53:52.000Z</time>
      </trkpt>
      <trkpt lat="47.2967" lon="-2.27614">
        <ele>105.19999694824</ele>
        <time>2022-05-29T08:53:53.000Z</time>
      </trkpt>
      <trkpt lat="47.29664" lon="-2.27613">
        <ele>105.59999847412</ele>
        <time>2022-05-29T08:53:54.000Z</time>
      </trkpt>
      <trkpt lat="47.29659" lon="-2.27612">
        <ele>106</ele>
        <time>2022-05-29T08:53:55.000Z</time>
      </trkpt>
      <trkpt lat="47.29654" lon="-2.2761">
        <ele>106.40000152588</ele>
        <time>2022-05-29T08:53:56.000Z</time>
      </trkpt>
      <trkpt lat="47.29648" lon="-2.27607">
        <ele>106.80000305176</ele>
        <time>2022-05-29T08:53:57.000Z</time>
      </trkpt>
      <trkpt lat="47.29643" lon="-2.27603">
        <ele>106.80000305176</ele>
        <time>2022-05-29T08:53:58.000Z</time>
      </trkpt>
      <trkpt lat="47.29612" lon="-2.27581">
        <ele>107.19999694824</ele>
        <time>2022-05-29T08:54:04.000Z</time>
      </trkpt>
      <trkpt lat="47.29607" lon="-2.27578">
        <ele>108.19999694824</ele>
        <time>2022-05-29T08:54:05.000Z</time>
      </trkpt>
      <trkpt lat="47.29602" lon="-2.27575">
        <ele>108.59999847412</ele>
        <time>2022-05-29T08:54:06.000Z</time>
      </trkpt>
      <trkpt lat="47.29597" lon="-2.27572">
        <ele>109</ele>
        <time>2022-05-29T08:54:07.000Z</time>
      </trkpt>
      <trkpt lat="47.29582" lon="-2.27563">
        <ele>109</ele>
        <time>2022-05-29T08:54:10.000Z</time>
      </trkpt>
      <trkpt lat="47.29542" lon="-2.27544">
        <ele>109</ele>
        <time>2022-05-29T08:54:17.000Z</time>
      </trkpt>
      <trkpt lat="47.29536" lon="-2.27542">
        <ele>109.40000152588</ele>
        <time>2022-05-29T08:54:18.000Z</time>
      </trkpt>
      <trkpt lat="47.2953" lon="-2.2754">
        <ele>109.80000305176</ele>
        <time>2022-05-29T08:54:19.000Z</time>
      </trkpt>
      <trkpt lat="47.29524" lon="-2.27538">
        <ele>110.19999694824</ele>
        <time>2022-05-29T08:54:20.000Z</time>
      </trkpt>
      <trkpt lat="47.29518" lon="-2.27536">
        <ele>110.59999847412</ele>
        <time>2022-05-29T08:54:21.000Z</time>
      </trkpt>
      <trkpt lat="47.29512" lon="-2.27535">
        <ele>111</ele>
        <time>2022-05-29T08:54:22.000Z</time>
      </trkpt>
      <trkpt lat="47.29495" lon="-2.27529">
        <ele>111</ele>
        <time>2022-05-29T08:54:25.000Z</time>
      </trkpt>
      <trkpt lat="47.29449" lon="-2.27517">
        <ele>111</ele>
        <time>2022-05-29T08:54:33.000Z</time>
      </trkpt>
      <trkpt lat="47.29438" lon="-2.27516">
        <ele>111.40000152588</ele>
        <time>2022-05-29T08:54:35.000Z</time>
      </trkpt>
      <trkpt lat="47.29433" lon="-2.27516">
        <ele>111.80000305176</ele>
        <time>2022-05-29T08:54:36.000Z</time>
      </trkpt>
      <trkpt lat="47.29427" lon="-2.27516">
        <ele>112.19999694824</ele>
        <time>2022-05-29T08:54:37.000Z</time>
      </trkpt>
      <trkpt lat="47.29422" lon="-2.27517">
        <ele>112.59999847412</ele>
        <time>2022-05-29T08:54:38.000Z</time>
      </trkpt>
      <trkpt lat="47.29417" lon="-2.27517">
        <ele>113.19999694824</ele>
        <time>2022-05-29T08:54:39.000Z</time>
      </trkpt>
      <trkpt lat="47.29412" lon="-2.27518">
        <ele>113.19999694824</ele>
        <time>2022-05-29T08:54:40.000Z</time>
      </trkpt>
      <trkpt lat="47.2937" lon="-2.2753">
        <ele>113.19999694824</ele>
        <time>2022-05-29T08:54:48.000Z</time>
      </trkpt>
      <trkpt lat="47.29326" lon="-2.27537">
        <ele>113.19999694824</ele>
        <time>2022-05-29T08:54:55.000Z</time>
      </trkpt>
      <trkpt lat="47.29297" lon="-2.27535">
        <ele>113.19999694824</ele>
        <time>2022-05-29T08:55:00.000Z</time>
      </trkpt>
      <trkpt lat="47.29292" lon="-2.27536">
        <ele>113.19999694824</ele>
        <time>2022-05-29T08:55:01.000Z</time>
      </trkpt>
      <trkpt lat="47.29278" lon="-2.27541">
        <ele>113.19999694824</ele>
        <time>2022-05-29T08:55:04.000Z</time>
      </trkpt>
      <trkpt lat="47.29267" lon="-2.2754">
        <ele>113.19999694824</ele>
        <time>2022-05-29T08:55:06.000Z</time>
      </trkpt>
      <trkpt lat="47.29245" lon="-2.27531">
        <ele>113.19999694824</ele>
        <time>2022-05-29T08:55:10.000Z</time>
      </trkpt>
      <trkpt lat="47.29239" lon="-2.2753">
        <ele>113.19999694824</ele>
        <time>2022-05-29T08:55:11.000Z</time>
      </trkpt>
      <trkpt lat="47.29216" lon="-2.27531">
        <ele>113.19999694824</ele>
        <time>2022-05-29T08:55:15.000Z</time>
      </trkpt>
      <trkpt lat="47.29178" lon="-2.27533">
        <ele>113.19999694824</ele>
        <time>2022-05-29T08:55:21.000Z</time>
      </trkpt>
      <trkpt lat="47.29134" lon="-2.27535">
        <ele>113.19999694824</ele>
        <time>2022-05-29T08:55:28.000Z</time>
      </trkpt>
      <trkpt lat="47.29076" lon="-2.27532">
        <ele>113.19999694824</ele>
        <time>2022-05-29T08:55:37.000Z</time>
      </trkpt>
      <trkpt lat="47.29036" lon="-2.27526">
        <ele>113.19999694824</ele>
        <time>2022-05-29T08:55:43.000Z</time>
      </trkpt>
      <trkpt lat="47.28983" lon="-2.27524">
        <ele>113.19999694824</ele>
        <time>2022-05-29T08:55:51.000Z</time>
      </trkpt>
      <trkpt lat="47.28931" lon="-2.27525">
        <ele>113.19999694824</ele>
        <time>2022-05-29T08:55:59.000Z</time>
      </trkpt>
      <trkpt lat="47.28892" lon="-2.27529">
        <ele>113.19999694824</ele>
        <time>2022-05-29T08:56:05.000Z</time>
      </trkpt>
      <trkpt lat="47.28852" lon="-2.27538">
        <ele>113.19999694824</ele>
        <time>2022-05-29T08:56:12.000Z</time>
      </trkpt>
      <trkpt lat="47.28816" lon="-2.27544">
        <ele>113.19999694824</ele>
        <time>2022-05-29T08:56:18.000Z</time>
      </trkpt>
      <trkpt lat="47.28811" lon="-2.27547">
        <ele>113.19999694824</ele>
        <time>2022-05-29T08:56:19.000Z</time>
      </trkpt>
      <trkpt lat="47.28796" lon="-2.27562">
        <ele>113.19999694824</ele>
        <time>2022-05-29T08:56:22.000Z</time>
      </trkpt>
      <trkpt lat="47.28781" lon="-2.27579">
        <ele>113.19999694824</ele>
        <time>2022-05-29T08:56:25.000Z</time>
      </trkpt>
      <trkpt lat="47.28746" lon="-2.27624">
        <ele>113.19999694824</ele>
        <time>2022-05-29T08:56:32.000Z</time>
      </trkpt>
      <trkpt lat="47.28717" lon="-2.2767">
        <ele>113.19999694824</ele>
        <time>2022-05-29T08:56:38.000Z</time>
      </trkpt>
      <trkpt lat="47.28687" lon="-2.27722">
        <ele>113.19999694824</ele>
        <time>2022-05-29T08:56:45.000Z</time>
      </trkpt>
      <trkpt lat="47.28659" lon="-2.27778">
        <ele>113.19999694824</ele>
        <time>2022-05-29T08:56:52.000Z</time>
      </trkpt>
      <trkpt lat="47.28646" lon="-2.27836">
        <ele>113.19999694824</ele>
        <time>2022-05-29T08:56:58.000Z</time>
      </trkpt>
      <trkpt lat="47.28636" lon="-2.27894">
        <ele>113.19999694824</ele>
        <time>2022-05-29T08:57:04.000Z</time>
      </trkpt>
      <trkpt lat="47.28635" lon="-2.27902">
        <ele>113.19999694824</ele>
        <time>2022-05-29T08:57:05.000Z</time>
      </trkpt>
      <trkpt lat="47.28631" lon="-2.27933">
        <ele>113.19999694824</ele>
        <time>2022-05-29T08:57:09.000Z</time>
      </trkpt>
      <trkpt lat="47.28626" lon="-2.27945">
        <ele>113.19999694824</ele>
        <time>2022-05-29T08:57:11.000Z</time>
      </trkpt>
      <trkpt lat="47.28619" lon="-2.27959">
        <ele>113.59999847412</ele>
        <time>2022-05-29T08:57:13.000Z</time>
      </trkpt>
      <trkpt lat="47.28616" lon="-2.27967">
        <ele>114</ele>
        <time>2022-05-29T08:57:14.000Z</time>
      </trkpt>
      <trkpt lat="47.28614" lon="-2.27976">
        <ele>114.40000152588</ele>
        <time>2022-05-29T08:57:15.000Z</time>
      </trkpt>
      <trkpt lat="47.28612" lon="-2.27984">
        <ele>114.80000305176</ele>
        <time>2022-05-29T08:57:16.000Z</time>
      </trkpt>
      <trkpt lat="47.2861" lon="-2.27992">
        <ele>115.19999694824</ele>
        <time>2022-05-29T08:57:17.000Z</time>
      </trkpt>
      <trkpt lat="47.28603" lon="-2.28012">
        <ele>115.19999694824</ele>
        <time>2022-05-29T08:57:20.000Z</time>
      </trkpt>
      <trkpt lat="47.28601" lon="-2.28017">
        <ele>115.19999694824</ele>
        <time>2022-05-29T08:57:21.000Z</time>
      </trkpt>
      <trkpt lat="47.28586" lon="-2.28034">
        <ele>115.19999694824</ele>
        <time>2022-05-29T08:57:26.000Z</time>
      </trkpt>
      <trkpt lat="47.28577" lon="-2.28044">
        <ele>115.19999694824</ele>
        <time>2022-05-29T08:57:30.000Z</time>
      </trkpt>
      <trkpt lat="47.28574" lon="-2.28046">
        <ele>115.19999694824</ele>
        <time>2022-05-29T08:57:31.000Z</time>
      </trkpt>
      <trkpt lat="47.28561" lon="-2.28051">
        <ele>115.59999847412</ele>
        <time>2022-05-29T08:57:35.000Z</time>
      </trkpt>
      <trkpt lat="47.28558" lon="-2.2805">
        <ele>116</ele>
        <time>2022-05-29T08:57:36.000Z</time>
      </trkpt>
      <trkpt lat="47.28555" lon="-2.28049">
        <ele>116.40000152588</ele>
        <time>2022-05-29T08:57:37.000Z</time>
      </trkpt>
      <trkpt lat="47.28553" lon="-2.28048">
        <ele>117</ele>
        <time>2022-05-29T08:57:38.000Z</time>
      </trkpt>
      <trkpt lat="47.28549" lon="-2.28048">
        <ele>117.40000152588</ele>
        <time>2022-05-29T08:57:39.000Z</time>
      </trkpt>
      <trkpt lat="47.28542" lon="-2.28048">
        <ele>117.40000152588</ele>
        <time>2022-05-29T08:57:42.000Z</time>
      </trkpt>
      <trkpt lat="47.28538" lon="-2.28046">
        <ele>117.80000305176</ele>
        <time>2022-05-29T08:57:44.000Z</time>
      </trkpt>
      <trkpt lat="47.28535" lon="-2.28047">
        <ele>118.19999694824</ele>
        <time>2022-05-29T08:57:45.000Z</time>
      </trkpt>
      <trkpt lat="47.28532" lon="-2.28048">
        <ele>118.59999847412</ele>
        <time>2022-05-29T08:57:46.000Z</time>
      </trkpt>
      <trkpt lat="47.2853" lon="-2.28048">
        <ele>119</ele>
        <time>2022-05-29T08:57:47.000Z</time>
      </trkpt>
      <trkpt lat="47.28528" lon="-2.28047">
        <ele>119.40000152588</ele>
        <time>2022-05-29T08:57:48.000Z</time>
      </trkpt>
      <trkpt lat="47.28523" lon="-2.28047">
        <ele>119.80000305176</ele>
        <time>2022-05-29T08:57:50.000Z</time>
      </trkpt>
      <trkpt lat="47.28521" lon="-2.28046">
        <ele>120.19999694824</ele>
        <time>2022-05-29T08:57:51.000Z</time>
      </trkpt>
      <trkpt lat="47.28519" lon="-2.28045">
        <ele>120.59999847412</ele>
        <time>2022-05-29T08:57:52.000Z</time>
      </trkpt>
      <trkpt lat="47.28517" lon="-2.28043">
        <ele>121.19999694824</ele>
        <time>2022-05-29T08:57:53.000Z</time>
      </trkpt>
      <trkpt lat="47.28515" lon="-2.28042">
        <ele>121.59999847412</ele>
        <time>2022-05-29T08:57:54.000Z</time>
      </trkpt>
      <trkpt lat="47.28504" lon="-2.28036">
        <ele>121.59999847412</ele>
        <time>2022-05-29T08:57:59.000Z</time>
      </trkpt>
      <trkpt lat="47.28502" lon="-2.28037">
        <ele>121.59999847412</ele>
        <time>2022-05-29T08:58:00.000Z</time>
      </trkpt>
      <trkpt lat="47.28495" lon="-2.28041">
        <ele>122</ele>
        <time>2022-05-29T08:58:03.000Z</time>
      </trkpt>
      <trkpt lat="47.28493" lon="-2.28042">
        <ele>122.40000152588</ele>
        <time>2022-05-29T08:58:04.000Z</time>
      </trkpt>
      <trkpt lat="47.28491" lon="-2.28045">
        <ele>122.80000305176</ele>
        <time>2022-05-29T08:58:05.000Z</time>
      </trkpt>
      <trkpt lat="47.2849" lon="-2.28047">
        <ele>123.19999694824</ele>
        <time>2022-05-29T08:58:06.000Z</time>
      </trkpt>
      <trkpt lat="47.2849" lon="-2.28051">
        <ele>123.59999847412</ele>
        <time>2022-05-29T08:58:07.000Z</time>
      </trkpt>
      <trkpt lat="47.2849" lon="-2.28062">
        <ele>123.59999847412</ele>
        <time>2022-05-29T08:58:10.000Z</time>
      </trkpt>
      <trkpt lat="47.28496" lon="-2.28076">
        <ele>123.59999847412</ele>
        <time>2022-05-29T08:58:15.000Z</time>
      </trkpt>
      <trkpt lat="47.28492" lon="-2.2808">
        <ele>123.19999694824</ele>
        <time>2022-05-29T08:58:17.000Z</time>
      </trkpt>
      <trkpt lat="47.28489" lon="-2.28082">
        <ele>122.80000305176</ele>
        <time>2022-05-29T08:58:18.000Z</time>
      </trkpt>
      <trkpt lat="47.28484" lon="-2.28086">
        <ele>122.40000152588</ele>
        <time>2022-05-29T08:58:19.000Z</time>
      </trkpt>
      <trkpt lat="47.28478" lon="-2.28088">
        <ele>121.80000305176</ele>
        <time>2022-05-29T08:58:20.000Z</time>
      </trkpt>
      <trkpt lat="47.28474" lon="-2.2809">
        <ele>121.40000152588</ele>
        <time>2022-05-29T08:58:21.000Z</time>
      </trkpt>
      <trkpt lat="47.28466" lon="-2.2809">
        <ele>121.40000152588</ele>
        <time>2022-05-29T08:58:23.000Z</time>
      </trkpt>
      <trkpt lat="47.28463" lon="-2.2809">
        <ele>121.40000152588</ele>
        <time>2022-05-29T08:58:24.000Z</time>
      </trkpt>
      <trkpt lat="47.28454" lon="-2.28089">
        <ele>121.40000152588</ele>
        <time>2022-05-29T08:58:28.000Z</time>
      </trkpt>
      <trkpt lat="47.28443" lon="-2.28086">
        <ele>121.40000152588</ele>
        <time>2022-05-29T08:58:32.000Z</time>
      </trkpt>
      <trkpt lat="47.28435" lon="-2.28089">
        <ele>121.40000152588</ele>
        <time>2022-05-29T08:58:36.000Z</time>
      </trkpt>
      <trkpt lat="47.2843" lon="-2.28088">
        <ele>121.40000152588</ele>
        <time>2022-05-29T08:58:38.000Z</time>
      </trkpt>
      <trkpt lat="47.28423" lon="-2.2809">
        <ele>121.40000152588</ele>
        <time>2022-05-29T08:58:41.000Z</time>
      </trkpt>
      <trkpt lat="47.28412" lon="-2.28086">
        <ele>121.40000152588</ele>
        <time>2022-05-29T08:58:45.000Z</time>
      </trkpt>
      <trkpt lat="47.28407" lon="-2.28083">
        <ele>121.40000152588</ele>
        <time>2022-05-29T08:58:47.000Z</time>
      </trkpt>
      <trkpt lat="47.28389" lon="-2.2808">
        <ele>121.40000152588</ele>
        <time>2022-05-29T08:58:52.000Z</time>
      </trkpt>
      <trkpt lat="47.28384" lon="-2.28079">
        <ele>121</ele>
        <time>2022-05-29T08:58:54.000Z</time>
      </trkpt>
      <trkpt lat="47.28382" lon="-2.28079">
        <ele>120.59999847412</ele>
        <time>2022-05-29T08:58:55.000Z</time>
      </trkpt>
      <trkpt lat="47.28381" lon="-2.28078">
        <ele>120.19999694824</ele>
        <time>2022-05-29T08:58:56.000Z</time>
      </trkpt>
      <trkpt lat="47.28379" lon="-2.28077">
        <ele>119.80000305176</ele>
        <time>2022-05-29T08:58:57.000Z</time>
      </trkpt>
      <trkpt lat="47.28379" lon="-2.28076">
        <ele>119.40000152588</ele>
        <time>2022-05-29T08:58:58.000Z</time>
      </trkpt>
      <trkpt lat="47.28377" lon="-2.2807">
        <ele>119.40000152588</ele>
        <time>2022-05-29T08:59:00.000Z</time>
      </trkpt>
      <trkpt lat="47.28376" lon="-2.28062">
        <ele>119.40000152588</ele>
        <time>2022-05-29T08:59:03.000Z</time>
      </trkpt>
      <trkpt lat="47.28376" lon="-2.28059">
        <ele>119.80000305176</ele>
        <time>2022-05-29T08:59:04.000Z</time>
      </trkpt>
      <trkpt lat="47.28375" lon="-2.28058">
        <ele>120.19999694824</ele>
        <time>2022-05-29T08:59:05.000Z</time>
      </trkpt>
      <trkpt lat="47.28374" lon="-2.28057">
        <ele>120.59999847412</ele>
        <time>2022-05-29T08:59:06.000Z</time>
      </trkpt>
      <trkpt lat="47.28372" lon="-2.28056">
        <ele>121</ele>
        <time>2022-05-29T08:59:07.000Z</time>
      </trkpt>
      <trkpt lat="47.28371" lon="-2.28054">
        <ele>121.40000152588</ele>
        <time>2022-05-29T08:59:08.000Z</time>
      </trkpt>
      <trkpt lat="47.28371" lon="-2.28045">
        <ele>121.40000152588</ele>
        <time>2022-05-29T08:59:12.000Z</time>
      </trkpt>
      <trkpt lat="47.28374" lon="-2.28041">
        <ele>121.80000305176</ele>
        <time>2022-05-29T08:59:15.000Z</time>
      </trkpt>
      <trkpt lat="47.28376" lon="-2.2804">
        <ele>122.40000152588</ele>
        <time>2022-05-29T08:59:16.000Z</time>
      </trkpt>
      <trkpt lat="47.28377" lon="-2.28039">
        <ele>122.80000305176</ele>
        <time>2022-05-29T08:59:17.000Z</time>
      </trkpt>
      <trkpt lat="47.28379" lon="-2.28039">
        <ele>123.19999694824</ele>
        <time>2022-05-29T08:59:18.000Z</time>
      </trkpt>
      <trkpt lat="47.2838" lon="-2.28038">
        <ele>123.59999847412</ele>
        <time>2022-05-29T08:59:19.000Z</time>
      </trkpt>
      <trkpt lat="47.28387" lon="-2.28034">
        <ele>123.59999847412</ele>
        <time>2022-05-29T08:59:23.000Z</time>
      </trkpt>
      <trkpt lat="47.28389" lon="-2.28029">
        <ele>123.59999847412</ele>
        <time>2022-05-29T08:59:25.000Z</time>
      </trkpt>
      <trkpt lat="47.28395" lon="-2.28013">
        <ele>123.59999847412</ele>
        <time>2022-05-29T08:59:32.000Z</time>
      </trkpt>
      <trkpt lat="47.28391" lon="-2.28008">
        <ele>124</ele>
        <time>2022-05-29T08:59:35.000Z</time>
      </trkpt>
      <trkpt lat="47.28389" lon="-2.28008">
        <ele>124.40000152588</ele>
        <time>2022-05-29T08:59:36.000Z</time>
      </trkpt>
      <trkpt lat="47.28387" lon="-2.28009">
        <ele>124.80000305176</ele>
        <time>2022-05-29T08:59:37.000Z</time>
      </trkpt>
      <trkpt lat="47.28386" lon="-2.2801">
        <ele>125.19999694824</ele>
        <time>2022-05-29T08:59:38.000Z</time>
      </trkpt>
      <trkpt lat="47.28385" lon="-2.2801">
        <ele>125.59999847412</ele>
        <time>2022-05-29T08:59:39.000Z</time>
      </trkpt>
      <trkpt lat="47.28378" lon="-2.28015">
        <ele>125.59999847412</ele>
        <time>2022-05-29T08:59:43.000Z</time>
      </trkpt>
      <trkpt lat="47.28376" lon="-2.28019">
        <ele>125.59999847412</ele>
        <time>2022-05-29T08:59:45.000Z</time>
      </trkpt>
      <trkpt lat="47.28374" lon="-2.2803">
        <ele>125.59999847412</ele>
        <time>2022-05-29T08:59:49.000Z</time>
      </trkpt>
      <trkpt lat="47.28372" lon="-2.28033">
        <ele>125.59999847412</ele>
        <time>2022-05-29T08:59:50.000Z</time>
      </trkpt>
      <trkpt lat="47.28371" lon="-2.28037">
        <ele>124.59999847412</ele>
        <time>2022-05-29T08:59:51.000Z</time>
      </trkpt>
      <trkpt lat="47.2837" lon="-2.28042">
        <ele>124.19999694824</ele>
        <time>2022-05-29T08:59:52.000Z</time>
      </trkpt>
      <trkpt lat="47.28369" lon="-2.28047">
        <ele>123.59999847412</ele>
        <time>2022-05-29T08:59:53.000Z</time>
      </trkpt>
      <trkpt lat="47.28368" lon="-2.28051">
        <ele>123.19999694824</ele>
        <time>2022-05-29T08:59:54.000Z</time>
      </trkpt>
      <trkpt lat="47.28367" lon="-2.28055">
        <ele>122.59999847412</ele>
        <time>2022-05-29T08:59:55.000Z</time>
      </trkpt>
      <trkpt lat="47.28366" lon="-2.28059">
        <ele>122</ele>
        <time>2022-05-29T08:59:56.000Z</time>
      </trkpt>
      <trkpt lat="47.28365" lon="-2.28061">
        <ele>121.40000152588</ele>
        <time>2022-05-29T08:59:57.000Z</time>
      </trkpt>
      <trkpt lat="47.28365" lon="-2.28063">
        <ele>121</ele>
        <time>2022-05-29T08:59:58.000Z</time>
      </trkpt>
      <trkpt lat="47.28365" lon="-2.28065">
        <ele>121</ele>
        <time>2022-05-29T08:59:59.000Z</time>
      </trkpt>
      <trkpt lat="47.28364" lon="-2.28072">
        <ele>121</ele>
        <time>2022-05-29T09:01:07.000Z</time>
      </trkpt>
      <trkpt lat="47.28363" lon="-2.28077">
        <ele>120.59999847412</ele>
        <time>2022-05-29T09:01:08.000Z</time>
      </trkpt>
      <trkpt lat="47.28363" lon="-2.28081">
        <ele>120.19999694824</ele>
        <time>2022-05-29T09:01:09.000Z</time>
      </trkpt>
      <trkpt lat="47.28363" lon="-2.28086">
        <ele>119.80000305176</ele>
        <time>2022-05-29T09:01:10.000Z</time>
      </trkpt>
      <trkpt lat="47.28363" lon="-2.28091">
        <ele>119.40000152588</ele>
        <time>2022-05-29T09:01:11.000Z</time>
      </trkpt>
      <trkpt lat="47.28364" lon="-2.28095">
        <ele>118.80000305176</ele>
        <time>2022-05-29T09:01:12.000Z</time>
      </trkpt>
      <trkpt lat="47.28365" lon="-2.281">
        <ele>118.80000305176</ele>
        <time>2022-05-29T09:01:13.000Z</time>
      </trkpt>
      <trkpt lat="47.28367" lon="-2.2813">
        <ele>118.80000305176</ele>
        <time>2022-05-29T09:01:19.000Z</time>
      </trkpt>
      <trkpt lat="47.28369" lon="-2.28154">
        <ele>119.40000152588</ele>
        <time>2022-05-29T09:01:24.000Z</time>
      </trkpt>
      <trkpt lat="47.2837" lon="-2.28159">
        <ele>119.80000305176</ele>
        <time>2022-05-29T09:01:25.000Z</time>
      </trkpt>
      <trkpt lat="47.2837" lon="-2.28163">
        <ele>120.19999694824</ele>
        <time>2022-05-29T09:01:26.000Z</time>
      </trkpt>
      <trkpt lat="47.2837" lon="-2.28169">
        <ele>120.59999847412</ele>
        <time>2022-05-29T09:01:27.000Z</time>
      </trkpt>
      <trkpt lat="47.28369" lon="-2.28175">
        <ele>121</ele>
        <time>2022-05-29T09:01:28.000Z</time>
      </trkpt>
      <trkpt lat="47.28368" lon="-2.28193">
        <ele>121</ele>
        <time>2022-05-29T09:01:31.000Z</time>
      </trkpt>
      <trkpt lat="47.28368" lon="-2.28199">
        <ele>121.40000152588</ele>
        <time>2022-05-29T09:01:32.000Z</time>
      </trkpt>
      <trkpt lat="47.28368" lon="-2.28204">
        <ele>121.80000305176</ele>
        <time>2022-05-29T09:01:33.000Z</time>
      </trkpt>
      <trkpt lat="47.28368" lon="-2.2821">
        <ele>122.40000152588</ele>
        <time>2022-05-29T09:01:34.000Z</time>
      </trkpt>
      <trkpt lat="47.28368" lon="-2.28215">
        <ele>122.80000305176</ele>
        <time>2022-05-29T09:01:35.000Z</time>
      </trkpt>
      <trkpt lat="47.28368" lon="-2.28221">
        <ele>123.19999694824</ele>
        <time>2022-05-29T09:01:36.000Z</time>
      </trkpt>
      <trkpt lat="47.28368" lon="-2.28231">
        <ele>123.19999694824</ele>
        <time>2022-05-29T09:01:38.000Z</time>
      </trkpt>
      <trkpt lat="47.28368" lon="-2.28247">
        <ele>123.59999847412</ele>
        <time>2022-05-29T09:01:41.000Z</time>
      </trkpt>
      <trkpt lat="47.28369" lon="-2.28252">
        <ele>124</ele>
        <time>2022-05-29T09:01:42.000Z</time>
      </trkpt>
      <trkpt lat="47.2837" lon="-2.28258">
        <ele>124.40000152588</ele>
        <time>2022-05-29T09:01:43.000Z</time>
      </trkpt>
      <trkpt lat="47.2837" lon="-2.28263">
        <ele>124.80000305176</ele>
        <time>2022-05-29T09:01:44.000Z</time>
      </trkpt>
      <trkpt lat="47.2837" lon="-2.2827">
        <ele>125.19999694824</ele>
        <time>2022-05-29T09:01:45.000Z</time>
      </trkpt>
      <trkpt lat="47.28371" lon="-2.28289">
        <ele>125.19999694824</ele>
        <time>2022-05-29T09:01:49.000Z</time>
      </trkpt>
      <trkpt lat="47.2837" lon="-2.28325">
        <ele>125.59999847412</ele>
        <time>2022-05-29T09:01:55.000Z</time>
      </trkpt>
      <trkpt lat="47.2837" lon="-2.28331">
        <ele>126</ele>
        <time>2022-05-29T09:01:56.000Z</time>
      </trkpt>
      <trkpt lat="47.2837" lon="-2.28337">
        <ele>126.40000152588</ele>
        <time>2022-05-29T09:01:57.000Z</time>
      </trkpt>
      <trkpt lat="47.28371" lon="-2.28343">
        <ele>126.80000305176</ele>
        <time>2022-05-29T09:01:58.000Z</time>
      </trkpt>
      <trkpt lat="47.28371" lon="-2.28349">
        <ele>127.40000152588</ele>
        <time>2022-05-29T09:01:59.000Z</time>
      </trkpt>
      <trkpt lat="47.28371" lon="-2.28367">
        <ele>127.40000152588</ele>
        <time>2022-05-29T09:02:02.000Z</time>
      </trkpt>
      <trkpt lat="47.28371" lon="-2.28374">
        <ele>127.40000152588</ele>
        <time>2022-05-29T09:02:03.000Z</time>
      </trkpt>
      <trkpt lat="47.28374" lon="-2.28397">
        <ele>127.40000152588</ele>
        <time>2022-05-29T09:02:07.000Z</time>
      </trkpt>
      <trkpt lat="47.28375" lon="-2.28404">
        <ele>127.40000152588</ele>
        <time>2022-05-29T09:02:08.000Z</time>
      </trkpt>
      <trkpt lat="47.28378" lon="-2.2844">
        <ele>127.40000152588</ele>
        <time>2022-05-29T09:02:13.000Z</time>
      </trkpt>
      <trkpt lat="47.28381" lon="-2.28487">
        <ele>127.40000152588</ele>
        <time>2022-05-29T09:02:19.000Z</time>
      </trkpt>
      <trkpt lat="47.28381" lon="-2.28496">
        <ele>127.40000152588</ele>
        <time>2022-05-29T09:02:20.000Z</time>
      </trkpt>
      <trkpt lat="47.28382" lon="-2.28534">
        <ele>127.40000152588</ele>
        <time>2022-05-29T09:02:25.000Z</time>
      </trkpt>
      <trkpt lat="47.28384" lon="-2.28609">
        <ele>127.40000152588</ele>
        <time>2022-05-29T09:02:34.000Z</time>
      </trkpt>
      <trkpt lat="47.28385" lon="-2.28662">
        <ele>127.40000152588</ele>
        <time>2022-05-29T09:02:40.000Z</time>
      </trkpt>
      <trkpt lat="47.28388" lon="-2.28717">
        <ele>127.40000152588</ele>
        <time>2022-05-29T09:02:46.000Z</time>
      </trkpt>
      <trkpt lat="47.2839" lon="-2.28753">
        <ele>127.40000152588</ele>
        <time>2022-05-29T09:02:50.000Z</time>
      </trkpt>
      <trkpt lat="47.28391" lon="-2.28782">
        <ele>127.40000152588</ele>
        <time>2022-05-29T09:02:53.000Z</time>
      </trkpt>
      <trkpt lat="47.28394" lon="-2.28839">
        <ele>127.40000152588</ele>
        <time>2022-05-29T09:02:59.000Z</time>
      </trkpt>
      <trkpt lat="47.28396" lon="-2.28907">
        <ele>127.40000152588</ele>
        <time>2022-05-29T09:03:06.000Z</time>
      </trkpt>
      <trkpt lat="47.28397" lon="-2.28963">
        <ele>127.40000152588</ele>
        <time>2022-05-29T09:03:12.000Z</time>
      </trkpt>
      <trkpt lat="47.28397" lon="-2.28979">
        <ele>127.40000152588</ele>
        <time>2022-05-29T09:03:14.000Z</time>
      </trkpt>
      <trkpt lat="47.28398" lon="-2.2899">
        <ele>127.40000152588</ele>
        <time>2022-05-29T09:03:16.000Z</time>
      </trkpt>
      <trkpt lat="47.28402" lon="-2.28991">
        <ele>127.40000152588</ele>
        <time>2022-05-29T09:03:19.000Z</time>
      </trkpt>
      <trkpt lat="47.28414" lon="-2.28994">
        <ele>127.40000152588</ele>
        <time>2022-05-29T09:03:22.000Z</time>
      </trkpt>
      <trkpt lat="47.28419" lon="-2.28994">
        <ele>126.80000305176</ele>
        <time>2022-05-29T09:03:23.000Z</time>
      </trkpt>
      <trkpt lat="47.28424" lon="-2.28994">
        <ele>126.40000152588</ele>
        <time>2022-05-29T09:03:24.000Z</time>
      </trkpt>
      <trkpt lat="47.28429" lon="-2.28994">
        <ele>126</ele>
        <time>2022-05-29T09:03:25.000Z</time>
      </trkpt>
      <trkpt lat="47.28434" lon="-2.28994">
        <ele>125.59999847412</ele>
        <time>2022-05-29T09:03:26.000Z</time>
      </trkpt>
      <trkpt lat="47.28441" lon="-2.28995">
        <ele>125</ele>
        <time>2022-05-29T09:03:27.000Z</time>
      </trkpt>
      <trkpt lat="47.28473" lon="-2.29002">
        <ele>124.59999847412</ele>
        <time>2022-05-29T09:03:32.000Z</time>
      </trkpt>
      <trkpt lat="47.28479" lon="-2.29004">
        <ele>123.59999847412</ele>
        <time>2022-05-29T09:03:33.000Z</time>
      </trkpt>
      <trkpt lat="47.28485" lon="-2.29006">
        <ele>123.19999694824</ele>
        <time>2022-05-29T09:03:34.000Z</time>
      </trkpt>
      <trkpt lat="47.28491" lon="-2.29009">
        <ele>122.80000305176</ele>
        <time>2022-05-29T09:03:35.000Z</time>
      </trkpt>
      <trkpt lat="47.28508" lon="-2.29018">
        <ele>122.80000305176</ele>
        <time>2022-05-29T09:03:38.000Z</time>
      </trkpt>
      <trkpt lat="47.28519" lon="-2.29024">
        <ele>122.80000305176</ele>
        <time>2022-05-29T09:03:40.000Z</time>
      </trkpt>
      <trkpt lat="47.28531" lon="-2.29028">
        <ele>122.80000305176</ele>
        <time>2022-05-29T09:03:42.000Z</time>
      </trkpt>
      <trkpt lat="47.28537" lon="-2.2903">
        <ele>122.80000305176</ele>
        <time>2022-05-29T09:03:43.000Z</time>
      </trkpt>
      <trkpt lat="47.28549" lon="-2.29032">
        <ele>122.19999694824</ele>
        <time>2022-05-29T09:03:45.000Z</time>
      </trkpt>
      <trkpt lat="47.28555" lon="-2.29033">
        <ele>121.80000305176</ele>
        <time>2022-05-29T09:03:46.000Z</time>
      </trkpt>
      <trkpt lat="47.28561" lon="-2.29034">
        <ele>121.40000152588</ele>
        <time>2022-05-29T09:03:47.000Z</time>
      </trkpt>
      <trkpt lat="47.28567" lon="-2.29035">
        <ele>121</ele>
        <time>2022-05-29T09:03:48.000Z</time>
      </trkpt>
      <trkpt lat="47.28572" lon="-2.29036">
        <ele>120.40000152588</ele>
        <time>2022-05-29T09:03:49.000Z</time>
      </trkpt>
      <trkpt lat="47.28587" lon="-2.29041">
        <ele>120.40000152588</ele>
        <time>2022-05-29T09:03:52.000Z</time>
      </trkpt>
      <trkpt lat="47.28591" lon="-2.29044">
        <ele>120.40000152588</ele>
        <time>2022-05-29T09:03:53.000Z</time>
      </trkpt>
      <trkpt lat="47.28601" lon="-2.29062">
        <ele>120.40000152588</ele>
        <time>2022-05-29T09:03:56.000Z</time>
      </trkpt>
      <trkpt lat="47.28601" lon="-2.29091">
        <ele>120.40000152588</ele>
        <time>2022-05-29T09:04:00.000Z</time>
      </trkpt>
      <trkpt lat="47.28597" lon="-2.29107">
        <ele>120.40000152588</ele>
        <time>2022-05-29T09:04:02.000Z</time>
      </trkpt>
      <trkpt lat="47.28594" lon="-2.29114">
        <ele>120.40000152588</ele>
        <time>2022-05-29T09:04:03.000Z</time>
      </trkpt>
      <trkpt lat="47.28588" lon="-2.29128">
        <ele>120.40000152588</ele>
        <time>2022-05-29T09:04:05.000Z</time>
      </trkpt>
      <trkpt lat="47.28575" lon="-2.29155">
        <ele>120.40000152588</ele>
        <time>2022-05-29T09:04:10.000Z</time>
      </trkpt>
      <trkpt lat="47.28572" lon="-2.29159">
        <ele>120.40000152588</ele>
        <time>2022-05-29T09:04:11.000Z</time>
      </trkpt>
      <trkpt lat="47.28559" lon="-2.29172">
        <ele>120.40000152588</ele>
        <time>2022-05-29T09:04:15.000Z</time>
      </trkpt>
      <trkpt lat="47.28555" lon="-2.29175">
        <ele>120.40000152588</ele>
        <time>2022-05-29T09:04:16.000Z</time>
      </trkpt>
      <trkpt lat="47.28542" lon="-2.29189">
        <ele>120.40000152588</ele>
        <time>2022-05-29T09:04:21.000Z</time>
      </trkpt>
      <trkpt lat="47.28526" lon="-2.29203">
        <ele>120.40000152588</ele>
        <time>2022-05-29T09:04:26.000Z</time>
      </trkpt>
      <trkpt lat="47.28523" lon="-2.29207">
        <ele>120.40000152588</ele>
        <time>2022-05-29T09:04:27.000Z</time>
      </trkpt>
      <trkpt lat="47.2852" lon="-2.29225">
        <ele>120.40000152588</ele>
        <time>2022-05-29T09:04:30.000Z</time>
      </trkpt>
      <trkpt lat="47.2852" lon="-2.29239">
        <ele>120.40000152588</ele>
        <time>2022-05-29T09:04:32.000Z</time>
      </trkpt>
      <trkpt lat="47.28521" lon="-2.2927">
        <ele>120.40000152588</ele>
        <time>2022-05-29T09:04:37.000Z</time>
      </trkpt>
      <trkpt lat="47.28522" lon="-2.2928">
        <ele>120.40000152588</ele>
        <time>2022-05-29T09:04:39.000Z</time>
      </trkpt>
      <trkpt lat="47.28518" lon="-2.29293">
        <ele>120.40000152588</ele>
        <time>2022-05-29T09:04:42.000Z</time>
      </trkpt>
      <trkpt lat="47.28502" lon="-2.29307">
        <ele>120.40000152588</ele>
        <time>2022-05-29T09:04:47.000Z</time>
      </trkpt>
      <trkpt lat="47.28467" lon="-2.29324">
        <ele>121</ele>
        <time>2022-05-29T09:04:54.000Z</time>
      </trkpt>
      <trkpt lat="47.28462" lon="-2.29326">
        <ele>121.40000152588</ele>
        <time>2022-05-29T09:04:55.000Z</time>
      </trkpt>
      <trkpt lat="47.28457" lon="-2.29328">
        <ele>121.80000305176</ele>
        <time>2022-05-29T09:04:56.000Z</time>
      </trkpt>
      <trkpt lat="47.28452" lon="-2.2933">
        <ele>122.40000152588</ele>
        <time>2022-05-29T09:04:57.000Z</time>
      </trkpt>
      <trkpt lat="47.28447" lon="-2.29332">
        <ele>122.80000305176</ele>
        <time>2022-05-29T09:04:58.000Z</time>
      </trkpt>
      <trkpt lat="47.28425" lon="-2.29339">
        <ele>122.80000305176</ele>
        <time>2022-05-29T09:05:02.000Z</time>
      </trkpt>
      <trkpt lat="47.28411" lon="-2.29348">
        <ele>123.19999694824</ele>
        <time>2022-05-29T09:05:05.000Z</time>
      </trkpt>
      <trkpt lat="47.28406" lon="-2.2935">
        <ele>123.59999847412</ele>
        <time>2022-05-29T09:05:06.000Z</time>
      </trkpt>
      <trkpt lat="47.28402" lon="-2.29353">
        <ele>124</ele>
        <time>2022-05-29T09:05:07.000Z</time>
      </trkpt>
      <trkpt lat="47.28397" lon="-2.29357">
        <ele>124.40000152588</ele>
        <time>2022-05-29T09:05:08.000Z</time>
      </trkpt>
      <trkpt lat="47.28392" lon="-2.2936">
        <ele>124.80000305176</ele>
        <time>2022-05-29T09:05:09.000Z</time>
      </trkpt>
      <trkpt lat="47.28365" lon="-2.29376">
        <ele>124.80000305176</ele>
        <time>2022-05-29T09:05:15.000Z</time>
      </trkpt>
      <trkpt lat="47.28337" lon="-2.29405">
        <ele>124.80000305176</ele>
        <time>2022-05-29T09:05:21.000Z</time>
      </trkpt>
      <trkpt lat="47.28293" lon="-2.29449">
        <ele>124.80000305176</ele>
        <time>2022-05-29T09:05:29.000Z</time>
      </trkpt>
      <trkpt lat="47.28259" lon="-2.29473">
        <ele>124.80000305176</ele>
        <time>2022-05-29T09:05:35.000Z</time>
      </trkpt>
      <trkpt lat="47.28221" lon="-2.29497">
        <ele>124.80000305176</ele>
        <time>2022-05-29T09:05:42.000Z</time>
      </trkpt>
      <trkpt lat="47.28195" lon="-2.29511">
        <ele>125.40000152588</ele>
        <time>2022-05-29T09:05:47.000Z</time>
      </trkpt>
      <trkpt lat="47.2819" lon="-2.29514">
        <ele>125.80000305176</ele>
        <time>2022-05-29T09:05:48.000Z</time>
      </trkpt>
      <trkpt lat="47.28185" lon="-2.29516">
        <ele>126.19999694824</ele>
        <time>2022-05-29T09:05:49.000Z</time>
      </trkpt>
      <trkpt lat="47.2818" lon="-2.29519">
        <ele>126.59999847412</ele>
        <time>2022-05-29T09:05:50.000Z</time>
      </trkpt>
      <trkpt lat="47.28175" lon="-2.2952">
        <ele>127</ele>
        <time>2022-05-29T09:05:51.000Z</time>
      </trkpt>
      <trkpt lat="47.28148" lon="-2.29529">
        <ele>127</ele>
        <time>2022-05-29T09:05:56.000Z</time>
      </trkpt>
      <trkpt lat="47.28125" lon="-2.29537">
        <ele>127.40000152588</ele>
        <time>2022-05-29T09:06:00.000Z</time>
      </trkpt>
      <trkpt lat="47.28119" lon="-2.29539">
        <ele>128.19999694824</ele>
        <time>2022-05-29T09:06:01.000Z</time>
      </trkpt>
      <trkpt lat="47.28114" lon="-2.29541">
        <ele>128.60000610352</ele>
        <time>2022-05-29T09:06:02.000Z</time>
      </trkpt>
      <trkpt lat="47.28108" lon="-2.29543">
        <ele>129</ele>
        <time>2022-05-29T09:06:03.000Z</time>
      </trkpt>
      <trkpt lat="47.28103" lon="-2.29546">
        <ele>129</ele>
        <time>2022-05-29T09:06:04.000Z</time>
      </trkpt>
      <trkpt lat="47.28051" lon="-2.29566">
        <ele>129</ele>
        <time>2022-05-29T09:06:13.000Z</time>
      </trkpt>
      <trkpt lat="47.28" lon="-2.29587">
        <ele>129</ele>
        <time>2022-05-29T09:06:22.000Z</time>
      </trkpt>
      <trkpt lat="47.27963" lon="-2.29598">
        <ele>129</ele>
        <time>2022-05-29T09:06:28.000Z</time>
      </trkpt>
      <trkpt lat="47.27957" lon="-2.29598">
        <ele>129</ele>
        <time>2022-05-29T09:06:29.000Z</time>
      </trkpt>
      <trkpt lat="47.27916" lon="-2.29599">
        <ele>129</ele>
        <time>2022-05-29T09:06:36.000Z</time>
      </trkpt>
      <trkpt lat="47.27872" lon="-2.29594">
        <ele>129</ele>
        <time>2022-05-29T09:06:44.000Z</time>
      </trkpt>
      <trkpt lat="47.27858" lon="-2.29595">
        <ele>129</ele>
        <time>2022-05-29T09:06:48.000Z</time>
      </trkpt>
      <trkpt lat="47.27856" lon="-2.29596">
        <ele>129</ele>
        <time>2022-05-29T09:06:51.000Z</time>
      </trkpt>
      <trkpt lat="47.27855" lon="-2.29597">
        <ele>129</ele>
        <time>2022-05-29T09:07:12.000Z</time>
      </trkpt>
      <trkpt lat="47.27847" lon="-2.29598">
        <ele>129</ele>
        <time>2022-05-29T09:07:16.000Z</time>
      </trkpt>
      <trkpt lat="47.27844" lon="-2.29596">
        <ele>129</ele>
        <time>2022-05-29T09:07:17.000Z</time>
      </trkpt>
      <trkpt lat="47.27828" lon="-2.29594">
        <ele>129</ele>
        <time>2022-05-29T09:07:21.000Z</time>
      </trkpt>
      <trkpt lat="47.2779" lon="-2.29595">
        <ele>129</ele>
        <time>2022-05-29T09:07:28.000Z</time>
      </trkpt>
      <trkpt lat="47.27743" lon="-2.29595">
        <ele>129</ele>
        <time>2022-05-29T09:07:36.000Z</time>
      </trkpt>
      <trkpt lat="47.27702" lon="-2.29597">
        <ele>129</ele>
        <time>2022-05-29T09:07:43.000Z</time>
      </trkpt>
      <trkpt lat="47.27656" lon="-2.29597">
        <ele>129</ele>
        <time>2022-05-29T09:07:50.000Z</time>
      </trkpt>
      <trkpt lat="47.27601" lon="-2.29597">
        <ele>129</ele>
        <time>2022-05-29T09:07:58.000Z</time>
      </trkpt>
      <trkpt lat="47.27546" lon="-2.29596">
        <ele>129</ele>
        <time>2022-05-29T09:08:06.000Z</time>
      </trkpt>
      <trkpt lat="47.27539" lon="-2.29596">
        <ele>129</ele>
        <time>2022-05-29T09:08:07.000Z</time>
      </trkpt>
      <trkpt lat="47.27532" lon="-2.29596">
        <ele>128.60000610352</ele>
        <time>2022-05-29T09:08:08.000Z</time>
      </trkpt>
      <trkpt lat="47.27526" lon="-2.29597">
        <ele>128.19999694824</ele>
        <time>2022-05-29T09:08:09.000Z</time>
      </trkpt>
      <trkpt lat="47.27519" lon="-2.29598">
        <ele>127.80000305176</ele>
        <time>2022-05-29T09:08:10.000Z</time>
      </trkpt>
      <trkpt lat="47.27512" lon="-2.29599">
        <ele>127.40000152588</ele>
        <time>2022-05-29T09:08:11.000Z</time>
      </trkpt>
      <trkpt lat="47.27506" lon="-2.29601">
        <ele>127</ele>
        <time>2022-05-29T09:08:12.000Z</time>
      </trkpt>
      <trkpt lat="47.27473" lon="-2.29609">
        <ele>127</ele>
        <time>2022-05-29T09:08:17.000Z</time>
      </trkpt>
      <trkpt lat="47.27461" lon="-2.29612">
        <ele>127</ele>
        <time>2022-05-29T09:08:19.000Z</time>
      </trkpt>
      <trkpt lat="47.27412" lon="-2.29624">
        <ele>127</ele>
        <time>2022-05-29T09:08:27.000Z</time>
      </trkpt>
      <trkpt lat="47.27359" lon="-2.29635">
        <ele>127</ele>
        <time>2022-05-29T09:08:36.000Z</time>
      </trkpt>
      <trkpt lat="47.27312" lon="-2.29642">
        <ele>127</ele>
        <time>2022-05-29T09:08:44.000Z</time>
      </trkpt>
      <trkpt lat="47.27284" lon="-2.29645">
        <ele>127</ele>
        <time>2022-05-29T09:08:49.000Z</time>
      </trkpt>
      <trkpt lat="47.27271" lon="-2.29647">
        <ele>127</ele>
        <time>2022-05-29T09:08:53.000Z</time>
      </trkpt>
      <trkpt lat="47.27267" lon="-2.29654">
        <ele>127</ele>
        <time>2022-05-29T09:08:56.000Z</time>
      </trkpt>
      <trkpt lat="47.27268" lon="-2.29658">
        <ele>127</ele>
        <time>2022-05-29T09:08:57.000Z</time>
      </trkpt>
      <trkpt lat="47.27274" lon="-2.2969">
        <ele>127</ele>
        <time>2022-05-29T09:09:03.000Z</time>
      </trkpt>
      <trkpt lat="47.27276" lon="-2.29697">
        <ele>127</ele>
        <time>2022-05-29T09:09:04.000Z</time>
      </trkpt>
      <trkpt lat="47.27283" lon="-2.29722">
        <ele>127</ele>
        <time>2022-05-29T09:09:07.000Z</time>
      </trkpt>
      <trkpt lat="47.27297" lon="-2.29777">
        <ele>127</ele>
        <time>2022-05-29T09:09:13.000Z</time>
      </trkpt>
      <trkpt lat="47.27311" lon="-2.29809">
        <ele>127</ele>
        <time>2022-05-29T09:09:17.000Z</time>
      </trkpt>
      <trkpt lat="47.27315" lon="-2.29815">
        <ele>127</ele>
        <time>2022-05-29T09:09:18.000Z</time>
      </trkpt>
      <trkpt lat="47.27335" lon="-2.29849">
        <ele>127</ele>
        <time>2022-05-29T09:09:23.000Z</time>
      </trkpt>
      <trkpt lat="47.27353" lon="-2.29888">
        <ele>127</ele>
        <time>2022-05-29T09:09:28.000Z</time>
      </trkpt>
      <trkpt lat="47.27379" lon="-2.29947">
        <ele>127</ele>
        <time>2022-05-29T09:09:35.000Z</time>
      </trkpt>
      <trkpt lat="47.27406" lon="-2.30007">
        <ele>127</ele>
        <time>2022-05-29T09:09:42.000Z</time>
      </trkpt>
      <trkpt lat="47.27427" lon="-2.30063">
        <ele>127</ele>
        <time>2022-05-29T09:09:48.000Z</time>
      </trkpt>
      <trkpt lat="47.27446" lon="-2.3013">
        <ele>127</ele>
        <time>2022-05-29T09:09:55.000Z</time>
      </trkpt>
      <trkpt lat="47.27454" lon="-2.30168">
        <ele>126.59999847412</ele>
        <time>2022-05-29T09:09:59.000Z</time>
      </trkpt>
      <trkpt lat="47.27456" lon="-2.30179">
        <ele>126.19999694824</ele>
        <time>2022-05-29T09:10:00.000Z</time>
      </trkpt>
      <trkpt lat="47.27458" lon="-2.30188">
        <ele>125.80000305176</ele>
        <time>2022-05-29T09:10:01.000Z</time>
      </trkpt>
      <trkpt lat="47.2746" lon="-2.30197">
        <ele>125.40000152588</ele>
        <time>2022-05-29T09:10:02.000Z</time>
      </trkpt>
      <trkpt lat="47.27462" lon="-2.30206">
        <ele>125</ele>
        <time>2022-05-29T09:10:03.000Z</time>
      </trkpt>
      <trkpt lat="47.27473" lon="-2.30244">
        <ele>124.59999847412</ele>
        <time>2022-05-29T09:10:07.000Z</time>
      </trkpt>
      <trkpt lat="47.27475" lon="-2.30253">
        <ele>123.59999847412</ele>
        <time>2022-05-29T09:10:08.000Z</time>
      </trkpt>
      <trkpt lat="47.27477" lon="-2.30262">
        <ele>123.19999694824</ele>
        <time>2022-05-29T09:10:09.000Z</time>
      </trkpt>
      <trkpt lat="47.2748" lon="-2.30272">
        <ele>122.80000305176</ele>
        <time>2022-05-29T09:10:10.000Z</time>
      </trkpt>
      <trkpt lat="47.27491" lon="-2.30323">
        <ele>122.40000152588</ele>
        <time>2022-05-29T09:10:15.000Z</time>
      </trkpt>
      <trkpt lat="47.27493" lon="-2.30333">
        <ele>122</ele>
        <time>2022-05-29T09:10:16.000Z</time>
      </trkpt>
      <trkpt lat="47.27495" lon="-2.30344">
        <ele>121.59999847412</ele>
        <time>2022-05-29T09:10:17.000Z</time>
      </trkpt>
      <trkpt lat="47.27497" lon="-2.30354">
        <ele>121</ele>
        <time>2022-05-29T09:10:18.000Z</time>
      </trkpt>
      <trkpt lat="47.27499" lon="-2.30365">
        <ele>120.59999847412</ele>
        <time>2022-05-29T09:10:19.000Z</time>
      </trkpt>
      <trkpt lat="47.27501" lon="-2.30377">
        <ele>120.19999694824</ele>
        <time>2022-05-29T09:10:20.000Z</time>
      </trkpt>
      <trkpt lat="47.27502" lon="-2.30387">
        <ele>119.80000305176</ele>
        <time>2022-05-29T09:10:21.000Z</time>
      </trkpt>
      <trkpt lat="47.27504" lon="-2.30396">
        <ele>119.40000152588</ele>
        <time>2022-05-29T09:10:22.000Z</time>
      </trkpt>
      <trkpt lat="47.27505" lon="-2.30405">
        <ele>119</ele>
        <time>2022-05-29T09:10:23.000Z</time>
      </trkpt>
      <trkpt lat="47.27505" lon="-2.30414">
        <ele>118.59999847412</ele>
        <time>2022-05-29T09:10:24.000Z</time>
      </trkpt>
      <trkpt lat="47.27506" lon="-2.30421">
        <ele>118.19999694824</ele>
        <time>2022-05-29T09:10:25.000Z</time>
      </trkpt>
      <trkpt lat="47.27504" lon="-2.30427">
        <ele>117.80000305176</ele>
        <time>2022-05-29T09:10:26.000Z</time>
      </trkpt>
      <trkpt lat="47.27501" lon="-2.30432">
        <ele>117.40000152588</ele>
        <time>2022-05-29T09:10:27.000Z</time>
      </trkpt>
      <trkpt lat="47.27497" lon="-2.30435">
        <ele>117</ele>
        <time>2022-05-29T09:10:28.000Z</time>
      </trkpt>
      <trkpt lat="47.27493" lon="-2.30437">
        <ele>116.59999847412</ele>
        <time>2022-05-29T09:10:29.000Z</time>
      </trkpt>
      <trkpt lat="47.27483" lon="-2.3044">
        <ele>116.59999847412</ele>
        <time>2022-05-29T09:10:31.000Z</time>
      </trkpt>
      <trkpt lat="47.27478" lon="-2.30441">
        <ele>116.59999847412</ele>
        <time>2022-05-29T09:10:32.000Z</time>
      </trkpt>
      <trkpt lat="47.27451" lon="-2.30449">
        <ele>116.59999847412</ele>
        <time>2022-05-29T09:10:37.000Z</time>
      </trkpt>
      <trkpt lat="47.27442" lon="-2.30451">
        <ele>116.59999847412</ele>
        <time>2022-05-29T09:10:39.000Z</time>
      </trkpt>
      <trkpt lat="47.27428" lon="-2.3045">
        <ele>116.59999847412</ele>
        <time>2022-05-29T09:10:42.000Z</time>
      </trkpt>
      <trkpt lat="47.27422" lon="-2.30452">
        <ele>116.59999847412</ele>
        <time>2022-05-29T09:10:44.000Z</time>
      </trkpt>
      <trkpt lat="47.27419" lon="-2.30454">
        <ele>116.59999847412</ele>
        <time>2022-05-29T09:10:46.000Z</time>
      </trkpt>
      <trkpt lat="47.27418" lon="-2.30456">
        <ele>116.59999847412</ele>
        <time>2022-05-29T09:10:49.000Z</time>
      </trkpt>
      <trkpt lat="47.27416" lon="-2.30459">
        <ele>116.59999847412</ele>
        <time>2022-05-29T09:10:53.000Z</time>
      </trkpt>
      <trkpt lat="47.27415" lon="-2.30459">
        <ele>116.59999847412</ele>
        <time>2022-05-29T09:10:54.000Z</time>
      </trkpt>
      <trkpt lat="47.27415" lon="-2.30459">
        <ele>116.59999847412</ele>
        <time>2022-05-29T09:10:55.000Z</time>
      </trkpt>
      <trkpt lat="47.27411" lon="-2.30462">
        <ele>116.59999847412</ele>
        <time>2022-05-29T09:11:00.000Z</time>
      </trkpt>
      <trkpt lat="47.27408" lon="-2.30464">
        <ele>116.59999847412</ele>
        <time>2022-05-29T09:11:01.000Z</time>
      </trkpt>
      <trkpt lat="47.27394" lon="-2.30478">
        <ele>116.59999847412</ele>
        <time>2022-05-29T09:11:06.000Z</time>
      </trkpt>
      <trkpt lat="47.27382" lon="-2.3049">
        <ele>116.59999847412</ele>
        <time>2022-05-29T09:11:12.000Z</time>
      </trkpt>
      <trkpt lat="47.27376" lon="-2.30492">
        <ele>116.59999847412</ele>
        <time>2022-05-29T09:11:17.000Z</time>
      </trkpt>
      <trkpt lat="47.27372" lon="-2.30493">
        <ele>116.59999847412</ele>
        <time>2022-05-29T09:11:19.000Z</time>
      </trkpt>
      <trkpt lat="47.27365" lon="-2.30498">
        <ele>116.59999847412</ele>
        <time>2022-05-29T09:11:22.000Z</time>
      </trkpt>
      <trkpt lat="47.27344" lon="-2.30508">
        <ele>116.59999847412</ele>
        <time>2022-05-29T09:11:29.000Z</time>
      </trkpt>
      <trkpt lat="47.27325" lon="-2.30516">
        <ele>116.59999847412</ele>
        <time>2022-05-29T09:11:35.000Z</time>
      </trkpt>
      <trkpt lat="47.27309" lon="-2.30525">
        <ele>116.19999694824</ele>
        <time>2022-05-29T09:11:40.000Z</time>
      </trkpt>
      <trkpt lat="47.27306" lon="-2.30528">
        <ele>115.80000305176</ele>
        <time>2022-05-29T09:11:41.000Z</time>
      </trkpt>
      <trkpt lat="47.27303" lon="-2.3053">
        <ele>115.40000152588</ele>
        <time>2022-05-29T09:11:42.000Z</time>
      </trkpt>
      <trkpt lat="47.27299" lon="-2.30532">
        <ele>115</ele>
        <time>2022-05-29T09:11:43.000Z</time>
      </trkpt>
      <trkpt lat="47.27295" lon="-2.30533">
        <ele>114.59999847412</ele>
        <time>2022-05-29T09:11:44.000Z</time>
      </trkpt>
      <trkpt lat="47.27285" lon="-2.3054">
        <ele>114.59999847412</ele>
        <time>2022-05-29T09:11:47.000Z</time>
      </trkpt>
      <trkpt lat="47.27271" lon="-2.30543">
        <ele>114.59999847412</ele>
        <time>2022-05-29T09:11:52.000Z</time>
      </trkpt>
      <trkpt lat="47.27258" lon="-2.30545">
        <ele>114.59999847412</ele>
        <time>2022-05-29T09:11:57.000Z</time>
      </trkpt>
      <trkpt lat="47.27247" lon="-2.30542">
        <ele>114.59999847412</ele>
        <time>2022-05-29T09:12:01.000Z</time>
      </trkpt>
      <trkpt lat="47.27232" lon="-2.30541">
        <ele>114.59999847412</ele>
        <time>2022-05-29T09:12:06.000Z</time>
      </trkpt>
      <trkpt lat="47.27223" lon="-2.30542">
        <ele>115</ele>
        <time>2022-05-29T09:12:10.000Z</time>
      </trkpt>
      <trkpt lat="47.27221" lon="-2.30542">
        <ele>115.40000152588</ele>
        <time>2022-05-29T09:12:11.000Z</time>
      </trkpt>
      <trkpt lat="47.27219" lon="-2.30543">
        <ele>116.19999694824</ele>
        <time>2022-05-29T09:12:12.000Z</time>
      </trkpt>
      <trkpt lat="47.27217" lon="-2.30543">
        <ele>116.59999847412</ele>
        <time>2022-05-29T09:12:13.000Z</time>
      </trkpt>
      <trkpt lat="47.27205" lon="-2.30542">
        <ele>116.59999847412</ele>
        <time>2022-05-29T09:12:18.000Z</time>
      </trkpt>
      <trkpt lat="47.27192" lon="-2.30541">
        <ele>116.59999847412</ele>
        <time>2022-05-29T09:12:24.000Z</time>
      </trkpt>
      <trkpt lat="47.2718" lon="-2.30537">
        <ele>117</ele>
        <time>2022-05-29T09:12:28.000Z</time>
      </trkpt>
      <trkpt lat="47.27176" lon="-2.30534">
        <ele>117.59999847412</ele>
        <time>2022-05-29T09:12:29.000Z</time>
      </trkpt>
      <trkpt lat="47.27173" lon="-2.30532">
        <ele>118</ele>
        <time>2022-05-29T09:12:30.000Z</time>
      </trkpt>
      <trkpt lat="47.27171" lon="-2.30529">
        <ele>118.40000152588</ele>
        <time>2022-05-29T09:12:31.000Z</time>
      </trkpt>
      <trkpt lat="47.27168" lon="-2.30526">
        <ele>118.80000305176</ele>
        <time>2022-05-29T09:12:32.000Z</time>
      </trkpt>
      <trkpt lat="47.27157" lon="-2.30517">
        <ele>118.80000305176</ele>
        <time>2022-05-29T09:12:35.000Z</time>
      </trkpt>
      <trkpt lat="47.27136" lon="-2.30505">
        <ele>118.80000305176</ele>
        <time>2022-05-29T09:12:41.000Z</time>
      </trkpt>
      <trkpt lat="47.27121" lon="-2.30498">
        <ele>118.80000305176</ele>
        <time>2022-05-29T09:12:46.000Z</time>
      </trkpt>
      <trkpt lat="47.27113" lon="-2.30493">
        <ele>119.19999694824</ele>
        <time>2022-05-29T09:12:49.000Z</time>
      </trkpt>
      <trkpt lat="47.27111" lon="-2.30492">
        <ele>119.59999847412</ele>
        <time>2022-05-29T09:12:50.000Z</time>
      </trkpt>
      <trkpt lat="47.27108" lon="-2.30492">
        <ele>120</ele>
        <time>2022-05-29T09:12:51.000Z</time>
      </trkpt>
      <trkpt lat="47.27105" lon="-2.30491">
        <ele>120.40000152588</ele>
        <time>2022-05-29T09:12:52.000Z</time>
      </trkpt>
      <trkpt lat="47.27102" lon="-2.3049">
        <ele>120.80000305176</ele>
        <time>2022-05-29T09:12:53.000Z</time>
      </trkpt>
      <trkpt lat="47.27088" lon="-2.30487">
        <ele>120.80000305176</ele>
        <time>2022-05-29T09:12:58.000Z</time>
      </trkpt>
      <trkpt lat="47.2707" lon="-2.3048">
        <ele>120.80000305176</ele>
        <time>2022-05-29T09:13:04.000Z</time>
      </trkpt>
      <trkpt lat="47.27054" lon="-2.30475">
        <ele>121.19999694824</ele>
        <time>2022-05-29T09:13:10.000Z</time>
      </trkpt>
      <trkpt lat="47.27052" lon="-2.30474">
        <ele>121.59999847412</ele>
        <time>2022-05-29T09:13:11.000Z</time>
      </trkpt>
      <trkpt lat="47.2705" lon="-2.30473">
        <ele>122.19999694824</ele>
        <time>2022-05-29T09:13:12.000Z</time>
      </trkpt>
      <trkpt lat="47.27049" lon="-2.30471">
        <ele>122.59999847412</ele>
        <time>2022-05-29T09:13:13.000Z</time>
      </trkpt>
      <trkpt lat="47.27047" lon="-2.3047">
        <ele>123</ele>
        <time>2022-05-29T09:13:14.000Z</time>
      </trkpt>
      <trkpt lat="47.27047" lon="-2.30469">
        <ele>123</ele>
        <time>2022-05-29T09:13:16.000Z</time>
      </trkpt>
      <trkpt lat="47.27047" lon="-2.30463">
        <ele>123</ele>
        <time>2022-05-29T09:13:29.000Z</time>
      </trkpt>
      <trkpt lat="47.27048" lon="-2.30454">
        <ele>123</ele>
        <time>2022-05-29T09:13:32.000Z</time>
      </trkpt>
      <trkpt lat="47.2705" lon="-2.30428">
        <ele>123</ele>
        <time>2022-05-29T09:13:37.000Z</time>
      </trkpt>
      <trkpt lat="47.27055" lon="-2.30388">
        <ele>123</ele>
        <time>2022-05-29T09:13:43.000Z</time>
      </trkpt>
      <trkpt lat="47.27056" lon="-2.30373">
        <ele>123</ele>
        <time>2022-05-29T09:13:45.000Z</time>
      </trkpt>
      <trkpt lat="47.27061" lon="-2.30346">
        <ele>123</ele>
        <time>2022-05-29T09:13:49.000Z</time>
      </trkpt>
      <trkpt lat="47.27066" lon="-2.30308">
        <ele>123</ele>
        <time>2022-05-29T09:13:55.000Z</time>
      </trkpt>
      <trkpt lat="47.27071" lon="-2.3029">
        <ele>123</ele>
        <time>2022-05-29T09:13:58.000Z</time>
      </trkpt>
      <trkpt lat="47.27076" lon="-2.30281">
        <ele>123</ele>
        <time>2022-05-29T09:14:00.000Z</time>
      </trkpt>
      <trkpt lat="47.2709" lon="-2.30266">
        <ele>123</ele>
        <time>2022-05-29T09:14:04.000Z</time>
      </trkpt>
      <trkpt lat="47.27096" lon="-2.30264">
        <ele>123</ele>
        <time>2022-05-29T09:14:05.000Z</time>
      </trkpt>
      <trkpt lat="47.27124" lon="-2.30252">
        <ele>123</ele>
        <time>2022-05-29T09:14:11.000Z</time>
      </trkpt>
      <trkpt lat="47.27137" lon="-2.30241">
        <ele>123</ele>
        <time>2022-05-29T09:14:16.000Z</time>
      </trkpt>
      <trkpt lat="47.27152" lon="-2.30232">
        <ele>123</ele>
        <time>2022-05-29T09:14:22.000Z</time>
      </trkpt>
      <trkpt lat="47.27156" lon="-2.30229">
        <ele>123</ele>
        <time>2022-05-29T09:14:24.000Z</time>
      </trkpt>
      <trkpt lat="47.27159" lon="-2.30221">
        <ele>123</ele>
        <time>2022-05-29T09:14:26.000Z</time>
      </trkpt>
      <trkpt lat="47.2716" lon="-2.30192">
        <ele>123</ele>
        <time>2022-05-29T09:14:31.000Z</time>
      </trkpt>
      <trkpt lat="47.2716" lon="-2.30151">
        <ele>123</ele>
        <time>2022-05-29T09:14:38.000Z</time>
      </trkpt>
      <trkpt lat="47.2716" lon="-2.30131">
        <ele>123.40000152588</ele>
        <time>2022-05-29T09:14:42.000Z</time>
      </trkpt>
      <trkpt lat="47.27159" lon="-2.30126">
        <ele>124</ele>
        <time>2022-05-29T09:14:43.000Z</time>
      </trkpt>
      <trkpt lat="47.27158" lon="-2.30122">
        <ele>124.40000152588</ele>
        <time>2022-05-29T09:14:44.000Z</time>
      </trkpt>
      <trkpt lat="47.27155" lon="-2.30119">
        <ele>124.80000305176</ele>
        <time>2022-05-29T09:14:45.000Z</time>
      </trkpt>
      <trkpt lat="47.27152" lon="-2.30117">
        <ele>125.19999694824</ele>
        <time>2022-05-29T09:14:46.000Z</time>
      </trkpt>
      <trkpt lat="47.27145" lon="-2.30114">
        <ele>125.19999694824</ele>
        <time>2022-05-29T09:14:48.000Z</time>
      </trkpt>
      <trkpt lat="47.27137" lon="-2.30113">
        <ele>125.19999694824</ele>
        <time>2022-05-29T09:14:50.000Z</time>
      </trkpt>
      <trkpt lat="47.27116" lon="-2.30103">
        <ele>125.19999694824</ele>
        <time>2022-05-29T09:14:56.000Z</time>
      </trkpt>
      <trkpt lat="47.271" lon="-2.30092">
        <ele>125.59999847412</ele>
        <time>2022-05-29T09:15:01.000Z</time>
      </trkpt>
      <trkpt lat="47.27097" lon="-2.3009">
        <ele>126</ele>
        <time>2022-05-29T09:15:02.000Z</time>
      </trkpt>
      <trkpt lat="47.27094" lon="-2.30087">
        <ele>126.59999847412</ele>
        <time>2022-05-29T09:15:03.000Z</time>
      </trkpt>
      <trkpt lat="47.27091" lon="-2.30085">
        <ele>127</ele>
        <time>2022-05-29T09:15:04.000Z</time>
      </trkpt>
      <trkpt lat="47.27088" lon="-2.30081">
        <ele>127.40000152588</ele>
        <time>2022-05-29T09:15:05.000Z</time>
      </trkpt>
      <trkpt lat="47.27073" lon="-2.3007">
        <ele>127.40000152588</ele>
        <time>2022-05-29T09:15:09.000Z</time>
      </trkpt>
      <trkpt lat="47.27044" lon="-2.30062">
        <ele>127.40000152588</ele>
        <time>2022-05-29T09:15:16.000Z</time>
      </trkpt>
      <trkpt lat="47.27022" lon="-2.30062">
        <ele>127.40000152588</ele>
        <time>2022-05-29T09:15:22.000Z</time>
      </trkpt>
      <trkpt lat="47.27018" lon="-2.30063">
        <ele>127.40000152588</ele>
        <time>2022-05-29T09:15:23.000Z</time>
      </trkpt>
      <trkpt lat="47.26999" lon="-2.30073">
        <ele>127.80000305176</ele>
        <time>2022-05-29T09:15:28.000Z</time>
      </trkpt>
      <trkpt lat="47.26994" lon="-2.30076">
        <ele>128.19999694824</ele>
        <time>2022-05-29T09:15:29.000Z</time>
      </trkpt>
      <trkpt lat="47.2699" lon="-2.30079">
        <ele>128.60000610352</ele>
        <time>2022-05-29T09:15:30.000Z</time>
      </trkpt>
      <trkpt lat="47.26986" lon="-2.30082">
        <ele>129</ele>
        <time>2022-05-29T09:15:31.000Z</time>
      </trkpt>
      <trkpt lat="47.26982" lon="-2.30085">
        <ele>129.39999389648</ele>
        <time>2022-05-29T09:15:32.000Z</time>
      </trkpt>
      <trkpt lat="47.26968" lon="-2.30094">
        <ele>129.39999389648</ele>
        <time>2022-05-29T09:15:35.000Z</time>
      </trkpt>
      <trkpt lat="47.26928" lon="-2.30117">
        <ele>129.39999389648</ele>
        <time>2022-05-29T09:15:43.000Z</time>
      </trkpt>
      <trkpt lat="47.26898" lon="-2.30142">
        <ele>129.39999389648</ele>
        <time>2022-05-29T09:15:50.000Z</time>
      </trkpt>
      <trkpt lat="47.26875" lon="-2.30167">
        <ele>129.39999389648</ele>
        <time>2022-05-29T09:15:57.000Z</time>
      </trkpt>
      <trkpt lat="47.26875" lon="-2.30182">
        <ele>129.39999389648</ele>
        <time>2022-05-29T09:16:00.000Z</time>
      </trkpt>
      <trkpt lat="47.26876" lon="-2.30187">
        <ele>129.39999389648</ele>
        <time>2022-05-29T09:16:01.000Z</time>
      </trkpt>
      <trkpt lat="47.26885" lon="-2.3022">
        <ele>129.39999389648</ele>
        <time>2022-05-29T09:16:07.000Z</time>
      </trkpt>
      <trkpt lat="47.26895" lon="-2.30262">
        <ele>129.39999389648</ele>
        <time>2022-05-29T09:16:13.000Z</time>
      </trkpt>
      <trkpt lat="47.26902" lon="-2.30324">
        <ele>129.39999389648</ele>
        <time>2022-05-29T09:16:20.000Z</time>
      </trkpt>
      <trkpt lat="47.26911" lon="-2.304">
        <ele>129.39999389648</ele>
        <time>2022-05-29T09:16:28.000Z</time>
      </trkpt>
      <trkpt lat="47.26918" lon="-2.30469">
        <ele>129.39999389648</ele>
        <time>2022-05-29T09:16:36.000Z</time>
      </trkpt>
      <trkpt lat="47.26917" lon="-2.30527">
        <ele>129.39999389648</ele>
        <time>2022-05-29T09:16:42.000Z</time>
      </trkpt>
      <trkpt lat="47.26927" lon="-2.30577">
        <ele>129.39999389648</ele>
        <time>2022-05-29T09:16:47.000Z</time>
      </trkpt>
      <trkpt lat="47.26925" lon="-2.3062">
        <ele>129</ele>
        <time>2022-05-29T09:16:51.000Z</time>
      </trkpt>
      <trkpt lat="47.26921" lon="-2.30628">
        <ele>128.60000610352</ele>
        <time>2022-05-29T09:16:52.000Z</time>
      </trkpt>
      <trkpt lat="47.26917" lon="-2.30636">
        <ele>128.19999694824</ele>
        <time>2022-05-29T09:16:53.000Z</time>
      </trkpt>
      <trkpt lat="47.26911" lon="-2.30643">
        <ele>127.80000305176</ele>
        <time>2022-05-29T09:16:54.000Z</time>
      </trkpt>
      <trkpt lat="47.26907" lon="-2.3065">
        <ele>127.40000152588</ele>
        <time>2022-05-29T09:16:55.000Z</time>
      </trkpt>
      <trkpt lat="47.26901" lon="-2.30663">
        <ele>127.40000152588</ele>
        <time>2022-05-29T09:16:57.000Z</time>
      </trkpt>
      <trkpt lat="47.26904" lon="-2.30676">
        <ele>127.40000152588</ele>
        <time>2022-05-29T09:16:59.000Z</time>
      </trkpt>
      <trkpt lat="47.26912" lon="-2.30686">
        <ele>127.40000152588</ele>
        <time>2022-05-29T09:17:01.000Z</time>
      </trkpt>
      <trkpt lat="47.26924" lon="-2.30703">
        <ele>127.40000152588</ele>
        <time>2022-05-29T09:17:04.000Z</time>
      </trkpt>
      <trkpt lat="47.2695" lon="-2.3074">
        <ele>127.40000152588</ele>
        <time>2022-05-29T09:17:10.000Z</time>
      </trkpt>
      <trkpt lat="47.26966" lon="-2.30759">
        <ele>126.80000305176</ele>
        <time>2022-05-29T09:17:13.000Z</time>
      </trkpt>
      <trkpt lat="47.26971" lon="-2.30766">
        <ele>126.40000152588</ele>
        <time>2022-05-29T09:17:14.000Z</time>
      </trkpt>
      <trkpt lat="47.26975" lon="-2.30772">
        <ele>126</ele>
        <time>2022-05-29T09:17:15.000Z</time>
      </trkpt>
      <trkpt lat="47.2698" lon="-2.30779">
        <ele>125.59999847412</ele>
        <time>2022-05-29T09:17:16.000Z</time>
      </trkpt>
      <trkpt lat="47.26985" lon="-2.30787">
        <ele>125</ele>
        <time>2022-05-29T09:17:17.000Z</time>
      </trkpt>
      <trkpt lat="47.27005" lon="-2.30815">
        <ele>125</ele>
        <time>2022-05-29T09:17:21.000Z</time>
      </trkpt>
      <trkpt lat="47.27014" lon="-2.3083">
        <ele>124.59999847412</ele>
        <time>2022-05-29T09:17:23.000Z</time>
      </trkpt>
      <trkpt lat="47.27019" lon="-2.30837">
        <ele>124.19999694824</ele>
        <time>2022-05-29T09:17:24.000Z</time>
      </trkpt>
      <trkpt lat="47.27023" lon="-2.30844">
        <ele>123.80000305176</ele>
        <time>2022-05-29T09:17:25.000Z</time>
      </trkpt>
      <trkpt lat="47.27028" lon="-2.30851">
        <ele>123.40000152588</ele>
        <time>2022-05-29T09:17:26.000Z</time>
      </trkpt>
      <trkpt lat="47.27032" lon="-2.30859">
        <ele>123</ele>
        <time>2022-05-29T09:17:27.000Z</time>
      </trkpt>
      <trkpt lat="47.27041" lon="-2.30873">
        <ele>122.59999847412</ele>
        <time>2022-05-29T09:17:29.000Z</time>
      </trkpt>
      <trkpt lat="47.27044" lon="-2.3088">
        <ele>122.19999694824</ele>
        <time>2022-05-29T09:17:30.000Z</time>
      </trkpt>
      <trkpt lat="47.27046" lon="-2.30886">
        <ele>121.80000305176</ele>
        <time>2022-05-29T09:17:31.000Z</time>
      </trkpt>
      <trkpt lat="47.27048" lon="-2.30892">
        <ele>121.19999694824</ele>
        <time>2022-05-29T09:17:32.000Z</time>
      </trkpt>
      <trkpt lat="47.27048" lon="-2.30897">
        <ele>120.80000305176</ele>
        <time>2022-05-29T09:17:33.000Z</time>
      </trkpt>
      <trkpt lat="47.2705" lon="-2.30906">
        <ele>120.80000305176</ele>
        <time>2022-05-29T09:17:35.000Z</time>
      </trkpt>
      <trkpt lat="47.27052" lon="-2.30915">
        <ele>120.80000305176</ele>
        <time>2022-05-29T09:17:38.000Z</time>
      </trkpt>
      <trkpt lat="47.27058" lon="-2.30936">
        <ele>120.80000305176</ele>
        <time>2022-05-29T09:17:43.000Z</time>
      </trkpt>
      <trkpt lat="47.27067" lon="-2.30967">
        <ele>120.80000305176</ele>
        <time>2022-05-29T09:17:49.000Z</time>
      </trkpt>
      <trkpt lat="47.27068" lon="-2.3098">
        <ele>120.80000305176</ele>
        <time>2022-05-29T09:17:53.000Z</time>
      </trkpt>
      <trkpt lat="47.27063" lon="-2.30988">
        <ele>120.80000305176</ele>
        <time>2022-05-29T09:17:58.000Z</time>
      </trkpt>
      <trkpt lat="47.27062" lon="-2.30989">
        <ele>120.80000305176</ele>
        <time>2022-05-29T09:17:59.000Z</time>
      </trkpt>
      <trkpt lat="47.27043" lon="-2.31008">
        <ele>120.80000305176</ele>
        <time>2022-05-29T09:18:05.000Z</time>
      </trkpt>
      <trkpt lat="47.27019" lon="-2.31032">
        <ele>121.19999694824</ele>
        <time>2022-05-29T09:18:10.000Z</time>
      </trkpt>
      <trkpt lat="47.27014" lon="-2.31037">
        <ele>121.59999847412</ele>
        <time>2022-05-29T09:18:11.000Z</time>
      </trkpt>
      <trkpt lat="47.27008" lon="-2.31045">
        <ele>122</ele>
        <time>2022-05-29T09:18:12.000Z</time>
      </trkpt>
      <trkpt lat="47.27004" lon="-2.31053">
        <ele>122.59999847412</ele>
        <time>2022-05-29T09:18:13.000Z</time>
      </trkpt>
      <trkpt lat="47.27003" lon="-2.31059">
        <ele>123</ele>
        <time>2022-05-29T09:18:14.000Z</time>
      </trkpt>
      <trkpt lat="47.27004" lon="-2.3108">
        <ele>123</ele>
        <time>2022-05-29T09:18:17.000Z</time>
      </trkpt>
      <trkpt lat="47.27004" lon="-2.31092">
        <ele>123.40000152588</ele>
        <time>2022-05-29T09:18:19.000Z</time>
      </trkpt>
      <trkpt lat="47.27005" lon="-2.31099">
        <ele>123.80000305176</ele>
        <time>2022-05-29T09:18:20.000Z</time>
      </trkpt>
      <trkpt lat="47.27005" lon="-2.31105">
        <ele>124.19999694824</ele>
        <time>2022-05-29T09:18:21.000Z</time>
      </trkpt>
      <trkpt lat="47.27005" lon="-2.31112">
        <ele>124.59999847412</ele>
        <time>2022-05-29T09:18:22.000Z</time>
      </trkpt>
      <trkpt lat="47.27005" lon="-2.31118">
        <ele>125</ele>
        <time>2022-05-29T09:18:23.000Z</time>
      </trkpt>
      <trkpt lat="47.27003" lon="-2.31132">
        <ele>125</ele>
        <time>2022-05-29T09:18:25.000Z</time>
      </trkpt>
      <trkpt lat="47.27002" lon="-2.3114">
        <ele>125</ele>
        <time>2022-05-29T09:18:26.000Z</time>
      </trkpt>
      <trkpt lat="47.26995" lon="-2.31178">
        <ele>125</ele>
        <time>2022-05-29T09:18:31.000Z</time>
      </trkpt>
      <trkpt lat="47.26992" lon="-2.31188">
        <ele>125.40000152588</ele>
        <time>2022-05-29T09:18:32.000Z</time>
      </trkpt>
      <trkpt lat="47.26989" lon="-2.31197">
        <ele>125.80000305176</ele>
        <time>2022-05-29T09:18:33.000Z</time>
      </trkpt>
      <trkpt lat="47.26986" lon="-2.31205">
        <ele>126.19999694824</ele>
        <time>2022-05-29T09:18:34.000Z</time>
      </trkpt>
      <trkpt lat="47.26983" lon="-2.31214">
        <ele>126.59999847412</ele>
        <time>2022-05-29T09:18:35.000Z</time>
      </trkpt>
      <trkpt lat="47.2698" lon="-2.31221">
        <ele>127.19999694824</ele>
        <time>2022-05-29T09:18:36.000Z</time>
      </trkpt>
      <trkpt lat="47.26979" lon="-2.31229">
        <ele>127.19999694824</ele>
        <time>2022-05-29T09:18:37.000Z</time>
      </trkpt>
      <trkpt lat="47.26977" lon="-2.31253">
        <ele>127.19999694824</ele>
        <time>2022-05-29T09:18:40.000Z</time>
      </trkpt>
      <trkpt lat="47.26977" lon="-2.3126">
        <ele>127.19999694824</ele>
        <time>2022-05-29T09:18:41.000Z</time>
      </trkpt>
      <trkpt lat="47.26977" lon="-2.31288">
        <ele>127.19999694824</ele>
        <time>2022-05-29T09:18:45.000Z</time>
      </trkpt>
      <trkpt lat="47.2698" lon="-2.31314">
        <ele>127.19999694824</ele>
        <time>2022-05-29T09:18:49.000Z</time>
      </trkpt>
      <trkpt lat="47.26981" lon="-2.3132">
        <ele>127.19999694824</ele>
        <time>2022-05-29T09:18:50.000Z</time>
      </trkpt>
      <trkpt lat="47.26988" lon="-2.3136">
        <ele>127.19999694824</ele>
        <time>2022-05-29T09:18:56.000Z</time>
      </trkpt>
      <trkpt lat="47.26991" lon="-2.31383">
        <ele>127.19999694824</ele>
        <time>2022-05-29T09:18:59.000Z</time>
      </trkpt>
      <trkpt lat="47.26991" lon="-2.31401">
        <ele>127.19999694824</ele>
        <time>2022-05-29T09:19:01.000Z</time>
      </trkpt>
      <trkpt lat="47.26992" lon="-2.31426">
        <ele>127.19999694824</ele>
        <time>2022-05-29T09:19:04.000Z</time>
      </trkpt>
      <trkpt lat="47.26992" lon="-2.31442">
        <ele>126.80000305176</ele>
        <time>2022-05-29T09:19:06.000Z</time>
      </trkpt>
      <trkpt lat="47.26993" lon="-2.31449">
        <ele>126.19999694824</ele>
        <time>2022-05-29T09:19:07.000Z</time>
      </trkpt>
      <trkpt lat="47.26994" lon="-2.31457">
        <ele>125.80000305176</ele>
        <time>2022-05-29T09:19:08.000Z</time>
      </trkpt>
      <trkpt lat="47.26995" lon="-2.31464">
        <ele>125.40000152588</ele>
        <time>2022-05-29T09:19:09.000Z</time>
      </trkpt>
      <trkpt lat="47.26997" lon="-2.3147">
        <ele>125</ele>
        <time>2022-05-29T09:19:10.000Z</time>
      </trkpt>
      <trkpt lat="47.26999" lon="-2.31477">
        <ele>125</ele>
        <time>2022-05-29T09:19:11.000Z</time>
      </trkpt>
      <trkpt lat="47.27006" lon="-2.31505">
        <ele>124.59999847412</ele>
        <time>2022-05-29T09:19:15.000Z</time>
      </trkpt>
      <trkpt lat="47.27008" lon="-2.31512">
        <ele>124.19999694824</ele>
        <time>2022-05-29T09:19:16.000Z</time>
      </trkpt>
      <trkpt lat="47.2701" lon="-2.31519">
        <ele>123.80000305176</ele>
        <time>2022-05-29T09:19:17.000Z</time>
      </trkpt>
      <trkpt lat="47.27012" lon="-2.31526">
        <ele>123.19999694824</ele>
        <time>2022-05-29T09:19:18.000Z</time>
      </trkpt>
      <trkpt lat="47.27014" lon="-2.31536">
        <ele>122.80000305176</ele>
        <time>2022-05-29T09:19:19.000Z</time>
      </trkpt>
      <trkpt lat="47.27016" lon="-2.31544">
        <ele>122.80000305176</ele>
        <time>2022-05-29T09:19:20.000Z</time>
      </trkpt>
      <trkpt lat="47.27022" lon="-2.31559">
        <ele>122.40000152588</ele>
        <time>2022-05-29T09:19:22.000Z</time>
      </trkpt>
      <trkpt lat="47.27025" lon="-2.31564">
        <ele>122</ele>
        <time>2022-05-29T09:19:23.000Z</time>
      </trkpt>
      <trkpt lat="47.27027" lon="-2.3157">
        <ele>121.40000152588</ele>
        <time>2022-05-29T09:19:24.000Z</time>
      </trkpt>
      <trkpt lat="47.27029" lon="-2.31576">
        <ele>121</ele>
        <time>2022-05-29T09:19:25.000Z</time>
      </trkpt>
      <trkpt lat="47.2703" lon="-2.31582">
        <ele>120.59999847412</ele>
        <time>2022-05-29T09:19:26.000Z</time>
      </trkpt>
      <trkpt lat="47.27031" lon="-2.31588">
        <ele>120.19999694824</ele>
        <time>2022-05-29T09:19:27.000Z</time>
      </trkpt>
      <trkpt lat="47.27032" lon="-2.31595">
        <ele>119.80000305176</ele>
        <time>2022-05-29T09:19:28.000Z</time>
      </trkpt>
      <trkpt lat="47.27033" lon="-2.31603">
        <ele>119</ele>
        <time>2022-05-29T09:19:29.000Z</time>
      </trkpt>
      <trkpt lat="47.27035" lon="-2.31612">
        <ele>118.59999847412</ele>
        <time>2022-05-29T09:19:30.000Z</time>
      </trkpt>
      <trkpt lat="47.27039" lon="-2.31647">
        <ele>118.19999694824</ele>
        <time>2022-05-29T09:19:34.000Z</time>
      </trkpt>
      <trkpt lat="47.27038" lon="-2.31656">
        <ele>117.59999847412</ele>
        <time>2022-05-29T09:19:35.000Z</time>
      </trkpt>
      <trkpt lat="47.27038" lon="-2.31662">
        <ele>117.19999694824</ele>
        <time>2022-05-29T09:19:36.000Z</time>
      </trkpt>
      <trkpt lat="47.27037" lon="-2.3167">
        <ele>116.80000305176</ele>
        <time>2022-05-29T09:19:37.000Z</time>
      </trkpt>
      <trkpt lat="47.27035" lon="-2.31676">
        <ele>116.40000152588</ele>
        <time>2022-05-29T09:19:38.000Z</time>
      </trkpt>
      <trkpt lat="47.27033" lon="-2.31683">
        <ele>116</ele>
        <time>2022-05-29T09:19:39.000Z</time>
      </trkpt>
      <trkpt lat="47.27032" lon="-2.31688">
        <ele>115.59999847412</ele>
        <time>2022-05-29T09:19:40.000Z</time>
      </trkpt>
      <trkpt lat="47.27032" lon="-2.31694">
        <ele>115.19999694824</ele>
        <time>2022-05-29T09:19:41.000Z</time>
      </trkpt>
      <trkpt lat="47.27033" lon="-2.31698">
        <ele>114.80000305176</ele>
        <time>2022-05-29T09:19:42.000Z</time>
      </trkpt>
      <trkpt lat="47.27035" lon="-2.31704">
        <ele>114.40000152588</ele>
        <time>2022-05-29T09:19:43.000Z</time>
      </trkpt>
      <trkpt lat="47.27037" lon="-2.31708">
        <ele>114.40000152588</ele>
        <time>2022-05-29T09:19:44.000Z</time>
      </trkpt>
      <trkpt lat="47.27046" lon="-2.31719">
        <ele>114.40000152588</ele>
        <time>2022-05-29T09:19:47.000Z</time>
      </trkpt>
      <trkpt lat="47.27051" lon="-2.31724">
        <ele>114.40000152588</ele>
        <time>2022-05-29T09:19:49.000Z</time>
      </trkpt>
      <trkpt lat="47.27056" lon="-2.31736">
        <ele>114.40000152588</ele>
        <time>2022-05-29T09:19:54.000Z</time>
      </trkpt>
      <trkpt lat="47.27055" lon="-2.31758">
        <ele>114.40000152588</ele>
        <time>2022-05-29T09:20:00.000Z</time>
      </trkpt>
      <trkpt lat="47.27058" lon="-2.31783">
        <ele>114.40000152588</ele>
        <time>2022-05-29T09:20:05.000Z</time>
      </trkpt>
      <trkpt lat="47.2706" lon="-2.31797">
        <ele>114.40000152588</ele>
        <time>2022-05-29T09:20:07.000Z</time>
      </trkpt>
      <trkpt lat="47.27062" lon="-2.31811">
        <ele>114</ele>
        <time>2022-05-29T09:20:09.000Z</time>
      </trkpt>
      <trkpt lat="47.27063" lon="-2.31818">
        <ele>113.40000152588</ele>
        <time>2022-05-29T09:20:10.000Z</time>
      </trkpt>
      <trkpt lat="47.27064" lon="-2.31825">
        <ele>113</ele>
        <time>2022-05-29T09:20:11.000Z</time>
      </trkpt>
      <trkpt lat="47.27064" lon="-2.31831">
        <ele>112.59999847412</ele>
        <time>2022-05-29T09:20:12.000Z</time>
      </trkpt>
      <trkpt lat="47.27065" lon="-2.31837">
        <ele>112.19999694824</ele>
        <time>2022-05-29T09:20:13.000Z</time>
      </trkpt>
      <trkpt lat="47.27066" lon="-2.31843">
        <ele>112.19999694824</ele>
        <time>2022-05-29T09:20:14.000Z</time>
      </trkpt>
      <trkpt lat="47.27067" lon="-2.31848">
        <ele>112.19999694824</ele>
        <time>2022-05-29T09:20:15.000Z</time>
      </trkpt>
      <trkpt lat="47.27072" lon="-2.31855">
        <ele>111.80000305176</ele>
        <time>2022-05-29T09:20:18.000Z</time>
      </trkpt>
      <trkpt lat="47.27073" lon="-2.31855">
        <ele>111.40000152588</ele>
        <time>2022-05-29T09:20:19.000Z</time>
      </trkpt>
      <trkpt lat="47.27074" lon="-2.31855">
        <ele>110.80000305176</ele>
        <time>2022-05-29T09:20:20.000Z</time>
      </trkpt>
      <trkpt lat="47.27076" lon="-2.31855">
        <ele>110.40000152588</ele>
        <time>2022-05-29T09:20:21.000Z</time>
      </trkpt>
      <trkpt lat="47.27078" lon="-2.31857">
        <ele>110</ele>
        <time>2022-05-29T09:20:22.000Z</time>
      </trkpt>
      <trkpt lat="47.27079" lon="-2.31858">
        <ele>110</ele>
        <time>2022-05-29T09:20:23.000Z</time>
      </trkpt>
      <trkpt lat="47.27076" lon="-2.31867">
        <ele>110</ele>
        <time>2022-05-29T09:20:27.000Z</time>
      </trkpt>
      <trkpt lat="47.27074" lon="-2.31874">
        <ele>110</ele>
        <time>2022-05-29T09:20:30.000Z</time>
      </trkpt>
      <trkpt lat="47.27072" lon="-2.31882">
        <ele>110</ele>
        <time>2022-05-29T09:20:32.000Z</time>
      </trkpt>
      <trkpt lat="47.27073" lon="-2.31903">
        <ele>110</ele>
        <time>2022-05-29T09:20:36.000Z</time>
      </trkpt>
      <trkpt lat="47.27075" lon="-2.31926">
        <ele>110</ele>
        <time>2022-05-29T09:20:41.000Z</time>
      </trkpt>
      <trkpt lat="47.27074" lon="-2.31948">
        <ele>109.59999847412</ele>
        <time>2022-05-29T09:20:46.000Z</time>
      </trkpt>
      <trkpt lat="47.27073" lon="-2.31951">
        <ele>109.19999694824</ele>
        <time>2022-05-29T09:20:47.000Z</time>
      </trkpt>
      <trkpt lat="47.2707" lon="-2.31953">
        <ele>108.80000305176</ele>
        <time>2022-05-29T09:20:48.000Z</time>
      </trkpt>
      <trkpt lat="47.27067" lon="-2.31954">
        <ele>108.19999694824</ele>
        <time>2022-05-29T09:20:49.000Z</time>
      </trkpt>
      <trkpt lat="47.27063" lon="-2.31954">
        <ele>107.80000305176</ele>
        <time>2022-05-29T09:20:50.000Z</time>
      </trkpt>
      <trkpt lat="47.27046" lon="-2.31955">
        <ele>107.80000305176</ele>
        <time>2022-05-29T09:20:54.000Z</time>
      </trkpt>
      <trkpt lat="47.27042" lon="-2.31956">
        <ele>107.80000305176</ele>
        <time>2022-05-29T09:20:55.000Z</time>
      </trkpt>
      <trkpt lat="47.2703" lon="-2.31964">
        <ele>107.80000305176</ele>
        <time>2022-05-29T09:20:58.000Z</time>
      </trkpt>
      <trkpt lat="47.27026" lon="-2.31968">
        <ele>107.80000305176</ele>
        <time>2022-05-29T09:20:59.000Z</time>
      </trkpt>
      <trkpt lat="47.27022" lon="-2.3197">
        <ele>107.80000305176</ele>
        <time>2022-05-29T09:21:00.000Z</time>
      </trkpt>
      <trkpt lat="47.27007" lon="-2.31981">
        <ele>107.80000305176</ele>
        <time>2022-05-29T09:21:04.000Z</time>
      </trkpt>
      <trkpt lat="47.27" lon="-2.31988">
        <ele>107.80000305176</ele>
        <time>2022-05-29T09:21:06.000Z</time>
      </trkpt>
      <trkpt lat="47.26986" lon="-2.31995">
        <ele>107.80000305176</ele>
        <time>2022-05-29T09:21:10.000Z</time>
      </trkpt>
      <trkpt lat="47.26968" lon="-2.31999">
        <ele>107.80000305176</ele>
        <time>2022-05-29T09:21:15.000Z</time>
      </trkpt>
      <trkpt lat="47.2696" lon="-2.32001">
        <ele>108.19999694824</ele>
        <time>2022-05-29T09:21:17.000Z</time>
      </trkpt>
      <trkpt lat="47.26956" lon="-2.32001">
        <ele>108.80000305176</ele>
        <time>2022-05-29T09:21:18.000Z</time>
      </trkpt>
      <trkpt lat="47.26953" lon="-2.31999">
        <ele>109.19999694824</ele>
        <time>2022-05-29T09:21:19.000Z</time>
      </trkpt>
      <trkpt lat="47.2695" lon="-2.31995">
        <ele>109.59999847412</ele>
        <time>2022-05-29T09:21:20.000Z</time>
      </trkpt>
      <trkpt lat="47.26946" lon="-2.31992">
        <ele>110</ele>
        <time>2022-05-29T09:21:21.000Z</time>
      </trkpt>
      <trkpt lat="47.26933" lon="-2.31975">
        <ele>110</ele>
        <time>2022-05-29T09:21:25.000Z</time>
      </trkpt>
      <trkpt lat="47.26927" lon="-2.31966">
        <ele>110.40000152588</ele>
        <time>2022-05-29T09:21:27.000Z</time>
      </trkpt>
      <trkpt lat="47.26925" lon="-2.31962">
        <ele>110.80000305176</ele>
        <time>2022-05-29T09:21:28.000Z</time>
      </trkpt>
      <trkpt lat="47.26922" lon="-2.31959">
        <ele>111.19999694824</ele>
        <time>2022-05-29T09:21:29.000Z</time>
      </trkpt>
      <trkpt lat="47.26919" lon="-2.31955">
        <ele>111.59999847412</ele>
        <time>2022-05-29T09:21:30.000Z</time>
      </trkpt>
      <trkpt lat="47.26916" lon="-2.31952">
        <ele>112.19999694824</ele>
        <time>2022-05-29T09:21:31.000Z</time>
      </trkpt>
      <trkpt lat="47.26899" lon="-2.31932">
        <ele>112.59999847412</ele>
        <time>2022-05-29T09:21:36.000Z</time>
      </trkpt>
      <trkpt lat="47.26896" lon="-2.31926">
        <ele>113</ele>
        <time>2022-05-29T09:21:37.000Z</time>
      </trkpt>
      <trkpt lat="47.26893" lon="-2.31922">
        <ele>113.40000152588</ele>
        <time>2022-05-29T09:21:38.000Z</time>
      </trkpt>
      <trkpt lat="47.26891" lon="-2.31917">
        <ele>113.80000305176</ele>
        <time>2022-05-29T09:21:39.000Z</time>
      </trkpt>
      <trkpt lat="47.26889" lon="-2.31913">
        <ele>114.19999694824</ele>
        <time>2022-05-29T09:21:40.000Z</time>
      </trkpt>
      <trkpt lat="47.26886" lon="-2.31909">
        <ele>114.19999694824</ele>
        <time>2022-05-29T09:21:41.000Z</time>
      </trkpt>
      <trkpt lat="47.26873" lon="-2.31897">
        <ele>114.19999694824</ele>
        <time>2022-05-29T09:21:45.000Z</time>
      </trkpt>
      <trkpt lat="47.26869" lon="-2.31896">
        <ele>114.59999847412</ele>
        <time>2022-05-29T09:21:46.000Z</time>
      </trkpt>
      <trkpt lat="47.26865" lon="-2.31895">
        <ele>115</ele>
        <time>2022-05-29T09:21:47.000Z</time>
      </trkpt>
      <trkpt lat="47.26861" lon="-2.31894">
        <ele>115.40000152588</ele>
        <time>2022-05-29T09:21:48.000Z</time>
      </trkpt>
      <trkpt lat="47.26857" lon="-2.31892">
        <ele>115.80000305176</ele>
        <time>2022-05-29T09:21:49.000Z</time>
      </trkpt>
      <trkpt lat="47.26853" lon="-2.31891">
        <ele>116.19999694824</ele>
        <time>2022-05-29T09:21:50.000Z</time>
      </trkpt>
      <trkpt lat="47.2684" lon="-2.31881">
        <ele>116.19999694824</ele>
        <time>2022-05-29T09:21:54.000Z</time>
      </trkpt>
      <trkpt lat="47.26834" lon="-2.31868">
        <ele>116.80000305176</ele>
        <time>2022-05-29T09:21:57.000Z</time>
      </trkpt>
      <trkpt lat="47.26833" lon="-2.31863">
        <ele>117.59999847412</ele>
        <time>2022-05-29T09:21:58.000Z</time>
      </trkpt>
      <trkpt lat="47.26831" lon="-2.31859">
        <ele>118</ele>
        <time>2022-05-29T09:21:59.000Z</time>
      </trkpt>
      <trkpt lat="47.26829" lon="-2.31854">
        <ele>118.40000152588</ele>
        <time>2022-05-29T09:22:00.000Z</time>
      </trkpt>
      <trkpt lat="47.26821" lon="-2.3183">
        <ele>118.80000305176</ele>
        <time>2022-05-29T09:22:06.000Z</time>
      </trkpt>
      <trkpt lat="47.26819" lon="-2.31826">
        <ele>119.19999694824</ele>
        <time>2022-05-29T09:22:07.000Z</time>
      </trkpt>
      <trkpt lat="47.26818" lon="-2.31823">
        <ele>119.59999847412</ele>
        <time>2022-05-29T09:22:08.000Z</time>
      </trkpt>
      <trkpt lat="47.26818" lon="-2.31819">
        <ele>120</ele>
        <time>2022-05-29T09:22:09.000Z</time>
      </trkpt>
      <trkpt lat="47.26818" lon="-2.31816">
        <ele>120.59999847412</ele>
        <time>2022-05-29T09:22:10.000Z</time>
      </trkpt>
      <trkpt lat="47.26817" lon="-2.3181">
        <ele>120.59999847412</ele>
        <time>2022-05-29T09:22:12.000Z</time>
      </trkpt>
      <trkpt lat="47.26809" lon="-2.3181">
        <ele>120.59999847412</ele>
        <time>2022-05-29T09:22:15.000Z</time>
      </trkpt>
      <trkpt lat="47.26798" lon="-2.31817">
        <ele>120.59999847412</ele>
        <time>2022-05-29T09:22:18.000Z</time>
      </trkpt>
      <trkpt lat="47.26786" lon="-2.31824">
        <ele>120.59999847412</ele>
        <time>2022-05-29T09:22:21.000Z</time>
      </trkpt>
      <trkpt lat="47.26754" lon="-2.31847">
        <ele>120.59999847412</ele>
        <time>2022-05-29T09:22:29.000Z</time>
      </trkpt>
      <trkpt lat="47.26736" lon="-2.31864">
        <ele>120.59999847412</ele>
        <time>2022-05-29T09:22:35.000Z</time>
      </trkpt>
      <trkpt lat="47.26735" lon="-2.31868">
        <ele>120.59999847412</ele>
        <time>2022-05-29T09:22:36.000Z</time>
      </trkpt>
      <trkpt lat="47.26737" lon="-2.31879">
        <ele>120.59999847412</ele>
        <time>2022-05-29T09:22:38.000Z</time>
      </trkpt>
      <trkpt lat="47.26742" lon="-2.3189">
        <ele>120.59999847412</ele>
        <time>2022-05-29T09:22:40.000Z</time>
      </trkpt>
      <trkpt lat="47.26752" lon="-2.31915">
        <ele>120.59999847412</ele>
        <time>2022-05-29T09:22:44.000Z</time>
      </trkpt>
      <trkpt lat="47.26762" lon="-2.31945">
        <ele>120.59999847412</ele>
        <time>2022-05-29T09:22:49.000Z</time>
      </trkpt>
      <trkpt lat="47.26759" lon="-2.31956">
        <ele>120</ele>
        <time>2022-05-29T09:22:51.000Z</time>
      </trkpt>
      <trkpt lat="47.26757" lon="-2.31961">
        <ele>119.59999847412</ele>
        <time>2022-05-29T09:22:52.000Z</time>
      </trkpt>
      <trkpt lat="47.26754" lon="-2.31966">
        <ele>119.19999694824</ele>
        <time>2022-05-29T09:22:53.000Z</time>
      </trkpt>
      <trkpt lat="47.26751" lon="-2.3197">
        <ele>118.80000305176</ele>
        <time>2022-05-29T09:22:54.000Z</time>
      </trkpt>
      <trkpt lat="47.26748" lon="-2.31974">
        <ele>118.40000152588</ele>
        <time>2022-05-29T09:22:55.000Z</time>
      </trkpt>
      <trkpt lat="47.26745" lon="-2.31977">
        <ele>118.40000152588</ele>
        <time>2022-05-29T09:22:56.000Z</time>
      </trkpt>
      <trkpt lat="47.26742" lon="-2.31981">
        <ele>118.40000152588</ele>
        <time>2022-05-29T09:22:57.000Z</time>
      </trkpt>
      <trkpt lat="47.26733" lon="-2.31987">
        <ele>118.40000152588</ele>
        <time>2022-05-29T09:22:59.000Z</time>
      </trkpt>
      <trkpt lat="47.26721" lon="-2.31996">
        <ele>118.40000152588</ele>
        <time>2022-05-29T09:23:02.000Z</time>
      </trkpt>
      <trkpt lat="47.26706" lon="-2.32006">
        <ele>118.80000305176</ele>
        <time>2022-05-29T09:23:06.000Z</time>
      </trkpt>
      <trkpt lat="47.26702" lon="-2.3201">
        <ele>119.19999694824</ele>
        <time>2022-05-29T09:23:07.000Z</time>
      </trkpt>
      <trkpt lat="47.26699" lon="-2.32014">
        <ele>119.59999847412</ele>
        <time>2022-05-29T09:23:08.000Z</time>
      </trkpt>
      <trkpt lat="47.26697" lon="-2.32018">
        <ele>120.19999694824</ele>
        <time>2022-05-29T09:23:09.000Z</time>
      </trkpt>
      <trkpt lat="47.26694" lon="-2.32022">
        <ele>120.59999847412</ele>
        <time>2022-05-29T09:23:10.000Z</time>
      </trkpt>
      <trkpt lat="47.26692" lon="-2.32026">
        <ele>120.59999847412</ele>
        <time>2022-05-29T09:23:11.000Z</time>
      </trkpt>
      <trkpt lat="47.26687" lon="-2.32049">
        <ele>120.59999847412</ele>
        <time>2022-05-29T09:23:16.000Z</time>
      </trkpt>
      <trkpt lat="47.26687" lon="-2.32054">
        <ele>121</ele>
        <time>2022-05-29T09:23:17.000Z</time>
      </trkpt>
      <trkpt lat="47.26686" lon="-2.32059">
        <ele>121.40000152588</ele>
        <time>2022-05-29T09:23:18.000Z</time>
      </trkpt>
      <trkpt lat="47.26686" lon="-2.32065">
        <ele>121.80000305176</ele>
        <time>2022-05-29T09:23:19.000Z</time>
      </trkpt>
      <trkpt lat="47.26686" lon="-2.32071">
        <ele>122.19999694824</ele>
        <time>2022-05-29T09:23:20.000Z</time>
      </trkpt>
      <trkpt lat="47.26686" lon="-2.32078">
        <ele>122.59999847412</ele>
        <time>2022-05-29T09:23:21.000Z</time>
      </trkpt>
      <trkpt lat="47.26686" lon="-2.32085">
        <ele>122.59999847412</ele>
        <time>2022-05-29T09:23:22.000Z</time>
      </trkpt>
      <trkpt lat="47.26681" lon="-2.3212">
        <ele>122.59999847412</ele>
        <time>2022-05-29T09:23:28.000Z</time>
      </trkpt>
      <trkpt lat="47.26679" lon="-2.32122">
        <ele>122.59999847412</ele>
        <time>2022-05-29T09:23:29.000Z</time>
      </trkpt>
      <trkpt lat="47.26674" lon="-2.32122">
        <ele>122.59999847412</ele>
        <time>2022-05-29T09:23:31.000Z</time>
      </trkpt>
      <trkpt lat="47.26669" lon="-2.32107">
        <ele>122.59999847412</ele>
        <time>2022-05-29T09:23:34.000Z</time>
      </trkpt>
      <trkpt lat="47.26667" lon="-2.32095">
        <ele>122.59999847412</ele>
        <time>2022-05-29T09:23:36.000Z</time>
      </trkpt>
      <trkpt lat="47.26657" lon="-2.32055">
        <ele>122.59999847412</ele>
        <time>2022-05-29T09:23:42.000Z</time>
      </trkpt>
      <trkpt lat="47.26647" lon="-2.32009">
        <ele>122.59999847412</ele>
        <time>2022-05-29T09:23:49.000Z</time>
      </trkpt>
      <trkpt lat="47.26644" lon="-2.32006">
        <ele>122.59999847412</ele>
        <time>2022-05-29T09:23:50.000Z</time>
      </trkpt>
      <trkpt lat="47.26636" lon="-2.32005">
        <ele>122.59999847412</ele>
        <time>2022-05-29T09:23:52.000Z</time>
      </trkpt>
      <trkpt lat="47.26627" lon="-2.32008">
        <ele>122.59999847412</ele>
        <time>2022-05-29T09:23:54.000Z</time>
      </trkpt>
      <trkpt lat="47.26618" lon="-2.32012">
        <ele>122.59999847412</ele>
        <time>2022-05-29T09:23:56.000Z</time>
      </trkpt>
      <trkpt lat="47.2658" lon="-2.32027">
        <ele>122.59999847412</ele>
        <time>2022-05-29T09:24:03.000Z</time>
      </trkpt>
      <trkpt lat="47.26552" lon="-2.32037">
        <ele>122</ele>
        <time>2022-05-29T09:24:08.000Z</time>
      </trkpt>
      <trkpt lat="47.26548" lon="-2.32038">
        <ele>121.59999847412</ele>
        <time>2022-05-29T09:24:09.000Z</time>
      </trkpt>
      <trkpt lat="47.26546" lon="-2.32037">
        <ele>121.19999694824</ele>
        <time>2022-05-29T09:24:10.000Z</time>
      </trkpt>
      <trkpt lat="47.26544" lon="-2.32036">
        <ele>120.59999847412</ele>
        <time>2022-05-29T09:24:11.000Z</time>
      </trkpt>
      <trkpt lat="47.26542" lon="-2.32034">
        <ele>120.19999694824</ele>
        <time>2022-05-29T09:24:12.000Z</time>
      </trkpt>
      <trkpt lat="47.26541" lon="-2.3203">
        <ele>120.19999694824</ele>
        <time>2022-05-29T09:24:13.000Z</time>
      </trkpt>
      <trkpt lat="47.26539" lon="-2.32022">
        <ele>120.19999694824</ele>
        <time>2022-05-29T09:24:15.000Z</time>
      </trkpt>
      <trkpt lat="47.26538" lon="-2.32014">
        <ele>119.80000305176</ele>
        <time>2022-05-29T09:24:17.000Z</time>
      </trkpt>
      <trkpt lat="47.26536" lon="-2.32011">
        <ele>119.19999694824</ele>
        <time>2022-05-29T09:24:18.000Z</time>
      </trkpt>
      <trkpt lat="47.26533" lon="-2.32007">
        <ele>118.80000305176</ele>
        <time>2022-05-29T09:24:19.000Z</time>
      </trkpt>
      <trkpt lat="47.2653" lon="-2.32004">
        <ele>118.40000152588</ele>
        <time>2022-05-29T09:24:20.000Z</time>
      </trkpt>
      <trkpt lat="47.26526" lon="-2.32002">
        <ele>118</ele>
        <time>2022-05-29T09:24:21.000Z</time>
      </trkpt>
      <trkpt lat="47.26516" lon="-2.32">
        <ele>118</ele>
        <time>2022-05-29T09:24:24.000Z</time>
      </trkpt>
      <trkpt lat="47.26512" lon="-2.32">
        <ele>117.59999847412</ele>
        <time>2022-05-29T09:24:25.000Z</time>
      </trkpt>
      <trkpt lat="47.26507" lon="-2.32">
        <ele>116.80000305176</ele>
        <time>2022-05-29T09:24:26.000Z</time>
      </trkpt>
      <trkpt lat="47.26501" lon="-2.32">
        <ele>116.40000152588</ele>
        <time>2022-05-29T09:24:27.000Z</time>
      </trkpt>
      <trkpt lat="47.26496" lon="-2.32">
        <ele>116</ele>
        <time>2022-05-29T09:24:28.000Z</time>
      </trkpt>
      <trkpt lat="47.26485" lon="-2.32">
        <ele>115.59999847412</ele>
        <time>2022-05-29T09:24:30.000Z</time>
      </trkpt>
      <trkpt lat="47.26479" lon="-2.32">
        <ele>115</ele>
        <time>2022-05-29T09:24:31.000Z</time>
      </trkpt>
      <trkpt lat="47.26473" lon="-2.32">
        <ele>114.59999847412</ele>
        <time>2022-05-29T09:24:32.000Z</time>
      </trkpt>
      <trkpt lat="47.26468" lon="-2.32001">
        <ele>114.19999694824</ele>
        <time>2022-05-29T09:24:33.000Z</time>
      </trkpt>
      <trkpt lat="47.26462" lon="-2.32001">
        <ele>113.59999847412</ele>
        <time>2022-05-29T09:24:34.000Z</time>
      </trkpt>
      <trkpt lat="47.26456" lon="-2.32002">
        <ele>113.59999847412</ele>
        <time>2022-05-29T09:24:35.000Z</time>
      </trkpt>
      <trkpt lat="47.26443" lon="-2.32002">
        <ele>113.19999694824</ele>
        <time>2022-05-29T09:24:37.000Z</time>
      </trkpt>
      <trkpt lat="47.26437" lon="-2.32002">
        <ele>112.80000305176</ele>
        <time>2022-05-29T09:24:38.000Z</time>
      </trkpt>
      <trkpt lat="47.26429" lon="-2.32001">
        <ele>112.19999694824</ele>
        <time>2022-05-29T09:24:39.000Z</time>
      </trkpt>
      <trkpt lat="47.26422" lon="-2.31999">
        <ele>111.80000305176</ele>
        <time>2022-05-29T09:24:40.000Z</time>
      </trkpt>
      <trkpt lat="47.26415" lon="-2.31997">
        <ele>111.40000152588</ele>
        <time>2022-05-29T09:24:41.000Z</time>
      </trkpt>
      <trkpt lat="47.26408" lon="-2.31996">
        <ele>111</ele>
        <time>2022-05-29T09:24:42.000Z</time>
      </trkpt>
      <trkpt lat="47.264" lon="-2.31994">
        <ele>110.59999847412</ele>
        <time>2022-05-29T09:24:43.000Z</time>
      </trkpt>
      <trkpt lat="47.26392" lon="-2.31994">
        <ele>110</ele>
        <time>2022-05-29T09:24:44.000Z</time>
      </trkpt>
      <trkpt lat="47.26385" lon="-2.31993">
        <ele>109.59999847412</ele>
        <time>2022-05-29T09:24:45.000Z</time>
      </trkpt>
      <trkpt lat="47.26379" lon="-2.31992">
        <ele>109.19999694824</ele>
        <time>2022-05-29T09:24:46.000Z</time>
      </trkpt>
      <trkpt lat="47.26373" lon="-2.3199">
        <ele>108.59999847412</ele>
        <time>2022-05-29T09:24:47.000Z</time>
      </trkpt>
      <trkpt lat="47.26369" lon="-2.31986">
        <ele>108.19999694824</ele>
        <time>2022-05-29T09:24:48.000Z</time>
      </trkpt>
      <trkpt lat="47.26365" lon="-2.31981">
        <ele>107.59999847412</ele>
        <time>2022-05-29T09:24:49.000Z</time>
      </trkpt>
      <trkpt lat="47.26362" lon="-2.31974">
        <ele>107</ele>
        <time>2022-05-29T09:24:50.000Z</time>
      </trkpt>
      <trkpt lat="47.26356" lon="-2.31959">
        <ele>106.59999847412</ele>
        <time>2022-05-29T09:24:52.000Z</time>
      </trkpt>
      <trkpt lat="47.26353" lon="-2.31953">
        <ele>106.19999694824</ele>
        <time>2022-05-29T09:24:53.000Z</time>
      </trkpt>
      <trkpt lat="47.2635" lon="-2.31949">
        <ele>105.80000305176</ele>
        <time>2022-05-29T09:24:54.000Z</time>
      </trkpt>
      <trkpt lat="47.26346" lon="-2.31945">
        <ele>105.40000152588</ele>
        <time>2022-05-29T09:24:55.000Z</time>
      </trkpt>
      <trkpt lat="47.26341" lon="-2.31945">
        <ele>105</ele>
        <time>2022-05-29T09:24:56.000Z</time>
      </trkpt>
      <trkpt lat="47.26334" lon="-2.31945">
        <ele>105</ele>
        <time>2022-05-29T09:24:57.000Z</time>
      </trkpt>
      <trkpt lat="47.26319" lon="-2.31943">
        <ele>105</ele>
        <time>2022-05-29T09:25:00.000Z</time>
      </trkpt>
      <trkpt lat="47.26316" lon="-2.31939">
        <ele>105</ele>
        <time>2022-05-29T09:25:01.000Z</time>
      </trkpt>
      <trkpt lat="47.26311" lon="-2.31919">
        <ele>105</ele>
        <time>2022-05-29T09:25:04.000Z</time>
      </trkpt>
      <trkpt lat="47.2631" lon="-2.31915">
        <ele>105</ele>
        <time>2022-05-29T09:25:05.000Z</time>
      </trkpt>
      <trkpt lat="47.26305" lon="-2.31901">
        <ele>105</ele>
        <time>2022-05-29T09:25:10.000Z</time>
      </trkpt>
      <trkpt lat="47.26303" lon="-2.31901">
        <ele>105</ele>
        <time>2022-05-29T09:25:11.000Z</time>
      </trkpt>
      <trkpt lat="47.2629" lon="-2.31906">
        <ele>105</ele>
        <time>2022-05-29T09:25:15.000Z</time>
      </trkpt>
      <trkpt lat="47.26278" lon="-2.31917">
        <ele>105</ele>
        <time>2022-05-29T09:25:18.000Z</time>
      </trkpt>
      <trkpt lat="47.26271" lon="-2.31925">
        <ele>105</ele>
        <time>2022-05-29T09:25:20.000Z</time>
      </trkpt>
      <trkpt lat="47.26258" lon="-2.31947">
        <ele>105</ele>
        <time>2022-05-29T09:25:24.000Z</time>
      </trkpt>
      <trkpt lat="47.26255" lon="-2.31953">
        <ele>105</ele>
        <time>2022-05-29T09:25:25.000Z</time>
      </trkpt>
      <trkpt lat="47.26252" lon="-2.3196">
        <ele>105</ele>
        <time>2022-05-29T09:25:26.000Z</time>
      </trkpt>
      <trkpt lat="47.26247" lon="-2.31972">
        <ele>105</ele>
        <time>2022-05-29T09:25:28.000Z</time>
      </trkpt>
      <trkpt lat="47.26239" lon="-2.31978">
        <ele>105</ele>
        <time>2022-05-29T09:25:30.000Z</time>
      </trkpt>
      <trkpt lat="47.26226" lon="-2.31986">
        <ele>105</ele>
        <time>2022-05-29T09:25:34.000Z</time>
      </trkpt>
      <trkpt lat="47.26209" lon="-2.32">
        <ele>105</ele>
        <time>2022-05-29T09:25:39.000Z</time>
      </trkpt>
      <trkpt lat="47.26206" lon="-2.32003">
        <ele>105</ele>
        <time>2022-05-29T09:25:40.000Z</time>
      </trkpt>
      <trkpt lat="47.26204" lon="-2.3201">
        <ele>105</ele>
        <time>2022-05-29T09:25:42.000Z</time>
      </trkpt>
      <trkpt lat="47.26202" lon="-2.32017">
        <ele>105</ele>
        <time>2022-05-29T09:25:44.000Z</time>
      </trkpt>
      <trkpt lat="47.26198" lon="-2.3202">
        <ele>105</ele>
        <time>2022-05-29T09:25:46.000Z</time>
      </trkpt>
      <trkpt lat="47.26186" lon="-2.32019">
        <ele>105</ele>
        <time>2022-05-29T09:25:51.000Z</time>
      </trkpt>
      <trkpt lat="47.26182" lon="-2.32018">
        <ele>105</ele>
        <time>2022-05-29T09:25:54.000Z</time>
      </trkpt>
      <trkpt lat="47.26178" lon="-2.3202">
        <ele>105</ele>
        <time>2022-05-29T09:29:34.000Z</time>
      </trkpt>
      <trkpt lat="47.26171" lon="-2.32025">
        <ele>105</ele>
        <time>2022-05-29T09:29:38.000Z</time>
      </trkpt>
      <trkpt lat="47.26168" lon="-2.32027">
        <ele>105</ele>
        <time>2022-05-29T09:29:39.000Z</time>
      </trkpt>
      <trkpt lat="47.26159" lon="-2.32042">
        <ele>105</ele>
        <time>2022-05-29T09:29:43.000Z</time>
      </trkpt>
      <trkpt lat="47.26148" lon="-2.32072">
        <ele>105</ele>
        <time>2022-05-29T09:29:48.000Z</time>
      </trkpt>
      <trkpt lat="47.26132" lon="-2.3212">
        <ele>105</ele>
        <time>2022-05-29T09:29:56.000Z</time>
      </trkpt>
      <trkpt lat="47.26127" lon="-2.3214">
        <ele>105</ele>
        <time>2022-05-29T09:29:59.000Z</time>
      </trkpt>
      <trkpt lat="47.2612" lon="-2.32158">
        <ele>105</ele>
        <time>2022-05-29T09:30:02.000Z</time>
      </trkpt>
      <trkpt lat="47.26103" lon="-2.32196">
        <ele>105</ele>
        <time>2022-05-29T09:30:08.000Z</time>
      </trkpt>
      <trkpt lat="47.26078" lon="-2.32237">
        <ele>105</ele>
        <time>2022-05-29T09:30:15.000Z</time>
      </trkpt>
      <trkpt lat="47.26064" lon="-2.32254">
        <ele>105</ele>
        <time>2022-05-29T09:30:18.000Z</time>
      </trkpt>
      <trkpt lat="47.2605" lon="-2.3227">
        <ele>105</ele>
        <time>2022-05-29T09:30:21.000Z</time>
      </trkpt>
      <trkpt lat="47.26014" lon="-2.32311">
        <ele>105</ele>
        <time>2022-05-29T09:30:29.000Z</time>
      </trkpt>
      <trkpt lat="47.25989" lon="-2.32345">
        <ele>105</ele>
        <time>2022-05-29T09:30:35.000Z</time>
      </trkpt>
      <trkpt lat="47.25959" lon="-2.32383">
        <ele>105</ele>
        <time>2022-05-29T09:30:42.000Z</time>
      </trkpt>
      <trkpt lat="47.2593" lon="-2.32421">
        <ele>105</ele>
        <time>2022-05-29T09:30:49.000Z</time>
      </trkpt>
      <trkpt lat="47.25903" lon="-2.32459">
        <ele>105</ele>
        <time>2022-05-29T09:30:56.000Z</time>
      </trkpt>
      <trkpt lat="47.25895" lon="-2.32467">
        <ele>105</ele>
        <time>2022-05-29T09:30:58.000Z</time>
      </trkpt>
      <trkpt lat="47.25882" lon="-2.32474">
        <ele>105</ele>
        <time>2022-05-29T09:31:01.000Z</time>
      </trkpt>
      <trkpt lat="47.25877" lon="-2.32475">
        <ele>105</ele>
        <time>2022-05-29T09:31:02.000Z</time>
      </trkpt>
      <trkpt lat="47.25855" lon="-2.32477">
        <ele>105</ele>
        <time>2022-05-29T09:31:06.000Z</time>
      </trkpt>
      <trkpt lat="47.2582" lon="-2.32467">
        <ele>105</ele>
        <time>2022-05-29T09:31:13.000Z</time>
      </trkpt>
      <trkpt lat="47.25808" lon="-2.32461">
        <ele>105</ele>
        <time>2022-05-29T09:31:16.000Z</time>
      </trkpt>
      <trkpt lat="47.25797" lon="-2.3246">
        <ele>105</ele>
        <time>2022-05-29T09:31:19.000Z</time>
      </trkpt>
      <trkpt lat="47.25793" lon="-2.3246">
        <ele>105</ele>
        <time>2022-05-29T09:31:20.000Z</time>
      </trkpt>
      <trkpt lat="47.25781" lon="-2.32457">
        <ele>105</ele>
        <time>2022-05-29T09:31:23.000Z</time>
      </trkpt>
      <trkpt lat="47.25778" lon="-2.32453">
        <ele>105</ele>
        <time>2022-05-29T09:31:24.000Z</time>
      </trkpt>
      <trkpt lat="47.2577" lon="-2.32437">
        <ele>105</ele>
        <time>2022-05-29T09:31:27.000Z</time>
      </trkpt>
      <trkpt lat="47.25767" lon="-2.32433">
        <ele>105</ele>
        <time>2022-05-29T09:31:28.000Z</time>
      </trkpt>
      <trkpt lat="47.25752" lon="-2.32428">
        <ele>105</ele>
        <time>2022-05-29T09:31:31.000Z</time>
      </trkpt>
      <trkpt lat="47.25747" lon="-2.32428">
        <ele>105</ele>
        <time>2022-05-29T09:31:32.000Z</time>
      </trkpt>
      <trkpt lat="47.25714" lon="-2.32427">
        <ele>105</ele>
        <time>2022-05-29T09:31:38.000Z</time>
      </trkpt>
      <trkpt lat="47.2568" lon="-2.32423">
        <ele>105</ele>
        <time>2022-05-29T09:31:45.000Z</time>
      </trkpt>
      <trkpt lat="47.25666" lon="-2.32423">
        <ele>105</ele>
        <time>2022-05-29T09:31:48.000Z</time>
      </trkpt>
      <trkpt lat="47.25659" lon="-2.32432">
        <ele>105</ele>
        <time>2022-05-29T09:31:50.000Z</time>
      </trkpt>
      <trkpt lat="47.25661" lon="-2.32447">
        <ele>105</ele>
        <time>2022-05-29T09:31:52.000Z</time>
      </trkpt>
      <trkpt lat="47.25667" lon="-2.32471">
        <ele>105</ele>
        <time>2022-05-29T09:31:55.000Z</time>
      </trkpt>
      <trkpt lat="47.25672" lon="-2.32486">
        <ele>105</ele>
        <time>2022-05-29T09:31:57.000Z</time>
      </trkpt>
      <trkpt lat="47.25676" lon="-2.32501">
        <ele>105.40000152588</ele>
        <time>2022-05-29T09:31:59.000Z</time>
      </trkpt>
      <trkpt lat="47.25679" lon="-2.32508">
        <ele>105.80000305176</ele>
        <time>2022-05-29T09:32:00.000Z</time>
      </trkpt>
      <trkpt lat="47.25681" lon="-2.32515">
        <ele>106.40000152588</ele>
        <time>2022-05-29T09:32:01.000Z</time>
      </trkpt>
      <trkpt lat="47.25684" lon="-2.32522">
        <ele>106.80000305176</ele>
        <time>2022-05-29T09:32:02.000Z</time>
      </trkpt>
      <trkpt lat="47.25686" lon="-2.3253">
        <ele>107.19999694824</ele>
        <time>2022-05-29T09:32:03.000Z</time>
      </trkpt>
      <trkpt lat="47.25691" lon="-2.32544">
        <ele>107.19999694824</ele>
        <time>2022-05-29T09:32:05.000Z</time>
      </trkpt>
      <trkpt lat="47.25696" lon="-2.32565">
        <ele>107.19999694824</ele>
        <time>2022-05-29T09:32:08.000Z</time>
      </trkpt>
      <trkpt lat="47.25702" lon="-2.32584">
        <ele>107.59999847412</ele>
        <time>2022-05-29T09:32:11.000Z</time>
      </trkpt>
      <trkpt lat="47.25703" lon="-2.32591">
        <ele>108</ele>
        <time>2022-05-29T09:32:12.000Z</time>
      </trkpt>
      <trkpt lat="47.25705" lon="-2.32597">
        <ele>108.40000152588</ele>
        <time>2022-05-29T09:32:13.000Z</time>
      </trkpt>
      <trkpt lat="47.25706" lon="-2.32604">
        <ele>108.80000305176</ele>
        <time>2022-05-29T09:32:14.000Z</time>
      </trkpt>
      <trkpt lat="47.25707" lon="-2.32611">
        <ele>109.19999694824</ele>
        <time>2022-05-29T09:32:15.000Z</time>
      </trkpt>
      <trkpt lat="47.25704" lon="-2.32623">
        <ele>109.19999694824</ele>
        <time>2022-05-29T09:32:17.000Z</time>
      </trkpt>
      <trkpt lat="47.25691" lon="-2.32632">
        <ele>109.19999694824</ele>
        <time>2022-05-29T09:32:20.000Z</time>
      </trkpt>
      <trkpt lat="47.25686" lon="-2.32634">
        <ele>109.19999694824</ele>
        <time>2022-05-29T09:32:21.000Z</time>
      </trkpt>
      <trkpt lat="47.25672" lon="-2.3264">
        <ele>109.59999847412</ele>
        <time>2022-05-29T09:32:24.000Z</time>
      </trkpt>
      <trkpt lat="47.25667" lon="-2.32642">
        <ele>110</ele>
        <time>2022-05-29T09:32:25.000Z</time>
      </trkpt>
      <trkpt lat="47.25662" lon="-2.32644">
        <ele>110.59999847412</ele>
        <time>2022-05-29T09:32:26.000Z</time>
      </trkpt>
      <trkpt lat="47.25657" lon="-2.32647">
        <ele>111</ele>
        <time>2022-05-29T09:32:27.000Z</time>
      </trkpt>
      <trkpt lat="47.25652" lon="-2.3265">
        <ele>111.40000152588</ele>
        <time>2022-05-29T09:32:28.000Z</time>
      </trkpt>
      <trkpt lat="47.25628" lon="-2.32661">
        <ele>111.40000152588</ele>
        <time>2022-05-29T09:32:33.000Z</time>
      </trkpt>
      <trkpt lat="47.25623" lon="-2.32663">
        <ele>111.40000152588</ele>
        <time>2022-05-29T09:32:34.000Z</time>
      </trkpt>
      <trkpt lat="47.25609" lon="-2.32669">
        <ele>111.40000152588</ele>
        <time>2022-05-29T09:32:37.000Z</time>
      </trkpt>
      <trkpt lat="47.25603" lon="-2.32681">
        <ele>111.40000152588</ele>
        <time>2022-05-29T09:32:39.000Z</time>
      </trkpt>
      <trkpt lat="47.25601" lon="-2.32696">
        <ele>111.80000305176</ele>
        <time>2022-05-29T09:32:41.000Z</time>
      </trkpt>
      <trkpt lat="47.256" lon="-2.32704">
        <ele>112.59999847412</ele>
        <time>2022-05-29T09:32:42.000Z</time>
      </trkpt>
      <trkpt lat="47.256" lon="-2.32711">
        <ele>113.19999694824</ele>
        <time>2022-05-29T09:32:43.000Z</time>
      </trkpt>
      <trkpt lat="47.256" lon="-2.32719">
        <ele>113.59999847412</ele>
        <time>2022-05-29T09:32:44.000Z</time>
      </trkpt>
      <trkpt lat="47.25598" lon="-2.32765">
        <ele>113.59999847412</ele>
        <time>2022-05-29T09:32:50.000Z</time>
      </trkpt>
      <trkpt lat="47.2559" lon="-2.32822">
        <ele>113.59999847412</ele>
        <time>2022-05-29T09:32:57.000Z</time>
      </trkpt>
      <trkpt lat="47.25589" lon="-2.32838">
        <ele>113.59999847412</ele>
        <time>2022-05-29T09:32:59.000Z</time>
      </trkpt>
      <trkpt lat="47.25591" lon="-2.32854">
        <ele>113.59999847412</ele>
        <time>2022-05-29T09:33:01.000Z</time>
      </trkpt>
      <trkpt lat="47.25595" lon="-2.32877">
        <ele>113.59999847412</ele>
        <time>2022-05-29T09:33:04.000Z</time>
      </trkpt>
      <trkpt lat="47.25598" lon="-2.329">
        <ele>113.59999847412</ele>
        <time>2022-05-29T09:33:07.000Z</time>
      </trkpt>
      <trkpt lat="47.25603" lon="-2.32936">
        <ele>113.59999847412</ele>
        <time>2022-05-29T09:33:12.000Z</time>
      </trkpt>
      <trkpt lat="47.25605" lon="-2.32951">
        <ele>113.59999847412</ele>
        <time>2022-05-29T09:33:14.000Z</time>
      </trkpt>
      <trkpt lat="47.25614" lon="-2.33">
        <ele>113.19999694824</ele>
        <time>2022-05-29T09:33:20.000Z</time>
      </trkpt>
      <trkpt lat="47.25616" lon="-2.33008">
        <ele>112.80000305176</ele>
        <time>2022-05-29T09:33:21.000Z</time>
      </trkpt>
      <trkpt lat="47.25618" lon="-2.33016">
        <ele>112.40000152588</ele>
        <time>2022-05-29T09:33:22.000Z</time>
      </trkpt>
      <trkpt lat="47.2562" lon="-2.33023">
        <ele>112</ele>
        <time>2022-05-29T09:33:23.000Z</time>
      </trkpt>
      <trkpt lat="47.25619" lon="-2.3303">
        <ele>111.59999847412</ele>
        <time>2022-05-29T09:33:24.000Z</time>
      </trkpt>
      <trkpt lat="47.25616" lon="-2.33033">
        <ele>111.59999847412</ele>
        <time>2022-05-29T09:33:25.000Z</time>
      </trkpt>
      <trkpt lat="47.25607" lon="-2.33035">
        <ele>111.59999847412</ele>
        <time>2022-05-29T09:33:27.000Z</time>
      </trkpt>
      <trkpt lat="47.25572" lon="-2.3304">
        <ele>111.59999847412</ele>
        <time>2022-05-29T09:33:33.000Z</time>
      </trkpt>
      <trkpt lat="47.25536" lon="-2.33048">
        <ele>111.59999847412</ele>
        <time>2022-05-29T09:33:39.000Z</time>
      </trkpt>
      <trkpt lat="47.2553" lon="-2.33049">
        <ele>111.19999694824</ele>
        <time>2022-05-29T09:33:40.000Z</time>
      </trkpt>
      <trkpt lat="47.25523" lon="-2.33051">
        <ele>110.59999847412</ele>
        <time>2022-05-29T09:33:41.000Z</time>
      </trkpt>
      <trkpt lat="47.25516" lon="-2.33054">
        <ele>110.19999694824</ele>
        <time>2022-05-29T09:33:42.000Z</time>
      </trkpt>
      <trkpt lat="47.2551" lon="-2.33058">
        <ele>109.80000305176</ele>
        <time>2022-05-29T09:33:43.000Z</time>
      </trkpt>
      <trkpt lat="47.25506" lon="-2.33063">
        <ele>109.40000152588</ele>
        <time>2022-05-29T09:33:44.000Z</time>
      </trkpt>
      <trkpt lat="47.25495" lon="-2.33084">
        <ele>109.40000152588</ele>
        <time>2022-05-29T09:33:48.000Z</time>
      </trkpt>
      <trkpt lat="47.25485" lon="-2.33096">
        <ele>109.40000152588</ele>
        <time>2022-05-29T09:33:52.000Z</time>
      </trkpt>
      <trkpt lat="47.25481" lon="-2.33097">
        <ele>109.40000152588</ele>
        <time>2022-05-29T09:33:53.000Z</time>
      </trkpt>
      <trkpt lat="47.25472" lon="-2.33101">
        <ele>109.40000152588</ele>
        <time>2022-05-29T09:33:55.000Z</time>
      </trkpt>
      <trkpt lat="47.25462" lon="-2.33105">
        <ele>109.40000152588</ele>
        <time>2022-05-29T09:33:57.000Z</time>
      </trkpt>
      <trkpt lat="47.25429" lon="-2.3312">
        <ele>109.40000152588</ele>
        <time>2022-05-29T09:34:04.000Z</time>
      </trkpt>
      <trkpt lat="47.25392" lon="-2.33137">
        <ele>109.40000152588</ele>
        <time>2022-05-29T09:34:12.000Z</time>
      </trkpt>
      <trkpt lat="47.25384" lon="-2.33142">
        <ele>109.40000152588</ele>
        <time>2022-05-29T09:34:14.000Z</time>
      </trkpt>
      <trkpt lat="47.25376" lon="-2.3314">
        <ele>109.40000152588</ele>
        <time>2022-05-29T09:34:16.000Z</time>
      </trkpt>
      <trkpt lat="47.25371" lon="-2.33128">
        <ele>109.40000152588</ele>
        <time>2022-05-29T09:34:19.000Z</time>
      </trkpt>
      <trkpt lat="47.25371" lon="-2.33124">
        <ele>109.40000152588</ele>
        <time>2022-05-29T09:34:20.000Z</time>
      </trkpt>
      <trkpt lat="47.25368" lon="-2.33117">
        <ele>109.40000152588</ele>
        <time>2022-05-29T09:34:24.000Z</time>
      </trkpt>
      <trkpt lat="47.25369" lon="-2.33117">
        <ele>109.40000152588</ele>
        <time>2022-05-29T09:34:27.000Z</time>
      </trkpt>
    </trkseg>
  </trk>
</gpx>